GFSSW_prec_precacc_021.txt.gz
Total_Precipitation_Accumulation
0.01 0.01 0.01 0.01 0.01 0.01 0.01 0.01 0.01 0.01 0.01 0.01 0.01 0.01 0.01 0.01 0.00 0.00 0.00 0.00 0.00 0.00 0.00 0.00 0.00 0.00 0.00 0.00 0.00 0.00 0.00 0.00 0.00 0.03 0.10 0.24 0.18 0.02 0.02 0.03 0.04 0.09 0.30 0.43 0.33
0.01 0.01 0.01 0.01 0.01 0.01 0.01 0.01 0.01 0.01 0.01 0.01 0.01 0.01 0.01 0.01 0.00 0.00 0.00 0.00 0.00 0.00 0.00 0.00 0.00 0.00 0.00 0.00 0.00 0.00 0.00 0.00 0.01 0.02 0.10 0.16 0.16 0.06 0.03 0.05 0.07 0.18 0.55 0.76 0.62
0.01 0.01 0.01 0.01 0.01 0.01 0.01 0.01 0.01 0.01 0.01 0.01 0.01 0.01 0.01 0.00 0.00 0.00 0.00 0.00 0.00 0.00 0.00 0.00 0.00 0.00 0.00 0.00 0.00 0.00 0.00 0.00 0.02 0.10 0.02 0.01 0.04 0.05 0.05 0.06 0.25 0.47 0.36 0.36 0.36
0.01 0.01 0.01 0.01 0.01 0.01 0.01 0.01 0.01 0.01 0.01 0.01 0.01 0.01 0.01 0.00 0.00 0.00 0.00 0.00 0.00 0.00 0.00 0.00 0.00 0.00 0.00 0.00 0.00 0.00 0.00 0.00 0.01 0.05 0.00 0.03 0.03 0.02 0.12 0.29 0.26 0.28 0.15 0.12 0.24
0.01 0.01 0.01 0.01 0.01 0.01 0.01 0.01 0.01 0.01 0.01 0.01 0.01 0.01 0.00 0.00 0.00 0.00 0.00 0.00 0.00 0.00 0.00 0.00 0.00 0.00 0.00 0.00 0.00 0.00 0.00 0.00 0.00 0.00 0.00 0.00 0.01 0.00 0.00 0.00 0.02 0.05 0.12 0.11 0.15
0.01 0.01 0.01 0.01 0.01 0.01 0.01 0.01 0.01 0.01 0.01 0.01 0.01 0.01 0.00 0.00 0.00 0.00 0.00 0.00 0.00 0.00 0.00 0.00 0.00 0.00 0.00 0.00 0.00 0.00 0.00 0.00 0.00 0.00 0.00 0.02 0.01 0.02 0.00 0.02 0.00 0.04 0.15 0.08 0.13
0.01 0.01 0.01 0.01 0.01 0.01 0.01 0.01 0.01 0.01 0.01 0.01 0.01 0.00 0.00 0.00 0.00 0.00 0.00 0.00 0.00 0.00 0.00 0.00 0.00 0.00 0.00 0.00 0.00 0.00 0.00 0.00 0.00 0.00 0.01 0.01 0.02 0.04 0.00 0.00 0.00 0.03 0.06 0.09 0.06
0.01 0.01 0.01 0.01 0.01 0.01 0.01 0.01 0.01 0.01 0.01 0.01 0.01 0.00 0.00 0.00 0.00 0.00 0.00 0.00 0.00 0.00 0.00 0.00 0.00 0.00 0.00 0.00 0.00 0.00 0.00 0.00 0.00 0.00 0.00 0.00 0.02 0.02 0.01 0.00 0.00 0.01 0.03 0.05 0.00
0.01 0.01 0.01 0.01 0.01 0.01 0.01 0.01 0.01 0.01 0.01 0.01 0.00 0.00 0.00 0.00 0.00 0.00 0.00 0.00 0.00 0.00 0.00 0.00 0.00 0.00 0.00 0.00 0.00 0.00 0.00 0.00 0.00 0.00 0.00 0.00 0.03 0.03 0.01 0.02 0.00 0.00 0.00 0.00 0.00
0.01 0.01 0.01 0.01 0.02 0.01 0.01 0.01 0.01 0.01 0.01 0.00 0.00 0.00 0.00 0.00 0.00 0.00 0.00 0.00 0.00 0.00 0.00 0.00 0.00 0.00 0.00 0.00 0.00 0.00 0.00 0.00 0.00 0.00 0.00 0.00 0.00 0.00 0.01 0.05 0.27 0.04 0.02 0.00 0.00
0.01 0.01 0.01 0.02 0.02 0.01 0.00 0.00 0.00 0.00 0.00 0.00 0.00 0.00 0.00 0.00 0.00 0.00 0.00 0.00 0.00 0.00 0.00 0.00 0.00 0.00 0.00 0.00 0.00 0.00 0.00 0.00 0.00 0.00 0.00 0.00 0.00 0.00 0.01 0.03 0.05 0.04 0.14 0.05 0.01
0.01 0.01 0.01 0.02 0.02 0.01 0.00 0.00 0.00 0.00 0.00 0.00 0.00 0.00 0.00 0.00 0.00 0.00 0.00 0.00 0.00 0.00 0.00 0.00 0.00 0.00 0.00 0.00 0.00 0.00 0.00 0.00 0.00 0.00 0.00 0.00 0.00 0.00 0.03 0.01 0.01 0.01 0.14 0.03 0.01
0.01 0.01 0.02 0.02 0.02 0.00 0.00 0.00 0.00 0.00 0.00 0.00 0.00 0.00 0.00 0.00 0.00 0.00 0.00 0.00 0.00 0.00 0.00 0.00 0.00 0.00 0.00 0.00 0.00 0.00 0.00 0.00 0.00 0.00 0.00 0.00 0.00 0.02 0.01 0.01 0.02 0.01 0.00 0.00 0.00
0.01 0.01 0.03 0.01 0.00 0.00 0.00 0.00 0.00 0.00 0.00 0.00 0.00 0.00 0.00 0.00 0.00 0.00 0.00 0.00 0.00 0.00 0.00 0.00 0.00 0.00 0.00 0.00 0.00 0.00 0.00 0.00 0.00 0.00 0.00 0.00 0.01 0.09 0.02 0.00 0.01 0.01 0.00 0.00 0.00
0.02 0.02 0.03 0.00 0.00 0.00 0.00 0.00 0.00 0.01 0.01 0.00 0.00 0.00 0.00 0.00 0.00 0.00 0.00 0.00 0.00 0.00 0.00 0.00 0.00 0.00 0.00 0.00 0.00 0.01 0.00 0.00 0.00 0.00 0.01 0.01 0.00 0.08 0.01 0.00 0.00 0.00 0.00 0.00 0.01
0.02 0.03 0.05 0.01 0.00 0.00 0.00 0.01 0.03 0.02 0.00 0.00 0.00 0.00 0.00 0.00 0.00 0.00 0.00 0.00 0.00 0.00 0.00 0.00 0.00 0.00 0.00 0.00 0.00 0.00 0.00 0.00 0.00 0.00 0.01 0.02 0.02 0.04 0.01 0.00 0.01 0.01 0.00 0.00 0.00
0.04 0.05 0.05 0.00 0.00 0.00 0.01 0.07 0.05 0.00 0.00 0.00 0.00 0.00 0.00 0.00 0.00 0.00 0.00 0.00 0.00 0.00 0.00 0.00 0.00 0.00 0.00 0.00 0.00 0.00 0.00 0.00 0.01 0.00 0.00 0.00 0.01 0.02 0.02 0.05 0.12 0.10 0.00 0.00 0.00
0.05 0.07 0.04 0.00 0.01 0.00 0.03 0.11 0.02 0.00 0.00 0.00 0.00 0.00 0.00 0.00 0.00 0.00 0.00 0.00 0.00 0.00 0.00 0.00 0.00 0.00 0.00 0.00 0.00 0.00 0.00 0.00 0.05 0.04 0.01 0.01 0.01 0.00 0.00 0.00 0.00 0.00 0.00 0.00 0.00
0.10 0.09 0.07 0.01 0.00 0.00 0.05 0.06 0.00 0.00 0.00 0.00 0.00 0.00 0.00 0.00 0.00 0.00 0.00 0.00 0.00 0.00 0.00 0.02 0.00 0.00 0.00 0.00 0.00 0.00 0.00 0.00 0.01 0.01 0.01 0.00 0.00 0.00 0.00 0.00 0.00 0.00 0.00 0.00 0.01
0.08 0.09 0.04 0.00 0.00 0.01 0.07 0.01 0.00 0.00 0.00 0.00 0.00 0.00 0.00 0.00 0.00 0.00 0.00 0.00 0.00 0.00 0.00 0.04 0.07 0.01 0.00 0.00 0.00 0.00 0.00 0.00 0.00 0.00 0.00 0.00 0.00 0.00 0.01 0.00 0.00 0.00 0.00 0.00 0.00
0.10 0.08 0.01 0.00 0.03 0.03 0.04 0.00 0.00 0.00 0.00 0.00 0.00 0.00 0.00 0.00 0.00 0.00 0.00 0.00 0.00 0.00 0.00 0.00 0.03 0.04 0.00 0.00 0.00 0.00 0.00 0.00 0.00 0.00 0.00 0.00 0.00 0.00 0.00 0.00 0.00 0.00 0.00 0.00 0.00
0.13 0.07 0.02 0.02 0.08 0.02 0.01 0.00 0.00 0.00 0.00 0.00 0.00 0.00 0.00 0.00 0.00 0.00 0.00 0.00 0.00 0.00 0.00 0.00 0.00 0.00 0.00 0.00 0.00 0.00 0.00 0.00 0.00 0.00 0.00 0.00 0.00 0.00 0.00 0.00 0.00 0.00 0.00 0.00 0.00
0.15 0.20 0.16 0.03 0.03 0.01 0.00 0.00 0.00 0.00 0.00 0.00 0.00 0.00 0.00 0.00 0.00 0.00 0.00 0.00 0.00 0.01 0.00 0.00 0.00 0.00 0.00 0.00 0.00 0.00 0.00 0.00 0.00 0.00 0.00 0.00 0.00 0.00 0.00 0.00 0.00 0.00 0.00 0.00 0.00
0.15 0.27 0.44 0.15 0.00 0.00 0.00 0.00 0.00 0.00 0.00 0.00 0.00 0.00 0.00 0.00 0.00 0.00 0.00 0.00 0.00 0.01 0.01 0.01 0.00 0.00 0.00 0.00 0.00 0.00 0.00 0.00 0.00 0.00 0.00 0.00 0.00 0.00 0.00 0.00 0.00 0.00 0.00 0.00 0.00
0.22 0.05 0.09 0.07 0.01 0.00 0.00 0.00 0.00 0.00 0.00 0.00 0.00 0.00 0.00 0.00 0.00 0.00 0.00 0.00 0.00 0.00 0.00 0.01 0.00 0.00 0.00 0.00 0.00 0.00 0.00 0.00 0.00 0.00 0.00 0.00 0.00 0.00 0.00 0.00 0.00 0.00 0.00 0.00 0.00
0.23 0.03 0.03 0.01 0.00 0.00 0.00 0.00 0.00 0.00 0.00 0.00 0.00 0.00 0.00 0.00 0.00 0.00 0.00 0.00 0.00 0.00 0.00 0.00 0.00 0.00 0.00 0.00 0.00 0.00 0.00 0.00 0.00 0.00 0.00 0.00 0.00 0.00 0.00 0.00 0.00 0.00 0.00 0.00 0.00
0.15 0.01 0.06 0.03 0.00 0.01 0.00 0.00 0.00 0.00 0.00 0.00 0.00 0.00 0.00 0.00 0.00 0.00 0.00 0.00 0.00 0.00 0.00 0.00 0.00 0.00 0.00 0.00 0.00 0.00 0.00 0.00 0.00 0.00 0.00 0.00 0.00 0.00 0.00 0.00 0.00 0.00 0.00 0.00 0.00

GFSSW_prec_precacc_024.txt.gz
Total_Precipitation_Accumulation
0.01 0.01 0.01 0.01 0.01 0.01 0.01 0.01 0.01 0.01 0.01 0.01 0.01 0.01 0.01 0.01 0.00 0.00 0.00 0.00 0.00 0.00 0.00 0.00 0.00 0.00 0.00 0.00 0.00 0.00 0.00 0.00 0.00 0.03 0.10 0.24 0.18 0.02 0.02 0.03 0.04 0.10 0.31 0.45 0.35
0.01 0.01 0.01 0.01 0.01 0.01 0.01 0.01 0.01 0.01 0.01 0.01 0.01 0.01 0.01 0.01 0.00 0.00 0.00 0.00 0.00 0.00 0.00 0.00 0.00 0.00 0.00 0.00 0.00 0.00 0.00 0.00 0.01 0.02 0.10 0.16 0.16 0.06 0.03 0.05 0.12 0.22 0.57 0.78 0.64
0.01 0.01 0.01 0.01 0.01 0.01 0.01 0.01 0.01 0.01 0.01 0.01 0.01 0.01 0.01 0.00 0.00 0.00 0.00 0.00 0.00 0.00 0.00 0.00 0.00 0.00 0.00 0.00 0.00 0.00 0.00 0.00 0.02 0.10 0.02 0.01 0.04 0.05 0.05 0.07 0.28 0.49 0.39 0.40 0.38
0.01 0.01 0.01 0.01 0.01 0.01 0.01 0.01 0.01 0.01 0.01 0.01 0.01 0.01 0.01 0.00 0.00 0.00 0.00 0.00 0.00 0.00 0.00 0.00 0.00 0.00 0.00 0.00 0.00 0.00 0.00 0.00 0.01 0.05 0.01 0.03 0.03 0.02 0.12 0.31 0.26 0.30 0.17 0.14 0.27
0.01 0.01 0.01 0.01 0.01 0.01 0.01 0.01 0.01 0.01 0.01 0.01 0.01 0.01 0.00 0.00 0.00 0.00 0.00 0.00 0.00 0.00 0.00 0.00 0.00 0.00 0.00 0.00 0.00 0.00 0.00 0.00 0.00 0.00 0.00 0.01 0.01 0.00 0.00 0.00 0.03 0.06 0.13 0.11 0.17
0.01 0.01 0.01 0.01 0.01 0.01 0.01 0.01 0.01 0.01 0.01 0.01 0.01 0.01 0.00 0.00 0.00 0.00 0.00 0.00 0.00 0.00 0.00 0.00 0.00 0.00 0.00 0.00 0.00 0.00 0.00 0.00 0.00 0.00 0.01 0.02 0.01 0.02 0.00 0.02 0.00 0.04 0.15 0.08 0.13
0.01 0.01 0.01 0.01 0.01 0.01 0.01 0.01 0.01 0.01 0.01 0.01 0.01 0.00 0.00 0.00 0.00 0.00 0.00 0.00 0.00 0.00 0.00 0.00 0.00 0.00 0.00 0.00 0.00 0.00 0.00 0.00 0.00 0.00 0.02 0.02 0.02 0.04 0.00 0.00 0.00 0.03 0.07 0.09 0.06
0.01 0.01 0.01 0.01 0.01 0.01 0.01 0.01 0.01 0.01 0.01 0.01 0.01 0.00 0.00 0.00 0.00 0.00 0.00 0.00 0.00 0.00 0.00 0.00 0.00 0.00 0.00 0.00 0.00 0.00 0.00 0.00 0.00 0.00 0.00 0.00 0.02 0.02 0.01 0.00 0.02 0.02 0.07 0.05 0.00
0.01 0.01 0.01 0.01 0.01 0.01 0.01 0.01 0.01 0.01 0.01 0.01 0.00 0.00 0.00 0.00 0.00 0.00 0.00 0.00 0.00 0.00 0.00 0.00 0.00 0.00 0.00 0.00 0.00 0.00 0.00 0.00 0.00 0.00 0.00 0.00 0.03 0.03 0.02 0.02 0.04 0.04 0.01 0.00 0.00
0.01 0.01 0.01 0.02 0.02 0.01 0.01 0.01 0.01 0.01 0.01 0.00 0.00 0.00 0.00 0.00 0.00 0.00 0.00 0.00 0.00 0.00 0.00 0.00 0.00 0.00 0.00 0.00 0.00 0.00 0.00 0.00 0.00 0.00 0.00 0.00 0.00 0.00 0.01 0.05 0.28 0.05 0.02 0.00 0.00
0.01 0.01 0.01 0.02 0.03 0.01 0.00 0.00 0.00 0.00 0.00 0.00 0.00 0.00 0.00 0.00 0.00 0.00 0.00 0.00 0.00 0.00 0.00 0.00 0.00 0.00 0.00 0.00 0.00 0.00 0.00 0.00 0.00 0.00 0.00 0.00 0.00 0.00 0.01 0.03 0.05 0.04 0.14 0.05 0.01
0.01 0.01 0.01 0.03 0.04 0.01 0.00 0.00 0.00 0.00 0.00 0.00 0.00 0.00 0.00 0.00 0.00 0.00 0.00 0.00 0.00 0.00 0.00 0.00 0.00 0.00 0.00 0.00 0.00 0.00 0.00 0.00 0.00 0.00 0.00 0.00 0.00 0.01 0.03 0.01 0.01 0.01 0.14 0.03 0.01
0.01 0.01 0.02 0.05 0.04 0.00 0.00 0.00 0.00 0.00 0.00 0.00 0.00 0.00 0.00 0.00 0.00 0.00 0.00 0.00 0.00 0.00 0.00 0.00 0.00 0.00 0.00 0.00 0.00 0.00 0.00 0.00 0.00 0.00 0.00 0.00 0.00 0.02 0.01 0.01 0.02 0.01 0.00 0.00 0.00
0.01 0.01 0.03 0.05 0.01 0.00 0.00 0.00 0.00 0.00 0.00 0.00 0.00 0.00 0.00 0.00 0.00 0.00 0.00 0.00 0.00 0.00 0.00 0.00 0.00 0.00 0.00 0.00 0.00 0.00 0.00 0.00 0.00 0.00 0.00 0.00 0.01 0.09 0.02 0.00 0.01 0.01 0.00 0.00 0.00
0.02 0.02 0.04 0.03 0.00 0.00 0.00 0.00 0.00 0.01 0.01 0.00 0.00 0.00 0.00 0.00 0.00 0.00 0.00 0.00 0.00 0.00 0.00 0.00 0.00 0.00 0.00 0.00 0.00 0.01 0.00 0.00 0.00 0.00 0.01 0.01 0.00 0.08 0.01 0.00 0.00 0.00 0.00 0.00 0.01
0.03 0.04 0.07 0.03 0.00 0.00 0.00 0.01 0.03 0.02 0.00 0.00 0.00 0.00 0.00 0.00 0.00 0.00 0.00 0.00 0.00 0.00 0.00 0.00 0.00 0.00 0.00 0.00 0.00 0.00 0.00 0.00 0.00 0.00 0.01 0.02 0.02 0.04 0.01 0.00 0.01 0.01 0.00 0.00 0.00
0.04 0.05 0.06 0.01 0.00 0.00 0.01 0.08 0.07 0.01 0.00 0.00 0.00 0.00 0.00 0.00 0.00 0.00 0.00 0.00 0.00 0.00 0.00 0.00 0.00 0.00 0.00 0.00 0.00 0.00 0.00 0.00 0.01 0.00 0.00 0.00 0.01 0.02 0.02 0.05 0.12 0.10 0.00 0.00 0.00
0.05 0.07 0.05 0.01 0.01 0.00 0.03 0.14 0.03 0.00 0.00 0.00 0.00 0.00 0.00 0.00 0.00 0.00 0.00 0.00 0.00 0.00 0.00 0.00 0.00 0.00 0.00 0.00 0.00 0.00 0.00 0.00 0.05 0.04 0.01 0.01 0.01 0.00 0.00 0.00 0.00 0.00 0.00 0.00 0.00
0.10 0.09 0.08 0.01 0.00 0.00 0.06 0.07 0.00 0.00 0.00 0.00 0.00 0.00 0.00 0.00 0.00 0.00 0.00 0.00 0.00 0.00 0.00 0.02 0.00 0.00 0.00 0.00 0.00 0.00 0.00 0.00 0.01 0.01 0.01 0.00 0.00 0.00 0.00 0.00 0.00 0.00 0.00 0.00 0.01
0.09 0.11 0.05 0.01 0.00 0.01 0.08 0.01 0.00 0.00 0.00 0.00 0.00 0.00 0.00 0.00 0.00 0.00 0.00 0.00 0.00 0.00 0.00 0.04 0.07 0.01 0.00 0.00 0.00 0.00 0.00 0.00 0.00 0.00 0.00 0.00 0.00 0.00 0.01 0.00 0.00 0.00 0.00 0.00 0.00
0.14 0.09 0.02 0.01 0.06 0.08 0.04 0.00 0.00 0.00 0.00 0.00 0.00 0.00 0.00 0.00 0.00 0.00 0.00 0.00 0.00 0.00 0.00 0.00 0.03 0.04 0.00 0.00 0.00 0.00 0.00 0.00 0.00 0.00 0.00 0.00 0.00 0.00 0.00 0.00 0.00 0.00 0.00 0.00 0.00
0.17 0.07 0.03 0.02 0.13 0.04 0.01 0.00 0.00 0.00 0.00 0.00 0.00 0.00 0.00 0.00 0.00 0.00 0.00 0.00 0.00 0.00 0.00 0.00 0.00 0.00 0.00 0.00 0.00 0.00 0.00 0.00 0.00 0.00 0.00 0.00 0.00 0.00 0.00 0.00 0.00 0.00 0.00 0.00 0.00
0.21 0.22 0.23 0.04 0.04 0.02 0.00 0.00 0.00 0.00 0.00 0.00 0.00 0.00 0.00 0.00 0.00 0.00 0.00 0.00 0.00 0.01 0.00 0.00 0.00 0.00 0.00 0.00 0.00 0.00 0.00 0.00 0.00 0.00 0.00 0.00 0.00 0.00 0.00 0.00 0.00 0.00 0.00 0.00 0.00
0.21 0.30 0.54 0.21 0.00 0.00 0.00 0.00 0.00 0.00 0.00 0.00 0.00 0.00 0.00 0.00 0.00 0.00 0.00 0.00 0.00 0.01 0.01 0.01 0.00 0.00 0.00 0.00 0.00 0.00 0.00 0.00 0.00 0.00 0.00 0.00 0.00 0.00 0.00 0.00 0.00 0.00 0.00 0.00 0.00
0.30 0.07 0.11 0.09 0.01 0.00 0.00 0.00 0.00 0.00 0.00 0.00 0.00 0.00 0.00 0.00 0.00 0.00 0.00 0.00 0.00 0.00 0.00 0.01 0.00 0.00 0.00 0.00 0.00 0.00 0.00 0.00 0.00 0.00 0.00 0.00 0.00 0.00 0.00 0.00 0.00 0.00 0.00 0.00 0.00
0.33 0.05 0.04 0.01 0.00 0.00 0.00 0.00 0.00 0.00 0.00 0.00 0.00 0.00 0.00 0.00 0.00 0.00 0.00 0.00 0.00 0.00 0.00 0.00 0.00 0.00 0.00 0.00 0.00 0.00 0.00 0.00 0.00 0.00 0.00 0.00 0.00 0.00 0.00 0.00 0.00 0.00 0.00 0.00 0.00
0.24 0.02 0.07 0.03 0.01 0.01 0.00 0.00 0.00 0.00 0.00 0.00 0.00 0.00 0.00 0.00 0.00 0.00 0.00 0.00 0.00 0.00 0.00 0.00 0.00 0.00 0.00 0.00 0.00 0.00 0.00 0.00 0.00 0.00 0.00 0.00 0.00 0.00 0.00 0.00 0.00 0.00 0.00 0.00 0.00

GFSSW_prec_precacc_027.txt.gz
Total_Precipitation_Accumulation
0.01 0.01 0.01 0.01 0.01 0.01 0.01 0.01 0.01 0.01 0.01 0.01 0.01 0.01 0.01 0.01 0.00 0.00 0.00 0.00 0.00 0.00 0.00 0.00 0.00 0.00 0.00 0.00 0.00 0.00 0.00 0.00 0.00 0.03 0.10 0.24 0.18 0.02 0.02 0.03 0.05 0.10 0.32 0.49 0.43
0.01 0.01 0.01 0.01 0.01 0.01 0.01 0.01 0.01 0.01 0.01 0.01 0.01 0.01 0.01 0.01 0.00 0.00 0.00 0.00 0.00 0.00 0.00 0.00 0.00 0.00 0.00 0.00 0.00 0.00 0.00 0.00 0.01 0.02 0.10 0.16 0.19 0.08 0.04 0.08 0.17 0.24 0.59 0.82 0.66
0.01 0.01 0.01 0.01 0.01 0.01 0.01 0.01 0.01 0.01 0.01 0.01 0.01 0.01 0.01 0.00 0.00 0.00 0.00 0.00 0.00 0.00 0.00 0.00 0.00 0.00 0.00 0.00 0.00 0.00 0.00 0.00 0.02 0.10 0.02 0.04 0.05 0.06 0.06 0.08 0.30 0.51 0.42 0.42 0.40
0.01 0.01 0.01 0.01 0.01 0.01 0.01 0.01 0.01 0.01 0.01 0.01 0.01 0.01 0.01 0.00 0.00 0.00 0.00 0.00 0.00 0.00 0.00 0.00 0.00 0.00 0.00 0.00 0.00 0.00 0.00 0.00 0.01 0.05 0.01 0.04 0.04 0.02 0.14 0.31 0.26 0.31 0.17 0.16 0.31
0.01 0.01 0.01 0.02 0.01 0.01 0.01 0.01 0.01 0.01 0.01 0.01 0.01 0.01 0.00 0.00 0.00 0.00 0.00 0.00 0.00 0.00 0.00 0.00 0.00 0.00 0.00 0.00 0.00 0.00 0.00 0.00 0.00 0.00 0.02 0.01 0.01 0.00 0.00 0.00 0.03 0.07 0.13 0.13 0.23
0.01 0.01 0.01 0.01 0.01 0.01 0.01 0.01 0.01 0.01 0.01 0.01 0.01 0.01 0.00 0.00 0.00 0.00 0.00 0.00 0.00 0.00 0.00 0.00 0.00 0.00 0.00 0.00 0.00 0.00 0.00 0.00 0.00 0.00 0.01 0.02 0.01 0.02 0.00 0.02 0.00 0.04 0.15 0.08 0.14
0.01 0.01 0.01 0.02 0.01 0.01 0.01 0.01 0.01 0.01 0.01 0.01 0.01 0.00 0.00 0.00 0.00 0.00 0.00 0.00 0.00 0.00 0.00 0.00 0.00 0.00 0.00 0.00 0.00 0.00 0.00 0.00 0.00 0.00 0.02 0.02 0.02 0.04 0.00 0.00 0.00 0.03 0.07 0.09 0.06
0.01 0.01 0.01 0.01 0.01 0.01 0.01 0.01 0.01 0.01 0.01 0.01 0.01 0.00 0.00 0.00 0.00 0.00 0.00 0.00 0.00 0.00 0.00 0.00 0.00 0.00 0.00 0.00 0.00 0.00 0.00 0.00 0.00 0.00 0.00 0.00 0.02 0.02 0.01 0.00 0.02 0.03 0.07 0.05 0.00
0.01 0.01 0.01 0.01 0.01 0.02 0.01 0.01 0.01 0.01 0.01 0.01 0.00 0.00 0.00 0.00 0.00 0.00 0.00 0.00 0.00 0.00 0.00 0.00 0.00 0.00 0.00 0.00 0.00 0.00 0.00 0.00 0.01 0.00 0.00 0.00 0.03 0.03 0.02 0.02 0.04 0.04 0.01 0.00 0.00
0.01 0.01 0.01 0.02 0.03 0.02 0.01 0.01 0.01 0.01 0.01 0.00 0.00 0.00 0.00 0.00 0.00 0.00 0.00 0.00 0.00 0.00 0.00 0.00 0.00 0.00 0.00 0.00 0.00 0.00 0.00 0.00 0.00 0.00 0.00 0.00 0.00 0.00 0.01 0.05 0.28 0.05 0.02 0.00 0.00
0.01 0.01 0.01 0.02 0.03 0.02 0.00 0.00 0.00 0.00 0.00 0.00 0.00 0.00 0.00 0.00 0.00 0.00 0.00 0.00 0.00 0.00 0.00 0.00 0.00 0.00 0.00 0.00 0.00 0.00 0.00 0.00 0.00 0.00 0.00 0.00 0.00 0.00 0.01 0.03 0.05 0.04 0.14 0.05 0.01
0.01 0.01 0.01 0.03 0.04 0.02 0.00 0.00 0.00 0.00 0.00 0.00 0.00 0.00 0.00 0.00 0.00 0.00 0.00 0.00 0.00 0.00 0.00 0.00 0.00 0.00 0.00 0.00 0.00 0.00 0.00 0.00 0.00 0.00 0.00 0.00 0.00 0.01 0.03 0.01 0.01 0.01 0.14 0.03 0.01
0.01 0.01 0.02 0.05 0.04 0.01 0.00 0.00 0.00 0.00 0.00 0.00 0.00 0.00 0.00 0.00 0.00 0.00 0.00 0.00 0.00 0.00 0.00 0.00 0.00 0.00 0.00 0.00 0.00 0.00 0.00 0.00 0.00 0.00 0.00 0.00 0.00 0.02 0.01 0.01 0.02 0.01 0.00 0.00 0.00
0.02 0.01 0.03 0.05 0.01 0.00 0.00 0.00 0.00 0.00 0.00 0.00 0.00 0.00 0.00 0.00 0.00 0.00 0.00 0.00 0.00 0.00 0.00 0.00 0.00 0.00 0.00 0.00 0.00 0.00 0.00 0.00 0.00 0.00 0.00 0.00 0.01 0.09 0.02 0.00 0.01 0.01 0.00 0.00 0.00
0.02 0.02 0.04 0.03 0.00 0.00 0.00 0.00 0.00 0.01 0.01 0.00 0.00 0.00 0.00 0.00 0.00 0.00 0.00 0.00 0.00 0.00 0.00 0.00 0.00 0.00 0.00 0.00 0.00 0.01 0.00 0.00 0.00 0.00 0.01 0.01 0.00 0.08 0.01 0.00 0.00 0.00 0.00 0.00 0.01
0.03 0.04 0.07 0.04 0.00 0.00 0.00 0.01 0.04 0.02 0.00 0.00 0.00 0.00 0.00 0.00 0.00 0.00 0.00 0.00 0.00 0.00 0.00 0.00 0.00 0.00 0.00 0.00 0.00 0.00 0.00 0.00 0.00 0.00 0.01 0.02 0.02 0.04 0.01 0.00 0.01 0.01 0.00 0.00 0.00
0.05 0.06 0.06 0.01 0.00 0.00 0.01 0.08 0.08 0.01 0.00 0.00 0.00 0.00 0.00 0.00 0.00 0.00 0.00 0.00 0.00 0.00 0.00 0.00 0.00 0.00 0.00 0.00 0.00 0.00 0.00 0.00 0.01 0.00 0.00 0.00 0.01 0.02 0.02 0.05 0.12 0.10 0.00 0.00 0.00
0.06 0.08 0.06 0.02 0.01 0.00 0.03 0.15 0.03 0.00 0.00 0.00 0.00 0.00 0.00 0.00 0.00 0.00 0.00 0.00 0.00 0.00 0.00 0.00 0.00 0.00 0.00 0.00 0.00 0.00 0.00 0.00 0.05 0.04 0.01 0.01 0.01 0.00 0.00 0.00 0.00 0.00 0.00 0.00 0.00
0.12 0.10 0.08 0.01 0.00 0.00 0.08 0.08 0.00 0.00 0.00 0.00 0.00 0.00 0.00 0.00 0.00 0.00 0.00 0.00 0.00 0.00 0.00 0.02 0.00 0.00 0.00 0.00 0.00 0.00 0.00 0.00 0.01 0.01 0.01 0.00 0.00 0.00 0.00 0.00 0.00 0.00 0.00 0.00 0.01
0.11 0.12 0.06 0.01 0.01 0.03 0.10 0.01 0.00 0.00 0.00 0.00 0.00 0.00 0.00 0.00 0.00 0.00 0.00 0.00 0.00 0.00 0.00 0.04 0.07 0.01 0.00 0.00 0.00 0.00 0.00 0.00 0.00 0.00 0.00 0.00 0.00 0.00 0.01 0.00 0.00 0.00 0.00 0.00 0.00
0.17 0.12 0.02 0.02 0.11 0.14 0.05 0.00 0.00 0.00 0.00 0.00 0.00 0.00 0.00 0.00 0.00 0.00 0.00 0.00 0.00 0.00 0.00 0.00 0.03 0.04 0.00 0.00 0.00 0.00 0.00 0.00 0.00 0.00 0.00 0.00 0.00 0.00 0.00 0.00 0.00 0.00 0.00 0.00 0.00
0.25 0.09 0.03 0.04 0.19 0.06 0.01 0.00 0.00 0.00 0.00 0.00 0.00 0.00 0.00 0.00 0.00 0.00 0.00 0.00 0.00 0.00 0.00 0.00 0.00 0.00 0.00 0.00 0.00 0.00 0.00 0.00 0.00 0.00 0.00 0.00 0.00 0.00 0.00 0.00 0.00 0.00 0.00 0.00 0.00
0.31 0.25 0.30 0.09 0.07 0.02 0.00 0.00 0.00 0.00 0.00 0.00 0.00 0.00 0.00 0.00 0.00 0.00 0.00 0.00 0.00 0.01 0.00 0.00 0.00 0.00 0.00 0.00 0.00 0.00 0.00 0.00 0.00 0.00 0.00 0.00 0.00 0.00 0.00 0.00 0.00 0.00 0.00 0.00 0.00
0.31 0.36 0.65 0.27 0.00 0.00 0.00 0.00 0.00 0.00 0.00 0.00 0.00 0.00 0.00 0.00 0.00 0.00 0.00 0.00 0.00 0.01 0.01 0.01 0.00 0.00 0.00 0.00 0.00 0.00 0.00 0.00 0.00 0.00 0.00 0.00 0.00 0.00 0.00 0.00 0.00 0.00 0.00 0.00 0.00
0.42 0.11 0.14 0.10 0.01 0.00 0.00 0.00 0.00 0.00 0.00 0.00 0.00 0.00 0.00 0.00 0.00 0.00 0.00 0.00 0.00 0.00 0.00 0.01 0.00 0.00 0.00 0.00 0.00 0.00 0.00 0.00 0.00 0.00 0.00 0.00 0.00 0.00 0.00 0.00 0.00 0.00 0.00 0.00 0.00
0.43 0.06 0.05 0.01 0.00 0.00 0.01 0.00 0.00 0.00 0.00 0.00 0.00 0.00 0.00 0.00 0.00 0.00 0.00 0.00 0.00 0.00 0.00 0.00 0.00 0.00 0.00 0.00 0.00 0.00 0.00 0.00 0.00 0.00 0.00 0.00 0.00 0.00 0.00 0.00 0.00 0.00 0.00 0.00 0.00
0.31 0.02 0.08 0.04 0.01 0.01 0.00 0.00 0.00 0.00 0.00 0.00 0.00 0.00 0.00 0.00 0.01 0.00 0.00 0.00 0.00 0.00 0.00 0.00 0.00 0.00 0.00 0.00 0.00 0.00 0.00 0.00 0.00 0.00 0.00 0.00 0.00 0.00 0.00 0.00 0.00 0.00 0.00 0.00 0.00

GFSSW_prec_precacc_030.txt.gz
Total_Precipitation_Accumulation
0.01 0.01 0.01 0.01 0.01 0.01 0.01 0.01 0.01 0.01 0.01 0.01 0.01 0.01 0.01 0.01 0.00 0.00 0.00 0.00 0.00 0.00 0.00 0.00 0.00 0.00 0.00 0.00 0.00 0.00 0.00 0.00 0.00 0.03 0.10 0.24 0.18 0.02 0.02 0.03 0.05 0.10 0.34 0.52 0.47
0.03 0.02 0.01 0.01 0.01 0.01 0.01 0.01 0.01 0.01 0.01 0.01 0.01 0.01 0.01 0.01 0.00 0.00 0.00 0.00 0.00 0.00 0.00 0.00 0.00 0.00 0.00 0.00 0.00 0.00 0.00 0.00 0.01 0.02 0.10 0.16 0.21 0.08 0.05 0.10 0.22 0.28 0.63 0.89 0.78
0.02 0.02 0.02 0.02 0.01 0.01 0.01 0.01 0.01 0.01 0.01 0.01 0.01 0.01 0.01 0.00 0.00 0.00 0.00 0.00 0.00 0.00 0.00 0.00 0.00 0.00 0.00 0.00 0.00 0.00 0.00 0.00 0.02 0.10 0.02 0.05 0.06 0.06 0.07 0.14 0.34 0.58 0.54 0.59 0.46
0.01 0.01 0.02 0.02 0.02 0.02 0.01 0.01 0.01 0.01 0.01 0.01 0.01 0.01 0.01 0.00 0.00 0.00 0.00 0.00 0.00 0.00 0.00 0.00 0.00 0.00 0.00 0.00 0.00 0.00 0.00 0.00 0.01 0.05 0.01 0.04 0.04 0.02 0.14 0.31 0.26 0.34 0.23 0.19 0.32
0.01 0.01 0.01 0.02 0.02 0.02 0.01 0.01 0.01 0.01 0.01 0.01 0.01 0.01 0.00 0.00 0.00 0.00 0.00 0.00 0.00 0.00 0.00 0.00 0.00 0.00 0.00 0.00 0.00 0.00 0.00 0.00 0.00 0.00 0.03 0.01 0.01 0.00 0.00 0.01 0.04 0.09 0.14 0.19 0.31
0.01 0.01 0.01 0.02 0.02 0.02 0.01 0.01 0.01 0.01 0.01 0.01 0.01 0.01 0.00 0.00 0.00 0.00 0.00 0.00 0.00 0.00 0.00 0.00 0.00 0.00 0.00 0.00 0.00 0.00 0.00 0.00 0.00 0.00 0.01 0.02 0.01 0.02 0.00 0.02 0.00 0.05 0.17 0.24 0.22
0.01 0.01 0.01 0.02 0.02 0.01 0.01 0.01 0.01 0.01 0.01 0.01 0.01 0.00 0.00 0.00 0.00 0.00 0.00 0.00 0.00 0.00 0.00 0.00 0.00 0.00 0.00 0.00 0.00 0.00 0.00 0.00 0.00 0.00 0.02 0.02 0.02 0.04 0.00 0.00 0.00 0.03 0.09 0.09 0.07
0.01 0.01 0.01 0.01 0.01 0.01 0.01 0.01 0.01 0.01 0.01 0.01 0.01 0.00 0.00 0.00 0.00 0.00 0.00 0.00 0.00 0.00 0.00 0.00 0.00 0.00 0.00 0.00 0.00 0.00 0.00 0.00 0.00 0.00 0.00 0.00 0.02 0.02 0.01 0.00 0.02 0.03 0.07 0.05 0.00
0.01 0.01 0.01 0.01 0.01 0.02 0.01 0.01 0.01 0.01 0.01 0.01 0.00 0.00 0.00 0.00 0.00 0.00 0.00 0.00 0.00 0.00 0.00 0.00 0.00 0.00 0.00 0.00 0.00 0.00 0.00 0.00 0.01 0.01 0.00 0.00 0.03 0.03 0.02 0.02 0.04 0.04 0.01 0.00 0.00
0.01 0.01 0.01 0.02 0.03 0.02 0.01 0.01 0.01 0.01 0.01 0.00 0.00 0.00 0.00 0.00 0.00 0.00 0.00 0.00 0.00 0.00 0.00 0.00 0.00 0.00 0.00 0.00 0.00 0.00 0.00 0.00 0.00 0.00 0.00 0.00 0.00 0.00 0.01 0.05 0.28 0.05 0.02 0.00 0.00
0.01 0.01 0.01 0.02 0.03 0.02 0.00 0.00 0.00 0.00 0.00 0.00 0.00 0.00 0.00 0.00 0.00 0.00 0.00 0.00 0.00 0.00 0.00 0.00 0.00 0.00 0.00 0.00 0.00 0.00 0.00 0.00 0.00 0.00 0.00 0.00 0.00 0.00 0.01 0.03 0.05 0.04 0.14 0.05 0.01
0.01 0.01 0.02 0.03 0.04 0.02 0.00 0.00 0.00 0.00 0.00 0.00 0.00 0.00 0.00 0.00 0.00 0.00 0.00 0.00 0.00 0.00 0.00 0.00 0.00 0.00 0.00 0.00 0.00 0.00 0.00 0.00 0.00 0.00 0.00 0.00 0.00 0.01 0.03 0.01 0.01 0.01 0.14 0.03 0.01
0.02 0.01 0.02 0.05 0.04 0.01 0.00 0.00 0.00 0.00 0.00 0.00 0.00 0.00 0.00 0.00 0.00 0.00 0.00 0.00 0.00 0.00 0.00 0.00 0.00 0.00 0.00 0.00 0.00 0.00 0.00 0.00 0.00 0.00 0.00 0.00 0.00 0.02 0.01 0.01 0.02 0.01 0.00 0.00 0.00
0.02 0.01 0.03 0.05 0.01 0.00 0.00 0.00 0.00 0.00 0.00 0.00 0.00 0.00 0.00 0.00 0.00 0.00 0.00 0.00 0.00 0.00 0.00 0.00 0.00 0.00 0.00 0.00 0.00 0.00 0.00 0.00 0.00 0.00 0.00 0.00 0.01 0.09 0.02 0.00 0.01 0.01 0.00 0.00 0.00
0.03 0.03 0.05 0.03 0.00 0.00 0.00 0.00 0.00 0.01 0.01 0.00 0.00 0.00 0.00 0.00 0.00 0.00 0.00 0.00 0.00 0.00 0.00 0.00 0.00 0.00 0.00 0.00 0.00 0.01 0.00 0.00 0.00 0.00 0.01 0.01 0.00 0.08 0.01 0.00 0.00 0.00 0.00 0.00 0.01
0.05 0.04 0.07 0.04 0.01 0.00 0.00 0.01 0.04 0.02 0.00 0.00 0.00 0.00 0.00 0.00 0.00 0.00 0.00 0.00 0.00 0.00 0.00 0.00 0.00 0.00 0.00 0.00 0.00 0.00 0.00 0.00 0.00 0.00 0.01 0.02 0.02 0.04 0.01 0.00 0.01 0.01 0.00 0.00 0.00
0.06 0.07 0.07 0.02 0.01 0.00 0.01 0.08 0.09 0.01 0.00 0.00 0.00 0.00 0.00 0.00 0.00 0.00 0.00 0.00 0.00 0.00 0.00 0.00 0.00 0.00 0.00 0.00 0.00 0.00 0.00 0.00 0.01 0.00 0.00 0.00 0.01 0.02 0.02 0.05 0.12 0.10 0.00 0.00 0.00
0.07 0.10 0.07 0.03 0.01 0.01 0.04 0.16 0.04 0.00 0.00 0.00 0.00 0.00 0.00 0.00 0.00 0.00 0.00 0.00 0.00 0.00 0.00 0.00 0.00 0.00 0.00 0.00 0.00 0.00 0.00 0.00 0.05 0.04 0.01 0.01 0.01 0.00 0.00 0.00 0.00 0.00 0.00 0.00 0.00
0.15 0.15 0.11 0.04 0.01 0.02 0.13 0.10 0.00 0.00 0.00 0.00 0.00 0.00 0.00 0.00 0.00 0.00 0.00 0.00 0.00 0.00 0.00 0.02 0.00 0.00 0.00 0.00 0.00 0.00 0.00 0.00 0.01 0.01 0.01 0.00 0.00 0.00 0.00 0.00 0.00 0.00 0.00 0.00 0.01
0.16 0.19 0.08 0.02 0.01 0.10 0.18 0.02 0.00 0.00 0.00 0.00 0.00 0.00 0.00 0.00 0.00 0.00 0.00 0.00 0.00 0.00 0.00 0.04 0.07 0.01 0.00 0.00 0.00 0.00 0.00 0.00 0.00 0.00 0.00 0.00 0.00 0.00 0.01 0.00 0.00 0.00 0.00 0.00 0.00
0.26 0.24 0.04 0.03 0.16 0.27 0.16 0.01 0.00 0.00 0.00 0.00 0.00 0.00 0.00 0.00 0.00 0.00 0.00 0.00 0.00 0.00 0.00 0.00 0.03 0.04 0.00 0.00 0.00 0.00 0.00 0.00 0.00 0.00 0.00 0.00 0.00 0.00 0.00 0.00 0.00 0.00 0.00 0.00 0.00
0.38 0.21 0.05 0.05 0.24 0.14 0.03 0.00 0.00 0.00 0.00 0.00 0.00 0.00 0.00 0.00 0.00 0.00 0.00 0.00 0.00 0.00 0.00 0.00 0.00 0.00 0.00 0.00 0.00 0.00 0.00 0.00 0.00 0.00 0.00 0.00 0.00 0.00 0.00 0.00 0.00 0.00 0.00 0.00 0.00
0.44 0.33 0.35 0.12 0.09 0.04 0.01 0.00 0.00 0.00 0.00 0.00 0.00 0.00 0.00 0.00 0.00 0.00 0.00 0.00 0.00 0.01 0.00 0.00 0.00 0.00 0.00 0.00 0.00 0.00 0.00 0.00 0.00 0.00 0.00 0.00 0.00 0.00 0.00 0.00 0.00 0.00 0.00 0.00 0.00
0.40 0.50 0.80 0.33 0.01 0.00 0.00 0.01 0.00 0.00 0.00 0.00 0.00 0.00 0.00 0.00 0.00 0.00 0.00 0.00 0.00 0.01 0.01 0.01 0.00 0.00 0.00 0.00 0.00 0.00 0.00 0.00 0.00 0.00 0.00 0.00 0.00 0.00 0.00 0.00 0.00 0.00 0.00 0.00 0.00
0.56 0.20 0.20 0.14 0.01 0.00 0.00 0.00 0.00 0.00 0.00 0.00 0.00 0.00 0.00 0.00 0.00 0.00 0.00 0.00 0.00 0.00 0.00 0.01 0.00 0.00 0.00 0.00 0.00 0.00 0.00 0.00 0.00 0.00 0.00 0.00 0.00 0.00 0.00 0.00 0.00 0.00 0.00 0.00 0.00
0.58 0.08 0.06 0.01 0.00 0.00 0.01 0.00 0.00 0.00 0.00 0.00 0.00 0.00 0.00 0.00 0.00 0.00 0.00 0.00 0.00 0.00 0.00 0.00 0.00 0.00 0.00 0.00 0.00 0.00 0.00 0.00 0.00 0.00 0.00 0.00 0.00 0.00 0.00 0.00 0.00 0.00 0.00 0.00 0.00
0.37 0.02 0.10 0.05 0.01 0.01 0.00 0.00 0.00 0.00 0.00 0.00 0.00 0.00 0.00 0.00 0.01 0.01 0.00 0.00 0.00 0.00 0.00 0.00 0.00 0.00 0.00 0.00 0.00 0.00 0.00 0.00 0.00 0.00 0.00 0.00 0.00 0.00 0.00 0.00 0.00 0.00 0.00 0.00 0.00

GFSSW_prec_precacc_033.txt.gz
Total_Precipitation_Accumulation
0.01 0.01 0.01 0.01 0.01 0.01 0.01 0.01 0.01 0.01 0.01 0.01 0.01 0.01 0.01 0.01 0.00 0.00 0.00 0.00 0.00 0.00 0.00 0.00 0.00 0.00 0.00 0.00 0.00 0.00 0.00 0.00 0.00 0.03 0.10 0.24 0.18 0.03 0.02 0.03 0.06 0.12 0.42 0.65 0.64
0.03 0.03 0.02 0.02 0.01 0.01 0.01 0.01 0.01 0.01 0.01 0.01 0.01 0.01 0.01 0.01 0.00 0.00 0.00 0.00 0.00 0.00 0.00 0.00 0.00 0.00 0.00 0.00 0.00 0.00 0.00 0.00 0.01 0.02 0.10 0.16 0.21 0.09 0.06 0.11 0.27 0.32 0.69 0.96 0.87
0.02 0.02 0.02 0.02 0.02 0.01 0.01 0.01 0.01 0.01 0.01 0.01 0.01 0.01 0.01 0.00 0.00 0.00 0.00 0.00 0.00 0.00 0.00 0.00 0.00 0.00 0.00 0.00 0.00 0.00 0.00 0.00 0.02 0.10 0.02 0.05 0.07 0.06 0.09 0.29 0.54 0.66 0.61 0.65 0.53
0.01 0.01 0.02 0.02 0.02 0.02 0.01 0.01 0.01 0.01 0.01 0.01 0.01 0.01 0.01 0.00 0.00 0.00 0.00 0.00 0.00 0.00 0.00 0.00 0.00 0.00 0.00 0.00 0.00 0.00 0.00 0.00 0.01 0.05 0.01 0.04 0.04 0.02 0.15 0.40 0.34 0.37 0.32 0.23 0.33
0.01 0.01 0.01 0.02 0.02 0.02 0.01 0.01 0.01 0.01 0.01 0.01 0.01 0.01 0.00 0.00 0.00 0.00 0.00 0.00 0.00 0.00 0.00 0.00 0.00 0.00 0.00 0.00 0.00 0.00 0.00 0.00 0.00 0.00 0.03 0.01 0.01 0.00 0.00 0.05 0.04 0.10 0.17 0.22 0.33
0.01 0.01 0.01 0.02 0.02 0.02 0.01 0.01 0.01 0.01 0.01 0.01 0.01 0.01 0.00 0.00 0.00 0.00 0.00 0.00 0.00 0.00 0.00 0.00 0.00 0.00 0.00 0.00 0.00 0.00 0.00 0.00 0.00 0.00 0.01 0.02 0.01 0.02 0.01 0.02 0.01 0.05 0.20 0.36 0.32
0.01 0.01 0.01 0.02 0.02 0.01 0.01 0.01 0.01 0.01 0.01 0.01 0.01 0.00 0.00 0.00 0.00 0.00 0.00 0.00 0.00 0.00 0.00 0.00 0.00 0.00 0.00 0.00 0.00 0.00 0.00 0.00 0.00 0.00 0.02 0.06 0.09 0.04 0.00 0.00 0.00 0.03 0.10 0.11 0.16
0.01 0.01 0.01 0.01 0.01 0.01 0.01 0.01 0.01 0.01 0.01 0.01 0.01 0.00 0.00 0.00 0.00 0.00 0.00 0.00 0.00 0.00 0.00 0.00 0.00 0.00 0.00 0.00 0.00 0.00 0.00 0.01 0.01 0.00 0.00 0.10 0.17 0.02 0.01 0.00 0.02 0.03 0.07 0.06 0.02
0.01 0.01 0.01 0.01 0.01 0.02 0.01 0.01 0.01 0.01 0.01 0.01 0.00 0.00 0.00 0.00 0.00 0.00 0.00 0.00 0.00 0.00 0.00 0.00 0.00 0.00 0.00 0.00 0.00 0.00 0.00 0.00 0.01 0.01 0.00 0.06 0.13 0.03 0.02 0.02 0.04 0.04 0.01 0.00 0.00
0.01 0.01 0.01 0.02 0.03 0.02 0.01 0.01 0.01 0.01 0.01 0.00 0.00 0.00 0.00 0.00 0.00 0.00 0.00 0.00 0.00 0.00 0.00 0.00 0.00 0.00 0.00 0.00 0.00 0.00 0.00 0.00 0.00 0.00 0.00 0.00 0.00 0.00 0.01 0.05 0.28 0.05 0.02 0.00 0.00
0.01 0.01 0.02 0.03 0.03 0.02 0.00 0.00 0.00 0.00 0.00 0.00 0.00 0.00 0.00 0.00 0.00 0.00 0.00 0.00 0.00 0.00 0.00 0.00 0.00 0.00 0.00 0.00 0.00 0.00 0.00 0.00 0.00 0.00 0.00 0.00 0.01 0.00 0.01 0.03 0.05 0.04 0.14 0.05 0.01
0.02 0.02 0.02 0.03 0.04 0.02 0.00 0.00 0.00 0.00 0.00 0.00 0.00 0.00 0.00 0.00 0.00 0.00 0.00 0.00 0.00 0.00 0.00 0.00 0.00 0.00 0.00 0.00 0.00 0.00 0.00 0.00 0.00 0.00 0.00 0.00 0.00 0.01 0.03 0.01 0.01 0.01 0.14 0.03 0.01
0.02 0.01 0.02 0.05 0.04 0.01 0.00 0.00 0.00 0.00 0.00 0.00 0.00 0.00 0.00 0.00 0.00 0.00 0.00 0.00 0.00 0.00 0.00 0.00 0.00 0.00 0.00 0.00 0.00 0.00 0.00 0.00 0.00 0.00 0.00 0.00 0.00 0.02 0.01 0.01 0.02 0.01 0.00 0.00 0.00
0.03 0.02 0.04 0.05 0.01 0.00 0.00 0.00 0.00 0.00 0.00 0.00 0.00 0.00 0.00 0.00 0.00 0.00 0.00 0.00 0.00 0.00 0.00 0.00 0.00 0.00 0.00 0.00 0.00 0.00 0.00 0.00 0.00 0.00 0.00 0.00 0.01 0.09 0.02 0.00 0.01 0.01 0.00 0.00 0.00
0.03 0.03 0.05 0.03 0.00 0.00 0.00 0.00 0.00 0.01 0.01 0.00 0.00 0.00 0.00 0.00 0.00 0.00 0.00 0.00 0.00 0.00 0.00 0.00 0.00 0.00 0.00 0.00 0.00 0.01 0.00 0.00 0.00 0.00 0.01 0.01 0.00 0.08 0.01 0.00 0.00 0.00 0.00 0.00 0.01
0.05 0.05 0.09 0.05 0.01 0.00 0.00 0.01 0.04 0.02 0.00 0.00 0.00 0.00 0.00 0.00 0.00 0.00 0.00 0.00 0.00 0.00 0.00 0.00 0.00 0.00 0.00 0.00 0.00 0.00 0.00 0.00 0.00 0.00 0.01 0.02 0.02 0.04 0.01 0.00 0.01 0.01 0.00 0.00 0.00
0.06 0.08 0.09 0.03 0.01 0.00 0.02 0.12 0.11 0.01 0.00 0.00 0.00 0.00 0.00 0.00 0.00 0.00 0.00 0.00 0.00 0.00 0.00 0.00 0.00 0.00 0.00 0.00 0.00 0.00 0.00 0.00 0.02 0.00 0.00 0.00 0.01 0.02 0.02 0.05 0.12 0.10 0.00 0.00 0.00
0.07 0.10 0.10 0.04 0.01 0.01 0.12 0.22 0.04 0.00 0.00 0.00 0.00 0.00 0.00 0.00 0.00 0.00 0.00 0.00 0.00 0.00 0.00 0.00 0.00 0.00 0.00 0.00 0.00 0.00 0.00 0.00 0.07 0.05 0.02 0.01 0.01 0.00 0.00 0.00 0.00 0.00 0.00 0.00 0.00
0.15 0.16 0.14 0.06 0.01 0.03 0.25 0.18 0.01 0.00 0.00 0.00 0.00 0.00 0.00 0.00 0.00 0.00 0.00 0.00 0.00 0.00 0.00 0.02 0.00 0.00 0.00 0.00 0.00 0.00 0.00 0.00 0.01 0.01 0.01 0.00 0.00 0.00 0.00 0.00 0.00 0.00 0.00 0.00 0.01
0.18 0.21 0.10 0.04 0.05 0.14 0.25 0.10 0.00 0.00 0.00 0.00 0.00 0.00 0.00 0.00 0.00 0.00 0.00 0.00 0.00 0.00 0.00 0.04 0.07 0.01 0.00 0.00 0.00 0.00 0.00 0.00 0.00 0.01 0.01 0.00 0.00 0.00 0.01 0.00 0.00 0.00 0.00 0.00 0.00
0.29 0.27 0.05 0.06 0.27 0.33 0.19 0.03 0.00 0.00 0.00 0.00 0.00 0.00 0.00 0.00 0.00 0.00 0.00 0.00 0.00 0.00 0.00 0.00 0.03 0.04 0.00 0.00 0.00 0.00 0.00 0.00 0.00 0.00 0.00 0.00 0.00 0.00 0.00 0.00 0.00 0.00 0.00 0.00 0.00
0.45 0.24 0.07 0.10 0.32 0.17 0.05 0.00 0.00 0.00 0.00 0.00 0.00 0.00 0.00 0.00 0.00 0.00 0.00 0.00 0.00 0.00 0.00 0.00 0.00 0.00 0.00 0.00 0.00 0.00 0.00 0.00 0.00 0.00 0.00 0.00 0.00 0.00 0.00 0.00 0.00 0.00 0.00 0.00 0.00
0.55 0.37 0.44 0.16 0.16 0.07 0.01 0.00 0.00 0.00 0.00 0.00 0.00 0.00 0.00 0.00 0.00 0.00 0.00 0.00 0.00 0.01 0.00 0.00 0.00 0.00 0.00 0.00 0.00 0.00 0.00 0.00 0.00 0.00 0.00 0.00 0.00 0.00 0.00 0.00 0.00 0.00 0.00 0.00 0.00
0.53 0.58 0.99 0.40 0.02 0.01 0.00 0.01 0.00 0.00 0.00 0.00 0.00 0.00 0.00 0.00 0.00 0.00 0.00 0.00 0.00 0.01 0.01 0.01 0.00 0.00 0.00 0.00 0.00 0.00 0.00 0.00 0.00 0.00 0.00 0.00 0.00 0.00 0.00 0.00 0.00 0.00 0.00 0.00 0.00
0.86 0.31 0.33 0.21 0.03 0.00 0.00 0.00 0.00 0.00 0.00 0.00 0.00 0.00 0.00 0.01 0.01 0.00 0.00 0.00 0.00 0.00 0.00 0.01 0.00 0.00 0.00 0.00 0.00 0.00 0.00 0.00 0.00 0.00 0.00 0.00 0.00 0.00 0.00 0.00 0.00 0.00 0.00 0.00 0.00
0.94 0.14 0.08 0.02 0.00 0.00 0.01 0.00 0.00 0.00 0.00 0.00 0.00 0.00 0.02 0.01 0.02 0.04 0.00 0.00 0.00 0.00 0.00 0.00 0.00 0.00 0.00 0.00 0.00 0.00 0.00 0.00 0.00 0.00 0.00 0.00 0.00 0.00 0.00 0.00 0.00 0.00 0.00 0.00 0.00
0.67 0.04 0.13 0.06 0.03 0.03 0.01 0.00 0.00 0.00 0.00 0.00 0.00 0.00 0.00 0.01 0.03 0.05 0.01 0.00 0.00 0.00 0.00 0.00 0.00 0.00 0.00 0.00 0.00 0.00 0.00 0.00 0.00 0.00 0.00 0.00 0.00 0.00 0.00 0.00 0.00 0.00 0.00 0.00 0.00

GFSSW_prec_precacc_036.txt.gz
Total_Precipitation_Accumulation
0.01 0.02 0.02 0.02 0.01 0.01 0.01 0.01 0.01 0.01 0.01 0.01 0.01 0.01 0.01 0.01 0.00 0.00 0.00 0.00 0.00 0.00 0.00 0.00 0.00 0.00 0.00 0.00 0.00 0.00 0.00 0.00 0.00 0.03 0.10 0.24 0.18 0.09 0.08 0.07 0.20 0.21 0.53 0.73 0.67
0.03 0.03 0.02 0.02 0.01 0.01 0.01 0.01 0.01 0.01 0.01 0.01 0.01 0.01 0.01 0.01 0.00 0.00 0.00 0.00 0.00 0.00 0.00 0.00 0.00 0.00 0.00 0.00 0.00 0.00 0.00 0.00 0.01 0.02 0.10 0.16 0.21 0.09 0.10 0.34 0.63 0.41 0.77 1.00 0.88
0.02 0.02 0.02 0.02 0.02 0.01 0.01 0.01 0.01 0.01 0.01 0.01 0.01 0.01 0.01 0.00 0.00 0.00 0.00 0.00 0.00 0.00 0.00 0.00 0.00 0.00 0.00 0.00 0.00 0.00 0.00 0.00 0.02 0.10 0.02 0.05 0.07 0.06 0.11 0.56 0.92 0.93 0.72 0.74 0.59
0.01 0.01 0.02 0.02 0.02 0.02 0.01 0.01 0.01 0.01 0.01 0.01 0.01 0.01 0.01 0.00 0.00 0.00 0.00 0.00 0.00 0.00 0.00 0.00 0.00 0.00 0.00 0.00 0.00 0.00 0.00 0.00 0.01 0.05 0.01 0.04 0.05 0.02 0.16 0.43 0.36 0.38 0.37 0.27 0.34
0.01 0.01 0.01 0.02 0.02 0.02 0.01 0.01 0.01 0.01 0.01 0.01 0.01 0.01 0.00 0.00 0.00 0.00 0.00 0.00 0.00 0.00 0.00 0.00 0.00 0.00 0.00 0.00 0.00 0.00 0.00 0.00 0.00 0.00 0.03 0.01 0.01 0.01 0.01 0.07 0.04 0.11 0.17 0.24 0.40
0.01 0.01 0.01 0.02 0.02 0.02 0.01 0.01 0.01 0.01 0.01 0.01 0.01 0.01 0.00 0.00 0.00 0.00 0.00 0.00 0.00 0.00 0.00 0.00 0.00 0.00 0.00 0.00 0.00 0.00 0.00 0.00 0.00 0.00 0.01 0.02 0.02 0.03 0.03 0.03 0.01 0.06 0.21 0.36 0.35
0.01 0.02 0.02 0.02 0.02 0.01 0.01 0.01 0.01 0.01 0.01 0.01 0.01 0.00 0.00 0.00 0.00 0.00 0.00 0.00 0.00 0.00 0.00 0.00 0.00 0.00 0.00 0.00 0.00 0.00 0.00 0.00 0.00 0.00 0.02 0.07 0.12 0.10 0.03 0.00 0.00 0.03 0.10 0.11 0.17
0.02 0.01 0.01 0.01 0.01 0.01 0.01 0.01 0.01 0.01 0.01 0.01 0.01 0.00 0.00 0.00 0.00 0.00 0.00 0.00 0.00 0.00 0.00 0.00 0.00 0.00 0.00 0.00 0.00 0.00 0.00 0.01 0.01 0.00 0.01 0.12 0.46 0.06 0.04 0.01 0.02 0.03 0.07 0.06 0.02
0.01 0.01 0.01 0.01 0.01 0.02 0.01 0.01 0.01 0.01 0.01 0.01 0.00 0.00 0.00 0.00 0.00 0.00 0.00 0.00 0.00 0.00 0.00 0.00 0.00 0.00 0.00 0.00 0.00 0.00 0.00 0.00 0.01 0.01 0.01 0.10 0.45 0.09 0.06 0.03 0.04 0.04 0.01 0.00 0.00
0.01 0.01 0.01 0.02 0.03 0.02 0.01 0.01 0.01 0.01 0.01 0.00 0.00 0.00 0.00 0.00 0.00 0.00 0.00 0.00 0.00 0.00 0.00 0.00 0.00 0.00 0.00 0.00 0.00 0.00 0.00 0.00 0.00 0.00 0.00 0.01 0.11 0.22 0.05 0.05 0.28 0.05 0.02 0.00 0.00
0.01 0.02 0.02 0.03 0.03 0.02 0.00 0.00 0.00 0.00 0.00 0.00 0.00 0.00 0.00 0.00 0.00 0.00 0.00 0.00 0.00 0.00 0.00 0.00 0.00 0.00 0.00 0.00 0.00 0.00 0.00 0.00 0.00 0.00 0.00 0.00 0.01 0.10 0.15 0.03 0.05 0.04 0.14 0.05 0.01
0.02 0.02 0.02 0.03 0.04 0.02 0.01 0.00 0.00 0.00 0.00 0.00 0.00 0.00 0.00 0.00 0.00 0.00 0.00 0.00 0.00 0.00 0.00 0.00 0.00 0.00 0.00 0.00 0.00 0.00 0.00 0.00 0.00 0.00 0.00 0.00 0.00 0.02 0.06 0.01 0.01 0.01 0.14 0.03 0.01
0.02 0.02 0.02 0.05 0.04 0.01 0.00 0.00 0.00 0.00 0.00 0.00 0.00 0.00 0.00 0.00 0.00 0.00 0.00 0.00 0.00 0.00 0.00 0.00 0.00 0.00 0.00 0.00 0.00 0.00 0.00 0.00 0.00 0.00 0.00 0.00 0.00 0.02 0.01 0.01 0.02 0.01 0.00 0.00 0.00
0.03 0.02 0.04 0.05 0.01 0.00 0.00 0.00 0.00 0.00 0.00 0.00 0.00 0.00 0.00 0.00 0.00 0.00 0.00 0.00 0.00 0.00 0.00 0.00 0.00 0.00 0.00 0.00 0.00 0.00 0.00 0.00 0.00 0.00 0.00 0.00 0.01 0.09 0.02 0.00 0.01 0.01 0.00 0.00 0.00
0.03 0.03 0.06 0.04 0.00 0.00 0.00 0.00 0.00 0.01 0.01 0.00 0.00 0.00 0.00 0.00 0.00 0.00 0.00 0.00 0.00 0.00 0.00 0.00 0.00 0.00 0.00 0.00 0.00 0.01 0.00 0.00 0.00 0.00 0.01 0.01 0.00 0.08 0.01 0.00 0.00 0.00 0.00 0.00 0.01
0.05 0.05 0.09 0.07 0.02 0.00 0.01 0.02 0.06 0.02 0.00 0.00 0.00 0.00 0.00 0.00 0.00 0.00 0.00 0.00 0.00 0.00 0.00 0.00 0.00 0.00 0.00 0.00 0.00 0.00 0.00 0.00 0.00 0.00 0.01 0.02 0.02 0.04 0.01 0.00 0.01 0.01 0.00 0.00 0.00
0.06 0.08 0.09 0.04 0.02 0.01 0.02 0.15 0.13 0.01 0.00 0.00 0.00 0.00 0.00 0.00 0.00 0.00 0.00 0.00 0.00 0.00 0.00 0.00 0.00 0.00 0.00 0.00 0.00 0.00 0.00 0.00 0.02 0.00 0.00 0.00 0.01 0.02 0.02 0.05 0.12 0.10 0.01 0.02 0.00
0.08 0.11 0.10 0.05 0.02 0.04 0.13 0.25 0.05 0.00 0.00 0.00 0.00 0.00 0.00 0.00 0.00 0.00 0.00 0.00 0.00 0.00 0.00 0.00 0.00 0.00 0.00 0.00 0.00 0.00 0.00 0.00 0.08 0.06 0.04 0.03 0.01 0.00 0.00 0.00 0.00 0.00 0.00 0.00 0.00
0.17 0.17 0.15 0.06 0.02 0.06 0.30 0.27 0.01 0.00 0.00 0.00 0.00 0.00 0.00 0.00 0.00 0.00 0.00 0.00 0.00 0.00 0.00 0.02 0.00 0.00 0.00 0.00 0.00 0.00 0.00 0.00 0.01 0.02 0.04 0.05 0.00 0.00 0.00 0.00 0.00 0.00 0.00 0.00 0.01
0.23 0.25 0.11 0.05 0.08 0.22 0.35 0.17 0.00 0.00 0.00 0.00 0.00 0.00 0.00 0.00 0.00 0.00 0.00 0.00 0.00 0.00 0.00 0.04 0.07 0.01 0.00 0.00 0.00 0.00 0.00 0.00 0.00 0.02 0.04 0.00 0.00 0.00 0.01 0.00 0.00 0.00 0.00 0.00 0.00
0.34 0.32 0.06 0.08 0.34 0.41 0.23 0.05 0.00 0.00 0.00 0.00 0.00 0.00 0.00 0.00 0.00 0.00 0.00 0.00 0.00 0.00 0.00 0.00 0.03 0.04 0.00 0.00 0.00 0.00 0.00 0.00 0.00 0.00 0.01 0.01 0.00 0.00 0.00 0.00 0.00 0.00 0.00 0.00 0.00
0.53 0.30 0.08 0.13 0.39 0.24 0.06 0.00 0.00 0.00 0.00 0.00 0.00 0.00 0.00 0.00 0.00 0.00 0.00 0.00 0.00 0.00 0.00 0.00 0.00 0.00 0.00 0.00 0.00 0.00 0.00 0.00 0.00 0.00 0.00 0.00 0.00 0.00 0.00 0.00 0.00 0.00 0.00 0.00 0.00
0.72 0.42 0.50 0.20 0.19 0.10 0.02 0.00 0.00 0.00 0.00 0.00 0.00 0.00 0.00 0.00 0.01 0.00 0.00 0.00 0.00 0.01 0.00 0.00 0.00 0.00 0.00 0.00 0.00 0.00 0.00 0.00 0.00 0.00 0.00 0.03 0.00 0.00 0.00 0.00 0.00 0.00 0.00 0.00 0.00
0.78 0.76 1.10 0.47 0.04 0.01 0.01 0.01 0.00 0.00 0.00 0.00 0.00 0.00 0.01 0.06 0.01 0.01 0.00 0.00 0.00 0.01 0.01 0.01 0.00 0.00 0.00 0.00 0.00 0.00 0.00 0.00 0.00 0.00 0.00 0.00 0.00 0.00 0.00 0.00 0.00 0.00 0.00 0.00 0.00
1.33 0.58 0.43 0.27 0.06 0.01 0.00 0.00 0.00 0.00 0.00 0.00 0.00 0.00 0.00 0.03 0.05 0.03 0.04 0.01 0.00 0.00 0.00 0.01 0.00 0.00 0.00 0.00 0.00 0.00 0.00 0.00 0.00 0.00 0.00 0.00 0.00 0.00 0.00 0.00 0.00 0.00 0.00 0.00 0.00
1.53 0.33 0.10 0.02 0.01 0.01 0.02 0.00 0.00 0.00 0.00 0.00 0.00 0.00 0.02 0.02 0.05 0.07 0.07 0.05 0.02 0.00 0.00 0.00 0.00 0.00 0.00 0.00 0.00 0.00 0.00 0.00 0.00 0.00 0.00 0.00 0.00 0.00 0.00 0.00 0.00 0.00 0.00 0.00 0.00
1.39 0.17 0.14 0.08 0.04 0.05 0.02 0.00 0.00 0.00 0.00 0.00 0.00 0.00 0.00 0.03 0.07 0.14 0.07 0.07 0.04 0.01 0.00 0.00 0.00 0.00 0.00 0.00 0.00 0.00 0.00 0.00 0.00 0.00 0.00 0.00 0.00 0.00 0.00 0.00 0.00 0.00 0.00 0.00 0.00

GFSSW_prec_precacc_039.txt.gz
Total_Precipitation_Accumulation
0.01 0.02 0.02 0.02 0.01 0.01 0.01 0.01 0.01 0.01 0.01 0.01 0.01 0.01 0.01 0.01 0.00 0.00 0.00 0.00 0.00 0.00 0.00 0.00 0.00 0.00 0.00 0.00 0.00 0.00 0.00 0.00 0.00 0.03 0.10 0.24 0.18 0.09 0.11 0.18 0.29 0.39 0.68 0.94 0.86
0.03 0.03 0.02 0.02 0.01 0.01 0.01 0.01 0.01 0.01 0.01 0.01 0.01 0.01 0.01 0.01 0.00 0.00 0.00 0.00 0.00 0.00 0.00 0.00 0.00 0.00 0.00 0.00 0.00 0.00 0.00 0.00 0.01 0.02 0.10 0.16 0.21 0.09 0.13 0.42 0.67 0.42 0.80 1.08 0.99
0.02 0.02 0.02 0.02 0.02 0.01 0.01 0.01 0.01 0.01 0.01 0.01 0.01 0.01 0.01 0.00 0.00 0.00 0.00 0.00 0.00 0.00 0.00 0.00 0.00 0.00 0.00 0.00 0.00 0.00 0.00 0.00 0.02 0.10 0.02 0.05 0.08 0.06 0.12 0.56 0.92 0.94 0.73 0.78 0.63
0.01 0.01 0.02 0.02 0.02 0.02 0.01 0.01 0.01 0.01 0.01 0.01 0.01 0.01 0.01 0.00 0.00 0.00 0.00 0.00 0.00 0.00 0.00 0.00 0.00 0.00 0.00 0.00 0.00 0.00 0.00 0.00 0.01 0.05 0.01 0.04 0.06 0.04 0.20 0.44 0.36 0.38 0.37 0.29 0.36
0.01 0.01 0.01 0.02 0.02 0.02 0.01 0.01 0.01 0.01 0.01 0.01 0.01 0.01 0.00 0.00 0.00 0.00 0.00 0.00 0.00 0.00 0.00 0.00 0.00 0.00 0.00 0.00 0.00 0.00 0.00 0.00 0.00 0.00 0.03 0.01 0.02 0.04 0.04 0.10 0.04 0.11 0.18 0.27 0.41
0.01 0.01 0.01 0.02 0.02 0.02 0.01 0.01 0.01 0.01 0.01 0.01 0.01 0.01 0.00 0.00 0.00 0.00 0.00 0.00 0.00 0.00 0.00 0.00 0.00 0.00 0.00 0.00 0.00 0.00 0.00 0.00 0.00 0.00 0.01 0.02 0.02 0.06 0.21 0.06 0.02 0.06 0.21 0.37 0.35
0.01 0.02 0.02 0.02 0.02 0.01 0.01 0.01 0.01 0.01 0.01 0.01 0.01 0.00 0.00 0.00 0.00 0.00 0.00 0.00 0.00 0.00 0.00 0.00 0.00 0.00 0.00 0.00 0.00 0.00 0.00 0.00 0.00 0.00 0.02 0.07 0.12 0.13 0.13 0.01 0.01 0.03 0.10 0.11 0.17
0.02 0.01 0.02 0.01 0.01 0.01 0.01 0.01 0.01 0.01 0.01 0.01 0.01 0.00 0.00 0.00 0.00 0.00 0.00 0.00 0.00 0.00 0.00 0.00 0.00 0.00 0.00 0.00 0.00 0.00 0.00 0.01 0.01 0.00 0.01 0.12 0.46 0.07 0.08 0.08 0.04 0.03 0.07 0.06 0.02
0.01 0.01 0.01 0.01 0.01 0.02 0.01 0.01 0.01 0.01 0.01 0.01 0.00 0.00 0.00 0.00 0.00 0.00 0.00 0.00 0.00 0.00 0.00 0.00 0.00 0.00 0.00 0.00 0.00 0.00 0.00 0.00 0.01 0.01 0.01 0.10 0.45 0.09 0.08 0.21 0.08 0.04 0.01 0.00 0.00
0.01 0.01 0.01 0.02 0.03 0.02 0.01 0.01 0.01 0.01 0.01 0.00 0.00 0.00 0.00 0.00 0.00 0.00 0.00 0.00 0.00 0.00 0.00 0.00 0.00 0.00 0.00 0.00 0.00 0.00 0.00 0.00 0.00 0.00 0.00 0.01 0.12 0.23 0.06 0.09 0.30 0.05 0.02 0.00 0.00
0.01 0.02 0.02 0.03 0.04 0.02 0.00 0.00 0.00 0.00 0.00 0.00 0.00 0.00 0.00 0.00 0.00 0.00 0.00 0.00 0.00 0.00 0.00 0.00 0.00 0.00 0.00 0.00 0.00 0.00 0.00 0.00 0.00 0.00 0.00 0.00 0.02 0.10 0.15 0.03 0.06 0.04 0.14 0.05 0.01
0.02 0.02 0.02 0.03 0.05 0.02 0.01 0.00 0.00 0.00 0.00 0.00 0.00 0.00 0.00 0.00 0.00 0.00 0.00 0.00 0.00 0.00 0.00 0.00 0.00 0.00 0.00 0.00 0.00 0.00 0.00 0.00 0.00 0.00 0.00 0.00 0.00 0.02 0.07 0.01 0.01 0.01 0.14 0.03 0.01
0.02 0.02 0.02 0.05 0.04 0.01 0.00 0.00 0.00 0.00 0.00 0.00 0.00 0.00 0.00 0.00 0.00 0.00 0.00 0.00 0.00 0.00 0.00 0.00 0.00 0.00 0.00 0.00 0.00 0.00 0.00 0.00 0.00 0.00 0.00 0.00 0.00 0.02 0.02 0.02 0.05 0.01 0.00 0.00 0.00
0.03 0.02 0.04 0.05 0.01 0.00 0.00 0.00 0.00 0.00 0.00 0.00 0.00 0.00 0.00 0.00 0.00 0.00 0.00 0.00 0.00 0.00 0.00 0.00 0.00 0.00 0.00 0.00 0.00 0.00 0.00 0.00 0.00 0.00 0.00 0.00 0.01 0.09 0.03 0.01 0.04 0.02 0.00 0.01 0.00
0.04 0.03 0.06 0.04 0.00 0.00 0.00 0.00 0.00 0.01 0.01 0.00 0.00 0.00 0.00 0.00 0.00 0.00 0.00 0.00 0.00 0.00 0.00 0.00 0.00 0.00 0.00 0.00 0.00 0.01 0.00 0.00 0.00 0.00 0.01 0.01 0.00 0.08 0.01 0.01 0.01 0.01 0.00 0.01 0.01
0.06 0.06 0.10 0.07 0.02 0.00 0.01 0.02 0.06 0.02 0.00 0.00 0.00 0.00 0.00 0.00 0.00 0.00 0.00 0.00 0.00 0.00 0.00 0.00 0.00 0.00 0.00 0.00 0.00 0.00 0.00 0.00 0.00 0.00 0.01 0.02 0.02 0.04 0.01 0.00 0.02 0.01 0.00 0.01 0.02
0.07 0.09 0.10 0.04 0.02 0.01 0.02 0.17 0.14 0.01 0.00 0.00 0.00 0.00 0.00 0.00 0.00 0.00 0.00 0.00 0.00 0.00 0.00 0.00 0.00 0.00 0.00 0.00 0.00 0.00 0.00 0.00 0.02 0.00 0.00 0.00 0.01 0.02 0.02 0.05 0.12 0.10 0.01 0.02 0.00
0.10 0.13 0.11 0.05 0.02 0.05 0.13 0.27 0.06 0.00 0.00 0.00 0.00 0.00 0.00 0.00 0.00 0.00 0.00 0.00 0.00 0.00 0.00 0.00 0.00 0.00 0.00 0.00 0.00 0.00 0.00 0.00 0.08 0.06 0.05 0.03 0.01 0.01 0.00 0.00 0.00 0.00 0.00 0.00 0.00
0.22 0.22 0.18 0.07 0.02 0.07 0.32 0.32 0.02 0.00 0.00 0.00 0.00 0.00 0.00 0.00 0.00 0.00 0.00 0.00 0.00 0.00 0.00 0.02 0.00 0.00 0.00 0.00 0.00 0.00 0.00 0.00 0.01 0.02 0.05 0.06 0.00 0.00 0.00 0.00 0.00 0.00 0.00 0.00 0.01
0.28 0.29 0.13 0.05 0.08 0.25 0.41 0.19 0.00 0.00 0.00 0.00 0.00 0.00 0.00 0.00 0.00 0.00 0.00 0.00 0.00 0.00 0.00 0.04 0.07 0.01 0.00 0.00 0.00 0.00 0.00 0.00 0.00 0.02 0.04 0.00 0.00 0.00 0.01 0.00 0.00 0.00 0.00 0.00 0.00
0.41 0.38 0.08 0.09 0.36 0.44 0.28 0.05 0.00 0.00 0.00 0.00 0.00 0.00 0.00 0.00 0.00 0.00 0.00 0.00 0.00 0.00 0.00 0.00 0.03 0.04 0.00 0.00 0.00 0.00 0.00 0.00 0.00 0.00 0.01 0.01 0.00 0.00 0.00 0.00 0.00 0.00 0.00 0.00 0.00
0.72 0.43 0.11 0.14 0.43 0.26 0.07 0.00 0.00 0.00 0.00 0.00 0.00 0.00 0.00 0.00 0.00 0.00 0.00 0.00 0.00 0.00 0.00 0.00 0.00 0.00 0.00 0.00 0.00 0.00 0.00 0.00 0.00 0.00 0.00 0.01 0.00 0.00 0.00 0.00 0.00 0.00 0.00 0.00 0.00
1.00 0.55 0.54 0.21 0.22 0.11 0.02 0.00 0.00 0.00 0.00 0.00 0.00 0.00 0.00 0.00 0.01 0.01 0.00 0.00 0.00 0.01 0.00 0.00 0.00 0.00 0.00 0.00 0.00 0.00 0.00 0.00 0.00 0.00 0.00 0.03 0.00 0.00 0.00 0.00 0.00 0.00 0.00 0.00 0.00
1.16 1.04 1.27 0.56 0.04 0.01 0.01 0.01 0.00 0.00 0.00 0.00 0.00 0.00 0.01 0.06 0.01 0.01 0.00 0.00 0.00 0.01 0.01 0.01 0.00 0.00 0.00 0.00 0.00 0.00 0.00 0.00 0.00 0.00 0.00 0.00 0.00 0.00 0.01 0.00 0.00 0.00 0.00 0.00 0.00
1.92 0.83 0.51 0.38 0.09 0.01 0.00 0.00 0.00 0.00 0.00 0.00 0.00 0.00 0.00 0.03 0.05 0.03 0.04 0.02 0.05 0.00 0.00 0.01 0.00 0.00 0.00 0.00 0.00 0.00 0.00 0.00 0.00 0.00 0.01 0.00 0.00 0.00 0.00 0.00 0.00 0.00 0.00 0.00 0.00
2.14 0.54 0.11 0.02 0.01 0.02 0.02 0.00 0.00 0.00 0.00 0.00 0.00 0.00 0.02 0.02 0.05 0.08 0.11 0.10 0.14 0.10 0.01 0.00 0.00 0.00 0.00 0.00 0.00 0.00 0.00 0.00 0.00 0.00 0.00 0.00 0.00 0.00 0.00 0.00 0.00 0.00 0.00 0.00 0.00
1.97 0.34 0.15 0.09 0.05 0.07 0.02 0.00 0.00 0.00 0.00 0.00 0.00 0.00 0.00 0.03 0.07 0.15 0.09 0.11 0.17 0.21 0.17 0.02 0.00 0.00 0.00 0.00 0.00 0.00 0.00 0.00 0.00 0.00 0.00 0.00 0.00 0.00 0.00 0.00 0.00 0.00 0.00 0.00 0.00

GFSSW_prec_precacc_042.txt.gz
Total_Precipitation_Accumulation
0.01 0.02 0.02 0.02 0.01 0.01 0.01 0.01 0.01 0.01 0.01 0.01 0.01 0.01 0.01 0.01 0.00 0.00 0.00 0.00 0.00 0.00 0.00 0.00 0.00 0.00 0.00 0.00 0.00 0.00 0.00 0.00 0.00 0.03 0.10 0.24 0.18 0.09 0.11 0.18 0.29 0.39 0.68 0.95 0.89
0.03 0.03 0.02 0.02 0.01 0.01 0.01 0.01 0.01 0.01 0.01 0.01 0.01 0.01 0.01 0.01 0.00 0.00 0.00 0.00 0.00 0.00 0.00 0.00 0.00 0.00 0.00 0.00 0.00 0.00 0.00 0.00 0.01 0.02 0.10 0.16 0.21 0.09 0.13 0.42 0.67 0.42 0.81 1.13 1.05
0.02 0.02 0.02 0.02 0.02 0.01 0.01 0.01 0.01 0.01 0.01 0.01 0.01 0.01 0.01 0.00 0.00 0.00 0.00 0.00 0.00 0.00 0.00 0.00 0.00 0.00 0.00 0.00 0.00 0.00 0.00 0.00 0.02 0.10 0.02 0.05 0.08 0.06 0.12 0.57 0.92 0.94 0.74 0.83 0.70
0.01 0.01 0.02 0.02 0.02 0.02 0.01 0.01 0.01 0.01 0.01 0.01 0.01 0.01 0.01 0.00 0.00 0.00 0.00 0.00 0.00 0.00 0.00 0.00 0.00 0.00 0.00 0.00 0.00 0.00 0.00 0.00 0.01 0.05 0.01 0.04 0.06 0.04 0.21 0.45 0.36 0.38 0.38 0.31 0.40
0.01 0.01 0.01 0.02 0.02 0.02 0.01 0.01 0.01 0.01 0.01 0.01 0.01 0.01 0.00 0.00 0.00 0.00 0.00 0.00 0.00 0.00 0.00 0.00 0.00 0.00 0.00 0.00 0.00 0.00 0.00 0.00 0.00 0.00 0.03 0.01 0.02 0.04 0.04 0.10 0.04 0.11 0.19 0.28 0.41
0.01 0.01 0.01 0.02 0.02 0.02 0.01 0.01 0.01 0.01 0.01 0.01 0.01 0.01 0.00 0.00 0.00 0.00 0.00 0.00 0.00 0.00 0.00 0.00 0.00 0.00 0.00 0.00 0.00 0.00 0.00 0.00 0.00 0.00 0.01 0.02 0.02 0.06 0.21 0.06 0.02 0.06 0.22 0.38 0.35
0.01 0.02 0.02 0.02 0.02 0.01 0.01 0.01 0.01 0.01 0.01 0.01 0.01 0.01 0.00 0.00 0.00 0.00 0.00 0.00 0.00 0.00 0.00 0.00 0.00 0.00 0.00 0.00 0.00 0.00 0.00 0.00 0.00 0.00 0.02 0.07 0.12 0.13 0.13 0.01 0.01 0.03 0.10 0.11 0.17
0.02 0.01 0.02 0.01 0.01 0.01 0.01 0.01 0.01 0.01 0.01 0.01 0.01 0.00 0.00 0.00 0.00 0.00 0.00 0.00 0.00 0.00 0.00 0.00 0.00 0.00 0.00 0.00 0.00 0.00 0.00 0.01 0.01 0.00 0.01 0.12 0.46 0.07 0.08 0.08 0.04 0.03 0.07 0.06 0.02
0.01 0.01 0.01 0.01 0.01 0.02 0.01 0.01 0.01 0.01 0.01 0.01 0.00 0.00 0.00 0.00 0.00 0.00 0.00 0.00 0.00 0.00 0.00 0.00 0.00 0.00 0.00 0.00 0.00 0.00 0.00 0.00 0.01 0.01 0.01 0.10 0.45 0.09 0.08 0.22 0.09 0.04 0.01 0.00 0.00
0.01 0.01 0.01 0.02 0.03 0.02 0.01 0.01 0.01 0.01 0.01 0.00 0.00 0.00 0.00 0.00 0.00 0.00 0.00 0.00 0.00 0.00 0.00 0.00 0.00 0.00 0.00 0.00 0.00 0.00 0.00 0.00 0.00 0.00 0.00 0.01 0.12 0.23 0.06 0.09 0.30 0.05 0.02 0.00 0.00
0.01 0.02 0.02 0.03 0.04 0.02 0.00 0.00 0.00 0.00 0.00 0.00 0.00 0.00 0.00 0.00 0.00 0.00 0.00 0.00 0.00 0.00 0.00 0.00 0.00 0.00 0.00 0.00 0.00 0.00 0.00 0.00 0.00 0.00 0.00 0.00 0.02 0.10 0.15 0.04 0.06 0.04 0.14 0.05 0.01
0.02 0.02 0.02 0.03 0.05 0.02 0.01 0.00 0.00 0.00 0.00 0.00 0.00 0.00 0.00 0.00 0.00 0.00 0.00 0.00 0.00 0.00 0.00 0.00 0.00 0.00 0.00 0.00 0.00 0.00 0.00 0.00 0.00 0.00 0.00 0.00 0.00 0.02 0.07 0.01 0.01 0.01 0.14 0.03 0.01
0.03 0.02 0.02 0.05 0.04 0.01 0.00 0.00 0.00 0.00 0.00 0.00 0.00 0.00 0.00 0.00 0.00 0.00 0.00 0.00 0.00 0.00 0.00 0.00 0.00 0.00 0.00 0.00 0.00 0.00 0.00 0.00 0.00 0.00 0.00 0.00 0.00 0.02 0.02 0.02 0.06 0.01 0.00 0.00 0.00
0.04 0.03 0.04 0.05 0.01 0.00 0.00 0.00 0.00 0.00 0.00 0.00 0.00 0.00 0.00 0.00 0.00 0.00 0.00 0.00 0.00 0.00 0.00 0.00 0.00 0.00 0.00 0.00 0.00 0.00 0.00 0.00 0.00 0.00 0.00 0.00 0.01 0.09 0.03 0.01 0.04 0.02 0.00 0.01 0.00
0.04 0.04 0.07 0.04 0.00 0.00 0.00 0.00 0.00 0.01 0.01 0.00 0.00 0.00 0.00 0.00 0.00 0.00 0.00 0.00 0.00 0.00 0.00 0.00 0.00 0.00 0.00 0.00 0.00 0.01 0.00 0.00 0.00 0.00 0.01 0.01 0.00 0.08 0.01 0.01 0.01 0.01 0.00 0.01 0.01
0.07 0.07 0.12 0.07 0.02 0.00 0.01 0.02 0.07 0.02 0.00 0.00 0.00 0.00 0.00 0.00 0.00 0.00 0.00 0.00 0.00 0.00 0.00 0.00 0.00 0.00 0.00 0.00 0.00 0.00 0.00 0.00 0.00 0.00 0.01 0.02 0.02 0.04 0.01 0.00 0.02 0.02 0.01 0.01 0.02
0.09 0.11 0.13 0.04 0.02 0.01 0.02 0.17 0.15 0.01 0.00 0.00 0.00 0.00 0.00 0.00 0.00 0.00 0.00 0.00 0.00 0.00 0.00 0.00 0.00 0.00 0.00 0.00 0.00 0.00 0.00 0.00 0.02 0.00 0.00 0.00 0.01 0.02 0.02 0.05 0.12 0.10 0.01 0.02 0.00
0.13 0.17 0.13 0.05 0.02 0.05 0.13 0.30 0.07 0.00 0.00 0.00 0.00 0.00 0.00 0.00 0.00 0.00 0.00 0.00 0.00 0.00 0.00 0.00 0.00 0.00 0.00 0.00 0.00 0.00 0.00 0.00 0.08 0.06 0.05 0.03 0.01 0.01 0.01 0.01 0.00 0.00 0.00 0.00 0.00
0.26 0.25 0.19 0.07 0.02 0.07 0.34 0.37 0.03 0.00 0.00 0.00 0.00 0.00 0.00 0.00 0.00 0.00 0.00 0.00 0.00 0.00 0.00 0.02 0.00 0.00 0.00 0.00 0.00 0.00 0.00 0.00 0.01 0.02 0.05 0.06 0.00 0.00 0.00 0.00 0.00 0.00 0.00 0.00 0.01
0.34 0.33 0.13 0.05 0.08 0.26 0.47 0.21 0.00 0.00 0.00 0.00 0.00 0.00 0.00 0.00 0.00 0.00 0.00 0.00 0.00 0.00 0.00 0.04 0.07 0.01 0.00 0.00 0.00 0.00 0.00 0.00 0.00 0.02 0.04 0.00 0.00 0.00 0.01 0.00 0.00 0.00 0.00 0.00 0.00
0.65 0.54 0.11 0.09 0.39 0.47 0.33 0.06 0.00 0.00 0.00 0.00 0.00 0.00 0.00 0.00 0.00 0.00 0.00 0.00 0.00 0.00 0.00 0.00 0.03 0.04 0.00 0.00 0.00 0.00 0.00 0.00 0.00 0.00 0.01 0.01 0.00 0.00 0.01 0.00 0.00 0.00 0.00 0.00 0.00
1.13 0.65 0.13 0.14 0.47 0.27 0.07 0.00 0.00 0.00 0.00 0.00 0.00 0.00 0.00 0.00 0.00 0.00 0.00 0.00 0.00 0.00 0.00 0.00 0.00 0.00 0.00 0.00 0.00 0.00 0.00 0.00 0.00 0.00 0.00 0.01 0.00 0.00 0.00 0.00 0.00 0.00 0.00 0.00 0.00
1.41 0.76 0.59 0.21 0.24 0.11 0.02 0.00 0.00 0.00 0.00 0.00 0.00 0.00 0.00 0.00 0.01 0.01 0.00 0.00 0.00 0.01 0.00 0.00 0.00 0.00 0.00 0.00 0.00 0.00 0.00 0.00 0.00 0.00 0.00 0.03 0.00 0.00 0.00 0.00 0.00 0.00 0.00 0.00 0.00
1.62 1.30 1.45 0.61 0.05 0.01 0.01 0.01 0.00 0.00 0.00 0.00 0.00 0.00 0.01 0.06 0.01 0.01 0.00 0.00 0.00 0.01 0.01 0.02 0.00 0.00 0.00 0.00 0.00 0.00 0.00 0.00 0.00 0.00 0.00 0.00 0.00 0.00 0.01 0.00 0.00 0.00 0.00 0.00 0.00
2.54 1.06 0.57 0.47 0.10 0.01 0.00 0.00 0.00 0.00 0.00 0.00 0.00 0.00 0.00 0.03 0.05 0.03 0.04 0.02 0.05 0.00 0.01 0.05 0.05 0.00 0.00 0.00 0.00 0.00 0.00 0.00 0.00 0.00 0.01 0.00 0.00 0.00 0.00 0.00 0.00 0.00 0.00 0.00 0.00
2.73 0.69 0.12 0.02 0.02 0.02 0.03 0.00 0.00 0.00 0.00 0.00 0.00 0.00 0.02 0.02 0.05 0.08 0.11 0.10 0.14 0.10 0.02 0.03 0.08 0.00 0.00 0.00 0.00 0.00 0.00 0.00 0.00 0.00 0.00 0.00 0.00 0.00 0.00 0.00 0.00 0.00 0.00 0.00 0.00
2.33 0.46 0.17 0.10 0.06 0.10 0.03 0.00 0.00 0.00 0.00 0.00 0.00 0.00 0.00 0.03 0.07 0.15 0.09 0.11 0.17 0.22 0.20 0.10 0.13 0.05 0.01 0.00 0.00 0.00 0.00 0.00 0.00 0.00 0.00 0.00 0.00 0.00 0.00 0.00 0.00 0.00 0.00 0.00 0.00

GFSSW_prec_precacc_045.txt.gz
Total_Precipitation_Accumulation
0.01 0.02 0.02 0.02 0.01 0.01 0.01 0.01 0.01 0.01 0.01 0.01 0.01 0.01 0.01 0.01 0.00 0.00 0.00 0.00 0.00 0.00 0.00 0.00 0.00 0.00 0.00 0.00 0.00 0.00 0.00 0.00 0.00 0.03 0.10 0.24 0.18 0.09 0.11 0.18 0.29 0.39 0.68 0.95 0.89
0.03 0.03 0.02 0.02 0.01 0.01 0.01 0.01 0.01 0.01 0.01 0.01 0.01 0.01 0.01 0.01 0.00 0.00 0.00 0.00 0.00 0.00 0.00 0.00 0.00 0.00 0.00 0.00 0.00 0.00 0.00 0.00 0.01 0.02 0.10 0.16 0.21 0.09 0.13 0.42 0.67 0.42 0.81 1.14 1.08
0.02 0.02 0.02 0.02 0.02 0.01 0.01 0.01 0.01 0.01 0.01 0.01 0.01 0.01 0.01 0.00 0.00 0.00 0.00 0.00 0.00 0.00 0.00 0.00 0.00 0.00 0.00 0.00 0.00 0.00 0.00 0.00 0.02 0.10 0.02 0.05 0.08 0.06 0.12 0.57 0.92 0.94 0.74 0.83 0.71
0.01 0.01 0.02 0.02 0.02 0.02 0.01 0.01 0.01 0.01 0.01 0.01 0.01 0.01 0.01 0.00 0.00 0.00 0.00 0.00 0.00 0.00 0.00 0.00 0.00 0.00 0.00 0.00 0.00 0.00 0.00 0.00 0.01 0.05 0.01 0.04 0.06 0.04 0.21 0.45 0.36 0.38 0.38 0.31 0.40
0.01 0.01 0.01 0.02 0.02 0.02 0.01 0.01 0.01 0.01 0.01 0.01 0.01 0.01 0.00 0.00 0.00 0.00 0.00 0.00 0.00 0.00 0.00 0.00 0.00 0.00 0.00 0.00 0.00 0.00 0.00 0.00 0.00 0.00 0.03 0.01 0.02 0.04 0.04 0.10 0.04 0.11 0.19 0.28 0.41
0.01 0.01 0.01 0.02 0.02 0.02 0.01 0.01 0.01 0.01 0.01 0.01 0.01 0.01 0.00 0.00 0.00 0.00 0.00 0.00 0.00 0.00 0.00 0.00 0.00 0.00 0.00 0.00 0.00 0.00 0.00 0.00 0.00 0.00 0.01 0.02 0.02 0.06 0.21 0.06 0.02 0.06 0.22 0.38 0.35
0.01 0.02 0.02 0.02 0.02 0.01 0.01 0.01 0.01 0.01 0.01 0.01 0.01 0.01 0.00 0.00 0.00 0.00 0.00 0.00 0.00 0.00 0.00 0.00 0.00 0.00 0.00 0.00 0.00 0.00 0.00 0.00 0.00 0.00 0.02 0.07 0.12 0.13 0.13 0.01 0.01 0.03 0.10 0.11 0.17
0.02 0.01 0.02 0.01 0.01 0.01 0.01 0.01 0.01 0.01 0.01 0.01 0.01 0.00 0.00 0.00 0.00 0.00 0.00 0.00 0.00 0.00 0.00 0.00 0.00 0.00 0.00 0.00 0.00 0.00 0.00 0.01 0.01 0.00 0.01 0.12 0.46 0.07 0.08 0.08 0.04 0.03 0.07 0.06 0.02
0.01 0.01 0.01 0.01 0.01 0.02 0.01 0.01 0.01 0.01 0.01 0.01 0.00 0.00 0.00 0.00 0.00 0.00 0.00 0.00 0.00 0.00 0.00 0.00 0.00 0.00 0.00 0.00 0.00 0.00 0.00 0.00 0.01 0.01 0.01 0.10 0.45 0.09 0.08 0.22 0.09 0.04 0.01 0.00 0.00
0.02 0.02 0.02 0.02 0.03 0.02 0.01 0.01 0.01 0.01 0.01 0.00 0.00 0.00 0.00 0.00 0.00 0.00 0.00 0.00 0.00 0.00 0.00 0.00 0.00 0.00 0.00 0.00 0.00 0.00 0.00 0.00 0.00 0.00 0.00 0.01 0.12 0.23 0.06 0.09 0.30 0.05 0.02 0.00 0.00
0.02 0.02 0.02 0.03 0.04 0.02 0.00 0.00 0.00 0.00 0.00 0.00 0.00 0.00 0.00 0.00 0.00 0.00 0.00 0.00 0.00 0.00 0.00 0.00 0.00 0.00 0.00 0.00 0.00 0.00 0.00 0.00 0.00 0.00 0.00 0.00 0.02 0.10 0.15 0.04 0.06 0.04 0.14 0.05 0.01
0.03 0.02 0.02 0.03 0.05 0.02 0.01 0.00 0.00 0.00 0.00 0.00 0.00 0.00 0.00 0.00 0.00 0.00 0.00 0.00 0.00 0.00 0.00 0.00 0.00 0.00 0.00 0.00 0.00 0.00 0.00 0.00 0.00 0.00 0.00 0.00 0.00 0.02 0.07 0.01 0.01 0.01 0.14 0.03 0.01
0.03 0.02 0.03 0.05 0.04 0.01 0.00 0.00 0.00 0.00 0.00 0.00 0.00 0.00 0.00 0.00 0.00 0.00 0.00 0.00 0.00 0.00 0.00 0.00 0.00 0.00 0.00 0.00 0.00 0.00 0.00 0.00 0.00 0.00 0.00 0.00 0.00 0.02 0.02 0.02 0.06 0.01 0.00 0.00 0.00
0.04 0.03 0.04 0.05 0.01 0.00 0.00 0.00 0.00 0.00 0.00 0.00 0.00 0.00 0.00 0.00 0.00 0.00 0.00 0.00 0.00 0.00 0.00 0.00 0.00 0.00 0.00 0.00 0.00 0.00 0.00 0.00 0.00 0.00 0.00 0.00 0.01 0.09 0.03 0.01 0.04 0.02 0.00 0.01 0.00
0.05 0.05 0.07 0.04 0.00 0.00 0.00 0.00 0.00 0.01 0.01 0.00 0.00 0.00 0.00 0.00 0.00 0.00 0.00 0.00 0.00 0.00 0.00 0.00 0.00 0.00 0.00 0.00 0.00 0.01 0.00 0.00 0.00 0.00 0.01 0.01 0.00 0.08 0.01 0.01 0.01 0.01 0.00 0.01 0.01
0.07 0.08 0.13 0.07 0.02 0.00 0.01 0.02 0.07 0.02 0.00 0.00 0.00 0.00 0.00 0.00 0.00 0.00 0.00 0.00 0.00 0.00 0.00 0.00 0.00 0.00 0.00 0.00 0.00 0.00 0.00 0.00 0.00 0.00 0.01 0.02 0.02 0.04 0.01 0.00 0.02 0.02 0.01 0.01 0.02
0.10 0.12 0.14 0.04 0.02 0.01 0.02 0.18 0.17 0.01 0.00 0.00 0.00 0.00 0.00 0.00 0.00 0.00 0.00 0.00 0.00 0.00 0.00 0.00 0.00 0.00 0.00 0.00 0.00 0.00 0.00 0.00 0.02 0.00 0.00 0.00 0.01 0.02 0.02 0.05 0.12 0.10 0.01 0.02 0.00
0.14 0.19 0.14 0.05 0.02 0.05 0.13 0.31 0.09 0.00 0.00 0.00 0.00 0.00 0.00 0.00 0.00 0.00 0.00 0.00 0.00 0.00 0.00 0.00 0.00 0.00 0.00 0.00 0.00 0.00 0.00 0.00 0.08 0.06 0.05 0.03 0.01 0.01 0.01 0.01 0.00 0.00 0.00 0.00 0.00
0.29 0.28 0.21 0.07 0.02 0.07 0.35 0.38 0.03 0.00 0.00 0.00 0.00 0.00 0.00 0.00 0.00 0.00 0.00 0.00 0.00 0.00 0.00 0.02 0.00 0.00 0.00 0.00 0.00 0.00 0.00 0.00 0.01 0.02 0.05 0.06 0.00 0.00 0.00 0.00 0.00 0.00 0.00 0.00 0.01
0.40 0.41 0.15 0.05 0.08 0.27 0.47 0.21 0.00 0.00 0.00 0.00 0.00 0.00 0.00 0.00 0.00 0.00 0.00 0.00 0.00 0.00 0.00 0.04 0.07 0.01 0.00 0.00 0.00 0.00 0.00 0.00 0.00 0.02 0.04 0.00 0.00 0.00 0.01 0.00 0.00 0.00 0.00 0.00 0.00
0.87 0.76 0.14 0.09 0.40 0.48 0.33 0.06 0.00 0.00 0.00 0.00 0.00 0.00 0.00 0.00 0.00 0.00 0.00 0.00 0.00 0.00 0.00 0.00 0.03 0.04 0.00 0.00 0.00 0.00 0.00 0.00 0.00 0.00 0.01 0.01 0.00 0.00 0.01 0.00 0.00 0.00 0.00 0.00 0.00
1.47 0.93 0.16 0.15 0.52 0.29 0.07 0.00 0.00 0.00 0.00 0.00 0.00 0.00 0.00 0.00 0.00 0.00 0.00 0.00 0.00 0.00 0.00 0.00 0.00 0.00 0.00 0.00 0.00 0.00 0.00 0.00 0.00 0.00 0.00 0.01 0.00 0.00 0.00 0.00 0.00 0.00 0.00 0.00 0.00
1.78 0.93 0.67 0.21 0.26 0.12 0.02 0.00 0.00 0.00 0.00 0.00 0.00 0.00 0.00 0.00 0.01 0.01 0.00 0.00 0.00 0.01 0.00 0.00 0.00 0.00 0.00 0.00 0.00 0.00 0.00 0.00 0.00 0.00 0.00 0.03 0.00 0.00 0.00 0.00 0.00 0.00 0.00 0.00 0.00
2.05 1.48 1.63 0.72 0.05 0.01 0.01 0.01 0.00 0.00 0.00 0.00 0.00 0.00 0.01 0.06 0.01 0.01 0.00 0.00 0.00 0.01 0.01 0.02 0.00 0.00 0.00 0.00 0.00 0.00 0.00 0.00 0.00 0.00 0.00 0.00 0.00 0.00 0.01 0.00 0.00 0.00 0.00 0.00 0.00
3.05 1.19 0.61 0.56 0.13 0.01 0.00 0.00 0.00 0.00 0.00 0.00 0.00 0.00 0.00 0.03 0.05 0.03 0.04 0.02 0.05 0.01 0.01 0.05 0.05 0.01 0.00 0.00 0.00 0.00 0.00 0.00 0.00 0.00 0.01 0.00 0.00 0.00 0.00 0.00 0.00 0.00 0.00 0.00 0.00
3.09 0.74 0.13 0.03 0.03 0.03 0.03 0.01 0.00 0.00 0.00 0.00 0.00 0.00 0.02 0.02 0.05 0.08 0.11 0.10 0.14 0.11 0.03 0.03 0.08 0.01 0.00 0.00 0.00 0.00 0.00 0.00 0.00 0.00 0.00 0.00 0.00 0.00 0.00 0.00 0.00 0.00 0.00 0.00 0.00
2.52 0.47 0.18 0.12 0.07 0.11 0.04 0.00 0.00 0.00 0.00 0.00 0.00 0.00 0.00 0.03 0.07 0.15 0.09 0.11 0.17 0.22 0.20 0.10 0.13 0.05 0.01 0.00 0.00 0.00 0.00 0.00 0.00 0.00 0.00 0.00 0.00 0.00 0.00 0.00 0.00 0.00 0.00 0.00 0.00

GFSSW_prec_precacc_048.txt.gz
Total_Precipitation_Accumulation
0.01 0.02 0.02 0.02 0.02 0.01 0.01 0.01 0.01 0.01 0.01 0.01 0.01 0.01 0.01 0.01 0.01 0.00 0.00 0.00 0.00 0.00 0.00 0.00 0.00 0.00 0.00 0.00 0.00 0.00 0.00 0.00 0.00 0.03 0.10 0.24 0.18 0.09 0.11 0.18 0.29 0.39 0.68 0.95 0.89
0.03 0.03 0.02 0.02 0.01 0.01 0.01 0.01 0.01 0.01 0.01 0.01 0.01 0.01 0.01 0.01 0.00 0.00 0.00 0.00 0.00 0.00 0.00 0.00 0.00 0.00 0.00 0.00 0.00 0.00 0.00 0.00 0.01 0.02 0.10 0.16 0.21 0.09 0.13 0.42 0.67 0.42 0.82 1.15 1.08
0.02 0.02 0.02 0.02 0.02 0.01 0.01 0.01 0.01 0.01 0.01 0.01 0.01 0.01 0.01 0.00 0.00 0.00 0.00 0.00 0.00 0.00 0.00 0.00 0.00 0.00 0.00 0.00 0.00 0.00 0.00 0.00 0.02 0.10 0.02 0.05 0.08 0.06 0.12 0.57 0.92 0.94 0.74 0.83 0.71
0.01 0.01 0.02 0.02 0.02 0.02 0.01 0.01 0.01 0.01 0.01 0.01 0.01 0.01 0.01 0.00 0.00 0.00 0.00 0.00 0.00 0.00 0.00 0.00 0.00 0.00 0.00 0.00 0.00 0.00 0.00 0.00 0.01 0.05 0.01 0.04 0.06 0.04 0.21 0.45 0.36 0.38 0.38 0.31 0.40
0.01 0.01 0.01 0.02 0.02 0.02 0.01 0.01 0.01 0.01 0.01 0.01 0.01 0.01 0.00 0.00 0.00 0.00 0.00 0.00 0.00 0.00 0.00 0.00 0.00 0.00 0.00 0.00 0.00 0.00 0.00 0.00 0.00 0.00 0.03 0.01 0.02 0.04 0.04 0.10 0.04 0.11 0.19 0.28 0.41
0.01 0.01 0.01 0.02 0.02 0.02 0.01 0.01 0.01 0.01 0.01 0.01 0.01 0.01 0.00 0.00 0.00 0.00 0.00 0.00 0.00 0.00 0.00 0.00 0.00 0.00 0.00 0.00 0.00 0.00 0.00 0.00 0.00 0.00 0.01 0.02 0.02 0.06 0.21 0.06 0.02 0.06 0.22 0.38 0.35
0.01 0.02 0.02 0.02 0.02 0.01 0.01 0.01 0.01 0.01 0.01 0.01 0.01 0.01 0.00 0.00 0.00 0.00 0.00 0.00 0.00 0.00 0.00 0.00 0.00 0.00 0.00 0.00 0.00 0.00 0.00 0.00 0.00 0.00 0.02 0.07 0.12 0.13 0.13 0.01 0.01 0.03 0.10 0.11 0.17
0.02 0.02 0.02 0.01 0.01 0.01 0.01 0.01 0.01 0.01 0.01 0.01 0.01 0.01 0.00 0.00 0.00 0.00 0.00 0.00 0.00 0.00 0.00 0.00 0.00 0.00 0.00 0.00 0.00 0.00 0.00 0.01 0.01 0.00 0.01 0.12 0.46 0.07 0.08 0.08 0.04 0.03 0.07 0.06 0.02
0.02 0.02 0.01 0.01 0.01 0.02 0.01 0.01 0.01 0.01 0.01 0.01 0.00 0.00 0.00 0.00 0.00 0.00 0.00 0.00 0.00 0.00 0.00 0.00 0.00 0.00 0.00 0.00 0.00 0.00 0.00 0.00 0.01 0.01 0.01 0.10 0.45 0.09 0.08 0.22 0.09 0.04 0.01 0.00 0.00
0.02 0.02 0.02 0.03 0.03 0.02 0.01 0.01 0.01 0.01 0.01 0.00 0.00 0.00 0.00 0.00 0.00 0.00 0.00 0.00 0.00 0.00 0.00 0.00 0.00 0.00 0.00 0.00 0.00 0.00 0.00 0.00 0.00 0.00 0.00 0.01 0.12 0.23 0.06 0.09 0.30 0.05 0.02 0.00 0.00
0.02 0.02 0.02 0.03 0.04 0.02 0.00 0.00 0.00 0.00 0.00 0.00 0.00 0.00 0.00 0.00 0.00 0.00 0.00 0.00 0.00 0.00 0.00 0.00 0.00 0.00 0.00 0.00 0.00 0.00 0.00 0.00 0.00 0.00 0.00 0.00 0.02 0.10 0.15 0.04 0.06 0.04 0.14 0.05 0.01
0.03 0.02 0.02 0.03 0.05 0.02 0.01 0.00 0.00 0.00 0.00 0.00 0.00 0.00 0.00 0.00 0.00 0.00 0.00 0.00 0.00 0.00 0.00 0.00 0.00 0.00 0.00 0.00 0.00 0.00 0.00 0.00 0.00 0.00 0.00 0.00 0.00 0.02 0.07 0.01 0.01 0.01 0.14 0.03 0.01
0.03 0.02 0.03 0.05 0.04 0.01 0.00 0.00 0.00 0.00 0.00 0.00 0.00 0.00 0.00 0.00 0.00 0.00 0.00 0.00 0.00 0.00 0.00 0.00 0.00 0.00 0.00 0.00 0.00 0.00 0.00 0.00 0.00 0.00 0.00 0.00 0.00 0.02 0.02 0.02 0.06 0.01 0.00 0.00 0.00
0.04 0.03 0.04 0.05 0.01 0.00 0.00 0.00 0.00 0.00 0.00 0.00 0.00 0.00 0.00 0.00 0.00 0.00 0.00 0.00 0.00 0.00 0.00 0.00 0.00 0.00 0.00 0.00 0.00 0.00 0.00 0.00 0.00 0.00 0.00 0.00 0.01 0.09 0.03 0.01 0.04 0.02 0.00 0.01 0.00
0.05 0.05 0.07 0.05 0.00 0.00 0.00 0.00 0.00 0.01 0.01 0.00 0.00 0.00 0.00 0.00 0.00 0.00 0.00 0.00 0.00 0.00 0.00 0.00 0.00 0.00 0.00 0.00 0.00 0.01 0.00 0.00 0.00 0.00 0.01 0.01 0.00 0.08 0.01 0.01 0.01 0.01 0.00 0.01 0.01
0.07 0.08 0.13 0.07 0.02 0.00 0.01 0.02 0.08 0.02 0.00 0.00 0.00 0.00 0.00 0.00 0.00 0.00 0.00 0.00 0.00 0.00 0.00 0.00 0.00 0.00 0.00 0.00 0.00 0.00 0.00 0.00 0.00 0.00 0.01 0.02 0.02 0.04 0.01 0.00 0.02 0.02 0.01 0.01 0.02
0.10 0.13 0.15 0.04 0.02 0.01 0.02 0.18 0.19 0.02 0.00 0.00 0.00 0.00 0.00 0.00 0.00 0.00 0.00 0.00 0.00 0.00 0.00 0.00 0.00 0.00 0.00 0.00 0.00 0.00 0.00 0.00 0.02 0.00 0.00 0.00 0.01 0.02 0.02 0.05 0.12 0.10 0.01 0.02 0.00
0.14 0.21 0.15 0.06 0.02 0.05 0.13 0.31 0.10 0.00 0.00 0.00 0.00 0.00 0.00 0.00 0.00 0.00 0.00 0.00 0.00 0.00 0.00 0.00 0.00 0.00 0.00 0.00 0.00 0.00 0.00 0.00 0.08 0.06 0.05 0.03 0.01 0.01 0.01 0.01 0.00 0.00 0.00 0.00 0.00
0.31 0.29 0.22 0.07 0.02 0.07 0.35 0.39 0.04 0.00 0.00 0.00 0.00 0.00 0.00 0.00 0.00 0.00 0.00 0.00 0.00 0.00 0.00 0.02 0.00 0.00 0.00 0.00 0.00 0.00 0.00 0.00 0.01 0.02 0.05 0.06 0.00 0.00 0.00 0.00 0.00 0.00 0.00 0.00 0.01
0.43 0.44 0.16 0.05 0.08 0.27 0.48 0.21 0.00 0.00 0.00 0.00 0.00 0.00 0.00 0.00 0.00 0.00 0.00 0.00 0.00 0.00 0.00 0.04 0.07 0.01 0.00 0.00 0.00 0.00 0.00 0.00 0.00 0.02 0.04 0.00 0.00 0.00 0.01 0.00 0.00 0.00 0.00 0.00 0.00
0.93 0.85 0.17 0.09 0.45 0.59 0.38 0.06 0.00 0.00 0.00 0.00 0.00 0.00 0.00 0.00 0.00 0.00 0.00 0.00 0.00 0.00 0.00 0.00 0.03 0.04 0.00 0.00 0.00 0.00 0.00 0.00 0.00 0.00 0.01 0.01 0.00 0.00 0.01 0.00 0.00 0.00 0.00 0.00 0.00
1.56 1.07 0.18 0.16 0.65 0.41 0.09 0.00 0.00 0.00 0.00 0.00 0.00 0.00 0.00 0.00 0.00 0.00 0.00 0.00 0.00 0.00 0.00 0.00 0.00 0.00 0.00 0.00 0.00 0.00 0.00 0.00 0.00 0.00 0.00 0.01 0.00 0.00 0.00 0.00 0.00 0.00 0.00 0.00 0.00
1.92 1.00 0.73 0.25 0.33 0.15 0.03 0.01 0.00 0.00 0.00 0.00 0.00 0.00 0.00 0.00 0.01 0.01 0.00 0.00 0.00 0.01 0.00 0.00 0.00 0.00 0.00 0.00 0.00 0.00 0.00 0.00 0.00 0.00 0.00 0.03 0.00 0.00 0.00 0.00 0.00 0.00 0.00 0.00 0.00
2.27 1.59 1.75 0.94 0.11 0.01 0.03 0.02 0.00 0.00 0.00 0.00 0.00 0.00 0.01 0.06 0.01 0.01 0.00 0.01 0.00 0.01 0.01 0.02 0.00 0.00 0.01 0.00 0.00 0.00 0.00 0.00 0.00 0.00 0.00 0.00 0.00 0.00 0.01 0.00 0.00 0.00 0.00 0.00 0.00
3.31 1.28 0.65 0.64 0.22 0.03 0.01 0.00 0.00 0.00 0.00 0.00 0.00 0.00 0.00 0.03 0.05 0.03 0.04 0.02 0.05 0.01 0.01 0.05 0.05 0.01 0.00 0.00 0.00 0.00 0.00 0.00 0.00 0.00 0.01 0.00 0.00 0.00 0.00 0.00 0.00 0.00 0.00 0.00 0.00
3.26 0.76 0.14 0.07 0.04 0.07 0.05 0.01 0.00 0.00 0.00 0.00 0.00 0.00 0.02 0.02 0.05 0.08 0.11 0.10 0.14 0.11 0.03 0.03 0.08 0.01 0.00 0.00 0.00 0.00 0.00 0.00 0.00 0.00 0.00 0.00 0.00 0.00 0.00 0.00 0.00 0.00 0.00 0.00 0.00
2.63 0.49 0.20 0.14 0.09 0.13 0.05 0.01 0.01 0.00 0.00 0.00 0.00 0.00 0.00 0.03 0.07 0.15 0.09 0.11 0.17 0.22 0.20 0.11 0.13 0.05 0.01 0.00 0.00 0.00 0.00 0.00 0.00 0.00 0.00 0.00 0.00 0.00 0.00 0.00 0.00 0.00 0.00 0.00 0.00

GFSSW_prec_precacc_051.txt.gz
Total_Precipitation_Accumulation
0.02 0.02 0.02 0.02 0.02 0.01 0.01 0.01 0.01 0.01 0.01 0.01 0.01 0.01 0.01 0.01 0.01 0.00 0.00 0.00 0.00 0.00 0.00 0.00 0.00 0.00 0.00 0.00 0.00 0.00 0.00 0.00 0.00 0.03 0.10 0.24 0.18 0.09 0.11 0.18 0.29 0.39 0.68 0.95 0.89
0.03 0.03 0.02 0.02 0.01 0.01 0.01 0.01 0.01 0.01 0.01 0.01 0.01 0.01 0.01 0.01 0.00 0.00 0.00 0.00 0.00 0.00 0.00 0.00 0.00 0.00 0.00 0.00 0.00 0.00 0.00 0.00 0.01 0.02 0.10 0.16 0.21 0.09 0.13 0.42 0.67 0.42 0.82 1.15 1.09
0.02 0.02 0.02 0.02 0.02 0.01 0.01 0.01 0.01 0.01 0.01 0.01 0.01 0.01 0.01 0.00 0.00 0.00 0.00 0.00 0.00 0.00 0.00 0.00 0.00 0.00 0.00 0.00 0.00 0.00 0.00 0.00 0.02 0.10 0.02 0.05 0.08 0.06 0.12 0.57 0.92 0.94 0.74 0.83 0.71
0.01 0.01 0.02 0.02 0.02 0.02 0.01 0.01 0.01 0.01 0.01 0.01 0.01 0.01 0.01 0.00 0.00 0.00 0.00 0.00 0.00 0.00 0.00 0.00 0.00 0.00 0.00 0.00 0.00 0.00 0.00 0.00 0.01 0.05 0.01 0.04 0.06 0.04 0.21 0.45 0.36 0.38 0.38 0.31 0.40
0.01 0.01 0.01 0.02 0.02 0.02 0.01 0.01 0.01 0.01 0.01 0.01 0.01 0.01 0.00 0.00 0.00 0.00 0.00 0.00 0.00 0.00 0.00 0.00 0.00 0.00 0.00 0.00 0.00 0.00 0.00 0.00 0.00 0.00 0.03 0.01 0.02 0.04 0.04 0.10 0.04 0.11 0.19 0.28 0.41
0.01 0.01 0.01 0.02 0.02 0.02 0.01 0.01 0.01 0.01 0.01 0.01 0.01 0.01 0.00 0.00 0.00 0.00 0.00 0.00 0.00 0.00 0.00 0.00 0.00 0.00 0.00 0.00 0.00 0.00 0.00 0.00 0.00 0.00 0.01 0.02 0.02 0.06 0.21 0.06 0.02 0.06 0.22 0.38 0.35
0.02 0.02 0.02 0.02 0.02 0.01 0.01 0.01 0.01 0.01 0.01 0.01 0.01 0.01 0.00 0.00 0.00 0.00 0.00 0.00 0.00 0.00 0.00 0.00 0.00 0.00 0.00 0.00 0.00 0.00 0.00 0.00 0.00 0.00 0.02 0.07 0.12 0.13 0.13 0.01 0.01 0.03 0.10 0.11 0.17
0.02 0.02 0.02 0.01 0.01 0.01 0.01 0.01 0.01 0.01 0.01 0.01 0.01 0.01 0.00 0.00 0.00 0.00 0.00 0.00 0.00 0.00 0.00 0.00 0.00 0.00 0.00 0.00 0.00 0.00 0.00 0.01 0.01 0.00 0.01 0.12 0.46 0.07 0.08 0.08 0.04 0.03 0.07 0.06 0.02
0.02 0.02 0.01 0.01 0.02 0.02 0.01 0.01 0.01 0.01 0.01 0.01 0.00 0.00 0.00 0.00 0.00 0.00 0.00 0.00 0.00 0.00 0.00 0.00 0.00 0.00 0.00 0.00 0.00 0.00 0.00 0.00 0.01 0.01 0.01 0.10 0.45 0.09 0.08 0.22 0.09 0.04 0.01 0.00 0.00
0.02 0.02 0.02 0.03 0.03 0.02 0.01 0.01 0.01 0.01 0.01 0.00 0.00 0.00 0.00 0.00 0.00 0.00 0.00 0.00 0.00 0.00 0.00 0.00 0.00 0.00 0.00 0.00 0.00 0.00 0.00 0.00 0.00 0.00 0.00 0.01 0.12 0.23 0.06 0.09 0.30 0.05 0.02 0.00 0.00
0.02 0.02 0.02 0.03 0.04 0.02 0.00 0.00 0.00 0.00 0.00 0.00 0.00 0.00 0.00 0.00 0.00 0.00 0.00 0.00 0.00 0.00 0.00 0.00 0.00 0.00 0.00 0.00 0.00 0.00 0.00 0.00 0.00 0.00 0.00 0.00 0.02 0.10 0.15 0.04 0.06 0.04 0.14 0.05 0.01
0.03 0.02 0.02 0.04 0.05 0.02 0.01 0.00 0.00 0.00 0.00 0.00 0.00 0.00 0.00 0.00 0.00 0.00 0.00 0.00 0.00 0.00 0.00 0.00 0.00 0.00 0.00 0.00 0.00 0.00 0.00 0.00 0.00 0.00 0.00 0.00 0.00 0.02 0.07 0.01 0.01 0.01 0.14 0.03 0.01
0.03 0.02 0.03 0.05 0.04 0.01 0.00 0.00 0.00 0.00 0.00 0.00 0.00 0.00 0.00 0.00 0.00 0.00 0.00 0.00 0.00 0.00 0.00 0.00 0.00 0.00 0.00 0.00 0.00 0.00 0.00 0.00 0.00 0.00 0.00 0.00 0.00 0.02 0.02 0.02 0.06 0.01 0.00 0.00 0.00
0.04 0.03 0.04 0.06 0.01 0.00 0.00 0.00 0.00 0.00 0.00 0.00 0.00 0.00 0.00 0.00 0.00 0.00 0.00 0.00 0.00 0.00 0.00 0.00 0.00 0.00 0.00 0.00 0.00 0.00 0.00 0.00 0.00 0.00 0.00 0.00 0.01 0.09 0.03 0.01 0.04 0.02 0.00 0.01 0.00
0.05 0.05 0.07 0.06 0.01 0.00 0.00 0.00 0.00 0.01 0.01 0.00 0.00 0.00 0.00 0.00 0.00 0.00 0.00 0.00 0.00 0.00 0.00 0.00 0.00 0.00 0.00 0.00 0.00 0.01 0.00 0.00 0.00 0.00 0.01 0.01 0.00 0.08 0.01 0.01 0.01 0.01 0.00 0.01 0.01
0.07 0.09 0.14 0.08 0.02 0.00 0.01 0.02 0.08 0.03 0.00 0.00 0.00 0.00 0.00 0.00 0.00 0.00 0.00 0.00 0.00 0.00 0.00 0.00 0.00 0.00 0.00 0.00 0.00 0.00 0.00 0.00 0.00 0.00 0.01 0.02 0.02 0.04 0.01 0.00 0.02 0.02 0.01 0.01 0.02
0.10 0.13 0.15 0.05 0.02 0.01 0.02 0.18 0.20 0.02 0.00 0.00 0.00 0.00 0.00 0.00 0.00 0.00 0.00 0.00 0.00 0.00 0.00 0.00 0.00 0.00 0.00 0.00 0.00 0.00 0.00 0.00 0.02 0.00 0.00 0.00 0.01 0.02 0.02 0.05 0.12 0.10 0.01 0.02 0.00
0.14 0.21 0.15 0.07 0.03 0.05 0.13 0.31 0.11 0.00 0.00 0.00 0.00 0.00 0.00 0.00 0.00 0.00 0.00 0.00 0.00 0.00 0.00 0.00 0.00 0.00 0.00 0.00 0.00 0.00 0.00 0.00 0.08 0.06 0.05 0.03 0.01 0.01 0.01 0.01 0.00 0.00 0.00 0.00 0.00
0.31 0.29 0.22 0.07 0.03 0.08 0.35 0.40 0.04 0.00 0.00 0.00 0.00 0.00 0.00 0.00 0.00 0.00 0.00 0.00 0.00 0.00 0.00 0.02 0.00 0.00 0.00 0.00 0.00 0.00 0.00 0.00 0.01 0.02 0.05 0.06 0.00 0.00 0.00 0.00 0.00 0.00 0.00 0.00 0.01
0.44 0.45 0.16 0.05 0.10 0.30 0.52 0.23 0.00 0.00 0.00 0.00 0.00 0.00 0.00 0.00 0.00 0.00 0.00 0.00 0.00 0.00 0.00 0.04 0.07 0.01 0.00 0.00 0.00 0.00 0.00 0.00 0.00 0.02 0.04 0.00 0.00 0.00 0.01 0.00 0.00 0.00 0.00 0.00 0.00
0.94 0.87 0.17 0.09 0.47 0.72 0.49 0.08 0.00 0.00 0.00 0.00 0.00 0.00 0.00 0.00 0.00 0.00 0.00 0.00 0.00 0.00 0.00 0.00 0.03 0.04 0.00 0.00 0.00 0.00 0.00 0.00 0.00 0.00 0.01 0.01 0.00 0.00 0.01 0.00 0.00 0.00 0.00 0.00 0.00
1.59 1.09 0.21 0.19 0.71 0.51 0.16 0.01 0.00 0.00 0.00 0.00 0.00 0.00 0.00 0.00 0.00 0.00 0.00 0.00 0.00 0.00 0.00 0.00 0.00 0.00 0.00 0.00 0.00 0.00 0.00 0.00 0.00 0.00 0.00 0.01 0.00 0.00 0.00 0.00 0.00 0.00 0.00 0.00 0.00
1.95 1.01 0.76 0.33 0.40 0.18 0.05 0.02 0.00 0.00 0.00 0.00 0.00 0.00 0.00 0.00 0.01 0.01 0.00 0.00 0.00 0.01 0.00 0.00 0.00 0.00 0.00 0.00 0.00 0.00 0.00 0.00 0.00 0.00 0.00 0.03 0.00 0.00 0.00 0.00 0.00 0.00 0.00 0.00 0.00
2.32 1.63 1.78 1.03 0.16 0.04 0.07 0.04 0.00 0.00 0.00 0.00 0.00 0.00 0.01 0.06 0.01 0.01 0.00 0.01 0.00 0.01 0.01 0.02 0.00 0.00 0.01 0.00 0.00 0.00 0.00 0.00 0.00 0.00 0.00 0.00 0.00 0.00 0.01 0.00 0.00 0.00 0.00 0.00 0.00
3.41 1.32 0.68 0.67 0.26 0.10 0.05 0.03 0.00 0.00 0.00 0.00 0.01 0.00 0.00 0.03 0.05 0.03 0.04 0.02 0.05 0.01 0.01 0.05 0.05 0.01 0.00 0.00 0.00 0.00 0.00 0.00 0.00 0.00 0.01 0.00 0.00 0.00 0.00 0.00 0.00 0.00 0.00 0.00 0.00
3.38 0.80 0.17 0.09 0.06 0.10 0.16 0.08 0.00 0.00 0.00 0.00 0.00 0.00 0.02 0.02 0.05 0.08 0.11 0.10 0.14 0.11 0.03 0.03 0.08 0.01 0.00 0.00 0.00 0.00 0.00 0.00 0.00 0.00 0.00 0.00 0.00 0.00 0.00 0.00 0.00 0.00 0.00 0.00 0.00
2.71 0.53 0.25 0.18 0.11 0.19 0.08 0.02 0.01 0.00 0.01 0.00 0.00 0.00 0.00 0.03 0.07 0.15 0.09 0.11 0.17 0.22 0.20 0.11 0.13 0.05 0.01 0.00 0.00 0.00 0.00 0.00 0.00 0.00 0.00 0.00 0.00 0.00 0.00 0.00 0.00 0.00 0.00 0.00 0.00

GFSSW_prec_precacc_054.txt.gz
Total_Precipitation_Accumulation
0.02 0.02 0.02 0.02 0.02 0.01 0.01 0.01 0.01 0.01 0.01 0.01 0.01 0.01 0.01 0.01 0.01 0.00 0.00 0.00 0.00 0.00 0.00 0.00 0.00 0.00 0.00 0.00 0.00 0.00 0.00 0.00 0.00 0.03 0.10 0.24 0.18 0.09 0.11 0.18 0.29 0.39 0.68 0.95 0.89
0.03 0.03 0.02 0.02 0.01 0.01 0.01 0.01 0.01 0.01 0.01 0.01 0.01 0.01 0.01 0.01 0.00 0.00 0.00 0.00 0.00 0.00 0.00 0.00 0.00 0.00 0.00 0.00 0.00 0.00 0.00 0.00 0.01 0.02 0.10 0.16 0.21 0.09 0.13 0.42 0.67 0.42 0.82 1.15 1.09
0.02 0.02 0.02 0.02 0.02 0.01 0.01 0.01 0.01 0.01 0.01 0.01 0.01 0.01 0.01 0.00 0.00 0.00 0.00 0.00 0.00 0.00 0.00 0.00 0.00 0.00 0.00 0.00 0.00 0.00 0.00 0.00 0.02 0.10 0.02 0.05 0.08 0.06 0.12 0.57 0.92 0.94 0.74 0.83 0.72
0.01 0.01 0.02 0.02 0.02 0.02 0.01 0.01 0.01 0.01 0.01 0.01 0.01 0.01 0.01 0.00 0.00 0.00 0.00 0.00 0.00 0.00 0.00 0.00 0.00 0.00 0.00 0.00 0.00 0.00 0.00 0.00 0.01 0.05 0.01 0.04 0.06 0.04 0.21 0.45 0.36 0.38 0.38 0.31 0.40
0.01 0.01 0.01 0.02 0.02 0.02 0.01 0.01 0.01 0.01 0.01 0.01 0.01 0.01 0.00 0.00 0.00 0.00 0.00 0.00 0.00 0.00 0.00 0.00 0.00 0.00 0.00 0.00 0.00 0.00 0.00 0.00 0.00 0.00 0.03 0.01 0.02 0.04 0.04 0.10 0.04 0.11 0.19 0.28 0.41
0.01 0.01 0.01 0.02 0.02 0.02 0.01 0.01 0.01 0.01 0.01 0.01 0.01 0.01 0.00 0.00 0.00 0.00 0.00 0.00 0.00 0.00 0.00 0.00 0.00 0.00 0.00 0.00 0.00 0.00 0.00 0.00 0.00 0.00 0.01 0.02 0.02 0.06 0.21 0.06 0.02 0.06 0.22 0.38 0.35
0.02 0.02 0.02 0.02 0.02 0.01 0.01 0.01 0.01 0.01 0.01 0.01 0.01 0.01 0.00 0.00 0.00 0.00 0.00 0.00 0.00 0.00 0.00 0.00 0.00 0.00 0.00 0.00 0.00 0.00 0.00 0.00 0.00 0.00 0.02 0.07 0.12 0.13 0.13 0.01 0.01 0.03 0.10 0.11 0.17
0.02 0.02 0.02 0.01 0.01 0.01 0.01 0.01 0.01 0.01 0.01 0.01 0.01 0.01 0.00 0.00 0.00 0.00 0.00 0.00 0.00 0.00 0.00 0.00 0.00 0.00 0.00 0.00 0.00 0.00 0.00 0.01 0.01 0.00 0.01 0.12 0.46 0.07 0.08 0.08 0.04 0.03 0.07 0.06 0.02
0.02 0.02 0.02 0.01 0.02 0.02 0.01 0.01 0.01 0.01 0.01 0.01 0.00 0.00 0.00 0.00 0.00 0.00 0.00 0.00 0.00 0.00 0.00 0.00 0.00 0.00 0.00 0.00 0.00 0.00 0.00 0.00 0.01 0.01 0.01 0.10 0.45 0.09 0.08 0.22 0.09 0.04 0.01 0.00 0.00
0.02 0.02 0.02 0.03 0.03 0.02 0.01 0.01 0.01 0.01 0.01 0.00 0.00 0.00 0.00 0.00 0.00 0.00 0.00 0.00 0.00 0.00 0.00 0.00 0.00 0.00 0.00 0.00 0.00 0.00 0.00 0.00 0.00 0.00 0.00 0.01 0.12 0.23 0.06 0.09 0.30 0.05 0.02 0.00 0.00
0.02 0.02 0.02 0.03 0.04 0.02 0.00 0.00 0.00 0.00 0.00 0.00 0.00 0.00 0.00 0.00 0.00 0.00 0.00 0.00 0.00 0.00 0.00 0.00 0.00 0.00 0.00 0.00 0.00 0.00 0.00 0.00 0.00 0.00 0.00 0.00 0.02 0.10 0.15 0.04 0.06 0.04 0.14 0.05 0.01
0.03 0.02 0.02 0.04 0.05 0.02 0.01 0.00 0.00 0.00 0.00 0.00 0.00 0.00 0.00 0.00 0.00 0.00 0.00 0.00 0.00 0.00 0.00 0.00 0.00 0.00 0.00 0.00 0.00 0.00 0.00 0.00 0.00 0.00 0.00 0.00 0.00 0.02 0.07 0.01 0.01 0.01 0.14 0.03 0.01
0.03 0.02 0.03 0.05 0.04 0.01 0.00 0.00 0.00 0.00 0.01 0.00 0.00 0.00 0.00 0.00 0.00 0.00 0.00 0.00 0.00 0.00 0.00 0.00 0.00 0.00 0.00 0.00 0.00 0.00 0.00 0.00 0.00 0.00 0.00 0.00 0.00 0.02 0.02 0.02 0.06 0.01 0.00 0.00 0.00
0.04 0.03 0.04 0.06 0.01 0.00 0.00 0.00 0.00 0.00 0.01 0.00 0.00 0.00 0.00 0.00 0.00 0.00 0.00 0.00 0.00 0.00 0.00 0.00 0.00 0.00 0.00 0.00 0.00 0.00 0.00 0.00 0.00 0.00 0.00 0.00 0.01 0.09 0.03 0.01 0.04 0.02 0.00 0.01 0.00
0.05 0.05 0.07 0.06 0.02 0.00 0.00 0.00 0.00 0.01 0.01 0.00 0.00 0.00 0.00 0.00 0.00 0.00 0.00 0.00 0.00 0.00 0.00 0.00 0.00 0.00 0.00 0.00 0.00 0.01 0.00 0.00 0.00 0.00 0.01 0.01 0.00 0.08 0.01 0.01 0.01 0.01 0.00 0.01 0.01
0.07 0.09 0.14 0.08 0.03 0.00 0.01 0.02 0.08 0.03 0.00 0.00 0.00 0.00 0.00 0.00 0.00 0.00 0.00 0.00 0.00 0.00 0.00 0.00 0.00 0.00 0.00 0.00 0.00 0.00 0.00 0.00 0.00 0.00 0.01 0.02 0.02 0.04 0.01 0.00 0.02 0.02 0.01 0.01 0.02
0.10 0.13 0.15 0.06 0.03 0.01 0.02 0.18 0.20 0.03 0.00 0.00 0.00 0.00 0.00 0.00 0.00 0.00 0.00 0.00 0.00 0.00 0.00 0.00 0.00 0.00 0.00 0.00 0.00 0.00 0.00 0.00 0.02 0.00 0.00 0.00 0.01 0.02 0.02 0.05 0.12 0.10 0.01 0.02 0.00
0.14 0.21 0.15 0.07 0.03 0.05 0.13 0.31 0.11 0.00 0.00 0.00 0.00 0.00 0.00 0.00 0.00 0.00 0.00 0.00 0.00 0.00 0.00 0.01 0.01 0.00 0.00 0.00 0.00 0.00 0.00 0.00 0.08 0.06 0.05 0.03 0.01 0.01 0.01 0.01 0.00 0.00 0.00 0.00 0.00
0.31 0.29 0.22 0.07 0.03 0.09 0.35 0.41 0.04 0.01 0.00 0.00 0.00 0.00 0.00 0.00 0.00 0.00 0.00 0.00 0.00 0.00 0.00 0.02 0.00 0.00 0.00 0.00 0.00 0.00 0.00 0.00 0.01 0.02 0.05 0.06 0.00 0.00 0.00 0.00 0.00 0.00 0.00 0.00 0.01
0.46 0.45 0.16 0.06 0.11 0.34 0.56 0.24 0.00 0.00 0.00 0.00 0.00 0.00 0.00 0.00 0.00 0.00 0.00 0.00 0.00 0.00 0.00 0.04 0.07 0.01 0.00 0.00 0.00 0.00 0.00 0.00 0.00 0.02 0.04 0.00 0.00 0.00 0.01 0.00 0.00 0.00 0.00 0.00 0.00
0.97 0.88 0.18 0.10 0.51 0.76 0.53 0.09 0.00 0.00 0.00 0.00 0.00 0.00 0.00 0.00 0.00 0.00 0.00 0.00 0.00 0.00 0.00 0.00 0.03 0.04 0.00 0.00 0.00 0.00 0.00 0.00 0.00 0.00 0.01 0.01 0.00 0.00 0.01 0.00 0.00 0.00 0.00 0.00 0.00
1.63 1.10 0.21 0.23 0.74 0.53 0.18 0.02 0.00 0.00 0.00 0.00 0.00 0.00 0.00 0.00 0.00 0.00 0.00 0.00 0.00 0.00 0.00 0.00 0.00 0.00 0.00 0.00 0.00 0.00 0.00 0.00 0.00 0.00 0.00 0.01 0.00 0.00 0.00 0.00 0.00 0.00 0.00 0.00 0.00
1.98 1.02 0.78 0.41 0.44 0.20 0.07 0.03 0.00 0.00 0.00 0.00 0.00 0.00 0.00 0.00 0.01 0.01 0.00 0.00 0.00 0.01 0.00 0.00 0.00 0.00 0.00 0.00 0.00 0.00 0.00 0.00 0.00 0.00 0.00 0.03 0.00 0.00 0.00 0.00 0.00 0.00 0.00 0.00 0.00
2.36 1.65 1.81 1.07 0.19 0.06 0.10 0.06 0.01 0.00 0.00 0.00 0.00 0.00 0.01 0.06 0.01 0.01 0.00 0.01 0.00 0.01 0.01 0.02 0.01 0.00 0.01 0.00 0.00 0.00 0.00 0.00 0.00 0.00 0.00 0.00 0.00 0.00 0.01 0.00 0.00 0.00 0.00 0.00 0.00
3.46 1.36 0.70 0.70 0.27 0.11 0.09 0.07 0.01 0.00 0.00 0.00 0.01 0.00 0.01 0.04 0.05 0.03 0.04 0.02 0.05 0.01 0.01 0.05 0.05 0.01 0.00 0.00 0.00 0.00 0.00 0.00 0.00 0.00 0.01 0.00 0.00 0.00 0.00 0.00 0.00 0.00 0.00 0.00 0.00
3.43 0.84 0.21 0.10 0.08 0.12 0.20 0.11 0.01 0.00 0.00 0.00 0.00 0.00 0.03 0.03 0.05 0.08 0.11 0.10 0.14 0.11 0.03 0.03 0.08 0.01 0.00 0.00 0.00 0.00 0.00 0.00 0.00 0.00 0.00 0.00 0.00 0.00 0.00 0.00 0.00 0.00 0.00 0.00 0.00
2.75 0.58 0.34 0.22 0.12 0.20 0.09 0.04 0.02 0.02 0.02 0.00 0.00 0.02 0.01 0.03 0.07 0.15 0.09 0.11 0.17 0.22 0.20 0.11 0.13 0.05 0.01 0.00 0.00 0.00 0.00 0.00 0.00 0.00 0.00 0.00 0.00 0.00 0.00 0.00 0.00 0.00 0.00 0.00 0.00

GFSSW_prec_precacc_057.txt.gz
Total_Precipitation_Accumulation
0.02 0.02 0.02 0.02 0.02 0.01 0.01 0.01 0.01 0.01 0.01 0.01 0.01 0.01 0.01 0.01 0.01 0.00 0.00 0.00 0.00 0.00 0.00 0.00 0.00 0.00 0.00 0.00 0.00 0.00 0.00 0.00 0.00 0.03 0.10 0.24 0.18 0.09 0.11 0.18 0.29 0.39 0.68 0.95 0.89
0.03 0.03 0.02 0.02 0.01 0.01 0.01 0.01 0.01 0.01 0.01 0.01 0.01 0.01 0.01 0.01 0.00 0.00 0.00 0.00 0.00 0.00 0.00 0.00 0.00 0.00 0.00 0.00 0.00 0.00 0.00 0.00 0.01 0.02 0.10 0.16 0.21 0.09 0.13 0.42 0.67 0.42 0.82 1.15 1.09
0.02 0.02 0.02 0.02 0.02 0.01 0.01 0.01 0.01 0.01 0.01 0.01 0.01 0.01 0.01 0.00 0.00 0.00 0.00 0.00 0.00 0.00 0.00 0.00 0.00 0.00 0.00 0.00 0.00 0.00 0.00 0.00 0.02 0.10 0.02 0.05 0.08 0.06 0.12 0.57 0.92 0.94 0.74 0.83 0.72
0.01 0.01 0.02 0.02 0.02 0.02 0.01 0.01 0.01 0.01 0.01 0.01 0.01 0.01 0.01 0.00 0.00 0.00 0.00 0.00 0.00 0.00 0.00 0.00 0.00 0.00 0.00 0.00 0.00 0.00 0.00 0.00 0.01 0.05 0.01 0.04 0.06 0.04 0.21 0.45 0.36 0.38 0.38 0.31 0.40
0.01 0.01 0.01 0.02 0.02 0.02 0.01 0.01 0.01 0.01 0.01 0.01 0.01 0.01 0.00 0.00 0.00 0.00 0.00 0.00 0.00 0.00 0.00 0.00 0.00 0.00 0.00 0.00 0.00 0.00 0.00 0.00 0.00 0.00 0.03 0.01 0.02 0.04 0.04 0.10 0.04 0.11 0.19 0.28 0.41
0.01 0.02 0.01 0.02 0.02 0.02 0.01 0.01 0.01 0.01 0.01 0.01 0.01 0.01 0.00 0.00 0.00 0.00 0.00 0.00 0.00 0.00 0.00 0.00 0.00 0.00 0.00 0.00 0.00 0.00 0.00 0.00 0.00 0.00 0.01 0.02 0.02 0.06 0.21 0.06 0.02 0.06 0.22 0.38 0.35
0.02 0.02 0.02 0.02 0.02 0.01 0.01 0.01 0.01 0.01 0.01 0.01 0.01 0.01 0.00 0.00 0.00 0.00 0.00 0.00 0.00 0.00 0.00 0.00 0.00 0.00 0.00 0.00 0.00 0.00 0.00 0.00 0.00 0.00 0.02 0.07 0.12 0.13 0.13 0.01 0.01 0.03 0.10 0.11 0.17
0.02 0.02 0.02 0.01 0.01 0.01 0.01 0.01 0.01 0.01 0.01 0.01 0.01 0.01 0.00 0.00 0.00 0.00 0.00 0.00 0.00 0.00 0.00 0.00 0.00 0.00 0.00 0.00 0.00 0.00 0.00 0.01 0.01 0.00 0.01 0.12 0.46 0.07 0.08 0.08 0.04 0.03 0.07 0.06 0.02
0.02 0.02 0.02 0.01 0.02 0.02 0.01 0.01 0.01 0.01 0.01 0.01 0.00 0.00 0.00 0.00 0.00 0.00 0.00 0.00 0.00 0.00 0.00 0.00 0.00 0.00 0.00 0.00 0.00 0.00 0.00 0.00 0.01 0.01 0.01 0.10 0.45 0.09 0.08 0.22 0.09 0.04 0.01 0.00 0.00
0.02 0.02 0.02 0.03 0.03 0.02 0.01 0.01 0.01 0.01 0.01 0.00 0.00 0.00 0.00 0.00 0.00 0.00 0.00 0.00 0.00 0.00 0.00 0.00 0.00 0.00 0.00 0.00 0.00 0.00 0.00 0.00 0.00 0.00 0.00 0.01 0.12 0.23 0.06 0.09 0.30 0.05 0.02 0.00 0.00
0.02 0.02 0.02 0.03 0.04 0.02 0.00 0.00 0.00 0.00 0.00 0.00 0.00 0.00 0.00 0.00 0.00 0.00 0.00 0.00 0.00 0.00 0.00 0.00 0.00 0.00 0.00 0.00 0.00 0.00 0.00 0.00 0.00 0.00 0.00 0.00 0.02 0.10 0.15 0.04 0.06 0.04 0.14 0.05 0.01
0.03 0.02 0.02 0.04 0.05 0.02 0.01 0.00 0.00 0.00 0.00 0.00 0.00 0.00 0.00 0.00 0.00 0.00 0.00 0.00 0.00 0.00 0.00 0.00 0.00 0.00 0.00 0.00 0.00 0.00 0.00 0.00 0.00 0.00 0.00 0.00 0.00 0.02 0.07 0.01 0.01 0.01 0.14 0.03 0.01
0.03 0.02 0.03 0.05 0.04 0.01 0.00 0.00 0.00 0.00 0.01 0.00 0.00 0.00 0.00 0.00 0.00 0.00 0.00 0.00 0.00 0.01 0.00 0.00 0.00 0.00 0.00 0.00 0.00 0.00 0.00 0.00 0.00 0.00 0.00 0.00 0.00 0.02 0.02 0.02 0.06 0.01 0.00 0.00 0.00
0.04 0.03 0.04 0.06 0.01 0.00 0.00 0.00 0.00 0.00 0.01 0.00 0.00 0.00 0.00 0.00 0.00 0.00 0.00 0.00 0.00 0.00 0.00 0.00 0.00 0.00 0.00 0.00 0.00 0.00 0.00 0.00 0.00 0.00 0.00 0.00 0.01 0.09 0.03 0.01 0.04 0.02 0.00 0.01 0.00
0.05 0.05 0.07 0.06 0.02 0.01 0.00 0.00 0.00 0.01 0.01 0.00 0.00 0.00 0.00 0.00 0.00 0.00 0.00 0.00 0.00 0.00 0.00 0.00 0.00 0.00 0.00 0.00 0.00 0.01 0.00 0.00 0.00 0.00 0.01 0.01 0.00 0.08 0.01 0.01 0.01 0.01 0.00 0.01 0.01
0.08 0.09 0.14 0.08 0.04 0.01 0.01 0.02 0.08 0.04 0.00 0.00 0.00 0.00 0.00 0.00 0.00 0.00 0.00 0.00 0.00 0.00 0.00 0.00 0.00 0.00 0.00 0.00 0.00 0.00 0.00 0.00 0.00 0.00 0.01 0.02 0.02 0.04 0.01 0.00 0.02 0.02 0.01 0.01 0.02
0.10 0.13 0.15 0.06 0.03 0.01 0.02 0.18 0.20 0.03 0.00 0.00 0.00 0.00 0.00 0.00 0.00 0.00 0.00 0.00 0.00 0.00 0.00 0.00 0.00 0.00 0.00 0.00 0.00 0.00 0.00 0.00 0.02 0.00 0.00 0.00 0.01 0.02 0.02 0.05 0.12 0.10 0.01 0.02 0.00
0.15 0.21 0.15 0.07 0.03 0.06 0.14 0.32 0.11 0.00 0.00 0.00 0.00 0.00 0.00 0.00 0.00 0.00 0.00 0.00 0.00 0.00 0.00 0.01 0.01 0.00 0.00 0.00 0.00 0.00 0.00 0.00 0.08 0.06 0.05 0.03 0.01 0.01 0.01 0.01 0.00 0.00 0.00 0.00 0.00
0.31 0.29 0.22 0.07 0.03 0.10 0.37 0.41 0.04 0.01 0.00 0.00 0.00 0.00 0.00 0.00 0.00 0.00 0.00 0.00 0.00 0.00 0.00 0.02 0.00 0.00 0.00 0.00 0.00 0.00 0.00 0.00 0.01 0.02 0.05 0.06 0.00 0.00 0.00 0.00 0.00 0.00 0.00 0.00 0.01
0.47 0.46 0.16 0.06 0.12 0.38 0.59 0.24 0.00 0.00 0.00 0.00 0.00 0.00 0.00 0.00 0.00 0.00 0.00 0.00 0.00 0.00 0.00 0.04 0.07 0.01 0.00 0.00 0.00 0.00 0.00 0.00 0.00 0.02 0.04 0.00 0.00 0.00 0.01 0.00 0.00 0.00 0.00 0.00 0.00
0.99 0.90 0.18 0.10 0.55 0.82 0.55 0.09 0.00 0.00 0.00 0.00 0.00 0.00 0.00 0.00 0.00 0.00 0.00 0.00 0.00 0.00 0.00 0.00 0.03 0.05 0.00 0.00 0.00 0.00 0.00 0.00 0.00 0.00 0.01 0.01 0.00 0.00 0.01 0.00 0.00 0.00 0.00 0.00 0.00
1.66 1.12 0.23 0.27 0.77 0.55 0.19 0.02 0.00 0.00 0.00 0.00 0.00 0.00 0.00 0.00 0.00 0.00 0.00 0.00 0.00 0.01 0.02 0.00 0.00 0.00 0.00 0.00 0.00 0.00 0.00 0.00 0.00 0.00 0.00 0.01 0.00 0.00 0.00 0.00 0.00 0.00 0.00 0.00 0.00
2.01 1.04 0.80 0.51 0.47 0.21 0.08 0.03 0.01 0.00 0.00 0.00 0.00 0.00 0.00 0.00 0.01 0.01 0.00 0.00 0.00 0.01 0.01 0.01 0.00 0.00 0.00 0.00 0.00 0.00 0.00 0.00 0.00 0.00 0.01 0.04 0.00 0.00 0.00 0.00 0.00 0.00 0.00 0.00 0.00
2.42 1.70 1.83 1.13 0.22 0.08 0.11 0.07 0.02 0.00 0.00 0.00 0.00 0.00 0.01 0.06 0.01 0.01 0.00 0.01 0.00 0.01 0.01 0.02 0.01 0.00 0.01 0.00 0.00 0.00 0.00 0.00 0.00 0.00 0.00 0.01 0.00 0.00 0.01 0.00 0.00 0.00 0.00 0.00 0.00
3.52 1.39 0.73 0.72 0.28 0.13 0.12 0.10 0.02 0.01 0.00 0.00 0.01 0.00 0.01 0.04 0.06 0.04 0.04 0.02 0.05 0.01 0.01 0.06 0.06 0.01 0.00 0.00 0.00 0.00 0.00 0.00 0.00 0.00 0.01 0.00 0.00 0.00 0.00 0.00 0.00 0.00 0.00 0.00 0.00
3.47 0.88 0.24 0.13 0.11 0.14 0.21 0.12 0.02 0.02 0.02 0.01 0.00 0.01 0.03 0.03 0.06 0.09 0.12 0.11 0.14 0.11 0.03 0.03 0.09 0.01 0.00 0.00 0.00 0.00 0.00 0.00 0.00 0.00 0.00 0.00 0.00 0.00 0.00 0.00 0.00 0.00 0.00 0.00 0.00
2.79 0.62 0.41 0.25 0.13 0.22 0.12 0.05 0.02 0.03 0.04 0.02 0.02 0.04 0.03 0.04 0.09 0.16 0.09 0.12 0.17 0.22 0.20 0.11 0.14 0.06 0.01 0.00 0.00 0.00 0.00 0.00 0.00 0.00 0.00 0.00 0.00 0.00 0.00 0.00 0.00 0.00 0.00 0.00 0.00

GFSSW_prec_precacc_060.txt.gz
Total_Precipitation_Accumulation
0.02 0.02 0.02 0.02 0.02 0.01 0.01 0.01 0.01 0.01 0.01 0.01 0.01 0.01 0.01 0.01 0.01 0.00 0.00 0.00 0.00 0.00 0.00 0.00 0.00 0.00 0.00 0.00 0.00 0.00 0.00 0.00 0.00 0.03 0.10 0.24 0.18 0.09 0.11 0.18 0.29 0.39 0.68 0.95 0.89
0.03 0.03 0.02 0.02 0.01 0.01 0.01 0.01 0.01 0.01 0.01 0.01 0.01 0.01 0.01 0.01 0.00 0.00 0.00 0.00 0.00 0.00 0.00 0.00 0.00 0.00 0.00 0.00 0.00 0.00 0.00 0.00 0.01 0.02 0.10 0.16 0.21 0.09 0.13 0.42 0.67 0.42 0.82 1.15 1.09
0.02 0.02 0.02 0.02 0.02 0.01 0.01 0.01 0.01 0.01 0.01 0.01 0.01 0.01 0.01 0.00 0.00 0.00 0.00 0.00 0.00 0.00 0.00 0.00 0.00 0.00 0.00 0.00 0.00 0.00 0.00 0.00 0.02 0.10 0.02 0.05 0.08 0.06 0.12 0.57 0.92 0.94 0.74 0.83 0.72
0.01 0.01 0.02 0.02 0.02 0.02 0.01 0.01 0.01 0.01 0.01 0.01 0.01 0.01 0.01 0.00 0.00 0.00 0.00 0.00 0.00 0.00 0.00 0.00 0.00 0.00 0.00 0.00 0.00 0.00 0.00 0.00 0.01 0.05 0.01 0.04 0.06 0.04 0.21 0.45 0.36 0.38 0.38 0.31 0.40
0.01 0.01 0.01 0.02 0.02 0.02 0.01 0.01 0.01 0.01 0.01 0.01 0.01 0.01 0.00 0.00 0.00 0.00 0.00 0.00 0.00 0.00 0.00 0.00 0.00 0.00 0.00 0.00 0.00 0.00 0.00 0.00 0.00 0.00 0.03 0.01 0.02 0.04 0.04 0.10 0.04 0.11 0.19 0.28 0.41
0.01 0.02 0.01 0.02 0.02 0.02 0.01 0.01 0.01 0.01 0.01 0.01 0.01 0.01 0.00 0.00 0.00 0.00 0.00 0.00 0.00 0.00 0.00 0.00 0.00 0.00 0.00 0.00 0.00 0.00 0.00 0.00 0.00 0.00 0.01 0.02 0.02 0.06 0.21 0.06 0.02 0.06 0.22 0.38 0.35
0.03 0.02 0.02 0.02 0.02 0.01 0.01 0.01 0.01 0.01 0.01 0.01 0.01 0.01 0.00 0.00 0.00 0.00 0.00 0.00 0.00 0.00 0.00 0.00 0.00 0.00 0.00 0.00 0.00 0.00 0.00 0.00 0.00 0.00 0.02 0.07 0.12 0.13 0.13 0.01 0.01 0.03 0.10 0.11 0.17
0.02 0.02 0.02 0.01 0.01 0.01 0.01 0.01 0.01 0.01 0.01 0.01 0.01 0.01 0.00 0.00 0.00 0.00 0.00 0.00 0.00 0.00 0.00 0.00 0.00 0.00 0.00 0.00 0.00 0.00 0.00 0.01 0.01 0.00 0.01 0.12 0.46 0.07 0.08 0.08 0.04 0.03 0.07 0.06 0.02
0.02 0.02 0.02 0.01 0.02 0.02 0.01 0.01 0.01 0.01 0.01 0.01 0.00 0.00 0.00 0.00 0.00 0.00 0.00 0.00 0.00 0.00 0.00 0.00 0.00 0.00 0.00 0.00 0.00 0.00 0.00 0.00 0.01 0.01 0.01 0.10 0.45 0.09 0.08 0.22 0.09 0.04 0.01 0.00 0.00
0.02 0.02 0.02 0.03 0.03 0.02 0.01 0.01 0.01 0.01 0.01 0.00 0.00 0.00 0.00 0.00 0.00 0.00 0.00 0.00 0.00 0.00 0.00 0.00 0.00 0.00 0.00 0.00 0.00 0.00 0.00 0.00 0.00 0.00 0.00 0.01 0.12 0.23 0.06 0.09 0.30 0.05 0.02 0.00 0.00
0.02 0.02 0.02 0.03 0.04 0.02 0.00 0.00 0.00 0.00 0.00 0.00 0.00 0.00 0.00 0.00 0.00 0.00 0.00 0.00 0.00 0.01 0.00 0.00 0.00 0.00 0.00 0.00 0.00 0.00 0.00 0.00 0.00 0.00 0.00 0.00 0.02 0.10 0.15 0.04 0.06 0.04 0.14 0.05 0.01
0.03 0.02 0.02 0.04 0.05 0.02 0.01 0.00 0.00 0.00 0.00 0.00 0.00 0.00 0.00 0.00 0.00 0.00 0.00 0.00 0.01 0.05 0.02 0.00 0.00 0.00 0.00 0.00 0.00 0.00 0.00 0.00 0.00 0.00 0.00 0.00 0.00 0.02 0.07 0.01 0.01 0.01 0.14 0.03 0.01
0.03 0.02 0.03 0.05 0.04 0.01 0.00 0.00 0.00 0.00 0.01 0.00 0.00 0.00 0.00 0.00 0.00 0.00 0.00 0.00 0.00 0.01 0.05 0.01 0.00 0.00 0.00 0.00 0.00 0.00 0.00 0.00 0.00 0.00 0.00 0.00 0.00 0.02 0.02 0.02 0.06 0.01 0.00 0.00 0.00
0.04 0.03 0.04 0.06 0.01 0.00 0.00 0.00 0.00 0.00 0.01 0.00 0.00 0.00 0.00 0.00 0.00 0.00 0.00 0.00 0.00 0.01 0.04 0.03 0.00 0.00 0.00 0.00 0.00 0.00 0.00 0.00 0.00 0.00 0.00 0.00 0.01 0.09 0.03 0.01 0.04 0.02 0.00 0.01 0.00
0.05 0.05 0.07 0.06 0.02 0.01 0.00 0.00 0.00 0.01 0.01 0.00 0.00 0.00 0.00 0.00 0.00 0.00 0.00 0.00 0.00 0.00 0.04 0.05 0.01 0.00 0.00 0.00 0.00 0.01 0.00 0.00 0.00 0.00 0.01 0.01 0.00 0.08 0.01 0.01 0.01 0.01 0.00 0.01 0.01
0.08 0.09 0.14 0.08 0.04 0.01 0.01 0.02 0.08 0.04 0.00 0.00 0.00 0.00 0.00 0.00 0.00 0.00 0.00 0.00 0.00 0.00 0.00 0.00 0.00 0.00 0.00 0.00 0.00 0.00 0.00 0.00 0.00 0.00 0.01 0.02 0.02 0.04 0.01 0.00 0.02 0.02 0.01 0.01 0.02
0.10 0.13 0.15 0.06 0.03 0.01 0.02 0.18 0.21 0.03 0.00 0.00 0.00 0.00 0.00 0.00 0.00 0.00 0.00 0.00 0.00 0.00 0.00 0.00 0.00 0.00 0.00 0.00 0.00 0.00 0.00 0.00 0.02 0.00 0.00 0.00 0.01 0.02 0.02 0.05 0.12 0.10 0.01 0.02 0.00
0.15 0.21 0.15 0.07 0.03 0.06 0.15 0.33 0.11 0.00 0.00 0.00 0.00 0.00 0.00 0.00 0.00 0.00 0.00 0.00 0.00 0.00 0.00 0.01 0.01 0.00 0.00 0.00 0.00 0.00 0.00 0.00 0.08 0.06 0.05 0.03 0.01 0.01 0.01 0.01 0.00 0.00 0.00 0.00 0.00
0.31 0.29 0.22 0.07 0.03 0.10 0.38 0.43 0.04 0.01 0.00 0.00 0.00 0.00 0.00 0.00 0.00 0.00 0.00 0.00 0.00 0.00 0.01 0.02 0.00 0.00 0.00 0.00 0.00 0.00 0.00 0.00 0.01 0.02 0.05 0.06 0.00 0.00 0.00 0.00 0.00 0.00 0.00 0.00 0.01
0.47 0.46 0.16 0.06 0.12 0.39 0.62 0.25 0.00 0.00 0.00 0.00 0.00 0.00 0.00 0.00 0.00 0.00 0.00 0.00 0.00 0.00 0.00 0.04 0.08 0.01 0.00 0.00 0.00 0.00 0.00 0.00 0.00 0.03 0.04 0.00 0.00 0.00 0.01 0.00 0.00 0.00 0.00 0.00 0.00
1.00 0.90 0.18 0.10 0.57 0.86 0.57 0.09 0.00 0.00 0.00 0.00 0.00 0.00 0.00 0.00 0.00 0.00 0.01 0.01 0.00 0.00 0.00 0.00 0.03 0.05 0.00 0.00 0.00 0.00 0.00 0.00 0.00 0.00 0.01 0.01 0.00 0.00 0.01 0.00 0.00 0.00 0.00 0.00 0.00
1.68 1.13 0.26 0.30 0.81 0.57 0.20 0.02 0.00 0.00 0.00 0.00 0.00 0.00 0.00 0.00 0.00 0.00 0.00 0.00 0.00 0.01 0.02 0.00 0.00 0.01 0.00 0.00 0.00 0.00 0.00 0.00 0.01 0.01 0.01 0.01 0.01 0.00 0.00 0.00 0.00 0.00 0.00 0.00 0.00
2.07 1.05 0.82 0.61 0.53 0.23 0.09 0.04 0.01 0.00 0.00 0.00 0.00 0.00 0.00 0.00 0.01 0.01 0.00 0.00 0.00 0.01 0.01 0.01 0.00 0.00 0.01 0.02 0.01 0.00 0.00 0.00 0.00 0.03 0.06 0.06 0.01 0.00 0.00 0.00 0.00 0.00 0.00 0.00 0.00
2.52 1.75 1.85 1.20 0.24 0.11 0.15 0.09 0.02 0.00 0.00 0.00 0.00 0.00 0.01 0.06 0.01 0.01 0.00 0.01 0.00 0.01 0.01 0.02 0.01 0.00 0.02 0.05 0.02 0.01 0.00 0.00 0.00 0.06 0.04 0.03 0.01 0.02 0.01 0.00 0.00 0.00 0.00 0.00 0.00
3.61 1.42 0.78 0.78 0.29 0.14 0.15 0.16 0.05 0.01 0.00 0.00 0.01 0.00 0.01 0.04 0.06 0.04 0.04 0.02 0.05 0.01 0.01 0.07 0.08 0.03 0.00 0.00 0.00 0.01 0.01 0.00 0.01 0.02 0.03 0.00 0.01 0.01 0.01 0.00 0.00 0.00 0.00 0.00 0.00
3.54 0.90 0.28 0.16 0.15 0.18 0.23 0.13 0.05 0.05 0.03 0.02 0.00 0.01 0.03 0.03 0.06 0.10 0.13 0.13 0.15 0.11 0.03 0.05 0.11 0.01 0.00 0.00 0.00 0.00 0.00 0.04 0.00 0.00 0.00 0.00 0.01 0.00 0.00 0.00 0.00 0.00 0.00 0.00 0.00
2.82 0.65 0.50 0.31 0.16 0.26 0.18 0.06 0.03 0.03 0.06 0.04 0.04 0.05 0.04 0.05 0.09 0.16 0.11 0.14 0.18 0.22 0.21 0.11 0.15 0.12 0.04 0.00 0.00 0.00 0.00 0.00 0.01 0.00 0.00 0.00 0.00 0.00 0.00 0.00 0.00 0.00 0.00 0.00 0.00

GFSSW_prec_precacc_063.txt.gz
Total_Precipitation_Accumulation
0.02 0.02 0.02 0.02 0.02 0.01 0.01 0.01 0.01 0.01 0.01 0.01 0.01 0.01 0.01 0.01 0.01 0.00 0.00 0.00 0.00 0.00 0.00 0.00 0.00 0.00 0.00 0.00 0.00 0.00 0.00 0.00 0.00 0.03 0.10 0.24 0.18 0.09 0.11 0.18 0.29 0.39 0.68 0.95 0.89
0.03 0.03 0.02 0.02 0.01 0.01 0.01 0.01 0.01 0.01 0.01 0.01 0.01 0.01 0.01 0.01 0.00 0.00 0.00 0.00 0.00 0.00 0.00 0.00 0.00 0.00 0.00 0.00 0.00 0.00 0.00 0.00 0.01 0.02 0.10 0.16 0.21 0.09 0.13 0.42 0.67 0.42 0.82 1.15 1.09
0.02 0.02 0.02 0.02 0.02 0.01 0.01 0.01 0.01 0.01 0.01 0.01 0.01 0.01 0.01 0.00 0.00 0.00 0.00 0.00 0.00 0.00 0.00 0.00 0.00 0.00 0.00 0.00 0.00 0.00 0.00 0.00 0.02 0.10 0.02 0.05 0.08 0.06 0.12 0.57 0.92 0.94 0.74 0.83 0.72
0.01 0.01 0.02 0.02 0.02 0.02 0.01 0.01 0.01 0.01 0.01 0.01 0.01 0.01 0.01 0.00 0.00 0.00 0.00 0.00 0.00 0.00 0.00 0.00 0.00 0.00 0.00 0.00 0.00 0.00 0.00 0.00 0.01 0.05 0.01 0.04 0.06 0.04 0.21 0.45 0.36 0.38 0.38 0.31 0.40
0.01 0.01 0.01 0.02 0.02 0.02 0.01 0.01 0.01 0.01 0.01 0.01 0.01 0.01 0.00 0.00 0.00 0.00 0.00 0.00 0.00 0.00 0.00 0.00 0.00 0.00 0.00 0.00 0.00 0.00 0.00 0.00 0.00 0.00 0.03 0.01 0.02 0.04 0.04 0.10 0.04 0.11 0.19 0.28 0.41
0.01 0.02 0.01 0.02 0.02 0.02 0.01 0.01 0.01 0.01 0.01 0.01 0.01 0.01 0.00 0.00 0.00 0.00 0.00 0.00 0.00 0.00 0.00 0.00 0.00 0.00 0.00 0.00 0.00 0.00 0.00 0.00 0.00 0.00 0.01 0.02 0.02 0.06 0.21 0.06 0.02 0.06 0.22 0.38 0.35
0.03 0.02 0.02 0.02 0.02 0.01 0.01 0.01 0.01 0.01 0.01 0.01 0.01 0.02 0.00 0.00 0.00 0.00 0.00 0.00 0.00 0.00 0.00 0.00 0.00 0.00 0.00 0.00 0.00 0.00 0.00 0.00 0.00 0.00 0.02 0.07 0.12 0.13 0.13 0.01 0.01 0.03 0.10 0.11 0.17
0.02 0.02 0.02 0.01 0.01 0.01 0.01 0.01 0.01 0.01 0.01 0.01 0.01 0.01 0.00 0.00 0.00 0.00 0.00 0.00 0.00 0.00 0.00 0.00 0.00 0.00 0.00 0.00 0.00 0.00 0.00 0.01 0.01 0.00 0.01 0.12 0.46 0.07 0.08 0.08 0.04 0.03 0.07 0.06 0.02
0.02 0.02 0.02 0.01 0.02 0.02 0.01 0.01 0.01 0.01 0.01 0.01 0.00 0.00 0.00 0.00 0.00 0.00 0.00 0.00 0.00 0.00 0.00 0.00 0.00 0.00 0.00 0.00 0.00 0.00 0.00 0.00 0.01 0.01 0.01 0.10 0.45 0.09 0.08 0.22 0.09 0.04 0.01 0.00 0.00
0.02 0.02 0.02 0.03 0.03 0.02 0.01 0.01 0.01 0.01 0.01 0.00 0.00 0.00 0.00 0.00 0.00 0.00 0.00 0.00 0.00 0.00 0.00 0.00 0.00 0.00 0.00 0.00 0.00 0.00 0.00 0.00 0.00 0.00 0.00 0.01 0.12 0.23 0.06 0.09 0.30 0.05 0.02 0.00 0.00
0.02 0.02 0.02 0.03 0.04 0.02 0.00 0.00 0.00 0.00 0.00 0.00 0.00 0.00 0.00 0.00 0.00 0.00 0.00 0.00 0.00 0.01 0.00 0.00 0.00 0.00 0.00 0.00 0.00 0.00 0.00 0.00 0.00 0.00 0.00 0.00 0.02 0.10 0.15 0.04 0.06 0.04 0.14 0.05 0.01
0.03 0.02 0.02 0.04 0.05 0.02 0.01 0.00 0.00 0.00 0.00 0.00 0.00 0.00 0.00 0.00 0.00 0.00 0.00 0.00 0.01 0.05 0.03 0.00 0.00 0.00 0.00 0.00 0.00 0.00 0.00 0.00 0.00 0.00 0.00 0.00 0.00 0.02 0.07 0.01 0.01 0.01 0.14 0.03 0.01
0.03 0.02 0.03 0.05 0.04 0.01 0.00 0.00 0.00 0.00 0.01 0.00 0.00 0.00 0.00 0.00 0.00 0.00 0.00 0.00 0.00 0.02 0.07 0.02 0.00 0.00 0.00 0.00 0.00 0.00 0.00 0.00 0.00 0.00 0.00 0.00 0.00 0.02 0.02 0.02 0.06 0.01 0.00 0.00 0.00
0.04 0.03 0.04 0.06 0.01 0.00 0.00 0.00 0.00 0.00 0.01 0.00 0.00 0.00 0.00 0.00 0.00 0.00 0.00 0.00 0.00 0.01 0.06 0.08 0.00 0.00 0.00 0.00 0.00 0.00 0.00 0.00 0.00 0.00 0.00 0.00 0.01 0.09 0.03 0.01 0.04 0.02 0.00 0.01 0.00
0.05 0.05 0.07 0.06 0.02 0.01 0.00 0.00 0.00 0.01 0.01 0.00 0.00 0.00 0.00 0.00 0.00 0.00 0.00 0.00 0.00 0.00 0.05 0.06 0.02 0.02 0.00 0.00 0.00 0.01 0.00 0.00 0.00 0.00 0.01 0.01 0.00 0.08 0.01 0.01 0.01 0.01 0.00 0.01 0.01
0.08 0.09 0.14 0.08 0.04 0.01 0.01 0.02 0.09 0.05 0.00 0.00 0.00 0.00 0.00 0.00 0.00 0.00 0.00 0.00 0.00 0.00 0.00 0.00 0.01 0.01 0.00 0.00 0.00 0.00 0.00 0.00 0.00 0.00 0.01 0.02 0.02 0.04 0.01 0.00 0.02 0.02 0.01 0.01 0.02
0.10 0.13 0.15 0.06 0.03 0.01 0.02 0.18 0.22 0.03 0.00 0.00 0.00 0.00 0.00 0.00 0.00 0.00 0.00 0.00 0.00 0.00 0.00 0.00 0.00 0.00 0.00 0.00 0.00 0.00 0.01 0.00 0.02 0.00 0.00 0.00 0.01 0.02 0.02 0.05 0.12 0.10 0.01 0.02 0.00
0.15 0.21 0.15 0.07 0.03 0.06 0.15 0.34 0.12 0.00 0.00 0.00 0.00 0.00 0.00 0.00 0.00 0.00 0.00 0.00 0.00 0.00 0.00 0.01 0.02 0.00 0.00 0.00 0.00 0.00 0.00 0.01 0.08 0.07 0.05 0.03 0.01 0.01 0.01 0.01 0.00 0.00 0.00 0.00 0.00
0.31 0.29 0.22 0.07 0.03 0.10 0.39 0.44 0.04 0.01 0.00 0.00 0.00 0.00 0.00 0.00 0.00 0.00 0.00 0.00 0.00 0.00 0.01 0.02 0.00 0.00 0.00 0.00 0.00 0.01 0.00 0.00 0.02 0.04 0.05 0.06 0.00 0.00 0.00 0.00 0.00 0.00 0.00 0.00 0.01
0.47 0.46 0.16 0.06 0.12 0.40 0.65 0.26 0.00 0.00 0.00 0.00 0.00 0.00 0.00 0.00 0.00 0.00 0.00 0.01 0.01 0.00 0.00 0.04 0.08 0.01 0.00 0.00 0.00 0.00 0.00 0.05 0.07 0.04 0.05 0.00 0.00 0.01 0.01 0.00 0.00 0.00 0.00 0.00 0.00
1.00 0.91 0.18 0.10 0.58 0.90 0.60 0.10 0.00 0.00 0.00 0.00 0.00 0.00 0.00 0.00 0.00 0.00 0.01 0.04 0.00 0.00 0.00 0.00 0.03 0.05 0.00 0.00 0.00 0.00 0.01 0.08 0.04 0.00 0.01 0.01 0.00 0.00 0.01 0.00 0.00 0.00 0.00 0.00 0.00
1.70 1.15 0.27 0.32 0.83 0.58 0.20 0.02 0.00 0.00 0.00 0.00 0.00 0.00 0.00 0.00 0.00 0.00 0.00 0.01 0.00 0.01 0.02 0.00 0.00 0.01 0.00 0.00 0.00 0.00 0.00 0.01 0.05 0.03 0.01 0.02 0.02 0.00 0.00 0.00 0.00 0.00 0.00 0.00 0.00
2.10 1.05 0.83 0.71 0.70 0.24 0.09 0.04 0.01 0.00 0.00 0.00 0.00 0.00 0.00 0.00 0.01 0.01 0.00 0.00 0.00 0.01 0.01 0.01 0.00 0.00 0.01 0.03 0.01 0.00 0.00 0.00 0.00 0.06 0.13 0.07 0.01 0.01 0.01 0.00 0.00 0.00 0.00 0.00 0.00
2.56 1.79 1.86 1.22 0.28 0.16 0.18 0.12 0.02 0.00 0.00 0.00 0.00 0.00 0.01 0.06 0.01 0.01 0.00 0.01 0.00 0.01 0.01 0.02 0.01 0.00 0.02 0.06 0.08 0.03 0.00 0.00 0.01 0.13 0.10 0.11 0.03 0.08 0.01 0.01 0.00 0.00 0.00 0.00 0.00
3.65 1.45 0.80 0.84 0.32 0.15 0.16 0.19 0.09 0.05 0.01 0.00 0.01 0.00 0.01 0.04 0.06 0.04 0.04 0.02 0.05 0.01 0.01 0.07 0.08 0.03 0.00 0.00 0.03 0.04 0.01 0.01 0.02 0.03 0.09 0.03 0.09 0.12 0.10 0.01 0.00 0.00 0.00 0.00 0.00
3.56 0.92 0.29 0.16 0.17 0.25 0.31 0.15 0.05 0.06 0.07 0.03 0.01 0.01 0.03 0.03 0.06 0.10 0.13 0.13 0.15 0.11 0.04 0.06 0.12 0.01 0.00 0.00 0.00 0.00 0.01 0.06 0.03 0.01 0.03 0.04 0.08 0.06 0.10 0.05 0.01 0.00 0.00 0.00 0.00
2.83 0.66 0.56 0.34 0.16 0.27 0.20 0.10 0.04 0.03 0.06 0.06 0.07 0.06 0.05 0.07 0.10 0.16 0.11 0.14 0.18 0.22 0.21 0.12 0.16 0.13 0.06 0.00 0.00 0.00 0.00 0.01 0.06 0.03 0.02 0.05 0.01 0.01 0.01 0.01 0.00 0.00 0.00 0.00 0.00

GFSSW_prec_precacc_066.txt.gz
Total_Precipitation_Accumulation
0.02 0.02 0.03 0.02 0.02 0.01 0.01 0.01 0.01 0.01 0.01 0.01 0.01 0.01 0.01 0.01 0.01 0.00 0.00 0.00 0.00 0.00 0.00 0.00 0.00 0.00 0.00 0.00 0.00 0.00 0.00 0.00 0.00 0.03 0.10 0.24 0.18 0.09 0.11 0.18 0.29 0.39 0.68 0.95 0.89
0.03 0.03 0.02 0.02 0.01 0.01 0.01 0.01 0.01 0.01 0.01 0.01 0.01 0.01 0.01 0.01 0.00 0.00 0.00 0.00 0.00 0.00 0.00 0.00 0.00 0.00 0.00 0.00 0.00 0.00 0.00 0.00 0.01 0.02 0.10 0.16 0.21 0.09 0.13 0.42 0.67 0.42 0.82 1.15 1.09
0.02 0.02 0.02 0.02 0.02 0.01 0.01 0.01 0.01 0.01 0.01 0.01 0.01 0.01 0.01 0.00 0.00 0.00 0.00 0.00 0.00 0.00 0.00 0.00 0.00 0.00 0.00 0.00 0.00 0.00 0.00 0.00 0.02 0.10 0.02 0.05 0.08 0.06 0.12 0.57 0.92 0.94 0.74 0.83 0.72
0.01 0.01 0.02 0.02 0.02 0.02 0.01 0.01 0.01 0.01 0.01 0.01 0.01 0.01 0.01 0.00 0.00 0.00 0.00 0.00 0.00 0.00 0.00 0.00 0.00 0.00 0.00 0.00 0.00 0.00 0.00 0.00 0.01 0.05 0.01 0.04 0.06 0.04 0.21 0.45 0.36 0.38 0.38 0.31 0.40
0.02 0.01 0.01 0.02 0.02 0.02 0.01 0.01 0.01 0.01 0.01 0.01 0.01 0.01 0.00 0.00 0.00 0.00 0.00 0.00 0.00 0.00 0.00 0.00 0.00 0.00 0.00 0.00 0.00 0.00 0.00 0.00 0.00 0.00 0.03 0.01 0.02 0.04 0.04 0.10 0.04 0.11 0.19 0.28 0.41
0.02 0.02 0.01 0.02 0.02 0.02 0.01 0.01 0.01 0.01 0.01 0.01 0.01 0.01 0.00 0.00 0.00 0.00 0.00 0.00 0.00 0.00 0.00 0.00 0.00 0.00 0.00 0.00 0.00 0.00 0.00 0.00 0.00 0.00 0.01 0.02 0.02 0.06 0.21 0.06 0.02 0.06 0.22 0.38 0.35
0.03 0.02 0.02 0.02 0.02 0.01 0.01 0.01 0.01 0.01 0.01 0.01 0.01 0.02 0.00 0.00 0.00 0.00 0.00 0.00 0.00 0.00 0.00 0.00 0.00 0.00 0.00 0.00 0.00 0.00 0.00 0.00 0.00 0.00 0.02 0.07 0.12 0.13 0.13 0.01 0.01 0.03 0.10 0.11 0.17
0.02 0.02 0.02 0.01 0.01 0.01 0.01 0.01 0.01 0.01 0.01 0.01 0.01 0.01 0.00 0.00 0.00 0.00 0.00 0.00 0.00 0.00 0.00 0.00 0.00 0.00 0.00 0.00 0.00 0.00 0.00 0.01 0.01 0.00 0.01 0.12 0.46 0.07 0.08 0.08 0.04 0.03 0.07 0.06 0.02
0.02 0.02 0.02 0.01 0.02 0.02 0.01 0.01 0.01 0.01 0.01 0.01 0.00 0.00 0.00 0.00 0.00 0.00 0.00 0.00 0.00 0.00 0.00 0.00 0.00 0.00 0.00 0.00 0.00 0.00 0.00 0.00 0.01 0.01 0.01 0.10 0.45 0.09 0.08 0.22 0.09 0.04 0.01 0.00 0.00
0.02 0.02 0.02 0.03 0.03 0.02 0.01 0.01 0.01 0.01 0.01 0.00 0.00 0.00 0.00 0.00 0.00 0.00 0.00 0.00 0.00 0.00 0.00 0.00 0.00 0.00 0.00 0.00 0.00 0.00 0.00 0.00 0.00 0.00 0.00 0.01 0.12 0.23 0.06 0.09 0.30 0.05 0.02 0.00 0.00
0.02 0.02 0.02 0.03 0.04 0.02 0.00 0.00 0.00 0.00 0.00 0.00 0.00 0.00 0.00 0.00 0.00 0.00 0.00 0.00 0.00 0.01 0.00 0.00 0.00 0.00 0.00 0.00 0.00 0.00 0.00 0.00 0.00 0.00 0.00 0.00 0.02 0.10 0.15 0.04 0.06 0.04 0.14 0.05 0.01
0.03 0.02 0.02 0.04 0.05 0.02 0.01 0.00 0.00 0.00 0.00 0.00 0.00 0.00 0.00 0.00 0.00 0.00 0.00 0.00 0.01 0.05 0.03 0.00 0.00 0.00 0.00 0.00 0.00 0.00 0.00 0.00 0.00 0.00 0.00 0.00 0.00 0.02 0.07 0.01 0.01 0.01 0.14 0.03 0.01
0.03 0.02 0.03 0.05 0.04 0.01 0.00 0.00 0.00 0.00 0.01 0.00 0.00 0.00 0.00 0.00 0.00 0.00 0.00 0.00 0.00 0.02 0.07 0.02 0.00 0.00 0.00 0.00 0.00 0.00 0.00 0.00 0.00 0.00 0.00 0.00 0.00 0.02 0.02 0.02 0.06 0.01 0.00 0.00 0.00
0.04 0.03 0.04 0.06 0.01 0.00 0.00 0.00 0.00 0.00 0.01 0.00 0.00 0.00 0.00 0.00 0.00 0.00 0.00 0.00 0.00 0.01 0.06 0.08 0.00 0.00 0.00 0.00 0.00 0.00 0.00 0.00 0.00 0.00 0.00 0.00 0.01 0.09 0.03 0.01 0.04 0.02 0.00 0.01 0.00
0.05 0.05 0.07 0.06 0.02 0.01 0.00 0.00 0.00 0.02 0.01 0.00 0.00 0.00 0.00 0.00 0.00 0.00 0.00 0.00 0.00 0.00 0.05 0.06 0.03 0.02 0.00 0.00 0.00 0.01 0.00 0.00 0.00 0.00 0.01 0.01 0.00 0.08 0.01 0.01 0.01 0.01 0.00 0.01 0.01
0.08 0.09 0.14 0.08 0.04 0.01 0.01 0.02 0.09 0.05 0.00 0.00 0.00 0.00 0.00 0.00 0.00 0.00 0.00 0.00 0.00 0.00 0.00 0.00 0.01 0.01 0.01 0.00 0.00 0.00 0.00 0.00 0.00 0.00 0.01 0.02 0.02 0.04 0.01 0.00 0.02 0.02 0.01 0.01 0.02
0.10 0.13 0.16 0.06 0.03 0.01 0.02 0.18 0.22 0.03 0.00 0.00 0.00 0.00 0.00 0.00 0.00 0.00 0.00 0.00 0.00 0.00 0.00 0.00 0.00 0.00 0.00 0.00 0.00 0.00 0.03 0.02 0.03 0.00 0.00 0.00 0.01 0.02 0.02 0.05 0.12 0.10 0.01 0.02 0.00
0.15 0.21 0.15 0.07 0.03 0.06 0.15 0.34 0.12 0.00 0.00 0.00 0.00 0.00 0.00 0.00 0.00 0.00 0.00 0.00 0.00 0.00 0.00 0.01 0.02 0.00 0.00 0.00 0.00 0.00 0.02 0.03 0.10 0.07 0.05 0.03 0.01 0.01 0.01 0.01 0.00 0.00 0.00 0.00 0.00
0.32 0.29 0.22 0.07 0.03 0.10 0.39 0.44 0.04 0.01 0.00 0.00 0.00 0.00 0.00 0.00 0.00 0.00 0.00 0.00 0.00 0.00 0.01 0.02 0.00 0.00 0.00 0.00 0.01 0.03 0.04 0.01 0.05 0.05 0.05 0.06 0.00 0.00 0.00 0.00 0.00 0.00 0.00 0.00 0.01
0.47 0.46 0.16 0.06 0.12 0.40 0.66 0.26 0.00 0.00 0.00 0.00 0.00 0.00 0.00 0.00 0.00 0.00 0.01 0.01 0.02 0.00 0.00 0.04 0.08 0.01 0.00 0.00 0.00 0.00 0.02 0.16 0.16 0.08 0.06 0.00 0.00 0.01 0.01 0.00 0.00 0.00 0.00 0.00 0.00
1.00 0.92 0.18 0.10 0.58 0.92 0.61 0.10 0.00 0.00 0.00 0.00 0.00 0.00 0.00 0.00 0.00 0.00 0.02 0.06 0.01 0.01 0.00 0.00 0.03 0.05 0.00 0.00 0.00 0.01 0.11 0.17 0.10 0.01 0.02 0.02 0.01 0.01 0.01 0.00 0.00 0.00 0.00 0.00 0.00
1.70 1.16 0.28 0.34 0.83 0.60 0.21 0.02 0.00 0.00 0.00 0.00 0.00 0.00 0.00 0.00 0.00 0.00 0.00 0.01 0.00 0.01 0.02 0.00 0.00 0.01 0.00 0.00 0.00 0.01 0.01 0.03 0.12 0.06 0.01 0.02 0.08 0.04 0.00 0.00 0.00 0.00 0.00 0.00 0.00
2.11 1.05 0.83 0.77 0.89 0.25 0.09 0.04 0.01 0.00 0.00 0.00 0.00 0.00 0.00 0.00 0.01 0.01 0.00 0.00 0.00 0.01 0.01 0.01 0.00 0.01 0.01 0.03 0.01 0.00 0.00 0.01 0.03 0.12 0.16 0.08 0.03 0.07 0.02 0.01 0.00 0.00 0.00 0.00 0.00
2.61 1.80 1.86 1.22 0.30 0.30 0.33 0.17 0.03 0.00 0.00 0.00 0.00 0.00 0.01 0.06 0.01 0.01 0.00 0.01 0.00 0.01 0.01 0.02 0.01 0.01 0.03 0.07 0.09 0.04 0.01 0.01 0.04 0.21 0.12 0.11 0.03 0.14 0.17 0.08 0.00 0.00 0.00 0.00 0.00
3.72 1.46 0.80 0.88 0.37 0.18 0.21 0.25 0.12 0.09 0.03 0.00 0.01 0.00 0.01 0.04 0.06 0.04 0.04 0.02 0.05 0.01 0.01 0.07 0.08 0.03 0.00 0.00 0.03 0.07 0.06 0.03 0.04 0.04 0.10 0.04 0.10 0.17 0.27 0.27 0.03 0.00 0.00 0.00 0.00
3.59 0.92 0.29 0.16 0.19 0.27 0.33 0.17 0.06 0.07 0.11 0.07 0.03 0.02 0.03 0.04 0.07 0.10 0.13 0.13 0.15 0.12 0.04 0.06 0.12 0.02 0.00 0.00 0.00 0.01 0.01 0.10 0.07 0.03 0.04 0.05 0.11 0.14 0.27 0.23 0.04 0.00 0.00 0.00 0.00
2.86 0.66 0.57 0.35 0.17 0.28 0.21 0.13 0.09 0.06 0.09 0.10 0.15 0.09 0.05 0.11 0.12 0.17 0.12 0.14 0.18 0.23 0.22 0.13 0.17 0.13 0.06 0.00 0.00 0.00 0.00 0.03 0.08 0.07 0.11 0.15 0.05 0.09 0.15 0.25 0.06 0.00 0.00 0.00 0.00

GFSSW_prec_precacc_069.txt.gz
Total_Precipitation_Accumulation
0.02 0.02 0.03 0.02 0.02 0.01 0.01 0.01 0.01 0.01 0.01 0.01 0.01 0.01 0.01 0.01 0.01 0.00 0.00 0.00 0.00 0.00 0.00 0.00 0.00 0.00 0.00 0.00 0.00 0.00 0.00 0.00 0.00 0.03 0.10 0.24 0.18 0.09 0.11 0.18 0.29 0.39 0.68 0.95 0.89
0.03 0.03 0.02 0.02 0.01 0.01 0.01 0.01 0.01 0.01 0.01 0.01 0.01 0.01 0.01 0.01 0.00 0.00 0.00 0.00 0.00 0.00 0.00 0.00 0.00 0.00 0.00 0.00 0.00 0.00 0.00 0.00 0.01 0.02 0.10 0.16 0.21 0.09 0.13 0.42 0.67 0.42 0.82 1.15 1.09
0.02 0.03 0.02 0.02 0.02 0.01 0.01 0.01 0.01 0.01 0.01 0.01 0.01 0.01 0.01 0.00 0.00 0.00 0.00 0.00 0.00 0.00 0.00 0.00 0.00 0.00 0.00 0.00 0.00 0.00 0.00 0.00 0.02 0.10 0.02 0.05 0.08 0.06 0.12 0.57 0.92 0.94 0.74 0.83 0.72
0.02 0.01 0.02 0.02 0.02 0.02 0.01 0.01 0.01 0.01 0.01 0.01 0.01 0.01 0.01 0.00 0.00 0.00 0.00 0.00 0.00 0.00 0.00 0.00 0.00 0.00 0.00 0.00 0.00 0.00 0.00 0.00 0.01 0.05 0.01 0.04 0.06 0.04 0.21 0.45 0.36 0.38 0.38 0.31 0.40
0.02 0.02 0.01 0.02 0.02 0.02 0.01 0.01 0.01 0.01 0.01 0.01 0.01 0.02 0.00 0.00 0.00 0.00 0.00 0.00 0.00 0.00 0.00 0.00 0.00 0.00 0.00 0.00 0.00 0.00 0.00 0.00 0.00 0.00 0.03 0.01 0.02 0.04 0.04 0.10 0.04 0.11 0.19 0.28 0.41
0.02 0.02 0.01 0.02 0.02 0.02 0.01 0.01 0.01 0.01 0.01 0.01 0.01 0.02 0.00 0.00 0.00 0.00 0.00 0.00 0.00 0.00 0.00 0.00 0.00 0.00 0.00 0.00 0.00 0.00 0.00 0.00 0.00 0.00 0.01 0.02 0.02 0.06 0.21 0.06 0.02 0.06 0.22 0.38 0.35
0.03 0.02 0.02 0.02 0.02 0.01 0.01 0.01 0.01 0.01 0.01 0.01 0.01 0.02 0.00 0.00 0.00 0.00 0.00 0.00 0.00 0.00 0.00 0.00 0.00 0.00 0.00 0.00 0.00 0.00 0.00 0.00 0.00 0.00 0.02 0.07 0.12 0.13 0.13 0.01 0.01 0.03 0.10 0.11 0.17
0.02 0.02 0.02 0.01 0.01 0.01 0.01 0.01 0.01 0.01 0.01 0.01 0.01 0.01 0.00 0.00 0.00 0.00 0.00 0.00 0.00 0.00 0.00 0.00 0.00 0.00 0.00 0.00 0.00 0.00 0.00 0.01 0.01 0.00 0.01 0.12 0.46 0.07 0.08 0.08 0.04 0.03 0.07 0.06 0.02
0.02 0.02 0.02 0.01 0.02 0.02 0.01 0.01 0.01 0.01 0.01 0.01 0.00 0.00 0.00 0.00 0.00 0.00 0.00 0.00 0.00 0.00 0.00 0.00 0.00 0.00 0.00 0.00 0.00 0.00 0.00 0.00 0.01 0.01 0.01 0.10 0.45 0.09 0.08 0.22 0.09 0.04 0.01 0.00 0.00
0.02 0.02 0.02 0.03 0.03 0.02 0.01 0.01 0.01 0.01 0.01 0.00 0.00 0.00 0.00 0.00 0.00 0.00 0.00 0.00 0.00 0.00 0.00 0.00 0.00 0.00 0.00 0.00 0.00 0.00 0.00 0.00 0.00 0.00 0.00 0.01 0.12 0.23 0.06 0.09 0.30 0.05 0.02 0.00 0.00
0.02 0.02 0.02 0.03 0.04 0.02 0.00 0.00 0.00 0.00 0.00 0.00 0.00 0.00 0.00 0.00 0.00 0.00 0.00 0.00 0.00 0.01 0.00 0.00 0.00 0.00 0.00 0.00 0.00 0.00 0.00 0.00 0.00 0.00 0.00 0.00 0.02 0.10 0.15 0.04 0.06 0.04 0.14 0.05 0.01
0.03 0.02 0.02 0.04 0.05 0.02 0.01 0.00 0.00 0.00 0.00 0.00 0.00 0.00 0.00 0.00 0.00 0.00 0.00 0.00 0.01 0.05 0.03 0.00 0.00 0.00 0.00 0.00 0.00 0.00 0.00 0.00 0.00 0.00 0.00 0.00 0.00 0.02 0.07 0.01 0.01 0.01 0.14 0.03 0.01
0.03 0.02 0.03 0.05 0.04 0.01 0.00 0.00 0.00 0.00 0.01 0.00 0.00 0.00 0.00 0.00 0.00 0.00 0.00 0.00 0.00 0.02 0.07 0.02 0.00 0.00 0.00 0.00 0.00 0.00 0.00 0.00 0.00 0.00 0.00 0.00 0.00 0.02 0.02 0.02 0.06 0.01 0.00 0.00 0.00
0.04 0.03 0.04 0.06 0.01 0.00 0.00 0.00 0.00 0.00 0.01 0.00 0.00 0.00 0.00 0.00 0.00 0.00 0.00 0.00 0.00 0.01 0.06 0.08 0.00 0.00 0.00 0.00 0.00 0.00 0.00 0.00 0.00 0.00 0.00 0.00 0.01 0.09 0.03 0.01 0.04 0.02 0.00 0.01 0.00
0.05 0.05 0.07 0.06 0.02 0.01 0.00 0.00 0.00 0.02 0.01 0.00 0.00 0.00 0.00 0.00 0.00 0.00 0.00 0.00 0.00 0.00 0.05 0.06 0.03 0.02 0.00 0.00 0.00 0.01 0.00 0.00 0.00 0.00 0.01 0.01 0.00 0.08 0.01 0.01 0.01 0.01 0.00 0.01 0.01
0.08 0.09 0.14 0.08 0.04 0.01 0.01 0.02 0.09 0.05 0.00 0.00 0.00 0.00 0.00 0.00 0.00 0.00 0.00 0.00 0.00 0.00 0.00 0.00 0.01 0.01 0.01 0.00 0.01 0.00 0.01 0.00 0.00 0.00 0.01 0.02 0.02 0.04 0.01 0.00 0.02 0.02 0.01 0.01 0.02
0.10 0.13 0.16 0.06 0.03 0.01 0.02 0.18 0.22 0.03 0.00 0.00 0.00 0.00 0.00 0.00 0.00 0.00 0.00 0.00 0.00 0.00 0.00 0.00 0.00 0.00 0.00 0.00 0.01 0.02 0.05 0.03 0.04 0.00 0.00 0.00 0.01 0.02 0.02 0.05 0.12 0.10 0.01 0.02 0.00
0.15 0.21 0.15 0.07 0.03 0.06 0.15 0.34 0.12 0.00 0.00 0.00 0.00 0.00 0.00 0.00 0.00 0.00 0.00 0.00 0.00 0.00 0.00 0.01 0.02 0.00 0.00 0.00 0.01 0.01 0.04 0.05 0.11 0.07 0.05 0.03 0.01 0.01 0.01 0.01 0.00 0.00 0.00 0.00 0.00
0.32 0.29 0.22 0.07 0.03 0.10 0.39 0.44 0.04 0.01 0.00 0.00 0.00 0.00 0.00 0.00 0.00 0.00 0.00 0.00 0.00 0.00 0.01 0.02 0.00 0.00 0.00 0.00 0.02 0.06 0.07 0.04 0.07 0.07 0.05 0.06 0.00 0.00 0.00 0.00 0.00 0.00 0.00 0.00 0.01
0.47 0.46 0.16 0.06 0.12 0.41 0.66 0.26 0.00 0.00 0.00 0.00 0.00 0.00 0.00 0.00 0.00 0.00 0.01 0.01 0.02 0.00 0.00 0.04 0.08 0.01 0.00 0.00 0.00 0.05 0.11 0.24 0.21 0.15 0.07 0.00 0.01 0.01 0.01 0.00 0.00 0.00 0.00 0.00 0.00
1.00 0.92 0.18 0.10 0.58 0.93 0.62 0.10 0.00 0.00 0.00 0.00 0.00 0.00 0.00 0.00 0.00 0.00 0.04 0.09 0.03 0.01 0.00 0.00 0.03 0.05 0.00 0.00 0.01 0.05 0.18 0.26 0.15 0.02 0.03 0.03 0.05 0.01 0.01 0.00 0.00 0.00 0.00 0.00 0.00
1.70 1.16 0.28 0.34 0.87 0.61 0.21 0.02 0.00 0.00 0.00 0.00 0.00 0.00 0.00 0.00 0.00 0.00 0.00 0.02 0.00 0.01 0.03 0.00 0.00 0.01 0.00 0.00 0.00 0.01 0.03 0.08 0.18 0.10 0.02 0.04 0.14 0.05 0.00 0.00 0.00 0.00 0.00 0.00 0.00
2.11 1.05 0.83 0.78 1.00 0.31 0.10 0.04 0.01 0.00 0.00 0.00 0.00 0.00 0.00 0.00 0.02 0.01 0.00 0.00 0.00 0.01 0.01 0.01 0.00 0.01 0.01 0.03 0.02 0.01 0.02 0.03 0.07 0.17 0.17 0.12 0.09 0.15 0.04 0.01 0.00 0.00 0.00 0.00 0.00
2.62 1.80 1.86 1.22 0.30 0.35 0.46 0.23 0.06 0.03 0.03 0.02 0.00 0.00 0.01 0.06 0.02 0.01 0.00 0.01 0.00 0.01 0.01 0.02 0.01 0.01 0.03 0.08 0.10 0.06 0.04 0.03 0.10 0.29 0.14 0.12 0.06 0.36 0.42 0.14 0.00 0.00 0.00 0.00 0.01
3.76 1.48 0.80 0.88 0.39 0.21 0.28 0.29 0.16 0.14 0.07 0.02 0.02 0.02 0.02 0.05 0.07 0.04 0.04 0.02 0.05 0.01 0.01 0.07 0.08 0.03 0.00 0.00 0.03 0.08 0.08 0.06 0.07 0.05 0.12 0.04 0.10 0.23 0.50 0.57 0.15 0.01 0.00 0.00 0.00
3.61 0.92 0.29 0.16 0.19 0.28 0.34 0.19 0.08 0.11 0.13 0.11 0.05 0.03 0.04 0.05 0.07 0.10 0.14 0.13 0.16 0.13 0.05 0.06 0.12 0.02 0.00 0.00 0.00 0.01 0.01 0.11 0.12 0.06 0.06 0.05 0.12 0.18 0.36 0.44 0.27 0.16 0.03 0.00 0.00
2.90 0.67 0.58 0.35 0.17 0.28 0.21 0.14 0.12 0.06 0.11 0.13 0.20 0.13 0.06 0.11 0.14 0.19 0.14 0.15 0.18 0.23 0.23 0.14 0.18 0.13 0.06 0.00 0.00 0.00 0.00 0.03 0.10 0.13 0.22 0.22 0.07 0.11 0.16 0.35 0.18 0.21 0.14 0.06 0.01

GFSSW_prec_precacc_072.txt.gz
Total_Precipitation_Accumulation
0.02 0.02 0.03 0.03 0.02 0.01 0.01 0.01 0.01 0.01 0.01 0.01 0.01 0.01 0.01 0.01 0.01 0.00 0.00 0.00 0.00 0.00 0.00 0.00 0.00 0.00 0.00 0.00 0.00 0.00 0.00 0.00 0.00 0.03 0.10 0.24 0.18 0.09 0.11 0.18 0.29 0.39 0.68 0.95 0.89
0.03 0.03 0.03 0.02 0.02 0.01 0.01 0.01 0.01 0.01 0.01 0.01 0.01 0.01 0.01 0.01 0.00 0.00 0.00 0.00 0.00 0.00 0.00 0.00 0.00 0.00 0.00 0.00 0.00 0.00 0.00 0.00 0.01 0.02 0.10 0.16 0.21 0.09 0.13 0.42 0.67 0.42 0.82 1.15 1.09
0.02 0.03 0.02 0.02 0.02 0.01 0.01 0.01 0.01 0.01 0.01 0.01 0.01 0.01 0.01 0.00 0.00 0.00 0.00 0.00 0.00 0.00 0.00 0.00 0.00 0.00 0.00 0.00 0.00 0.00 0.00 0.00 0.02 0.10 0.02 0.05 0.08 0.06 0.12 0.57 0.92 0.94 0.74 0.83 0.72
0.02 0.02 0.02 0.03 0.02 0.02 0.01 0.01 0.01 0.01 0.01 0.01 0.01 0.01 0.01 0.00 0.00 0.00 0.00 0.00 0.00 0.00 0.00 0.00 0.00 0.00 0.00 0.00 0.00 0.00 0.00 0.00 0.01 0.05 0.01 0.04 0.06 0.04 0.21 0.45 0.36 0.38 0.38 0.31 0.40
0.02 0.02 0.01 0.02 0.02 0.02 0.01 0.01 0.01 0.01 0.01 0.01 0.01 0.02 0.00 0.00 0.00 0.00 0.00 0.00 0.00 0.00 0.00 0.00 0.00 0.00 0.00 0.00 0.00 0.00 0.00 0.00 0.00 0.00 0.03 0.01 0.02 0.04 0.04 0.10 0.04 0.11 0.19 0.28 0.41
0.02 0.02 0.01 0.02 0.02 0.02 0.01 0.01 0.01 0.01 0.01 0.01 0.01 0.02 0.00 0.00 0.00 0.00 0.00 0.00 0.00 0.00 0.00 0.00 0.00 0.00 0.00 0.00 0.00 0.00 0.00 0.00 0.00 0.00 0.01 0.02 0.02 0.06 0.21 0.06 0.02 0.06 0.22 0.38 0.35
0.03 0.02 0.02 0.02 0.02 0.01 0.01 0.01 0.01 0.01 0.01 0.01 0.01 0.02 0.00 0.00 0.00 0.00 0.00 0.00 0.00 0.00 0.00 0.00 0.00 0.00 0.00 0.00 0.00 0.00 0.00 0.00 0.00 0.00 0.02 0.07 0.12 0.13 0.13 0.01 0.01 0.03 0.10 0.11 0.17
0.02 0.02 0.02 0.01 0.01 0.01 0.01 0.01 0.01 0.01 0.01 0.01 0.01 0.01 0.00 0.00 0.00 0.00 0.00 0.00 0.00 0.00 0.00 0.00 0.00 0.00 0.00 0.00 0.00 0.00 0.00 0.01 0.01 0.00 0.01 0.12 0.46 0.07 0.08 0.08 0.04 0.03 0.07 0.06 0.02
0.02 0.02 0.02 0.01 0.02 0.02 0.01 0.01 0.01 0.01 0.01 0.01 0.00 0.00 0.00 0.00 0.00 0.00 0.00 0.00 0.00 0.00 0.00 0.00 0.00 0.00 0.00 0.00 0.00 0.00 0.00 0.00 0.01 0.01 0.01 0.10 0.45 0.09 0.08 0.22 0.09 0.04 0.01 0.00 0.00
0.02 0.02 0.02 0.03 0.03 0.02 0.01 0.01 0.01 0.01 0.01 0.00 0.00 0.00 0.00 0.00 0.00 0.00 0.00 0.00 0.00 0.00 0.00 0.00 0.00 0.00 0.00 0.00 0.00 0.00 0.00 0.00 0.00 0.00 0.00 0.01 0.12 0.23 0.06 0.09 0.30 0.05 0.02 0.00 0.00
0.02 0.02 0.02 0.03 0.04 0.02 0.00 0.00 0.00 0.00 0.00 0.00 0.00 0.00 0.00 0.00 0.00 0.00 0.00 0.00 0.00 0.01 0.00 0.00 0.00 0.00 0.00 0.00 0.00 0.00 0.00 0.00 0.00 0.00 0.00 0.00 0.02 0.10 0.15 0.04 0.06 0.04 0.14 0.05 0.01
0.03 0.02 0.02 0.04 0.05 0.02 0.01 0.00 0.00 0.00 0.00 0.00 0.00 0.00 0.00 0.00 0.00 0.00 0.00 0.00 0.01 0.05 0.03 0.00 0.00 0.00 0.00 0.00 0.00 0.00 0.00 0.00 0.00 0.00 0.00 0.00 0.00 0.02 0.07 0.01 0.01 0.01 0.14 0.03 0.01
0.03 0.02 0.03 0.05 0.04 0.01 0.00 0.00 0.00 0.00 0.01 0.00 0.00 0.00 0.00 0.00 0.00 0.00 0.00 0.00 0.00 0.02 0.07 0.02 0.00 0.00 0.00 0.00 0.00 0.00 0.00 0.00 0.00 0.00 0.00 0.00 0.00 0.02 0.02 0.02 0.06 0.01 0.00 0.00 0.00
0.04 0.03 0.04 0.06 0.01 0.00 0.00 0.00 0.00 0.00 0.01 0.00 0.00 0.00 0.00 0.00 0.00 0.00 0.00 0.00 0.00 0.01 0.06 0.08 0.00 0.00 0.00 0.00 0.00 0.00 0.00 0.00 0.00 0.00 0.00 0.00 0.01 0.09 0.03 0.01 0.04 0.02 0.00 0.01 0.00
0.05 0.05 0.07 0.06 0.02 0.01 0.00 0.00 0.00 0.02 0.01 0.00 0.00 0.00 0.00 0.00 0.00 0.00 0.00 0.00 0.00 0.00 0.05 0.06 0.03 0.02 0.00 0.00 0.00 0.01 0.00 0.00 0.00 0.00 0.01 0.01 0.00 0.08 0.01 0.01 0.01 0.01 0.00 0.01 0.01
0.08 0.09 0.14 0.08 0.04 0.01 0.01 0.02 0.09 0.05 0.00 0.00 0.00 0.00 0.00 0.00 0.00 0.00 0.00 0.00 0.00 0.00 0.00 0.00 0.01 0.01 0.01 0.00 0.01 0.00 0.01 0.00 0.00 0.00 0.01 0.02 0.02 0.04 0.01 0.00 0.02 0.02 0.01 0.01 0.02
0.10 0.13 0.16 0.06 0.03 0.01 0.02 0.18 0.22 0.03 0.00 0.00 0.00 0.00 0.00 0.00 0.00 0.00 0.00 0.00 0.00 0.00 0.00 0.00 0.00 0.00 0.00 0.00 0.01 0.02 0.06 0.05 0.05 0.01 0.01 0.00 0.01 0.02 0.02 0.05 0.12 0.10 0.01 0.02 0.00
0.15 0.21 0.15 0.07 0.03 0.06 0.15 0.34 0.12 0.00 0.00 0.00 0.00 0.00 0.00 0.00 0.00 0.00 0.00 0.00 0.00 0.00 0.00 0.01 0.02 0.00 0.00 0.00 0.01 0.01 0.05 0.08 0.13 0.07 0.05 0.03 0.01 0.01 0.01 0.01 0.00 0.00 0.00 0.00 0.00
0.32 0.29 0.22 0.07 0.03 0.10 0.39 0.44 0.04 0.01 0.00 0.00 0.00 0.00 0.00 0.00 0.00 0.00 0.00 0.00 0.00 0.00 0.01 0.02 0.00 0.00 0.00 0.00 0.02 0.07 0.09 0.06 0.13 0.09 0.06 0.06 0.00 0.00 0.00 0.00 0.00 0.00 0.00 0.00 0.01
0.47 0.46 0.16 0.06 0.12 0.41 0.66 0.26 0.00 0.00 0.00 0.00 0.00 0.00 0.00 0.00 0.00 0.00 0.01 0.01 0.02 0.00 0.00 0.04 0.08 0.01 0.00 0.00 0.00 0.06 0.15 0.29 0.31 0.23 0.10 0.00 0.01 0.01 0.01 0.00 0.00 0.00 0.00 0.00 0.00
1.00 0.92 0.18 0.10 0.58 0.93 0.62 0.10 0.00 0.00 0.00 0.00 0.00 0.00 0.00 0.00 0.00 0.00 0.04 0.11 0.05 0.02 0.00 0.00 0.03 0.05 0.00 0.00 0.01 0.06 0.24 0.37 0.23 0.05 0.06 0.06 0.08 0.02 0.01 0.00 0.00 0.00 0.00 0.00 0.00
1.70 1.16 0.28 0.34 0.88 0.62 0.21 0.02 0.00 0.00 0.00 0.00 0.00 0.00 0.00 0.00 0.00 0.00 0.00 0.02 0.02 0.02 0.04 0.01 0.01 0.01 0.00 0.00 0.00 0.02 0.04 0.14 0.36 0.19 0.03 0.07 0.19 0.07 0.01 0.00 0.00 0.00 0.00 0.00 0.00
2.11 1.05 0.83 0.78 1.00 0.32 0.11 0.05 0.01 0.00 0.00 0.01 0.00 0.00 0.00 0.00 0.02 0.01 0.01 0.01 0.00 0.02 0.02 0.01 0.01 0.01 0.01 0.03 0.02 0.01 0.03 0.07 0.19 0.31 0.21 0.16 0.11 0.17 0.05 0.01 0.00 0.00 0.00 0.00 0.00
2.62 1.80 1.86 1.22 0.31 0.36 0.47 0.24 0.06 0.04 0.04 0.05 0.01 0.00 0.01 0.06 0.02 0.02 0.02 0.02 0.02 0.02 0.01 0.02 0.01 0.01 0.03 0.08 0.10 0.06 0.04 0.08 0.30 0.45 0.16 0.13 0.08 0.49 0.54 0.16 0.01 0.00 0.00 0.01 0.02
3.77 1.48 0.80 0.88 0.41 0.21 0.29 0.31 0.18 0.20 0.12 0.06 0.04 0.04 0.05 0.07 0.07 0.04 0.05 0.06 0.07 0.02 0.01 0.07 0.08 0.03 0.00 0.00 0.03 0.08 0.08 0.07 0.16 0.21 0.27 0.06 0.11 0.28 0.63 0.69 0.25 0.02 0.00 0.00 0.00
3.62 0.92 0.29 0.16 0.19 0.28 0.35 0.19 0.10 0.13 0.14 0.19 0.23 0.07 0.06 0.08 0.08 0.12 0.14 0.16 0.20 0.15 0.07 0.07 0.12 0.02 0.00 0.00 0.00 0.01 0.01 0.11 0.13 0.08 0.09 0.05 0.12 0.21 0.40 0.52 0.40 0.29 0.07 0.01 0.00
2.91 0.71 0.59 0.35 0.17 0.28 0.21 0.14 0.13 0.07 0.11 0.14 0.21 0.13 0.06 0.12 0.14 0.20 0.16 0.18 0.21 0.26 0.25 0.15 0.18 0.13 0.06 0.00 0.00 0.00 0.00 0.03 0.10 0.14 0.22 0.23 0.08 0.11 0.17 0.37 0.27 0.28 0.24 0.11 0.02

GFSSW_prec_precacc_075.txt.gz
Total_Precipitation_Accumulation
0.02 0.02 0.03 0.03 0.02 0.01 0.01 0.01 0.01 0.01 0.01 0.01 0.01 0.01 0.01 0.01 0.01 0.00 0.00 0.00 0.00 0.00 0.00 0.00 0.00 0.00 0.00 0.00 0.00 0.00 0.00 0.00 0.00 0.03 0.10 0.24 0.18 0.09 0.11 0.18 0.29 0.39 0.68 0.95 0.89
0.03 0.03 0.03 0.02 0.02 0.01 0.01 0.01 0.01 0.01 0.01 0.01 0.01 0.01 0.01 0.01 0.00 0.00 0.00 0.00 0.00 0.00 0.00 0.00 0.00 0.00 0.00 0.00 0.00 0.00 0.00 0.00 0.01 0.02 0.10 0.16 0.21 0.09 0.13 0.42 0.67 0.42 0.82 1.15 1.09
0.02 0.03 0.03 0.03 0.02 0.01 0.01 0.01 0.01 0.01 0.01 0.01 0.01 0.01 0.01 0.00 0.00 0.00 0.00 0.00 0.00 0.00 0.00 0.00 0.00 0.00 0.00 0.00 0.00 0.00 0.00 0.00 0.02 0.10 0.02 0.05 0.08 0.06 0.12 0.57 0.92 0.94 0.74 0.83 0.72
0.02 0.02 0.02 0.03 0.02 0.02 0.01 0.01 0.01 0.01 0.01 0.01 0.01 0.01 0.01 0.00 0.00 0.00 0.00 0.00 0.00 0.00 0.00 0.00 0.00 0.00 0.00 0.00 0.00 0.00 0.00 0.00 0.01 0.05 0.01 0.04 0.06 0.04 0.21 0.45 0.36 0.38 0.38 0.31 0.40
0.02 0.02 0.01 0.02 0.02 0.02 0.01 0.01 0.01 0.01 0.01 0.01 0.01 0.02 0.00 0.00 0.00 0.00 0.00 0.00 0.00 0.00 0.00 0.00 0.00 0.00 0.00 0.00 0.00 0.00 0.00 0.00 0.00 0.00 0.03 0.01 0.02 0.04 0.04 0.10 0.04 0.11 0.19 0.28 0.41
0.02 0.02 0.01 0.02 0.02 0.02 0.01 0.01 0.01 0.01 0.01 0.01 0.01 0.02 0.00 0.00 0.00 0.00 0.00 0.00 0.00 0.00 0.00 0.00 0.00 0.00 0.00 0.00 0.00 0.00 0.00 0.00 0.00 0.00 0.01 0.02 0.02 0.06 0.21 0.06 0.02 0.06 0.22 0.38 0.35
0.03 0.02 0.02 0.02 0.02 0.01 0.01 0.01 0.01 0.01 0.01 0.01 0.01 0.02 0.00 0.00 0.00 0.00 0.00 0.00 0.00 0.00 0.00 0.00 0.00 0.00 0.00 0.00 0.00 0.00 0.00 0.00 0.00 0.00 0.02 0.07 0.12 0.13 0.13 0.01 0.01 0.03 0.10 0.11 0.17
0.02 0.02 0.02 0.01 0.01 0.01 0.01 0.01 0.01 0.01 0.01 0.01 0.01 0.01 0.00 0.00 0.00 0.00 0.00 0.00 0.00 0.00 0.00 0.00 0.00 0.00 0.00 0.00 0.00 0.00 0.00 0.01 0.01 0.00 0.01 0.12 0.46 0.07 0.08 0.08 0.04 0.03 0.07 0.06 0.02
0.02 0.02 0.02 0.01 0.02 0.02 0.01 0.01 0.01 0.01 0.01 0.01 0.00 0.00 0.00 0.00 0.00 0.00 0.00 0.00 0.00 0.00 0.00 0.00 0.00 0.00 0.00 0.00 0.00 0.00 0.00 0.00 0.01 0.01 0.01 0.10 0.45 0.09 0.08 0.22 0.09 0.04 0.01 0.00 0.00
0.02 0.02 0.02 0.03 0.03 0.02 0.01 0.01 0.01 0.01 0.01 0.00 0.00 0.00 0.00 0.00 0.00 0.00 0.00 0.00 0.00 0.00 0.00 0.00 0.00 0.00 0.00 0.00 0.00 0.00 0.00 0.00 0.00 0.00 0.00 0.01 0.12 0.23 0.06 0.09 0.30 0.05 0.02 0.00 0.00
0.02 0.02 0.02 0.03 0.04 0.02 0.00 0.00 0.00 0.00 0.00 0.00 0.00 0.00 0.00 0.00 0.00 0.00 0.00 0.00 0.00 0.01 0.00 0.00 0.00 0.00 0.00 0.00 0.00 0.00 0.00 0.00 0.00 0.00 0.00 0.00 0.02 0.10 0.15 0.04 0.06 0.04 0.14 0.05 0.01
0.03 0.02 0.02 0.04 0.05 0.02 0.01 0.00 0.00 0.00 0.00 0.00 0.00 0.00 0.00 0.00 0.00 0.00 0.00 0.00 0.01 0.05 0.03 0.00 0.00 0.00 0.00 0.00 0.00 0.00 0.00 0.00 0.00 0.00 0.00 0.00 0.00 0.02 0.07 0.01 0.01 0.01 0.14 0.03 0.01
0.03 0.02 0.03 0.05 0.04 0.01 0.00 0.00 0.00 0.00 0.01 0.00 0.00 0.00 0.00 0.00 0.00 0.00 0.00 0.00 0.00 0.02 0.07 0.02 0.00 0.00 0.00 0.00 0.00 0.00 0.00 0.00 0.00 0.00 0.00 0.00 0.00 0.02 0.02 0.02 0.06 0.01 0.00 0.00 0.00
0.04 0.03 0.04 0.06 0.01 0.00 0.00 0.00 0.00 0.00 0.01 0.00 0.00 0.00 0.00 0.00 0.00 0.00 0.00 0.00 0.00 0.01 0.06 0.08 0.00 0.00 0.00 0.00 0.00 0.00 0.00 0.00 0.00 0.00 0.00 0.00 0.01 0.09 0.03 0.01 0.04 0.02 0.00 0.01 0.00
0.05 0.05 0.07 0.06 0.02 0.01 0.00 0.00 0.00 0.02 0.01 0.00 0.00 0.00 0.00 0.00 0.00 0.00 0.00 0.00 0.00 0.00 0.05 0.06 0.03 0.02 0.00 0.00 0.00 0.01 0.00 0.00 0.00 0.00 0.01 0.01 0.00 0.08 0.01 0.01 0.01 0.01 0.00 0.01 0.01
0.08 0.09 0.14 0.08 0.04 0.01 0.01 0.02 0.09 0.05 0.00 0.00 0.00 0.00 0.00 0.00 0.00 0.00 0.00 0.00 0.00 0.00 0.00 0.00 0.01 0.01 0.01 0.00 0.01 0.00 0.01 0.00 0.00 0.00 0.02 0.02 0.02 0.04 0.01 0.00 0.02 0.02 0.01 0.01 0.02
0.10 0.13 0.16 0.06 0.03 0.01 0.02 0.18 0.22 0.03 0.00 0.00 0.00 0.00 0.00 0.00 0.00 0.00 0.00 0.00 0.00 0.00 0.00 0.00 0.00 0.00 0.00 0.00 0.01 0.02 0.07 0.05 0.06 0.02 0.01 0.00 0.01 0.02 0.02 0.05 0.12 0.10 0.01 0.02 0.00
0.15 0.21 0.15 0.07 0.03 0.06 0.15 0.34 0.12 0.00 0.00 0.00 0.00 0.00 0.00 0.00 0.00 0.00 0.00 0.00 0.00 0.00 0.00 0.01 0.02 0.00 0.00 0.00 0.01 0.01 0.05 0.08 0.13 0.08 0.05 0.03 0.01 0.01 0.01 0.01 0.00 0.00 0.00 0.00 0.00
0.32 0.29 0.22 0.07 0.03 0.10 0.39 0.44 0.04 0.01 0.00 0.00 0.00 0.00 0.00 0.00 0.00 0.00 0.00 0.00 0.00 0.00 0.01 0.02 0.00 0.00 0.00 0.00 0.02 0.07 0.09 0.07 0.16 0.11 0.08 0.06 0.00 0.00 0.00 0.00 0.00 0.00 0.00 0.00 0.01
0.47 0.46 0.16 0.06 0.12 0.41 0.66 0.26 0.00 0.00 0.00 0.00 0.00 0.00 0.00 0.00 0.00 0.00 0.01 0.02 0.02 0.00 0.00 0.04 0.08 0.01 0.00 0.00 0.00 0.06 0.17 0.35 0.33 0.25 0.11 0.00 0.01 0.02 0.01 0.00 0.00 0.00 0.00 0.00 0.00
1.00 0.92 0.18 0.10 0.58 0.93 0.62 0.10 0.00 0.00 0.00 0.00 0.00 0.00 0.00 0.00 0.00 0.00 0.04 0.12 0.07 0.03 0.00 0.00 0.03 0.05 0.00 0.00 0.01 0.06 0.24 0.43 0.30 0.05 0.09 0.09 0.14 0.05 0.01 0.00 0.00 0.00 0.00 0.00 0.00
1.70 1.16 0.28 0.34 0.88 0.62 0.21 0.02 0.00 0.00 0.00 0.00 0.00 0.00 0.00 0.00 0.00 0.00 0.00 0.02 0.02 0.03 0.05 0.01 0.01 0.01 0.00 0.00 0.00 0.02 0.05 0.15 0.40 0.24 0.09 0.08 0.30 0.30 0.03 0.00 0.00 0.00 0.01 0.01 0.01
2.11 1.05 0.83 0.78 1.00 0.32 0.11 0.05 0.01 0.00 0.00 0.01 0.00 0.00 0.00 0.00 0.02 0.01 0.01 0.01 0.01 0.02 0.03 0.02 0.07 0.06 0.03 0.05 0.02 0.02 0.07 0.14 0.25 0.35 0.28 0.22 0.14 0.27 0.10 0.01 0.00 0.00 0.01 0.02 0.03
2.62 1.80 1.86 1.22 0.31 0.36 0.47 0.24 0.06 0.05 0.07 0.08 0.01 0.01 0.03 0.06 0.02 0.02 0.02 0.03 0.04 0.04 0.02 0.03 0.02 0.03 0.04 0.09 0.10 0.06 0.04 0.10 0.38 0.59 0.31 0.18 0.10 0.61 0.73 0.27 0.03 0.00 0.02 0.04 0.06
3.77 1.48 0.80 0.88 0.41 0.21 0.29 0.31 0.18 0.21 0.16 0.08 0.16 0.20 0.16 0.12 0.09 0.05 0.05 0.06 0.10 0.07 0.07 0.10 0.09 0.04 0.00 0.00 0.03 0.08 0.08 0.07 0.16 0.23 0.32 0.10 0.13 0.30 0.78 0.83 0.41 0.05 0.00 0.01 0.02
3.63 0.92 0.29 0.16 0.19 0.28 0.35 0.19 0.10 0.13 0.14 0.20 0.27 0.09 0.07 0.11 0.10 0.14 0.16 0.17 0.22 0.21 0.14 0.14 0.13 0.02 0.00 0.00 0.00 0.01 0.01 0.11 0.13 0.08 0.09 0.06 0.12 0.21 0.41 0.55 0.49 0.34 0.09 0.01 0.01
2.91 0.71 0.59 0.36 0.17 0.28 0.21 0.14 0.13 0.07 0.11 0.14 0.21 0.13 0.06 0.13 0.16 0.21 0.16 0.19 0.23 0.30 0.34 0.21 0.21 0.14 0.06 0.00 0.00 0.00 0.00 0.03 0.10 0.14 0.23 0.23 0.08 0.12 0.18 0.38 0.29 0.32 0.25 0.13 0.03

GFSSW_prec_precacc_078.txt.gz
Total_Precipitation_Accumulation
0.02 0.02 0.03 0.03 0.02 0.01 0.01 0.01 0.01 0.01 0.01 0.01 0.01 0.01 0.01 0.01 0.01 0.00 0.00 0.00 0.00 0.00 0.00 0.00 0.00 0.00 0.00 0.00 0.00 0.00 0.00 0.00 0.00 0.03 0.10 0.24 0.18 0.09 0.11 0.18 0.29 0.39 0.68 0.95 0.89
0.03 0.03 0.03 0.03 0.02 0.01 0.01 0.01 0.01 0.01 0.01 0.01 0.01 0.01 0.01 0.01 0.00 0.00 0.00 0.00 0.00 0.00 0.00 0.00 0.00 0.00 0.00 0.00 0.00 0.00 0.00 0.00 0.01 0.02 0.10 0.16 0.21 0.09 0.13 0.42 0.67 0.42 0.82 1.15 1.09
0.02 0.03 0.03 0.03 0.02 0.01 0.01 0.01 0.01 0.01 0.01 0.01 0.01 0.01 0.01 0.00 0.00 0.00 0.00 0.00 0.00 0.00 0.00 0.00 0.00 0.00 0.00 0.00 0.00 0.00 0.00 0.00 0.02 0.10 0.02 0.05 0.08 0.06 0.12 0.57 0.92 0.94 0.74 0.83 0.72
0.02 0.02 0.02 0.03 0.02 0.02 0.01 0.01 0.01 0.01 0.01 0.01 0.01 0.01 0.01 0.00 0.00 0.00 0.00 0.00 0.00 0.00 0.00 0.00 0.00 0.00 0.00 0.00 0.00 0.00 0.00 0.00 0.01 0.05 0.01 0.04 0.06 0.04 0.21 0.45 0.36 0.38 0.38 0.31 0.40
0.02 0.02 0.01 0.02 0.02 0.02 0.01 0.01 0.01 0.01 0.01 0.01 0.01 0.02 0.00 0.00 0.00 0.00 0.00 0.00 0.00 0.00 0.00 0.00 0.00 0.00 0.00 0.00 0.00 0.00 0.00 0.00 0.00 0.00 0.03 0.01 0.02 0.04 0.04 0.10 0.04 0.11 0.19 0.28 0.41
0.02 0.02 0.01 0.02 0.02 0.02 0.01 0.01 0.01 0.01 0.01 0.01 0.01 0.02 0.00 0.00 0.00 0.00 0.00 0.00 0.00 0.00 0.00 0.00 0.00 0.00 0.00 0.00 0.00 0.00 0.00 0.00 0.00 0.00 0.01 0.02 0.02 0.06 0.21 0.06 0.02 0.06 0.22 0.38 0.35
0.03 0.02 0.02 0.02 0.02 0.01 0.01 0.01 0.01 0.01 0.01 0.01 0.01 0.02 0.00 0.00 0.00 0.00 0.00 0.00 0.00 0.00 0.00 0.00 0.00 0.00 0.00 0.00 0.00 0.00 0.00 0.00 0.00 0.00 0.02 0.07 0.12 0.13 0.13 0.01 0.01 0.03 0.10 0.11 0.17
0.02 0.02 0.02 0.01 0.01 0.01 0.01 0.01 0.01 0.01 0.01 0.01 0.01 0.01 0.00 0.00 0.00 0.00 0.00 0.00 0.00 0.00 0.00 0.00 0.00 0.00 0.00 0.00 0.00 0.00 0.00 0.01 0.01 0.00 0.01 0.12 0.46 0.07 0.08 0.08 0.04 0.03 0.07 0.06 0.02
0.02 0.02 0.02 0.01 0.02 0.02 0.01 0.01 0.01 0.01 0.01 0.01 0.00 0.00 0.00 0.00 0.00 0.00 0.00 0.00 0.00 0.00 0.00 0.00 0.00 0.00 0.00 0.00 0.00 0.00 0.00 0.00 0.01 0.01 0.01 0.10 0.45 0.09 0.08 0.22 0.09 0.04 0.01 0.00 0.00
0.02 0.02 0.02 0.03 0.03 0.02 0.01 0.01 0.01 0.01 0.01 0.00 0.00 0.00 0.00 0.00 0.00 0.00 0.00 0.00 0.00 0.00 0.00 0.00 0.00 0.00 0.00 0.00 0.01 0.00 0.00 0.00 0.00 0.00 0.00 0.01 0.12 0.23 0.06 0.09 0.30 0.05 0.02 0.00 0.00
0.02 0.02 0.02 0.03 0.04 0.02 0.00 0.00 0.00 0.00 0.00 0.00 0.00 0.00 0.00 0.00 0.00 0.00 0.00 0.00 0.00 0.01 0.00 0.00 0.00 0.00 0.00 0.00 0.00 0.00 0.00 0.00 0.00 0.00 0.00 0.00 0.02 0.10 0.15 0.04 0.06 0.04 0.14 0.05 0.01
0.03 0.02 0.02 0.04 0.05 0.02 0.01 0.00 0.00 0.00 0.00 0.00 0.00 0.00 0.00 0.00 0.00 0.00 0.00 0.00 0.01 0.05 0.03 0.00 0.00 0.00 0.00 0.00 0.00 0.00 0.00 0.00 0.00 0.00 0.00 0.00 0.00 0.02 0.07 0.01 0.01 0.01 0.14 0.03 0.01
0.03 0.02 0.03 0.05 0.04 0.01 0.00 0.00 0.00 0.00 0.01 0.00 0.00 0.00 0.00 0.00 0.00 0.00 0.00 0.00 0.00 0.02 0.07 0.02 0.00 0.00 0.00 0.00 0.00 0.00 0.00 0.00 0.00 0.00 0.00 0.00 0.00 0.02 0.02 0.02 0.06 0.01 0.00 0.00 0.00
0.04 0.03 0.04 0.06 0.01 0.00 0.00 0.00 0.00 0.00 0.01 0.00 0.00 0.00 0.00 0.00 0.00 0.00 0.00 0.00 0.00 0.01 0.06 0.08 0.00 0.00 0.00 0.00 0.00 0.00 0.00 0.00 0.00 0.00 0.00 0.00 0.01 0.09 0.03 0.01 0.04 0.02 0.00 0.01 0.00
0.05 0.05 0.07 0.06 0.02 0.01 0.00 0.00 0.00 0.02 0.01 0.00 0.00 0.00 0.00 0.00 0.00 0.00 0.00 0.00 0.00 0.00 0.05 0.06 0.03 0.02 0.00 0.00 0.00 0.01 0.00 0.00 0.00 0.00 0.01 0.01 0.00 0.08 0.01 0.01 0.01 0.01 0.00 0.01 0.01
0.08 0.09 0.14 0.08 0.04 0.01 0.01 0.02 0.09 0.05 0.00 0.00 0.00 0.00 0.00 0.00 0.00 0.00 0.00 0.00 0.00 0.00 0.00 0.00 0.01 0.01 0.01 0.00 0.01 0.00 0.01 0.00 0.00 0.00 0.02 0.02 0.02 0.04 0.01 0.00 0.02 0.02 0.01 0.01 0.02
0.10 0.13 0.16 0.06 0.03 0.01 0.02 0.18 0.22 0.03 0.00 0.00 0.00 0.00 0.00 0.00 0.00 0.00 0.00 0.00 0.00 0.00 0.00 0.00 0.00 0.00 0.00 0.00 0.01 0.02 0.07 0.05 0.06 0.02 0.01 0.00 0.01 0.02 0.02 0.05 0.12 0.10 0.01 0.02 0.00
0.15 0.21 0.15 0.07 0.03 0.06 0.15 0.34 0.12 0.00 0.00 0.00 0.00 0.00 0.00 0.00 0.00 0.00 0.00 0.00 0.00 0.00 0.00 0.01 0.02 0.00 0.00 0.00 0.01 0.01 0.05 0.08 0.14 0.08 0.05 0.03 0.01 0.01 0.01 0.01 0.00 0.00 0.00 0.00 0.00
0.32 0.29 0.22 0.07 0.03 0.10 0.39 0.44 0.04 0.01 0.00 0.00 0.00 0.00 0.00 0.00 0.00 0.00 0.00 0.00 0.00 0.00 0.01 0.02 0.00 0.00 0.00 0.00 0.02 0.07 0.10 0.07 0.17 0.11 0.08 0.06 0.00 0.00 0.00 0.00 0.00 0.00 0.00 0.00 0.01
0.47 0.46 0.16 0.06 0.12 0.41 0.66 0.26 0.00 0.00 0.00 0.00 0.00 0.00 0.00 0.00 0.00 0.00 0.01 0.02 0.02 0.00 0.00 0.04 0.08 0.01 0.00 0.00 0.00 0.07 0.17 0.37 0.36 0.26 0.12 0.01 0.02 0.03 0.01 0.00 0.00 0.00 0.00 0.00 0.00
1.00 0.92 0.18 0.10 0.58 0.93 0.62 0.10 0.00 0.00 0.00 0.00 0.00 0.00 0.00 0.00 0.00 0.00 0.04 0.13 0.07 0.03 0.00 0.00 0.03 0.05 0.01 0.01 0.02 0.07 0.25 0.43 0.34 0.07 0.11 0.11 0.22 0.14 0.02 0.00 0.00 0.00 0.00 0.00 0.00
1.70 1.16 0.28 0.34 0.88 0.62 0.21 0.02 0.00 0.00 0.00 0.00 0.00 0.00 0.00 0.00 0.00 0.00 0.00 0.03 0.02 0.03 0.07 0.03 0.03 0.01 0.00 0.00 0.00 0.03 0.07 0.17 0.42 0.26 0.13 0.14 0.36 0.37 0.07 0.01 0.00 0.00 0.01 0.02 0.02
2.11 1.05 0.83 0.78 1.00 0.32 0.11 0.05 0.01 0.00 0.00 0.01 0.00 0.00 0.01 0.00 0.03 0.01 0.01 0.01 0.01 0.03 0.05 0.04 0.11 0.09 0.06 0.08 0.04 0.05 0.09 0.16 0.28 0.38 0.31 0.29 0.21 0.49 0.23 0.05 0.01 0.00 0.01 0.03 0.05
2.62 1.80 1.86 1.22 0.31 0.36 0.47 0.24 0.06 0.05 0.08 0.09 0.02 0.04 0.05 0.07 0.03 0.02 0.02 0.03 0.05 0.06 0.08 0.07 0.03 0.05 0.10 0.12 0.12 0.07 0.05 0.10 0.39 0.61 0.34 0.22 0.15 0.73 0.94 0.42 0.09 0.01 0.04 0.07 0.08
3.77 1.48 0.80 0.88 0.41 0.21 0.29 0.31 0.18 0.21 0.16 0.08 0.21 0.25 0.20 0.15 0.12 0.07 0.06 0.06 0.10 0.08 0.17 0.24 0.13 0.05 0.01 0.02 0.03 0.08 0.08 0.07 0.16 0.23 0.32 0.10 0.13 0.31 0.78 0.86 0.53 0.09 0.04 0.07 0.08
3.63 0.92 0.29 0.16 0.19 0.28 0.35 0.19 0.10 0.13 0.14 0.20 0.27 0.10 0.07 0.13 0.13 0.19 0.21 0.21 0.25 0.24 0.24 0.37 0.24 0.04 0.01 0.01 0.01 0.01 0.01 0.11 0.13 0.08 0.09 0.06 0.12 0.21 0.42 0.57 0.51 0.42 0.19 0.10 0.10
2.91 0.71 0.59 0.36 0.17 0.28 0.21 0.14 0.13 0.07 0.11 0.14 0.21 0.13 0.06 0.17 0.18 0.22 0.17 0.20 0.24 0.32 0.43 0.40 0.44 0.17 0.07 0.00 0.00 0.00 0.00 0.03 0.10 0.14 0.23 0.23 0.08 0.13 0.19 0.40 0.30 0.34 0.29 0.19 0.17

GFSSW_prec_precacc_081.txt.gz
Total_Precipitation_Accumulation
0.02 0.02 0.03 0.03 0.02 0.01 0.01 0.01 0.01 0.01 0.01 0.01 0.01 0.01 0.01 0.01 0.01 0.00 0.00 0.00 0.00 0.00 0.00 0.00 0.00 0.00 0.00 0.00 0.00 0.00 0.00 0.00 0.00 0.03 0.10 0.24 0.18 0.09 0.11 0.18 0.29 0.39 0.68 0.95 0.89
0.03 0.03 0.03 0.03 0.02 0.01 0.01 0.01 0.01 0.01 0.01 0.01 0.01 0.01 0.01 0.01 0.00 0.00 0.00 0.00 0.00 0.00 0.00 0.00 0.00 0.00 0.00 0.00 0.00 0.00 0.00 0.00 0.01 0.02 0.10 0.16 0.21 0.09 0.13 0.42 0.67 0.42 0.82 1.15 1.09
0.02 0.03 0.03 0.03 0.02 0.01 0.01 0.01 0.01 0.01 0.01 0.01 0.01 0.01 0.01 0.00 0.00 0.00 0.00 0.00 0.00 0.00 0.00 0.00 0.00 0.00 0.00 0.00 0.00 0.00 0.00 0.00 0.02 0.10 0.02 0.05 0.08 0.06 0.12 0.57 0.92 0.94 0.74 0.83 0.72
0.02 0.02 0.02 0.03 0.02 0.02 0.01 0.01 0.01 0.01 0.01 0.01 0.01 0.01 0.01 0.00 0.00 0.00 0.00 0.00 0.00 0.00 0.00 0.00 0.00 0.00 0.00 0.00 0.00 0.00 0.00 0.00 0.01 0.05 0.01 0.04 0.06 0.04 0.21 0.45 0.36 0.38 0.38 0.31 0.40
0.02 0.02 0.01 0.02 0.02 0.02 0.01 0.01 0.01 0.01 0.01 0.01 0.01 0.02 0.00 0.00 0.00 0.00 0.00 0.00 0.00 0.00 0.00 0.00 0.00 0.00 0.00 0.00 0.00 0.00 0.00 0.00 0.00 0.00 0.03 0.01 0.02 0.04 0.04 0.10 0.04 0.11 0.19 0.28 0.41
0.02 0.02 0.01 0.02 0.02 0.02 0.01 0.01 0.01 0.01 0.01 0.01 0.01 0.02 0.00 0.00 0.00 0.00 0.00 0.00 0.00 0.00 0.00 0.00 0.00 0.00 0.00 0.00 0.00 0.00 0.00 0.00 0.00 0.00 0.01 0.02 0.02 0.06 0.21 0.06 0.02 0.06 0.22 0.38 0.35
0.03 0.02 0.02 0.02 0.02 0.01 0.01 0.01 0.01 0.01 0.01 0.01 0.01 0.02 0.00 0.00 0.00 0.00 0.00 0.00 0.00 0.00 0.00 0.00 0.00 0.00 0.00 0.00 0.00 0.00 0.00 0.00 0.00 0.00 0.02 0.07 0.12 0.13 0.13 0.01 0.01 0.03 0.10 0.11 0.17
0.02 0.02 0.02 0.01 0.01 0.01 0.01 0.01 0.01 0.01 0.01 0.01 0.01 0.01 0.00 0.00 0.00 0.00 0.00 0.00 0.00 0.00 0.00 0.00 0.00 0.00 0.00 0.00 0.00 0.00 0.00 0.01 0.01 0.00 0.01 0.12 0.46 0.07 0.08 0.08 0.04 0.03 0.07 0.06 0.02
0.02 0.02 0.02 0.01 0.02 0.02 0.01 0.01 0.01 0.01 0.01 0.01 0.00 0.00 0.00 0.00 0.00 0.00 0.00 0.00 0.00 0.00 0.00 0.00 0.00 0.00 0.00 0.00 0.00 0.00 0.00 0.00 0.01 0.01 0.01 0.10 0.45 0.09 0.08 0.22 0.09 0.04 0.01 0.00 0.00
0.02 0.02 0.02 0.03 0.03 0.02 0.01 0.01 0.01 0.01 0.01 0.00 0.00 0.00 0.00 0.00 0.00 0.00 0.00 0.00 0.00 0.00 0.00 0.00 0.00 0.00 0.00 0.00 0.01 0.00 0.00 0.00 0.00 0.00 0.00 0.01 0.12 0.23 0.06 0.09 0.30 0.05 0.02 0.00 0.00
0.02 0.02 0.02 0.03 0.04 0.02 0.00 0.00 0.00 0.00 0.00 0.00 0.00 0.00 0.00 0.00 0.00 0.00 0.00 0.00 0.00 0.01 0.00 0.00 0.00 0.00 0.00 0.00 0.00 0.00 0.00 0.00 0.00 0.00 0.00 0.00 0.02 0.10 0.15 0.04 0.06 0.04 0.14 0.05 0.01
0.03 0.02 0.02 0.04 0.05 0.02 0.01 0.00 0.00 0.00 0.00 0.00 0.00 0.00 0.00 0.00 0.00 0.00 0.00 0.00 0.01 0.05 0.03 0.00 0.00 0.00 0.00 0.00 0.00 0.00 0.00 0.00 0.00 0.00 0.00 0.00 0.00 0.02 0.07 0.01 0.01 0.01 0.14 0.03 0.01
0.03 0.02 0.03 0.05 0.04 0.01 0.00 0.00 0.00 0.00 0.01 0.00 0.00 0.00 0.00 0.00 0.00 0.00 0.00 0.00 0.00 0.02 0.07 0.02 0.00 0.00 0.00 0.00 0.00 0.00 0.00 0.00 0.00 0.00 0.00 0.00 0.00 0.02 0.02 0.02 0.06 0.01 0.00 0.00 0.00
0.04 0.03 0.04 0.06 0.01 0.00 0.00 0.00 0.00 0.00 0.01 0.00 0.00 0.00 0.00 0.00 0.00 0.00 0.00 0.00 0.00 0.01 0.06 0.08 0.00 0.00 0.00 0.00 0.00 0.00 0.00 0.00 0.00 0.00 0.00 0.00 0.01 0.09 0.03 0.01 0.04 0.02 0.00 0.01 0.00
0.05 0.05 0.07 0.06 0.02 0.01 0.00 0.00 0.00 0.02 0.01 0.00 0.00 0.00 0.00 0.00 0.00 0.00 0.00 0.00 0.00 0.00 0.05 0.06 0.03 0.02 0.00 0.00 0.00 0.01 0.00 0.00 0.00 0.00 0.01 0.01 0.00 0.08 0.01 0.01 0.01 0.01 0.00 0.01 0.01
0.08 0.09 0.14 0.08 0.04 0.01 0.01 0.02 0.09 0.05 0.00 0.00 0.00 0.00 0.00 0.00 0.00 0.00 0.00 0.00 0.00 0.00 0.00 0.00 0.01 0.01 0.01 0.00 0.01 0.00 0.01 0.00 0.00 0.00 0.02 0.02 0.02 0.04 0.01 0.00 0.02 0.02 0.01 0.01 0.02
0.10 0.13 0.16 0.06 0.03 0.01 0.02 0.18 0.22 0.03 0.00 0.00 0.00 0.00 0.00 0.00 0.00 0.00 0.00 0.00 0.00 0.00 0.00 0.00 0.00 0.00 0.00 0.00 0.01 0.02 0.07 0.05 0.06 0.03 0.01 0.00 0.01 0.02 0.02 0.05 0.12 0.10 0.01 0.02 0.00
0.15 0.21 0.15 0.07 0.03 0.06 0.15 0.34 0.12 0.00 0.00 0.00 0.00 0.00 0.00 0.00 0.00 0.00 0.00 0.00 0.00 0.00 0.00 0.01 0.02 0.00 0.00 0.00 0.01 0.01 0.05 0.08 0.14 0.08 0.05 0.04 0.01 0.01 0.01 0.01 0.00 0.00 0.00 0.00 0.00
0.32 0.29 0.22 0.07 0.03 0.10 0.39 0.44 0.04 0.01 0.00 0.00 0.00 0.00 0.00 0.00 0.00 0.00 0.00 0.00 0.00 0.00 0.01 0.02 0.00 0.00 0.00 0.00 0.02 0.09 0.10 0.07 0.17 0.11 0.09 0.06 0.00 0.00 0.00 0.00 0.00 0.00 0.00 0.00 0.01
0.47 0.46 0.16 0.06 0.12 0.41 0.66 0.26 0.00 0.00 0.00 0.00 0.00 0.00 0.00 0.00 0.00 0.00 0.01 0.02 0.03 0.01 0.00 0.04 0.08 0.01 0.00 0.00 0.00 0.08 0.19 0.39 0.39 0.29 0.13 0.01 0.03 0.07 0.02 0.00 0.00 0.00 0.00 0.00 0.00
1.00 0.92 0.18 0.10 0.58 0.93 0.62 0.10 0.00 0.00 0.00 0.00 0.00 0.00 0.00 0.00 0.00 0.00 0.04 0.13 0.08 0.06 0.02 0.01 0.04 0.05 0.03 0.02 0.03 0.09 0.27 0.46 0.36 0.10 0.14 0.13 0.27 0.15 0.02 0.00 0.00 0.00 0.00 0.00 0.00
1.70 1.16 0.28 0.34 0.88 0.62 0.21 0.02 0.00 0.00 0.00 0.00 0.00 0.00 0.00 0.00 0.00 0.00 0.00 0.03 0.02 0.04 0.10 0.10 0.08 0.03 0.01 0.00 0.00 0.03 0.09 0.23 0.46 0.31 0.17 0.17 0.41 0.37 0.07 0.01 0.00 0.00 0.01 0.02 0.03
2.11 1.05 0.83 0.78 1.00 0.32 0.11 0.05 0.01 0.00 0.00 0.01 0.00 0.01 0.01 0.00 0.03 0.01 0.01 0.01 0.01 0.04 0.08 0.06 0.16 0.15 0.08 0.10 0.05 0.05 0.10 0.19 0.31 0.40 0.33 0.33 0.32 0.58 0.28 0.06 0.02 0.00 0.01 0.03 0.06
2.62 1.80 1.86 1.22 0.31 0.36 0.47 0.24 0.06 0.05 0.09 0.09 0.03 0.04 0.05 0.07 0.05 0.04 0.02 0.03 0.05 0.06 0.10 0.12 0.07 0.09 0.11 0.16 0.18 0.12 0.09 0.14 0.42 0.62 0.36 0.24 0.15 0.75 0.96 0.43 0.13 0.02 0.04 0.08 0.10
3.77 1.48 0.80 0.88 0.41 0.21 0.29 0.31 0.18 0.21 0.16 0.08 0.21 0.25 0.20 0.15 0.12 0.10 0.10 0.09 0.10 0.09 0.20 0.29 0.19 0.08 0.03 0.02 0.04 0.11 0.12 0.09 0.18 0.23 0.32 0.10 0.13 0.31 0.78 0.87 0.53 0.09 0.05 0.09 0.13
3.63 0.92 0.29 0.16 0.19 0.28 0.35 0.19 0.10 0.13 0.14 0.20 0.27 0.10 0.07 0.13 0.14 0.21 0.24 0.25 0.29 0.30 0.32 0.42 0.30 0.09 0.06 0.02 0.02 0.03 0.02 0.11 0.13 0.08 0.09 0.06 0.12 0.21 0.43 0.59 0.51 0.42 0.20 0.16 0.15
2.91 0.71 0.59 0.36 0.17 0.28 0.21 0.14 0.13 0.07 0.11 0.14 0.21 0.13 0.07 0.17 0.18 0.22 0.17 0.20 0.25 0.35 0.47 0.45 0.55 0.38 0.17 0.03 0.01 0.01 0.00 0.03 0.10 0.14 0.23 0.24 0.09 0.13 0.20 0.41 0.32 0.35 0.29 0.26 0.30

GFSSW_prec_precacc_084.txt.gz
Total_Precipitation_Accumulation
0.02 0.02 0.03 0.03 0.02 0.01 0.01 0.01 0.01 0.01 0.01 0.01 0.01 0.01 0.01 0.01 0.01 0.00 0.00 0.00 0.00 0.00 0.00 0.00 0.00 0.00 0.00 0.00 0.00 0.00 0.00 0.00 0.00 0.03 0.10 0.24 0.18 0.09 0.11 0.18 0.29 0.39 0.68 0.95 0.89
0.03 0.03 0.03 0.03 0.02 0.01 0.01 0.01 0.01 0.01 0.01 0.01 0.01 0.01 0.01 0.01 0.00 0.00 0.00 0.00 0.00 0.00 0.00 0.00 0.00 0.00 0.00 0.00 0.00 0.00 0.00 0.00 0.01 0.02 0.10 0.16 0.21 0.09 0.13 0.42 0.67 0.42 0.82 1.15 1.09
0.02 0.03 0.03 0.03 0.02 0.01 0.01 0.01 0.01 0.01 0.01 0.01 0.01 0.01 0.01 0.00 0.00 0.00 0.00 0.00 0.00 0.00 0.00 0.00 0.00 0.00 0.00 0.00 0.00 0.00 0.00 0.00 0.02 0.10 0.02 0.05 0.08 0.06 0.12 0.57 0.92 0.94 0.74 0.83 0.72
0.02 0.02 0.02 0.03 0.02 0.02 0.01 0.01 0.01 0.01 0.01 0.01 0.01 0.01 0.01 0.00 0.00 0.00 0.00 0.00 0.00 0.00 0.00 0.00 0.00 0.00 0.00 0.00 0.00 0.00 0.00 0.00 0.01 0.05 0.01 0.04 0.06 0.04 0.21 0.45 0.36 0.38 0.38 0.31 0.40
0.02 0.02 0.01 0.02 0.02 0.02 0.01 0.01 0.01 0.01 0.01 0.01 0.01 0.02 0.00 0.00 0.00 0.00 0.00 0.00 0.00 0.00 0.00 0.00 0.00 0.00 0.00 0.00 0.00 0.00 0.00 0.00 0.00 0.00 0.03 0.01 0.02 0.04 0.04 0.10 0.04 0.11 0.19 0.28 0.41
0.02 0.02 0.01 0.02 0.02 0.02 0.01 0.01 0.01 0.01 0.01 0.01 0.01 0.02 0.00 0.00 0.00 0.00 0.00 0.00 0.00 0.00 0.00 0.00 0.00 0.00 0.00 0.00 0.00 0.00 0.00 0.00 0.00 0.00 0.01 0.02 0.02 0.06 0.21 0.06 0.02 0.06 0.22 0.38 0.35
0.03 0.02 0.02 0.02 0.02 0.01 0.01 0.01 0.01 0.01 0.01 0.01 0.01 0.02 0.00 0.00 0.00 0.00 0.00 0.00 0.00 0.00 0.00 0.00 0.00 0.00 0.00 0.00 0.00 0.00 0.00 0.00 0.00 0.00 0.02 0.07 0.12 0.13 0.13 0.01 0.01 0.03 0.10 0.11 0.17
0.02 0.02 0.02 0.01 0.01 0.01 0.01 0.01 0.01 0.01 0.01 0.01 0.01 0.01 0.00 0.00 0.00 0.00 0.00 0.00 0.00 0.00 0.00 0.00 0.00 0.00 0.00 0.00 0.00 0.00 0.00 0.01 0.01 0.00 0.01 0.12 0.46 0.07 0.08 0.08 0.04 0.03 0.07 0.06 0.02
0.02 0.02 0.02 0.01 0.02 0.02 0.01 0.01 0.01 0.01 0.01 0.01 0.00 0.00 0.00 0.00 0.00 0.00 0.00 0.00 0.00 0.00 0.00 0.00 0.00 0.00 0.00 0.00 0.00 0.00 0.00 0.00 0.01 0.01 0.01 0.10 0.45 0.09 0.08 0.22 0.09 0.04 0.01 0.00 0.00
0.02 0.02 0.02 0.03 0.03 0.02 0.01 0.01 0.01 0.01 0.01 0.00 0.00 0.00 0.00 0.00 0.00 0.00 0.00 0.00 0.00 0.00 0.00 0.00 0.00 0.00 0.00 0.00 0.01 0.00 0.00 0.00 0.00 0.00 0.00 0.01 0.12 0.23 0.06 0.09 0.30 0.05 0.02 0.00 0.00
0.02 0.02 0.02 0.03 0.04 0.02 0.00 0.00 0.00 0.00 0.00 0.00 0.00 0.00 0.00 0.00 0.00 0.00 0.00 0.00 0.00 0.01 0.00 0.00 0.00 0.00 0.00 0.00 0.00 0.00 0.00 0.00 0.00 0.00 0.00 0.00 0.02 0.10 0.15 0.04 0.06 0.04 0.14 0.05 0.01
0.03 0.02 0.02 0.04 0.05 0.02 0.01 0.00 0.00 0.00 0.00 0.00 0.00 0.00 0.00 0.00 0.00 0.00 0.00 0.00 0.01 0.05 0.03 0.00 0.00 0.00 0.00 0.00 0.00 0.00 0.00 0.00 0.00 0.00 0.00 0.00 0.00 0.02 0.07 0.01 0.01 0.01 0.14 0.03 0.01
0.03 0.02 0.03 0.05 0.04 0.01 0.00 0.00 0.00 0.00 0.01 0.00 0.00 0.00 0.00 0.00 0.00 0.00 0.00 0.00 0.00 0.02 0.07 0.02 0.00 0.00 0.00 0.00 0.00 0.00 0.00 0.00 0.00 0.00 0.00 0.00 0.00 0.02 0.02 0.02 0.06 0.01 0.00 0.00 0.00
0.04 0.03 0.04 0.06 0.01 0.00 0.00 0.00 0.00 0.00 0.01 0.00 0.00 0.00 0.00 0.00 0.00 0.00 0.00 0.00 0.00 0.01 0.06 0.08 0.00 0.00 0.00 0.00 0.00 0.00 0.00 0.00 0.00 0.00 0.00 0.00 0.01 0.09 0.03 0.01 0.04 0.02 0.00 0.01 0.00
0.05 0.05 0.07 0.06 0.02 0.01 0.00 0.00 0.00 0.02 0.01 0.00 0.00 0.00 0.00 0.00 0.00 0.00 0.00 0.00 0.00 0.00 0.05 0.06 0.03 0.02 0.00 0.00 0.00 0.01 0.00 0.00 0.00 0.00 0.01 0.01 0.00 0.08 0.01 0.01 0.01 0.01 0.00 0.01 0.01
0.08 0.09 0.14 0.08 0.04 0.01 0.01 0.02 0.09 0.05 0.00 0.00 0.00 0.00 0.00 0.00 0.00 0.00 0.00 0.00 0.00 0.00 0.00 0.00 0.01 0.01 0.01 0.00 0.01 0.00 0.01 0.00 0.00 0.00 0.02 0.02 0.02 0.04 0.01 0.00 0.02 0.02 0.01 0.01 0.02
0.10 0.13 0.16 0.06 0.03 0.01 0.02 0.18 0.22 0.03 0.00 0.00 0.00 0.00 0.00 0.00 0.00 0.00 0.00 0.00 0.00 0.00 0.00 0.00 0.00 0.00 0.00 0.00 0.01 0.02 0.07 0.06 0.06 0.03 0.01 0.01 0.02 0.02 0.03 0.06 0.12 0.10 0.01 0.02 0.00
0.15 0.21 0.15 0.07 0.03 0.06 0.15 0.34 0.12 0.00 0.00 0.00 0.00 0.00 0.00 0.00 0.00 0.00 0.00 0.00 0.00 0.00 0.00 0.01 0.02 0.00 0.00 0.00 0.01 0.01 0.05 0.09 0.14 0.09 0.06 0.09 0.05 0.02 0.01 0.01 0.00 0.00 0.00 0.00 0.00
0.32 0.29 0.22 0.07 0.03 0.10 0.39 0.44 0.04 0.01 0.00 0.00 0.00 0.00 0.00 0.00 0.00 0.00 0.00 0.00 0.00 0.00 0.01 0.02 0.00 0.00 0.00 0.00 0.02 0.09 0.10 0.07 0.18 0.11 0.09 0.06 0.01 0.09 0.05 0.00 0.00 0.00 0.00 0.00 0.01
0.47 0.46 0.16 0.06 0.12 0.41 0.66 0.26 0.00 0.00 0.00 0.00 0.00 0.00 0.00 0.00 0.00 0.00 0.01 0.02 0.03 0.01 0.00 0.04 0.08 0.01 0.00 0.00 0.00 0.08 0.20 0.46 0.50 0.30 0.15 0.01 0.06 0.16 0.14 0.03 0.00 0.00 0.00 0.00 0.00
1.00 0.92 0.18 0.10 0.58 0.93 0.62 0.10 0.00 0.00 0.00 0.00 0.00 0.00 0.00 0.00 0.00 0.00 0.04 0.13 0.08 0.06 0.02 0.02 0.05 0.06 0.04 0.02 0.03 0.09 0.27 0.47 0.40 0.12 0.19 0.16 0.45 0.39 0.11 0.03 0.00 0.00 0.00 0.00 0.00
1.70 1.16 0.28 0.34 0.88 0.62 0.21 0.02 0.00 0.00 0.00 0.00 0.00 0.00 0.00 0.00 0.00 0.00 0.00 0.03 0.02 0.04 0.10 0.14 0.12 0.05 0.01 0.00 0.00 0.04 0.09 0.24 0.51 0.33 0.20 0.21 0.44 0.39 0.08 0.01 0.00 0.00 0.01 0.02 0.03
2.11 1.05 0.83 0.78 1.00 0.32 0.11 0.05 0.01 0.00 0.00 0.01 0.00 0.01 0.01 0.00 0.03 0.01 0.01 0.01 0.01 0.04 0.10 0.07 0.19 0.17 0.09 0.11 0.06 0.06 0.11 0.20 0.35 0.44 0.34 0.39 0.37 0.59 0.28 0.06 0.02 0.00 0.01 0.03 0.06
2.62 1.80 1.86 1.22 0.31 0.36 0.47 0.24 0.06 0.05 0.09 0.09 0.03 0.05 0.05 0.07 0.05 0.04 0.02 0.03 0.05 0.06 0.12 0.14 0.07 0.10 0.13 0.21 0.25 0.17 0.12 0.15 0.46 0.66 0.38 0.27 0.17 0.77 0.98 0.45 0.13 0.02 0.04 0.08 0.10
3.77 1.48 0.80 0.88 0.41 0.21 0.29 0.31 0.18 0.21 0.16 0.08 0.21 0.26 0.20 0.15 0.13 0.10 0.11 0.09 0.10 0.09 0.20 0.31 0.20 0.08 0.04 0.02 0.08 0.17 0.17 0.13 0.22 0.27 0.34 0.10 0.13 0.32 0.81 0.93 0.54 0.09 0.05 0.09 0.13
3.63 0.92 0.29 0.16 0.19 0.28 0.35 0.19 0.10 0.13 0.14 0.20 0.27 0.10 0.07 0.13 0.14 0.21 0.24 0.26 0.30 0.31 0.37 0.53 0.35 0.10 0.06 0.03 0.03 0.03 0.04 0.18 0.21 0.14 0.12 0.06 0.15 0.23 0.52 0.64 0.51 0.42 0.20 0.16 0.17
2.91 0.71 0.59 0.36 0.17 0.28 0.21 0.14 0.13 0.07 0.11 0.14 0.21 0.13 0.07 0.17 0.18 0.22 0.17 0.20 0.25 0.35 0.48 0.52 0.65 0.41 0.17 0.05 0.05 0.02 0.00 0.03 0.11 0.16 0.24 0.27 0.14 0.15 0.21 0.42 0.32 0.35 0.29 0.27 0.33

GFSSW_prec_precacc_090.txt.gz
Total_Precipitation_Accumulation
0.02 0.02 0.03 0.03 0.02 0.01 0.01 0.01 0.01 0.01 0.01 0.01 0.01 0.01 0.01 0.01 0.01 0.00 0.00 0.00 0.00 0.00 0.00 0.00 0.00 0.00 0.00 0.00 0.00 0.00 0.00 0.00 0.00 0.03 0.10 0.24 0.18 0.09 0.11 0.18 0.29 0.39 0.68 0.95 0.89
0.03 0.03 0.03 0.03 0.02 0.01 0.01 0.01 0.01 0.01 0.01 0.01 0.01 0.01 0.01 0.01 0.00 0.00 0.00 0.00 0.00 0.00 0.00 0.00 0.00 0.00 0.00 0.00 0.00 0.00 0.00 0.00 0.01 0.02 0.10 0.16 0.21 0.09 0.13 0.42 0.67 0.42 0.82 1.15 1.09
0.02 0.03 0.03 0.03 0.02 0.01 0.01 0.01 0.01 0.01 0.01 0.01 0.01 0.01 0.01 0.00 0.00 0.00 0.00 0.00 0.00 0.00 0.00 0.00 0.00 0.00 0.00 0.00 0.00 0.00 0.00 0.00 0.02 0.10 0.02 0.05 0.08 0.06 0.12 0.57 0.92 0.94 0.74 0.83 0.72
0.02 0.02 0.02 0.03 0.02 0.02 0.01 0.01 0.01 0.01 0.01 0.01 0.01 0.01 0.01 0.00 0.00 0.00 0.00 0.00 0.00 0.00 0.00 0.00 0.00 0.00 0.00 0.00 0.00 0.00 0.00 0.00 0.01 0.05 0.01 0.04 0.06 0.04 0.21 0.45 0.36 0.38 0.38 0.31 0.40
0.02 0.02 0.01 0.02 0.02 0.02 0.01 0.01 0.01 0.01 0.01 0.01 0.01 0.02 0.00 0.00 0.00 0.00 0.00 0.00 0.00 0.00 0.00 0.00 0.00 0.00 0.00 0.00 0.00 0.00 0.00 0.00 0.00 0.00 0.03 0.01 0.02 0.04 0.04 0.10 0.04 0.11 0.19 0.28 0.41
0.02 0.02 0.01 0.02 0.02 0.02 0.01 0.01 0.01 0.01 0.01 0.01 0.01 0.02 0.00 0.00 0.00 0.00 0.00 0.00 0.00 0.00 0.00 0.00 0.00 0.00 0.00 0.00 0.00 0.00 0.00 0.00 0.00 0.00 0.01 0.02 0.02 0.06 0.21 0.06 0.02 0.06 0.22 0.38 0.35
0.03 0.02 0.02 0.02 0.02 0.01 0.01 0.01 0.01 0.01 0.01 0.01 0.01 0.02 0.00 0.00 0.00 0.00 0.00 0.00 0.00 0.00 0.00 0.00 0.00 0.00 0.00 0.00 0.00 0.00 0.00 0.00 0.00 0.00 0.02 0.07 0.12 0.13 0.13 0.01 0.01 0.03 0.10 0.11 0.17
0.06 0.03 0.02 0.01 0.01 0.01 0.01 0.01 0.01 0.01 0.01 0.01 0.02 0.01 0.00 0.00 0.00 0.00 0.00 0.00 0.00 0.00 0.00 0.00 0.00 0.00 0.00 0.00 0.00 0.00 0.00 0.01 0.01 0.00 0.01 0.12 0.46 0.07 0.08 0.08 0.04 0.03 0.07 0.06 0.02
0.06 0.03 0.02 0.01 0.02 0.02 0.01 0.01 0.01 0.01 0.01 0.01 0.01 0.00 0.00 0.00 0.00 0.00 0.00 0.00 0.00 0.00 0.00 0.00 0.00 0.00 0.00 0.00 0.00 0.00 0.00 0.00 0.01 0.01 0.01 0.10 0.45 0.09 0.08 0.22 0.09 0.04 0.01 0.00 0.00
0.08 0.05 0.03 0.03 0.03 0.02 0.01 0.01 0.01 0.01 0.01 0.00 0.00 0.00 0.00 0.00 0.00 0.00 0.00 0.00 0.00 0.00 0.00 0.00 0.00 0.00 0.00 0.00 0.01 0.00 0.00 0.00 0.00 0.00 0.00 0.01 0.12 0.23 0.06 0.09 0.30 0.05 0.02 0.00 0.00
0.05 0.04 0.03 0.04 0.04 0.02 0.00 0.00 0.00 0.00 0.00 0.00 0.00 0.00 0.00 0.00 0.00 0.00 0.00 0.00 0.00 0.01 0.00 0.00 0.00 0.00 0.00 0.00 0.00 0.00 0.00 0.00 0.00 0.00 0.00 0.00 0.02 0.10 0.15 0.04 0.06 0.04 0.14 0.05 0.01
0.04 0.03 0.03 0.04 0.05 0.02 0.01 0.00 0.00 0.00 0.00 0.00 0.00 0.00 0.00 0.00 0.00 0.00 0.00 0.00 0.01 0.05 0.03 0.00 0.00 0.00 0.00 0.00 0.00 0.00 0.00 0.00 0.00 0.00 0.00 0.00 0.00 0.02 0.07 0.01 0.01 0.01 0.14 0.03 0.01
0.04 0.02 0.03 0.05 0.04 0.01 0.00 0.00 0.00 0.00 0.01 0.00 0.00 0.00 0.00 0.00 0.00 0.00 0.00 0.00 0.00 0.02 0.07 0.02 0.00 0.00 0.00 0.00 0.00 0.00 0.00 0.00 0.00 0.00 0.00 0.00 0.00 0.02 0.02 0.02 0.06 0.01 0.00 0.00 0.00
0.04 0.03 0.04 0.06 0.01 0.00 0.00 0.00 0.00 0.00 0.01 0.00 0.00 0.00 0.00 0.00 0.00 0.00 0.00 0.00 0.00 0.01 0.06 0.08 0.00 0.00 0.00 0.00 0.00 0.00 0.00 0.00 0.00 0.00 0.00 0.00 0.01 0.09 0.03 0.01 0.04 0.02 0.00 0.01 0.00
0.05 0.05 0.07 0.06 0.02 0.01 0.00 0.00 0.00 0.02 0.01 0.00 0.00 0.00 0.00 0.00 0.00 0.00 0.00 0.00 0.00 0.00 0.05 0.06 0.03 0.02 0.00 0.00 0.00 0.01 0.00 0.00 0.00 0.00 0.01 0.01 0.00 0.08 0.02 0.01 0.01 0.02 0.01 0.01 0.01
0.08 0.09 0.14 0.08 0.04 0.01 0.01 0.02 0.09 0.05 0.00 0.00 0.00 0.00 0.00 0.00 0.00 0.00 0.00 0.00 0.00 0.00 0.00 0.00 0.01 0.01 0.01 0.00 0.01 0.00 0.01 0.00 0.00 0.00 0.02 0.02 0.03 0.04 0.03 0.05 0.07 0.08 0.06 0.06 0.03
0.10 0.13 0.16 0.06 0.03 0.01 0.02 0.18 0.22 0.04 0.00 0.00 0.00 0.00 0.00 0.00 0.00 0.00 0.00 0.00 0.00 0.00 0.00 0.00 0.00 0.00 0.00 0.00 0.01 0.02 0.07 0.06 0.06 0.03 0.01 0.01 0.03 0.02 0.11 0.23 0.24 0.23 0.12 0.09 0.05
0.15 0.21 0.15 0.07 0.03 0.06 0.15 0.34 0.12 0.00 0.00 0.00 0.00 0.00 0.00 0.00 0.00 0.00 0.00 0.00 0.00 0.00 0.00 0.01 0.02 0.00 0.00 0.00 0.01 0.01 0.05 0.09 0.14 0.09 0.06 0.09 0.06 0.25 0.54 0.21 0.12 0.11 0.11 0.17 0.11
0.33 0.29 0.22 0.08 0.03 0.10 0.39 0.44 0.04 0.01 0.00 0.00 0.00 0.00 0.00 0.00 0.00 0.00 0.00 0.00 0.00 0.00 0.01 0.02 0.00 0.00 0.00 0.00 0.02 0.09 0.10 0.07 0.18 0.11 0.09 0.06 0.02 0.25 0.41 0.19 0.17 0.19 0.12 0.06 0.07
0.49 0.47 0.17 0.06 0.12 0.41 0.66 0.26 0.00 0.00 0.00 0.00 0.00 0.00 0.00 0.00 0.00 0.00 0.01 0.02 0.03 0.01 0.00 0.04 0.08 0.01 0.00 0.01 0.01 0.08 0.21 0.49 0.55 0.35 0.16 0.01 0.11 0.26 0.23 0.11 0.07 0.10 0.07 0.00 0.00
1.01 0.92 0.18 0.10 0.58 0.93 0.62 0.10 0.00 0.00 0.00 0.00 0.00 0.00 0.00 0.00 0.00 0.00 0.04 0.13 0.08 0.06 0.02 0.02 0.06 0.06 0.04 0.03 0.04 0.10 0.28 0.49 0.45 0.17 0.21 0.17 0.47 0.54 0.18 0.05 0.05 0.04 0.03 0.00 0.00
1.70 1.16 0.28 0.34 0.88 0.62 0.22 0.02 0.00 0.00 0.00 0.00 0.00 0.00 0.00 0.00 0.00 0.00 0.00 0.03 0.02 0.04 0.10 0.14 0.12 0.05 0.01 0.00 0.00 0.07 0.15 0.33 0.62 0.38 0.23 0.23 0.47 0.43 0.10 0.01 0.00 0.00 0.01 0.02 0.03
2.11 1.05 0.83 0.78 1.00 0.32 0.11 0.05 0.01 0.00 0.00 0.01 0.00 0.01 0.01 0.00 0.03 0.01 0.01 0.01 0.01 0.04 0.10 0.08 0.19 0.17 0.09 0.11 0.08 0.09 0.17 0.29 0.46 0.56 0.45 0.47 0.42 0.62 0.30 0.08 0.02 0.00 0.01 0.03 0.06
2.62 1.80 1.86 1.22 0.31 0.36 0.47 0.24 0.06 0.05 0.09 0.09 0.03 0.05 0.05 0.07 0.05 0.04 0.02 0.03 0.05 0.06 0.12 0.14 0.08 0.11 0.13 0.22 0.29 0.20 0.14 0.21 0.69 0.98 0.60 0.40 0.27 0.83 1.04 0.56 0.24 0.06 0.04 0.08 0.10
3.77 1.48 0.80 0.88 0.41 0.21 0.29 0.31 0.18 0.21 0.16 0.08 0.21 0.26 0.20 0.15 0.13 0.10 0.11 0.09 0.10 0.09 0.20 0.32 0.20 0.08 0.04 0.02 0.10 0.19 0.18 0.16 0.26 0.34 0.51 0.20 0.30 0.52 0.91 1.02 0.64 0.16 0.05 0.09 0.13
3.63 0.92 0.29 0.16 0.19 0.28 0.35 0.19 0.10 0.13 0.14 0.20 0.27 0.10 0.07 0.13 0.14 0.21 0.24 0.26 0.30 0.31 0.37 0.54 0.38 0.14 0.07 0.03 0.03 0.03 0.04 0.20 0.22 0.17 0.20 0.12 0.35 0.62 0.67 0.72 0.52 0.42 0.20 0.16 0.17
2.91 0.71 0.59 0.36 0.17 0.28 0.21 0.14 0.13 0.07 0.11 0.14 0.21 0.13 0.07 0.17 0.18 0.22 0.17 0.20 0.25 0.35 0.48 0.52 0.67 0.47 0.21 0.06 0.06 0.03 0.01 0.04 0.12 0.22 0.33 0.42 0.36 0.30 0.31 0.43 0.32 0.35 0.29 0.27 0.33

GFSSW_prec_precacc_096.txt.gz
Total_Precipitation_Accumulation
0.02 0.02 0.03 0.03 0.02 0.01 0.01 0.01 0.01 0.01 0.01 0.01 0.01 0.01 0.01 0.01 0.01 0.00 0.00 0.00 0.00 0.00 0.00 0.00 0.00 0.00 0.00 0.00 0.00 0.00 0.00 0.00 0.00 0.03 0.10 0.24 0.18 0.09 0.11 0.18 0.29 0.39 0.68 0.95 0.89
0.03 0.03 0.03 0.03 0.02 0.01 0.01 0.01 0.01 0.01 0.01 0.01 0.01 0.01 0.01 0.01 0.00 0.00 0.00 0.00 0.00 0.00 0.00 0.00 0.00 0.00 0.00 0.00 0.00 0.00 0.00 0.00 0.01 0.02 0.10 0.16 0.21 0.09 0.13 0.42 0.67 0.42 0.82 1.15 1.09
0.02 0.03 0.03 0.03 0.02 0.01 0.01 0.01 0.01 0.01 0.01 0.01 0.01 0.01 0.01 0.00 0.00 0.00 0.00 0.00 0.00 0.00 0.00 0.00 0.00 0.00 0.00 0.00 0.00 0.00 0.00 0.00 0.02 0.10 0.02 0.05 0.08 0.06 0.12 0.57 0.92 0.94 0.74 0.83 0.72
0.02 0.02 0.02 0.03 0.02 0.02 0.01 0.01 0.01 0.01 0.01 0.01 0.01 0.01 0.01 0.00 0.00 0.00 0.00 0.00 0.00 0.00 0.00 0.00 0.00 0.00 0.00 0.00 0.00 0.00 0.00 0.00 0.01 0.05 0.01 0.04 0.06 0.04 0.21 0.45 0.36 0.38 0.38 0.31 0.40
0.03 0.02 0.01 0.02 0.02 0.02 0.01 0.01 0.01 0.01 0.01 0.01 0.01 0.02 0.00 0.00 0.00 0.00 0.00 0.00 0.00 0.00 0.00 0.00 0.00 0.00 0.00 0.00 0.00 0.00 0.00 0.00 0.00 0.00 0.03 0.01 0.02 0.04 0.04 0.10 0.04 0.11 0.19 0.28 0.41
0.04 0.04 0.03 0.03 0.03 0.02 0.01 0.01 0.01 0.01 0.01 0.01 0.01 0.02 0.00 0.00 0.00 0.00 0.00 0.00 0.00 0.00 0.00 0.00 0.00 0.00 0.00 0.00 0.00 0.00 0.00 0.00 0.00 0.00 0.01 0.02 0.02 0.06 0.21 0.06 0.02 0.06 0.22 0.38 0.35
0.10 0.09 0.07 0.06 0.04 0.03 0.02 0.01 0.01 0.01 0.01 0.01 0.01 0.02 0.00 0.00 0.00 0.00 0.00 0.00 0.00 0.00 0.00 0.00 0.00 0.00 0.00 0.00 0.00 0.00 0.00 0.00 0.00 0.00 0.02 0.07 0.12 0.13 0.13 0.01 0.01 0.03 0.10 0.11 0.17
0.14 0.13 0.11 0.09 0.07 0.06 0.05 0.03 0.02 0.01 0.01 0.01 0.02 0.02 0.00 0.00 0.00 0.00 0.00 0.00 0.00 0.00 0.00 0.00 0.00 0.00 0.00 0.00 0.00 0.00 0.00 0.01 0.01 0.00 0.01 0.12 0.46 0.07 0.08 0.08 0.04 0.03 0.07 0.06 0.02
0.18 0.16 0.12 0.09 0.09 0.10 0.10 0.08 0.04 0.02 0.01 0.01 0.02 0.01 0.00 0.00 0.00 0.00 0.00 0.00 0.00 0.00 0.00 0.00 0.00 0.00 0.00 0.00 0.00 0.00 0.00 0.00 0.01 0.01 0.01 0.10 0.45 0.09 0.08 0.22 0.09 0.04 0.01 0.00 0.00
0.19 0.16 0.11 0.10 0.11 0.10 0.07 0.05 0.03 0.02 0.01 0.01 0.01 0.00 0.00 0.00 0.00 0.00 0.00 0.00 0.00 0.00 0.00 0.00 0.00 0.00 0.00 0.00 0.01 0.00 0.00 0.00 0.00 0.00 0.00 0.01 0.12 0.23 0.06 0.09 0.30 0.05 0.02 0.00 0.00
0.14 0.11 0.08 0.09 0.11 0.10 0.07 0.06 0.06 0.06 0.03 0.01 0.00 0.00 0.00 0.00 0.00 0.00 0.00 0.00 0.00 0.01 0.00 0.00 0.00 0.00 0.00 0.00 0.00 0.00 0.00 0.00 0.00 0.00 0.00 0.00 0.02 0.10 0.15 0.04 0.06 0.04 0.14 0.05 0.01
0.12 0.07 0.05 0.07 0.08 0.05 0.03 0.03 0.03 0.08 0.07 0.01 0.00 0.00 0.00 0.00 0.00 0.00 0.00 0.00 0.01 0.05 0.03 0.00 0.00 0.00 0.00 0.00 0.00 0.00 0.00 0.00 0.00 0.00 0.00 0.00 0.00 0.02 0.07 0.01 0.01 0.01 0.14 0.03 0.01
0.10 0.08 0.08 0.09 0.07 0.02 0.00 0.00 0.00 0.00 0.02 0.00 0.00 0.00 0.00 0.00 0.00 0.00 0.00 0.00 0.00 0.02 0.07 0.02 0.00 0.00 0.00 0.00 0.00 0.00 0.00 0.00 0.00 0.00 0.00 0.00 0.00 0.02 0.02 0.02 0.06 0.01 0.00 0.00 0.00
0.26 0.18 0.12 0.09 0.02 0.00 0.00 0.00 0.00 0.00 0.02 0.00 0.00 0.00 0.00 0.00 0.00 0.00 0.00 0.00 0.00 0.01 0.06 0.08 0.00 0.00 0.00 0.00 0.00 0.00 0.00 0.00 0.00 0.00 0.00 0.00 0.01 0.09 0.03 0.01 0.04 0.02 0.00 0.01 0.00
0.27 0.19 0.16 0.13 0.07 0.06 0.03 0.00 0.00 0.02 0.03 0.00 0.00 0.00 0.00 0.00 0.00 0.00 0.00 0.00 0.00 0.00 0.05 0.06 0.03 0.02 0.00 0.00 0.00 0.01 0.00 0.00 0.00 0.00 0.01 0.01 0.00 0.08 0.02 0.01 0.01 0.02 0.01 0.02 0.02
0.25 0.22 0.23 0.15 0.09 0.04 0.02 0.03 0.09 0.06 0.01 0.00 0.00 0.00 0.00 0.00 0.00 0.00 0.00 0.00 0.00 0.00 0.00 0.00 0.01 0.01 0.01 0.00 0.01 0.00 0.01 0.00 0.00 0.00 0.02 0.02 0.03 0.04 0.03 0.05 0.07 0.08 0.06 0.06 0.04
0.39 0.31 0.28 0.15 0.08 0.02 0.02 0.19 0.23 0.05 0.00 0.00 0.00 0.00 0.00 0.00 0.00 0.00 0.00 0.00 0.00 0.00 0.00 0.00 0.00 0.00 0.00 0.00 0.01 0.02 0.07 0.06 0.06 0.03 0.01 0.01 0.03 0.02 0.11 0.23 0.24 0.24 0.14 0.11 0.06
0.25 0.26 0.17 0.08 0.04 0.07 0.16 0.36 0.14 0.00 0.00 0.00 0.00 0.00 0.00 0.00 0.00 0.00 0.00 0.00 0.00 0.00 0.00 0.01 0.02 0.00 0.00 0.00 0.01 0.01 0.05 0.09 0.14 0.09 0.06 0.09 0.06 0.25 0.54 0.21 0.12 0.13 0.16 0.20 0.16
0.33 0.29 0.22 0.08 0.03 0.10 0.41 0.47 0.05 0.01 0.00 0.00 0.02 0.01 0.00 0.00 0.00 0.00 0.00 0.00 0.00 0.00 0.01 0.02 0.00 0.00 0.00 0.00 0.02 0.09 0.10 0.07 0.19 0.11 0.09 0.06 0.02 0.25 0.41 0.19 0.17 0.21 0.18 0.14 0.13
0.49 0.48 0.17 0.06 0.12 0.41 0.70 0.28 0.01 0.00 0.00 0.01 0.07 0.04 0.00 0.00 0.00 0.00 0.01 0.02 0.03 0.01 0.00 0.04 0.08 0.02 0.00 0.01 0.01 0.08 0.21 0.49 0.56 0.37 0.16 0.01 0.11 0.26 0.23 0.11 0.07 0.11 0.19 0.09 0.03
1.01 0.92 0.18 0.10 0.58 0.95 0.65 0.10 0.00 0.00 0.00 0.02 0.03 0.03 0.01 0.01 0.01 0.00 0.04 0.13 0.08 0.06 0.02 0.02 0.06 0.06 0.04 0.03 0.04 0.10 0.29 0.50 0.47 0.18 0.24 0.17 0.47 0.54 0.18 0.05 0.05 0.05 0.08 0.07 0.01
1.70 1.16 0.28 0.34 0.89 0.63 0.23 0.03 0.00 0.01 0.00 0.00 0.01 0.02 0.01 0.01 0.00 0.00 0.00 0.03 0.02 0.04 0.10 0.14 0.12 0.05 0.01 0.00 0.00 0.07 0.15 0.33 0.67 0.45 0.29 0.28 0.49 0.44 0.10 0.01 0.00 0.01 0.02 0.04 0.03
2.11 1.05 0.83 0.78 1.00 0.32 0.12 0.05 0.02 0.01 0.01 0.02 0.02 0.01 0.01 0.01 0.03 0.01 0.01 0.01 0.01 0.04 0.10 0.08 0.19 0.17 0.09 0.11 0.08 0.09 0.17 0.29 0.47 0.59 0.49 0.53 0.44 0.64 0.31 0.08 0.02 0.01 0.04 0.04 0.06
2.62 1.80 1.86 1.22 0.31 0.37 0.47 0.25 0.06 0.05 0.09 0.09 0.04 0.05 0.06 0.08 0.05 0.04 0.02 0.03 0.05 0.06 0.12 0.14 0.08 0.11 0.13 0.22 0.29 0.20 0.14 0.21 0.69 1.00 0.61 0.42 0.28 0.86 1.08 0.60 0.29 0.12 0.08 0.09 0.10
3.77 1.48 0.80 0.88 0.41 0.21 0.29 0.31 0.19 0.22 0.16 0.08 0.21 0.26 0.20 0.15 0.13 0.10 0.11 0.09 0.10 0.09 0.20 0.32 0.20 0.08 0.04 0.02 0.10 0.19 0.18 0.16 0.26 0.34 0.53 0.21 0.31 0.61 1.12 1.16 0.74 0.24 0.10 0.11 0.13
3.63 0.92 0.29 0.16 0.19 0.28 0.35 0.19 0.10 0.13 0.14 0.20 0.27 0.10 0.07 0.13 0.14 0.21 0.24 0.26 0.30 0.31 0.37 0.54 0.38 0.14 0.07 0.03 0.03 0.03 0.04 0.20 0.22 0.17 0.20 0.12 0.36 0.65 0.80 0.90 0.67 0.53 0.27 0.19 0.17
2.91 0.71 0.59 0.36 0.17 0.28 0.21 0.14 0.13 0.07 0.11 0.14 0.21 0.13 0.07 0.17 0.18 0.22 0.17 0.20 0.25 0.35 0.48 0.52 0.67 0.47 0.21 0.06 0.06 0.04 0.05 0.08 0.15 0.23 0.34 0.43 0.36 0.33 0.42 0.56 0.42 0.42 0.34 0.29 0.34

GFSSW_prec_precacc_099.txt.gz
Total_Precipitation_Accumulation
0.02 0.02 0.03 0.03 0.02 0.01 0.01 0.01 0.01 0.01 0.01 0.01 0.01 0.01 0.01 0.01 0.01 0.00 0.00 0.00 0.00 0.00 0.00 0.00 0.00 0.00 0.00 0.00 0.00 0.00 0.00 0.00 0.00 0.03 0.10 0.24 0.18 0.09 0.11 0.18 0.29 0.39 0.68 0.95 0.89
0.03 0.03 0.03 0.03 0.02 0.01 0.01 0.01 0.01 0.01 0.01 0.01 0.01 0.01 0.01 0.01 0.00 0.00 0.00 0.00 0.00 0.00 0.00 0.00 0.00 0.00 0.00 0.00 0.00 0.00 0.00 0.00 0.01 0.02 0.10 0.16 0.21 0.09 0.13 0.42 0.67 0.42 0.82 1.15 1.09
0.02 0.03 0.03 0.03 0.02 0.01 0.01 0.01 0.01 0.01 0.01 0.01 0.01 0.01 0.01 0.00 0.00 0.00 0.00 0.00 0.00 0.00 0.00 0.00 0.00 0.00 0.00 0.00 0.00 0.00 0.00 0.00 0.02 0.10 0.02 0.05 0.08 0.06 0.12 0.57 0.92 0.94 0.74 0.83 0.72
0.02 0.02 0.02 0.03 0.02 0.02 0.01 0.01 0.01 0.01 0.01 0.01 0.01 0.01 0.01 0.00 0.00 0.00 0.00 0.00 0.00 0.00 0.00 0.00 0.00 0.00 0.00 0.00 0.00 0.00 0.00 0.00 0.01 0.05 0.01 0.04 0.06 0.04 0.21 0.45 0.36 0.38 0.38 0.31 0.40
0.03 0.02 0.02 0.03 0.03 0.03 0.01 0.01 0.01 0.01 0.01 0.01 0.01 0.02 0.00 0.00 0.00 0.00 0.00 0.00 0.00 0.00 0.00 0.00 0.00 0.00 0.00 0.00 0.00 0.00 0.00 0.00 0.00 0.00 0.03 0.01 0.02 0.04 0.04 0.10 0.04 0.11 0.19 0.28 0.41
0.05 0.04 0.03 0.03 0.04 0.04 0.02 0.01 0.01 0.01 0.01 0.01 0.01 0.02 0.00 0.00 0.00 0.00 0.00 0.00 0.00 0.00 0.00 0.00 0.00 0.00 0.00 0.00 0.00 0.00 0.00 0.00 0.00 0.00 0.01 0.02 0.02 0.06 0.21 0.06 0.02 0.06 0.22 0.38 0.35
0.10 0.09 0.07 0.08 0.07 0.06 0.04 0.02 0.02 0.02 0.01 0.01 0.01 0.02 0.00 0.00 0.00 0.00 0.00 0.00 0.00 0.00 0.00 0.00 0.00 0.00 0.00 0.00 0.00 0.00 0.00 0.00 0.00 0.00 0.02 0.07 0.12 0.13 0.13 0.01 0.01 0.03 0.10 0.11 0.17
0.15 0.14 0.12 0.11 0.10 0.09 0.07 0.06 0.04 0.03 0.02 0.01 0.02 0.02 0.00 0.00 0.00 0.00 0.00 0.00 0.00 0.00 0.00 0.00 0.00 0.00 0.00 0.00 0.00 0.00 0.00 0.01 0.01 0.00 0.01 0.12 0.46 0.07 0.08 0.08 0.04 0.03 0.07 0.06 0.02
0.19 0.16 0.13 0.11 0.11 0.11 0.11 0.09 0.07 0.04 0.02 0.01 0.02 0.01 0.00 0.00 0.00 0.00 0.00 0.00 0.00 0.00 0.00 0.00 0.00 0.00 0.00 0.00 0.00 0.00 0.00 0.00 0.01 0.01 0.01 0.10 0.45 0.09 0.08 0.22 0.09 0.04 0.01 0.00 0.00
0.21 0.18 0.14 0.14 0.14 0.12 0.08 0.06 0.05 0.03 0.02 0.02 0.04 0.01 0.00 0.00 0.00 0.00 0.00 0.00 0.00 0.00 0.00 0.00 0.00 0.00 0.00 0.00 0.01 0.00 0.00 0.00 0.00 0.00 0.00 0.01 0.12 0.23 0.06 0.09 0.30 0.05 0.02 0.00 0.00
0.16 0.14 0.12 0.13 0.13 0.12 0.08 0.07 0.08 0.08 0.04 0.01 0.01 0.00 0.00 0.00 0.00 0.00 0.00 0.00 0.00 0.01 0.00 0.00 0.00 0.00 0.00 0.00 0.00 0.00 0.00 0.00 0.00 0.00 0.00 0.00 0.02 0.10 0.15 0.04 0.06 0.04 0.14 0.05 0.01
0.14 0.11 0.09 0.10 0.10 0.07 0.03 0.03 0.03 0.08 0.07 0.02 0.02 0.02 0.00 0.00 0.01 0.00 0.00 0.00 0.01 0.05 0.03 0.00 0.00 0.00 0.00 0.00 0.00 0.00 0.00 0.00 0.00 0.00 0.00 0.00 0.00 0.02 0.07 0.01 0.01 0.01 0.14 0.03 0.01
0.14 0.13 0.15 0.17 0.15 0.07 0.01 0.01 0.01 0.00 0.02 0.00 0.00 0.00 0.00 0.02 0.04 0.00 0.00 0.00 0.00 0.02 0.07 0.02 0.00 0.00 0.00 0.00 0.00 0.00 0.00 0.00 0.00 0.00 0.00 0.00 0.00 0.02 0.02 0.02 0.06 0.01 0.00 0.00 0.00
0.31 0.27 0.20 0.15 0.07 0.01 0.01 0.03 0.03 0.01 0.04 0.00 0.00 0.00 0.00 0.00 0.01 0.00 0.00 0.00 0.00 0.01 0.06 0.08 0.00 0.00 0.00 0.00 0.00 0.00 0.00 0.00 0.00 0.00 0.00 0.00 0.01 0.09 0.03 0.01 0.04 0.02 0.00 0.01 0.00
0.41 0.33 0.31 0.20 0.10 0.07 0.05 0.02 0.01 0.02 0.08 0.00 0.00 0.00 0.00 0.00 0.00 0.00 0.00 0.00 0.01 0.00 0.05 0.06 0.03 0.02 0.00 0.00 0.00 0.01 0.00 0.00 0.00 0.00 0.01 0.01 0.00 0.08 0.02 0.01 0.01 0.02 0.01 0.02 0.02
0.43 0.33 0.28 0.20 0.14 0.12 0.13 0.15 0.23 0.24 0.13 0.00 0.00 0.00 0.00 0.00 0.00 0.00 0.00 0.00 0.00 0.00 0.00 0.00 0.01 0.01 0.01 0.00 0.01 0.00 0.01 0.00 0.00 0.00 0.02 0.02 0.03 0.04 0.03 0.05 0.07 0.08 0.06 0.06 0.04
0.56 0.52 0.46 0.28 0.22 0.12 0.08 0.25 0.31 0.13 0.02 0.00 0.00 0.00 0.00 0.00 0.00 0.00 0.00 0.00 0.00 0.00 0.00 0.00 0.00 0.00 0.00 0.00 0.01 0.02 0.07 0.06 0.06 0.03 0.01 0.01 0.03 0.02 0.11 0.23 0.24 0.24 0.14 0.11 0.06
0.44 0.45 0.33 0.24 0.17 0.13 0.22 0.46 0.21 0.01 0.00 0.00 0.00 0.00 0.00 0.00 0.00 0.00 0.00 0.00 0.00 0.00 0.00 0.01 0.02 0.00 0.00 0.00 0.01 0.01 0.05 0.09 0.14 0.09 0.06 0.09 0.06 0.25 0.54 0.21 0.12 0.13 0.16 0.20 0.16
0.33 0.30 0.23 0.11 0.09 0.14 0.47 0.55 0.07 0.01 0.01 0.00 0.03 0.03 0.00 0.00 0.00 0.00 0.00 0.00 0.00 0.00 0.01 0.02 0.00 0.00 0.00 0.00 0.02 0.09 0.10 0.07 0.19 0.11 0.09 0.06 0.02 0.25 0.41 0.19 0.17 0.21 0.18 0.14 0.13
0.49 0.48 0.17 0.06 0.15 0.44 0.75 0.30 0.01 0.00 0.00 0.01 0.12 0.18 0.01 0.00 0.01 0.00 0.01 0.02 0.03 0.01 0.00 0.04 0.09 0.02 0.00 0.01 0.01 0.08 0.21 0.49 0.56 0.37 0.16 0.01 0.11 0.26 0.23 0.11 0.07 0.11 0.19 0.09 0.03
1.01 0.92 0.18 0.10 0.62 1.01 0.70 0.11 0.00 0.00 0.00 0.02 0.04 0.08 0.02 0.01 0.01 0.01 0.04 0.14 0.08 0.06 0.03 0.03 0.07 0.06 0.04 0.03 0.04 0.10 0.29 0.50 0.47 0.18 0.24 0.18 0.47 0.54 0.18 0.05 0.05 0.05 0.08 0.07 0.01
1.70 1.17 0.28 0.35 0.92 0.67 0.24 0.03 0.00 0.01 0.00 0.00 0.02 0.04 0.02 0.01 0.00 0.01 0.01 0.04 0.03 0.04 0.11 0.15 0.12 0.05 0.01 0.00 0.00 0.07 0.15 0.33 0.67 0.45 0.29 0.28 0.49 0.44 0.10 0.01 0.00 0.01 0.02 0.04 0.03
2.11 1.06 0.84 0.78 1.02 0.32 0.12 0.05 0.02 0.01 0.01 0.02 0.02 0.02 0.02 0.01 0.03 0.01 0.01 0.01 0.01 0.04 0.10 0.08 0.19 0.17 0.09 0.11 0.08 0.09 0.17 0.29 0.47 0.59 0.49 0.53 0.44 0.64 0.31 0.08 0.02 0.01 0.04 0.04 0.06
2.62 1.82 1.89 1.22 0.32 0.37 0.47 0.25 0.06 0.05 0.09 0.09 0.04 0.05 0.06 0.08 0.05 0.04 0.02 0.03 0.05 0.06 0.12 0.14 0.08 0.11 0.13 0.22 0.29 0.20 0.14 0.21 0.69 1.00 0.61 0.42 0.28 0.86 1.08 0.60 0.29 0.12 0.08 0.10 0.10
3.77 1.48 0.80 0.88 0.41 0.21 0.29 0.31 0.19 0.22 0.16 0.08 0.21 0.26 0.20 0.15 0.13 0.10 0.11 0.09 0.10 0.09 0.20 0.32 0.20 0.08 0.04 0.02 0.10 0.19 0.18 0.16 0.26 0.34 0.53 0.21 0.31 0.61 1.12 1.16 0.74 0.24 0.10 0.12 0.13
3.63 0.92 0.29 0.16 0.19 0.28 0.35 0.19 0.10 0.13 0.14 0.20 0.27 0.10 0.07 0.13 0.14 0.21 0.24 0.26 0.30 0.31 0.37 0.54 0.38 0.14 0.07 0.03 0.03 0.03 0.04 0.20 0.22 0.17 0.20 0.12 0.36 0.65 0.80 0.90 0.67 0.53 0.29 0.21 0.19
2.91 0.71 0.59 0.36 0.17 0.28 0.21 0.14 0.13 0.07 0.11 0.14 0.21 0.13 0.07 0.17 0.18 0.22 0.17 0.20 0.25 0.35 0.48 0.52 0.67 0.47 0.21 0.06 0.06 0.04 0.05 0.08 0.15 0.23 0.35 0.44 0.36 0.33 0.42 0.56 0.42 0.43 0.36 0.32 0.35

GFSSW_prec_precacc_102.txt.gz
Total_Precipitation_Accumulation
0.02 0.02 0.03 0.03 0.02 0.01 0.01 0.01 0.01 0.01 0.01 0.01 0.01 0.01 0.01 0.01 0.01 0.00 0.00 0.00 0.00 0.00 0.00 0.00 0.00 0.00 0.00 0.00 0.00 0.00 0.00 0.00 0.00 0.03 0.10 0.24 0.18 0.09 0.11 0.18 0.29 0.39 0.68 0.95 0.89
0.03 0.03 0.03 0.03 0.02 0.01 0.01 0.01 0.01 0.01 0.01 0.01 0.01 0.01 0.01 0.01 0.00 0.00 0.00 0.00 0.00 0.00 0.00 0.00 0.00 0.00 0.00 0.00 0.00 0.00 0.00 0.00 0.01 0.02 0.10 0.16 0.21 0.09 0.13 0.42 0.67 0.42 0.82 1.15 1.09
0.02 0.03 0.03 0.03 0.03 0.01 0.01 0.01 0.01 0.01 0.01 0.01 0.01 0.01 0.01 0.00 0.00 0.00 0.00 0.00 0.00 0.00 0.00 0.00 0.00 0.00 0.00 0.00 0.00 0.00 0.00 0.00 0.02 0.10 0.02 0.05 0.08 0.06 0.12 0.57 0.92 0.94 0.74 0.83 0.72
0.02 0.02 0.02 0.03 0.02 0.02 0.01 0.01 0.01 0.01 0.01 0.01 0.01 0.01 0.01 0.00 0.00 0.00 0.00 0.00 0.00 0.00 0.00 0.00 0.00 0.00 0.00 0.00 0.00 0.00 0.00 0.00 0.01 0.05 0.01 0.04 0.06 0.04 0.21 0.45 0.36 0.38 0.38 0.31 0.40
0.03 0.02 0.02 0.03 0.03 0.03 0.02 0.02 0.01 0.01 0.01 0.01 0.01 0.02 0.00 0.00 0.00 0.00 0.00 0.00 0.00 0.00 0.00 0.00 0.00 0.00 0.00 0.00 0.00 0.00 0.00 0.00 0.00 0.00 0.03 0.01 0.02 0.04 0.04 0.10 0.04 0.11 0.19 0.28 0.41
0.05 0.04 0.03 0.04 0.05 0.05 0.03 0.02 0.02 0.02 0.01 0.01 0.01 0.02 0.00 0.00 0.00 0.00 0.00 0.00 0.00 0.00 0.00 0.00 0.00 0.00 0.00 0.00 0.00 0.00 0.00 0.00 0.00 0.00 0.01 0.02 0.02 0.06 0.21 0.06 0.02 0.06 0.22 0.38 0.35
0.11 0.10 0.08 0.08 0.08 0.07 0.05 0.03 0.03 0.02 0.02 0.01 0.01 0.02 0.00 0.00 0.00 0.00 0.00 0.00 0.00 0.00 0.00 0.00 0.00 0.00 0.00 0.00 0.00 0.00 0.00 0.00 0.00 0.00 0.02 0.07 0.12 0.13 0.13 0.01 0.01 0.03 0.10 0.11 0.17
0.16 0.14 0.13 0.12 0.11 0.10 0.09 0.07 0.05 0.04 0.02 0.01 0.02 0.02 0.00 0.00 0.00 0.00 0.00 0.00 0.00 0.00 0.00 0.00 0.00 0.00 0.00 0.00 0.00 0.00 0.00 0.01 0.01 0.00 0.01 0.12 0.46 0.07 0.08 0.08 0.04 0.03 0.07 0.06 0.02
0.20 0.17 0.14 0.12 0.12 0.13 0.11 0.10 0.07 0.04 0.02 0.01 0.02 0.01 0.00 0.00 0.00 0.00 0.00 0.00 0.00 0.00 0.00 0.00 0.00 0.00 0.00 0.00 0.00 0.00 0.00 0.00 0.01 0.01 0.01 0.10 0.45 0.09 0.08 0.22 0.09 0.04 0.01 0.00 0.00
0.21 0.19 0.16 0.15 0.16 0.16 0.11 0.08 0.05 0.03 0.02 0.02 0.04 0.01 0.00 0.00 0.00 0.00 0.00 0.00 0.00 0.00 0.00 0.00 0.00 0.00 0.00 0.00 0.01 0.00 0.00 0.00 0.00 0.00 0.00 0.01 0.12 0.23 0.06 0.09 0.30 0.05 0.02 0.00 0.00
0.16 0.14 0.13 0.15 0.17 0.14 0.10 0.10 0.09 0.08 0.04 0.01 0.01 0.00 0.00 0.00 0.00 0.00 0.00 0.00 0.00 0.01 0.00 0.00 0.00 0.00 0.00 0.00 0.00 0.00 0.00 0.00 0.00 0.00 0.00 0.00 0.02 0.10 0.15 0.04 0.06 0.04 0.14 0.05 0.01
0.15 0.12 0.10 0.14 0.14 0.08 0.05 0.06 0.04 0.08 0.07 0.02 0.02 0.02 0.00 0.00 0.01 0.00 0.00 0.00 0.01 0.05 0.03 0.01 0.00 0.00 0.00 0.00 0.00 0.00 0.00 0.00 0.00 0.00 0.00 0.00 0.00 0.02 0.07 0.01 0.01 0.01 0.14 0.03 0.01
0.15 0.14 0.18 0.24 0.21 0.10 0.02 0.03 0.01 0.00 0.03 0.00 0.00 0.00 0.00 0.02 0.04 0.00 0.00 0.00 0.01 0.04 0.09 0.04 0.00 0.00 0.00 0.00 0.00 0.00 0.00 0.00 0.00 0.00 0.00 0.00 0.00 0.02 0.02 0.02 0.06 0.01 0.00 0.00 0.00
0.33 0.30 0.27 0.22 0.10 0.02 0.04 0.05 0.03 0.01 0.12 0.02 0.00 0.00 0.00 0.00 0.01 0.00 0.00 0.00 0.01 0.03 0.08 0.14 0.02 0.01 0.00 0.00 0.00 0.00 0.00 0.00 0.00 0.00 0.00 0.00 0.01 0.09 0.03 0.01 0.04 0.02 0.00 0.01 0.00
0.46 0.41 0.39 0.24 0.11 0.08 0.06 0.02 0.01 0.03 0.18 0.00 0.00 0.00 0.00 0.00 0.00 0.00 0.00 0.00 0.02 0.02 0.10 0.09 0.04 0.05 0.03 0.00 0.00 0.01 0.00 0.00 0.00 0.00 0.01 0.01 0.00 0.08 0.02 0.01 0.01 0.02 0.01 0.02 0.02
0.51 0.42 0.34 0.21 0.14 0.16 0.16 0.19 0.29 0.41 0.29 0.01 0.00 0.00 0.00 0.00 0.00 0.00 0.00 0.00 0.01 0.11 0.07 0.02 0.02 0.03 0.03 0.01 0.01 0.00 0.01 0.00 0.00 0.00 0.02 0.02 0.03 0.04 0.03 0.05 0.07 0.08 0.06 0.06 0.04
0.62 0.57 0.50 0.32 0.25 0.17 0.15 0.35 0.52 0.29 0.04 0.01 0.00 0.00 0.00 0.00 0.00 0.00 0.00 0.00 0.01 0.05 0.02 0.01 0.00 0.00 0.00 0.00 0.01 0.02 0.07 0.06 0.06 0.03 0.01 0.01 0.03 0.02 0.11 0.23 0.24 0.24 0.14 0.11 0.06
0.50 0.52 0.43 0.35 0.33 0.29 0.37 0.60 0.38 0.05 0.01 0.00 0.00 0.00 0.00 0.00 0.00 0.00 0.00 0.00 0.00 0.00 0.00 0.01 0.02 0.00 0.00 0.00 0.01 0.01 0.05 0.09 0.14 0.09 0.06 0.09 0.06 0.25 0.54 0.21 0.12 0.13 0.16 0.20 0.16
0.34 0.31 0.26 0.14 0.13 0.20 0.55 0.65 0.11 0.02 0.01 0.01 0.03 0.03 0.00 0.00 0.00 0.00 0.00 0.00 0.00 0.00 0.01 0.03 0.00 0.00 0.00 0.00 0.02 0.09 0.10 0.07 0.19 0.11 0.09 0.06 0.02 0.25 0.41 0.19 0.17 0.21 0.18 0.14 0.13
0.49 0.48 0.17 0.06 0.15 0.46 0.78 0.31 0.01 0.00 0.00 0.01 0.12 0.20 0.01 0.00 0.01 0.00 0.01 0.02 0.03 0.01 0.00 0.04 0.09 0.02 0.00 0.01 0.01 0.08 0.21 0.50 0.57 0.37 0.16 0.01 0.11 0.26 0.23 0.11 0.07 0.11 0.19 0.09 0.03
1.01 0.92 0.18 0.12 0.66 1.07 0.72 0.11 0.00 0.00 0.00 0.02 0.04 0.08 0.03 0.01 0.01 0.02 0.04 0.14 0.09 0.07 0.03 0.03 0.07 0.06 0.04 0.03 0.04 0.10 0.29 0.50 0.48 0.19 0.25 0.18 0.48 0.54 0.18 0.05 0.05 0.05 0.08 0.07 0.01
1.70 1.17 0.29 0.39 0.99 0.73 0.25 0.03 0.00 0.01 0.00 0.01 0.02 0.04 0.03 0.02 0.00 0.02 0.01 0.05 0.03 0.05 0.12 0.15 0.12 0.06 0.01 0.00 0.00 0.07 0.15 0.33 0.67 0.45 0.29 0.28 0.49 0.44 0.10 0.01 0.00 0.01 0.02 0.04 0.03
2.12 1.07 0.86 0.83 1.07 0.34 0.12 0.05 0.02 0.01 0.01 0.03 0.03 0.03 0.02 0.02 0.03 0.01 0.02 0.03 0.02 0.05 0.11 0.08 0.19 0.17 0.09 0.11 0.08 0.09 0.17 0.29 0.47 0.59 0.49 0.53 0.44 0.64 0.31 0.08 0.02 0.01 0.04 0.04 0.06
2.62 1.84 1.94 1.27 0.34 0.37 0.48 0.25 0.06 0.05 0.09 0.09 0.04 0.06 0.07 0.08 0.05 0.04 0.02 0.03 0.05 0.06 0.12 0.14 0.08 0.11 0.13 0.22 0.29 0.20 0.14 0.21 0.69 1.00 0.61 0.42 0.28 0.86 1.08 0.60 0.29 0.12 0.08 0.10 0.10
3.77 1.48 0.81 0.89 0.42 0.22 0.29 0.31 0.19 0.22 0.16 0.08 0.21 0.26 0.22 0.15 0.13 0.10 0.11 0.09 0.10 0.09 0.20 0.32 0.20 0.08 0.04 0.02 0.10 0.19 0.18 0.16 0.26 0.34 0.53 0.21 0.31 0.61 1.12 1.16 0.74 0.24 0.10 0.12 0.13
3.63 0.92 0.29 0.16 0.19 0.28 0.35 0.19 0.10 0.13 0.14 0.20 0.27 0.10 0.08 0.14 0.14 0.21 0.24 0.26 0.30 0.31 0.37 0.54 0.38 0.14 0.07 0.03 0.03 0.03 0.04 0.20 0.22 0.17 0.20 0.12 0.36 0.65 0.80 0.90 0.68 0.54 0.29 0.21 0.19
2.91 0.71 0.59 0.36 0.17 0.28 0.22 0.14 0.13 0.07 0.11 0.14 0.21 0.13 0.07 0.17 0.18 0.22 0.17 0.20 0.25 0.35 0.48 0.52 0.67 0.47 0.21 0.06 0.06 0.04 0.05 0.08 0.15 0.23 0.35 0.44 0.37 0.33 0.43 0.57 0.43 0.43 0.36 0.33 0.37

GFSSW_prec_precacc_105.txt.gz
Total_Precipitation_Accumulation
0.02 0.02 0.03 0.03 0.02 0.01 0.01 0.01 0.01 0.01 0.01 0.01 0.01 0.01 0.01 0.01 0.01 0.00 0.00 0.00 0.00 0.00 0.00 0.00 0.00 0.00 0.00 0.00 0.00 0.00 0.00 0.00 0.00 0.03 0.10 0.24 0.18 0.09 0.11 0.18 0.29 0.39 0.68 0.95 0.89
0.03 0.03 0.03 0.03 0.02 0.01 0.01 0.01 0.01 0.01 0.01 0.01 0.01 0.01 0.01 0.01 0.00 0.00 0.00 0.00 0.00 0.00 0.00 0.00 0.00 0.00 0.00 0.00 0.00 0.00 0.00 0.00 0.01 0.02 0.10 0.16 0.21 0.09 0.13 0.42 0.67 0.42 0.82 1.15 1.09
0.02 0.03 0.03 0.03 0.03 0.01 0.01 0.01 0.01 0.01 0.01 0.01 0.01 0.01 0.01 0.00 0.00 0.00 0.00 0.00 0.00 0.00 0.00 0.00 0.00 0.00 0.00 0.00 0.00 0.00 0.00 0.00 0.02 0.10 0.02 0.05 0.08 0.06 0.12 0.57 0.92 0.94 0.74 0.83 0.72
0.02 0.02 0.02 0.04 0.02 0.02 0.01 0.01 0.01 0.01 0.01 0.01 0.01 0.01 0.01 0.00 0.00 0.00 0.00 0.00 0.00 0.00 0.00 0.00 0.00 0.00 0.00 0.00 0.00 0.00 0.00 0.00 0.01 0.05 0.01 0.04 0.06 0.04 0.21 0.45 0.36 0.38 0.38 0.31 0.40
0.03 0.02 0.02 0.03 0.03 0.03 0.02 0.02 0.02 0.01 0.01 0.01 0.01 0.02 0.00 0.00 0.00 0.00 0.00 0.00 0.00 0.00 0.00 0.00 0.00 0.00 0.00 0.00 0.00 0.00 0.00 0.00 0.00 0.00 0.03 0.01 0.02 0.04 0.04 0.10 0.04 0.11 0.19 0.28 0.41
0.05 0.04 0.04 0.04 0.05 0.06 0.04 0.03 0.02 0.02 0.01 0.01 0.01 0.02 0.00 0.00 0.00 0.00 0.00 0.00 0.00 0.00 0.00 0.00 0.00 0.00 0.00 0.00 0.00 0.00 0.00 0.00 0.00 0.00 0.01 0.02 0.02 0.06 0.21 0.06 0.02 0.06 0.22 0.38 0.35
0.11 0.10 0.08 0.09 0.08 0.08 0.06 0.04 0.03 0.02 0.02 0.01 0.01 0.02 0.00 0.00 0.00 0.00 0.00 0.00 0.00 0.00 0.00 0.00 0.00 0.00 0.00 0.00 0.00 0.00 0.00 0.00 0.00 0.00 0.02 0.07 0.12 0.13 0.13 0.01 0.01 0.03 0.10 0.11 0.17
0.16 0.15 0.13 0.12 0.12 0.11 0.11 0.07 0.05 0.04 0.02 0.01 0.02 0.02 0.00 0.00 0.00 0.00 0.00 0.00 0.00 0.00 0.00 0.00 0.00 0.00 0.00 0.00 0.00 0.00 0.00 0.01 0.01 0.00 0.01 0.12 0.46 0.07 0.08 0.08 0.04 0.03 0.07 0.06 0.02
0.20 0.17 0.15 0.12 0.13 0.14 0.13 0.11 0.07 0.04 0.02 0.01 0.02 0.01 0.00 0.00 0.00 0.00 0.00 0.00 0.00 0.00 0.00 0.00 0.00 0.00 0.00 0.00 0.00 0.00 0.00 0.00 0.01 0.01 0.01 0.10 0.45 0.09 0.08 0.22 0.09 0.04 0.01 0.00 0.00
0.22 0.19 0.16 0.15 0.17 0.18 0.14 0.11 0.07 0.04 0.02 0.02 0.04 0.01 0.00 0.00 0.00 0.00 0.00 0.00 0.00 0.00 0.00 0.00 0.00 0.00 0.00 0.00 0.01 0.00 0.00 0.00 0.00 0.00 0.00 0.01 0.12 0.23 0.06 0.09 0.30 0.05 0.02 0.00 0.00
0.16 0.14 0.13 0.16 0.19 0.18 0.13 0.12 0.10 0.08 0.04 0.01 0.01 0.00 0.00 0.00 0.00 0.00 0.00 0.00 0.00 0.01 0.00 0.00 0.00 0.00 0.00 0.00 0.00 0.00 0.00 0.00 0.00 0.00 0.00 0.00 0.02 0.10 0.15 0.04 0.06 0.04 0.14 0.05 0.01
0.15 0.12 0.10 0.15 0.16 0.09 0.05 0.06 0.04 0.08 0.07 0.02 0.02 0.02 0.00 0.00 0.01 0.00 0.00 0.00 0.01 0.05 0.03 0.01 0.01 0.00 0.00 0.00 0.00 0.00 0.00 0.00 0.00 0.00 0.00 0.00 0.00 0.02 0.07 0.01 0.01 0.01 0.14 0.03 0.01
0.15 0.15 0.18 0.26 0.24 0.13 0.03 0.03 0.01 0.01 0.05 0.00 0.00 0.00 0.00 0.02 0.04 0.00 0.00 0.00 0.01 0.04 0.09 0.04 0.01 0.00 0.01 0.03 0.02 0.00 0.00 0.00 0.00 0.00 0.00 0.00 0.00 0.02 0.02 0.02 0.06 0.01 0.00 0.00 0.00
0.33 0.30 0.28 0.26 0.15 0.04 0.06 0.05 0.03 0.02 0.20 0.03 0.00 0.00 0.00 0.00 0.01 0.00 0.00 0.00 0.01 0.03 0.08 0.14 0.02 0.02 0.02 0.02 0.01 0.02 0.00 0.00 0.00 0.00 0.00 0.00 0.01 0.09 0.03 0.01 0.04 0.02 0.00 0.01 0.00
0.46 0.42 0.41 0.25 0.11 0.09 0.07 0.02 0.01 0.07 0.28 0.01 0.00 0.00 0.00 0.00 0.00 0.00 0.00 0.00 0.02 0.02 0.11 0.10 0.04 0.06 0.05 0.02 0.02 0.03 0.00 0.01 0.01 0.00 0.01 0.01 0.00 0.08 0.02 0.01 0.01 0.02 0.01 0.02 0.02
0.52 0.44 0.37 0.24 0.14 0.16 0.16 0.19 0.30 0.49 0.35 0.01 0.00 0.00 0.00 0.00 0.00 0.00 0.00 0.00 0.01 0.17 0.13 0.04 0.06 0.04 0.03 0.01 0.04 0.02 0.02 0.01 0.00 0.00 0.03 0.02 0.03 0.04 0.03 0.05 0.07 0.08 0.06 0.06 0.04
0.65 0.60 0.52 0.32 0.26 0.17 0.15 0.37 0.67 0.46 0.06 0.01 0.00 0.00 0.00 0.00 0.00 0.00 0.00 0.00 0.02 0.08 0.06 0.04 0.07 0.02 0.00 0.01 0.01 0.05 0.11 0.14 0.13 0.06 0.02 0.01 0.03 0.03 0.11 0.23 0.24 0.24 0.14 0.11 0.06
0.54 0.55 0.45 0.36 0.34 0.31 0.43 0.73 0.52 0.07 0.01 0.00 0.00 0.00 0.00 0.00 0.00 0.00 0.00 0.01 0.00 0.00 0.04 0.07 0.04 0.00 0.00 0.00 0.02 0.01 0.07 0.12 0.18 0.11 0.07 0.10 0.06 0.26 0.54 0.21 0.12 0.13 0.16 0.20 0.16
0.36 0.32 0.28 0.18 0.18 0.27 0.68 0.84 0.20 0.05 0.01 0.01 0.03 0.03 0.00 0.00 0.00 0.00 0.00 0.01 0.00 0.00 0.02 0.03 0.01 0.00 0.00 0.00 0.02 0.11 0.10 0.07 0.20 0.12 0.09 0.07 0.03 0.27 0.41 0.19 0.17 0.21 0.18 0.14 0.13
0.49 0.48 0.19 0.08 0.18 0.50 0.86 0.35 0.01 0.00 0.00 0.01 0.12 0.20 0.01 0.01 0.01 0.00 0.01 0.02 0.04 0.01 0.00 0.05 0.10 0.02 0.00 0.01 0.01 0.09 0.21 0.51 0.59 0.38 0.17 0.02 0.11 0.31 0.25 0.11 0.07 0.11 0.19 0.09 0.03
1.01 0.94 0.19 0.14 0.71 1.14 0.76 0.12 0.00 0.00 0.00 0.02 0.04 0.08 0.03 0.01 0.01 0.02 0.04 0.14 0.09 0.07 0.03 0.03 0.08 0.07 0.04 0.03 0.05 0.10 0.30 0.53 0.51 0.21 0.27 0.19 0.51 0.58 0.20 0.06 0.05 0.05 0.08 0.07 0.01
1.70 1.19 0.30 0.42 1.06 0.77 0.26 0.03 0.00 0.01 0.00 0.01 0.02 0.04 0.03 0.02 0.01 0.02 0.01 0.05 0.03 0.05 0.12 0.15 0.12 0.06 0.01 0.00 0.00 0.07 0.15 0.34 0.69 0.46 0.31 0.29 0.52 0.46 0.11 0.01 0.00 0.01 0.02 0.04 0.03
2.14 1.09 0.91 0.88 1.11 0.36 0.12 0.05 0.02 0.01 0.01 0.03 0.03 0.03 0.02 0.02 0.03 0.04 0.02 0.03 0.02 0.05 0.11 0.08 0.19 0.17 0.09 0.11 0.08 0.09 0.17 0.29 0.47 0.59 0.49 0.54 0.46 0.65 0.31 0.08 0.02 0.01 0.04 0.04 0.06
2.64 1.88 2.05 1.37 0.36 0.38 0.49 0.25 0.07 0.05 0.09 0.10 0.05 0.06 0.07 0.08 0.05 0.04 0.03 0.03 0.05 0.06 0.12 0.15 0.08 0.11 0.13 0.22 0.29 0.20 0.14 0.21 0.69 1.00 0.61 0.42 0.28 0.87 1.08 0.60 0.29 0.12 0.08 0.10 0.10
3.80 1.50 0.83 0.92 0.43 0.22 0.30 0.32 0.19 0.22 0.16 0.08 0.23 0.28 0.23 0.16 0.13 0.10 0.11 0.09 0.10 0.09 0.20 0.32 0.20 0.08 0.04 0.02 0.10 0.19 0.18 0.16 0.26 0.34 0.53 0.21 0.31 0.61 1.12 1.16 0.74 0.24 0.10 0.12 0.13
3.66 0.93 0.29 0.16 0.19 0.29 0.37 0.20 0.11 0.14 0.14 0.20 0.28 0.11 0.09 0.16 0.14 0.21 0.24 0.26 0.30 0.31 0.37 0.54 0.38 0.14 0.07 0.03 0.03 0.03 0.04 0.20 0.22 0.17 0.20 0.12 0.36 0.65 0.80 0.90 0.68 0.54 0.29 0.21 0.19
2.94 0.72 0.60 0.36 0.18 0.30 0.23 0.15 0.14 0.08 0.11 0.14 0.22 0.14 0.07 0.17 0.18 0.22 0.17 0.20 0.25 0.35 0.48 0.52 0.67 0.47 0.21 0.06 0.06 0.04 0.05 0.08 0.15 0.23 0.35 0.44 0.37 0.33 0.43 0.59 0.43 0.43 0.36 0.34 0.37

GFSSW_prec_precacc_108.txt.gz
Total_Precipitation_Accumulation
0.02 0.02 0.03 0.03 0.02 0.01 0.01 0.01 0.01 0.01 0.01 0.01 0.01 0.01 0.01 0.01 0.01 0.00 0.00 0.00 0.00 0.00 0.00 0.00 0.00 0.00 0.00 0.00 0.00 0.00 0.00 0.00 0.00 0.03 0.10 0.24 0.18 0.09 0.11 0.18 0.29 0.39 0.68 0.95 0.89
0.03 0.03 0.03 0.03 0.02 0.01 0.01 0.01 0.01 0.01 0.01 0.01 0.01 0.01 0.01 0.01 0.00 0.00 0.00 0.00 0.00 0.00 0.00 0.00 0.00 0.00 0.00 0.00 0.00 0.00 0.00 0.00 0.01 0.02 0.10 0.16 0.21 0.09 0.13 0.42 0.67 0.42 0.82 1.15 1.09
0.03 0.03 0.03 0.03 0.03 0.01 0.01 0.01 0.02 0.01 0.01 0.01 0.01 0.01 0.01 0.00 0.00 0.00 0.00 0.00 0.00 0.00 0.00 0.00 0.00 0.00 0.00 0.00 0.00 0.00 0.00 0.00 0.02 0.10 0.02 0.05 0.08 0.06 0.12 0.57 0.92 0.94 0.74 0.83 0.72
0.02 0.02 0.02 0.04 0.02 0.02 0.01 0.01 0.01 0.01 0.01 0.01 0.01 0.01 0.01 0.00 0.00 0.00 0.00 0.00 0.00 0.00 0.00 0.00 0.00 0.00 0.00 0.00 0.00 0.00 0.00 0.00 0.01 0.05 0.01 0.04 0.06 0.04 0.21 0.45 0.36 0.38 0.38 0.31 0.40
0.03 0.02 0.02 0.03 0.03 0.04 0.03 0.03 0.02 0.02 0.01 0.01 0.01 0.02 0.00 0.00 0.00 0.00 0.00 0.00 0.00 0.00 0.00 0.00 0.00 0.00 0.00 0.00 0.00 0.00 0.00 0.00 0.00 0.00 0.03 0.01 0.02 0.04 0.04 0.10 0.04 0.11 0.19 0.28 0.41
0.05 0.04 0.04 0.04 0.05 0.06 0.04 0.03 0.02 0.02 0.01 0.01 0.01 0.02 0.00 0.00 0.00 0.00 0.00 0.00 0.00 0.00 0.00 0.00 0.00 0.00 0.00 0.00 0.00 0.00 0.00 0.00 0.00 0.00 0.01 0.02 0.02 0.06 0.21 0.06 0.02 0.06 0.22 0.38 0.35
0.11 0.10 0.08 0.09 0.08 0.08 0.06 0.04 0.03 0.03 0.02 0.01 0.01 0.02 0.00 0.00 0.00 0.00 0.00 0.00 0.00 0.00 0.00 0.00 0.00 0.00 0.00 0.00 0.00 0.00 0.00 0.00 0.00 0.00 0.02 0.07 0.12 0.13 0.13 0.01 0.01 0.03 0.10 0.11 0.17
0.16 0.15 0.13 0.12 0.12 0.11 0.11 0.08 0.06 0.05 0.03 0.01 0.02 0.02 0.00 0.00 0.00 0.00 0.00 0.00 0.00 0.00 0.00 0.00 0.00 0.00 0.00 0.00 0.00 0.00 0.00 0.01 0.01 0.00 0.01 0.12 0.46 0.07 0.08 0.08 0.04 0.03 0.07 0.06 0.02
0.20 0.17 0.15 0.13 0.13 0.15 0.14 0.12 0.10 0.07 0.03 0.01 0.02 0.01 0.00 0.00 0.00 0.00 0.00 0.00 0.00 0.00 0.00 0.00 0.00 0.00 0.00 0.00 0.00 0.00 0.00 0.00 0.01 0.01 0.01 0.10 0.45 0.09 0.08 0.22 0.09 0.04 0.01 0.00 0.00
0.22 0.19 0.16 0.15 0.17 0.18 0.15 0.14 0.12 0.05 0.03 0.02 0.04 0.01 0.00 0.00 0.00 0.00 0.00 0.00 0.00 0.00 0.00 0.00 0.00 0.00 0.00 0.00 0.01 0.00 0.00 0.00 0.00 0.00 0.00 0.01 0.12 0.23 0.06 0.09 0.30 0.05 0.02 0.00 0.00
0.16 0.14 0.13 0.16 0.19 0.18 0.16 0.15 0.11 0.09 0.04 0.01 0.01 0.00 0.00 0.00 0.00 0.00 0.00 0.00 0.00 0.01 0.00 0.00 0.00 0.00 0.00 0.00 0.00 0.00 0.00 0.00 0.00 0.00 0.00 0.00 0.02 0.10 0.15 0.04 0.06 0.04 0.14 0.05 0.01
0.15 0.12 0.10 0.15 0.16 0.10 0.05 0.06 0.04 0.08 0.07 0.02 0.02 0.02 0.00 0.00 0.01 0.00 0.00 0.00 0.01 0.05 0.03 0.01 0.01 0.00 0.00 0.00 0.00 0.00 0.00 0.00 0.00 0.00 0.00 0.00 0.00 0.02 0.07 0.01 0.01 0.01 0.14 0.03 0.01
0.15 0.15 0.18 0.26 0.25 0.15 0.03 0.03 0.01 0.01 0.05 0.00 0.00 0.00 0.00 0.02 0.04 0.00 0.00 0.00 0.01 0.04 0.09 0.04 0.01 0.00 0.01 0.03 0.02 0.01 0.00 0.00 0.00 0.00 0.00 0.01 0.00 0.02 0.02 0.02 0.06 0.01 0.00 0.00 0.00
0.33 0.30 0.28 0.28 0.20 0.06 0.10 0.05 0.03 0.02 0.20 0.03 0.00 0.00 0.00 0.00 0.01 0.00 0.00 0.00 0.01 0.03 0.08 0.14 0.02 0.02 0.02 0.02 0.01 0.04 0.00 0.01 0.01 0.02 0.04 0.00 0.05 0.09 0.03 0.01 0.04 0.02 0.00 0.01 0.00
0.46 0.42 0.41 0.26 0.11 0.09 0.08 0.02 0.01 0.07 0.29 0.01 0.00 0.00 0.00 0.00 0.00 0.00 0.00 0.00 0.02 0.02 0.11 0.10 0.04 0.06 0.05 0.02 0.02 0.04 0.01 0.03 0.02 0.02 0.03 0.02 0.02 0.09 0.02 0.01 0.01 0.02 0.01 0.02 0.02
0.52 0.44 0.37 0.25 0.15 0.16 0.16 0.19 0.32 0.53 0.37 0.01 0.00 0.00 0.00 0.00 0.00 0.00 0.00 0.00 0.01 0.17 0.13 0.04 0.06 0.04 0.03 0.01 0.04 0.04 0.05 0.02 0.01 0.04 0.13 0.03 0.04 0.07 0.03 0.05 0.07 0.08 0.06 0.06 0.04
0.68 0.62 0.53 0.32 0.26 0.17 0.15 0.40 0.76 0.50 0.06 0.01 0.00 0.00 0.00 0.00 0.00 0.00 0.00 0.00 0.02 0.08 0.07 0.04 0.07 0.02 0.00 0.01 0.01 0.08 0.21 0.21 0.18 0.12 0.08 0.01 0.07 0.06 0.12 0.23 0.24 0.25 0.15 0.11 0.06
0.60 0.61 0.46 0.36 0.34 0.32 0.46 0.80 0.60 0.08 0.01 0.00 0.00 0.00 0.00 0.00 0.00 0.00 0.00 0.01 0.00 0.00 0.05 0.09 0.06 0.00 0.00 0.00 0.03 0.03 0.11 0.16 0.23 0.15 0.09 0.13 0.16 0.30 0.58 0.22 0.14 0.22 0.22 0.20 0.16
0.39 0.34 0.30 0.21 0.21 0.31 0.77 1.02 0.25 0.05 0.01 0.01 0.04 0.03 0.00 0.00 0.00 0.00 0.00 0.01 0.00 0.00 0.03 0.05 0.02 0.00 0.00 0.00 0.04 0.17 0.16 0.08 0.26 0.20 0.16 0.11 0.05 0.31 0.45 0.20 0.19 0.27 0.24 0.14 0.13
0.49 0.51 0.24 0.12 0.25 0.65 1.07 0.45 0.02 0.01 0.00 0.01 0.12 0.20 0.01 0.01 0.02 0.01 0.01 0.02 0.04 0.02 0.00 0.06 0.12 0.02 0.00 0.01 0.01 0.09 0.23 0.58 0.66 0.43 0.20 0.02 0.17 0.41 0.27 0.12 0.08 0.12 0.20 0.09 0.03
1.04 0.98 0.23 0.19 0.81 1.32 0.89 0.14 0.01 0.00 0.00 0.02 0.04 0.08 0.03 0.02 0.03 0.04 0.07 0.14 0.10 0.08 0.04 0.04 0.09 0.07 0.05 0.03 0.05 0.11 0.31 0.58 0.61 0.25 0.31 0.21 0.67 0.74 0.45 0.21 0.08 0.05 0.08 0.07 0.01
1.78 1.31 0.31 0.49 1.22 0.88 0.27 0.03 0.01 0.01 0.00 0.01 0.02 0.04 0.04 0.02 0.01 0.03 0.03 0.06 0.04 0.05 0.12 0.15 0.13 0.07 0.01 0.00 0.00 0.07 0.15 0.40 0.82 0.61 0.36 0.33 0.63 0.61 0.37 0.09 0.01 0.01 0.02 0.04 0.03
2.24 1.16 0.96 0.97 1.20 0.37 0.12 0.05 0.02 0.01 0.01 0.03 0.03 0.03 0.02 0.02 0.04 0.04 0.03 0.04 0.02 0.05 0.11 0.08 0.19 0.19 0.10 0.11 0.08 0.09 0.17 0.29 0.48 0.60 0.49 0.56 0.53 0.77 0.32 0.08 0.02 0.01 0.04 0.04 0.06
2.81 1.95 2.17 1.52 0.39 0.39 0.49 0.25 0.07 0.05 0.09 0.10 0.06 0.07 0.07 0.08 0.05 0.05 0.04 0.04 0.05 0.06 0.12 0.15 0.08 0.11 0.15 0.23 0.29 0.20 0.14 0.21 0.69 1.00 0.61 0.42 0.29 0.90 1.08 0.60 0.29 0.12 0.08 0.10 0.10
3.96 1.58 0.85 0.96 0.44 0.23 0.32 0.32 0.20 0.22 0.16 0.08 0.24 0.29 0.24 0.16 0.14 0.11 0.13 0.09 0.10 0.09 0.20 0.32 0.20 0.08 0.04 0.02 0.10 0.19 0.18 0.16 0.26 0.34 0.53 0.21 0.31 0.61 1.12 1.16 0.74 0.24 0.10 0.12 0.13
3.72 1.00 0.31 0.17 0.19 0.30 0.39 0.22 0.12 0.15 0.14 0.21 0.29 0.12 0.10 0.18 0.15 0.22 0.25 0.26 0.30 0.31 0.37 0.54 0.38 0.14 0.07 0.03 0.03 0.03 0.04 0.20 0.22 0.17 0.20 0.12 0.36 0.65 0.80 0.90 0.68 0.54 0.29 0.21 0.19
2.96 0.74 0.63 0.39 0.20 0.31 0.25 0.15 0.15 0.09 0.12 0.15 0.23 0.15 0.09 0.19 0.18 0.22 0.17 0.20 0.25 0.35 0.48 0.52 0.67 0.47 0.21 0.06 0.06 0.04 0.05 0.08 0.15 0.23 0.35 0.44 0.37 0.33 0.43 0.59 0.43 0.44 0.36 0.34 0.37

GFSSW_prec_precacc_111.txt.gz
Total_Precipitation_Accumulation
0.02 0.03 0.04 0.03 0.02 0.01 0.01 0.01 0.01 0.01 0.01 0.01 0.01 0.01 0.01 0.01 0.01 0.00 0.00 0.00 0.00 0.00 0.00 0.00 0.00 0.00 0.00 0.00 0.00 0.00 0.00 0.00 0.00 0.03 0.10 0.24 0.18 0.09 0.11 0.18 0.29 0.39 0.68 0.95 0.89
0.03 0.03 0.03 0.03 0.02 0.01 0.01 0.01 0.01 0.01 0.01 0.01 0.01 0.01 0.01 0.01 0.00 0.00 0.00 0.00 0.00 0.00 0.00 0.00 0.00 0.00 0.00 0.00 0.00 0.00 0.00 0.00 0.01 0.02 0.10 0.16 0.21 0.09 0.13 0.42 0.67 0.42 0.82 1.15 1.09
0.03 0.03 0.03 0.03 0.03 0.01 0.01 0.01 0.02 0.02 0.01 0.01 0.01 0.01 0.01 0.00 0.00 0.00 0.00 0.00 0.00 0.00 0.00 0.00 0.00 0.00 0.00 0.00 0.00 0.00 0.00 0.00 0.02 0.10 0.02 0.05 0.08 0.06 0.12 0.57 0.92 0.94 0.74 0.83 0.72
0.02 0.02 0.02 0.04 0.02 0.02 0.01 0.02 0.02 0.02 0.01 0.01 0.01 0.01 0.01 0.00 0.00 0.00 0.00 0.00 0.00 0.00 0.00 0.00 0.00 0.00 0.00 0.00 0.00 0.00 0.00 0.00 0.01 0.05 0.01 0.04 0.06 0.04 0.21 0.45 0.36 0.38 0.38 0.31 0.40
0.03 0.02 0.02 0.03 0.03 0.04 0.03 0.03 0.02 0.02 0.01 0.01 0.01 0.02 0.00 0.00 0.00 0.00 0.00 0.00 0.00 0.00 0.00 0.00 0.00 0.00 0.00 0.00 0.00 0.00 0.00 0.00 0.00 0.00 0.03 0.01 0.02 0.04 0.04 0.10 0.04 0.11 0.19 0.28 0.41
0.05 0.04 0.04 0.04 0.05 0.06 0.04 0.03 0.02 0.02 0.01 0.01 0.01 0.02 0.00 0.00 0.00 0.00 0.00 0.00 0.00 0.00 0.00 0.00 0.00 0.00 0.00 0.00 0.00 0.00 0.00 0.00 0.00 0.00 0.01 0.02 0.02 0.06 0.21 0.06 0.02 0.06 0.22 0.38 0.35
0.11 0.10 0.08 0.09 0.08 0.08 0.06 0.04 0.03 0.03 0.02 0.01 0.01 0.02 0.00 0.00 0.00 0.00 0.00 0.00 0.00 0.00 0.00 0.00 0.00 0.00 0.00 0.00 0.00 0.00 0.00 0.00 0.00 0.00 0.02 0.07 0.12 0.13 0.13 0.01 0.01 0.03 0.10 0.11 0.17
0.16 0.15 0.13 0.12 0.12 0.11 0.11 0.08 0.07 0.06 0.04 0.01 0.02 0.02 0.00 0.00 0.00 0.00 0.00 0.00 0.00 0.00 0.00 0.00 0.00 0.00 0.00 0.00 0.00 0.00 0.00 0.01 0.01 0.00 0.01 0.12 0.46 0.07 0.08 0.08 0.04 0.03 0.07 0.06 0.02
0.20 0.17 0.15 0.13 0.13 0.15 0.14 0.12 0.12 0.09 0.04 0.01 0.02 0.01 0.00 0.00 0.00 0.00 0.00 0.00 0.00 0.00 0.00 0.00 0.00 0.00 0.00 0.00 0.00 0.00 0.00 0.00 0.01 0.01 0.01 0.10 0.45 0.09 0.08 0.22 0.09 0.04 0.01 0.00 0.00
0.22 0.19 0.16 0.15 0.17 0.18 0.16 0.16 0.14 0.07 0.03 0.02 0.04 0.01 0.00 0.00 0.00 0.00 0.00 0.00 0.00 0.00 0.00 0.00 0.00 0.00 0.00 0.00 0.01 0.00 0.00 0.00 0.00 0.00 0.00 0.01 0.12 0.23 0.06 0.09 0.30 0.05 0.02 0.00 0.00
0.16 0.14 0.13 0.16 0.19 0.21 0.18 0.15 0.12 0.09 0.04 0.01 0.01 0.00 0.00 0.00 0.00 0.00 0.00 0.00 0.00 0.01 0.00 0.00 0.00 0.00 0.00 0.00 0.00 0.00 0.00 0.00 0.00 0.00 0.00 0.00 0.02 0.10 0.15 0.04 0.06 0.04 0.14 0.05 0.01
0.15 0.12 0.10 0.15 0.17 0.11 0.06 0.06 0.04 0.08 0.07 0.02 0.02 0.02 0.00 0.00 0.01 0.00 0.00 0.00 0.01 0.05 0.03 0.01 0.01 0.00 0.00 0.00 0.00 0.00 0.00 0.00 0.00 0.00 0.00 0.00 0.00 0.02 0.07 0.01 0.01 0.01 0.14 0.03 0.01
0.15 0.15 0.18 0.26 0.26 0.16 0.03 0.03 0.01 0.01 0.05 0.00 0.00 0.00 0.00 0.02 0.04 0.00 0.00 0.00 0.01 0.04 0.09 0.04 0.01 0.00 0.01 0.03 0.02 0.01 0.00 0.00 0.00 0.00 0.00 0.01 0.01 0.02 0.02 0.02 0.06 0.01 0.00 0.00 0.00
0.33 0.30 0.28 0.30 0.26 0.06 0.12 0.06 0.03 0.02 0.20 0.03 0.00 0.00 0.00 0.00 0.01 0.00 0.00 0.00 0.01 0.03 0.08 0.14 0.02 0.02 0.02 0.02 0.01 0.04 0.00 0.01 0.01 0.02 0.05 0.01 0.08 0.09 0.03 0.01 0.04 0.02 0.00 0.01 0.01
0.46 0.42 0.42 0.28 0.11 0.09 0.08 0.02 0.01 0.07 0.29 0.01 0.00 0.00 0.00 0.00 0.00 0.00 0.00 0.00 0.02 0.02 0.11 0.10 0.04 0.06 0.05 0.02 0.02 0.04 0.01 0.03 0.02 0.02 0.05 0.02 0.06 0.10 0.02 0.01 0.02 0.03 0.01 0.02 0.02
0.52 0.45 0.38 0.28 0.15 0.16 0.16 0.19 0.33 0.54 0.37 0.01 0.00 0.00 0.00 0.00 0.00 0.00 0.00 0.00 0.01 0.17 0.13 0.04 0.06 0.04 0.03 0.01 0.04 0.04 0.05 0.02 0.01 0.06 0.20 0.04 0.05 0.08 0.03 0.06 0.08 0.10 0.08 0.06 0.04
0.69 0.63 0.55 0.32 0.26 0.17 0.15 0.43 0.88 0.55 0.06 0.01 0.00 0.00 0.00 0.00 0.00 0.00 0.00 0.00 0.02 0.08 0.07 0.04 0.07 0.02 0.00 0.01 0.01 0.08 0.21 0.23 0.21 0.16 0.09 0.01 0.09 0.07 0.12 0.26 0.31 0.34 0.25 0.12 0.06
0.62 0.67 0.50 0.36 0.34 0.32 0.48 0.91 0.69 0.08 0.01 0.00 0.00 0.00 0.00 0.00 0.00 0.00 0.00 0.01 0.00 0.00 0.05 0.09 0.06 0.00 0.00 0.00 0.03 0.03 0.11 0.17 0.26 0.17 0.11 0.13 0.20 0.32 0.62 0.34 0.49 0.34 0.42 0.27 0.17
0.40 0.35 0.31 0.21 0.21 0.33 0.85 1.17 0.29 0.05 0.01 0.01 0.04 0.03 0.00 0.00 0.00 0.00 0.00 0.01 0.00 0.00 0.03 0.05 0.03 0.00 0.00 0.00 0.04 0.17 0.17 0.08 0.28 0.22 0.21 0.12 0.05 0.31 0.78 0.66 0.46 0.36 0.36 0.22 0.14
0.50 0.53 0.27 0.16 0.33 0.79 1.25 0.56 0.03 0.01 0.00 0.02 0.13 0.20 0.01 0.01 0.02 0.01 0.02 0.03 0.04 0.02 0.00 0.06 0.12 0.02 0.00 0.01 0.01 0.09 0.23 0.61 0.72 0.45 0.22 0.03 0.26 0.62 0.48 0.65 0.40 0.29 0.23 0.11 0.05
1.05 1.00 0.24 0.26 0.93 1.54 1.10 0.24 0.01 0.01 0.01 0.04 0.05 0.09 0.03 0.02 0.03 0.06 0.09 0.16 0.10 0.08 0.04 0.04 0.09 0.07 0.05 0.03 0.05 0.11 0.32 0.60 0.67 0.30 0.33 0.23 0.78 1.11 1.00 0.75 0.33 0.20 0.11 0.07 0.01
1.85 1.41 0.31 0.51 1.41 1.09 0.34 0.05 0.02 0.03 0.02 0.03 0.03 0.04 0.04 0.02 0.01 0.03 0.04 0.09 0.04 0.07 0.14 0.16 0.15 0.07 0.01 0.00 0.00 0.07 0.16 0.42 0.89 0.71 0.56 0.44 0.71 0.74 0.55 0.35 0.08 0.02 0.02 0.04 0.03
2.30 1.28 1.00 1.07 1.34 0.44 0.14 0.06 0.04 0.02 0.04 0.04 0.03 0.03 0.02 0.02 0.04 0.04 0.04 0.04 0.02 0.06 0.13 0.10 0.25 0.19 0.10 0.12 0.08 0.09 0.17 0.31 0.50 0.61 0.50 0.57 0.56 0.83 0.38 0.12 0.03 0.01 0.04 0.04 0.06
2.94 2.06 2.25 1.72 0.47 0.40 0.49 0.26 0.12 0.07 0.10 0.10 0.06 0.07 0.07 0.08 0.05 0.06 0.04 0.04 0.05 0.06 0.12 0.15 0.08 0.11 0.16 0.23 0.29 0.20 0.14 0.21 0.69 1.00 0.61 0.42 0.30 0.92 1.10 0.60 0.29 0.12 0.08 0.10 0.10
4.09 1.66 0.87 1.01 0.47 0.24 0.34 0.34 0.20 0.23 0.17 0.08 0.24 0.29 0.24 0.17 0.14 0.11 0.14 0.09 0.10 0.09 0.20 0.33 0.20 0.08 0.04 0.02 0.10 0.19 0.18 0.16 0.26 0.34 0.53 0.21 0.32 0.61 1.12 1.16 0.74 0.24 0.10 0.12 0.13
3.84 1.07 0.43 0.17 0.19 0.30 0.42 0.28 0.14 0.15 0.15 0.21 0.29 0.12 0.11 0.18 0.16 0.22 0.27 0.27 0.30 0.31 0.37 0.54 0.38 0.14 0.07 0.03 0.03 0.03 0.04 0.20 0.22 0.17 0.20 0.12 0.36 0.65 0.80 0.90 0.68 0.54 0.29 0.21 0.19
3.01 0.76 0.86 0.68 0.26 0.32 0.25 0.16 0.17 0.13 0.14 0.15 0.23 0.16 0.11 0.21 0.19 0.22 0.18 0.21 0.25 0.35 0.48 0.52 0.67 0.47 0.21 0.06 0.06 0.04 0.05 0.08 0.15 0.23 0.35 0.44 0.37 0.33 0.43 0.59 0.43 0.44 0.36 0.34 0.37

GFSSW_prec_precacc_114.txt.gz
Total_Precipitation_Accumulation
0.03 0.03 0.04 0.03 0.02 0.02 0.01 0.01 0.01 0.01 0.01 0.01 0.01 0.01 0.01 0.01 0.01 0.00 0.00 0.00 0.00 0.00 0.00 0.00 0.00 0.00 0.00 0.00 0.00 0.00 0.00 0.00 0.00 0.03 0.10 0.24 0.18 0.09 0.11 0.18 0.29 0.39 0.68 0.95 0.89
0.03 0.03 0.03 0.03 0.02 0.01 0.01 0.01 0.01 0.01 0.01 0.01 0.01 0.01 0.01 0.01 0.00 0.00 0.00 0.00 0.00 0.00 0.00 0.00 0.00 0.00 0.00 0.00 0.00 0.00 0.00 0.00 0.01 0.02 0.10 0.16 0.21 0.09 0.13 0.42 0.67 0.42 0.82 1.15 1.09
0.03 0.03 0.03 0.03 0.03 0.01 0.01 0.01 0.02 0.02 0.01 0.01 0.01 0.01 0.01 0.00 0.00 0.00 0.00 0.00 0.00 0.00 0.00 0.00 0.00 0.00 0.00 0.00 0.00 0.00 0.00 0.00 0.02 0.10 0.02 0.05 0.08 0.06 0.12 0.57 0.92 0.94 0.74 0.83 0.72
0.02 0.02 0.02 0.04 0.02 0.02 0.01 0.02 0.02 0.02 0.01 0.01 0.01 0.01 0.01 0.00 0.00 0.00 0.00 0.00 0.00 0.00 0.00 0.00 0.00 0.00 0.00 0.00 0.00 0.00 0.00 0.00 0.01 0.05 0.01 0.04 0.06 0.04 0.21 0.45 0.36 0.38 0.38 0.31 0.40
0.03 0.02 0.02 0.03 0.03 0.04 0.03 0.03 0.02 0.02 0.02 0.01 0.01 0.02 0.00 0.00 0.00 0.00 0.00 0.00 0.00 0.00 0.00 0.00 0.00 0.00 0.00 0.00 0.00 0.00 0.00 0.00 0.00 0.00 0.03 0.01 0.02 0.04 0.04 0.10 0.04 0.11 0.19 0.28 0.41
0.05 0.04 0.04 0.04 0.05 0.06 0.04 0.03 0.02 0.03 0.02 0.01 0.01 0.02 0.00 0.00 0.00 0.00 0.00 0.00 0.00 0.00 0.00 0.00 0.00 0.00 0.00 0.00 0.00 0.00 0.00 0.00 0.00 0.00 0.01 0.02 0.02 0.06 0.21 0.06 0.02 0.06 0.22 0.38 0.35
0.11 0.10 0.08 0.09 0.08 0.08 0.06 0.04 0.03 0.04 0.03 0.01 0.01 0.02 0.00 0.00 0.00 0.00 0.00 0.00 0.00 0.00 0.00 0.00 0.00 0.00 0.00 0.00 0.00 0.00 0.00 0.00 0.00 0.00 0.02 0.07 0.12 0.13 0.13 0.01 0.01 0.03 0.10 0.11 0.17
0.16 0.15 0.13 0.12 0.12 0.12 0.11 0.08 0.07 0.07 0.04 0.02 0.02 0.02 0.00 0.00 0.00 0.00 0.00 0.00 0.00 0.00 0.00 0.00 0.00 0.00 0.00 0.00 0.00 0.00 0.00 0.01 0.01 0.00 0.01 0.12 0.46 0.07 0.08 0.08 0.04 0.03 0.07 0.06 0.02
0.20 0.17 0.15 0.13 0.13 0.15 0.14 0.13 0.12 0.10 0.05 0.02 0.02 0.01 0.00 0.00 0.00 0.00 0.00 0.00 0.00 0.00 0.00 0.00 0.00 0.00 0.00 0.00 0.00 0.00 0.00 0.00 0.01 0.01 0.01 0.10 0.45 0.09 0.08 0.22 0.09 0.04 0.01 0.00 0.00
0.22 0.19 0.16 0.15 0.17 0.19 0.16 0.16 0.15 0.07 0.04 0.02 0.04 0.01 0.00 0.00 0.00 0.00 0.00 0.00 0.00 0.00 0.00 0.00 0.00 0.00 0.00 0.00 0.01 0.00 0.00 0.00 0.00 0.00 0.00 0.01 0.12 0.23 0.06 0.09 0.30 0.05 0.02 0.00 0.00
0.16 0.14 0.13 0.16 0.19 0.23 0.19 0.15 0.12 0.09 0.04 0.01 0.01 0.00 0.00 0.00 0.00 0.00 0.00 0.00 0.00 0.01 0.00 0.00 0.00 0.00 0.00 0.00 0.00 0.00 0.00 0.00 0.00 0.00 0.00 0.00 0.02 0.10 0.15 0.04 0.06 0.04 0.14 0.05 0.01
0.15 0.12 0.10 0.15 0.18 0.12 0.06 0.06 0.04 0.08 0.07 0.02 0.02 0.02 0.00 0.00 0.01 0.00 0.00 0.00 0.01 0.05 0.03 0.01 0.01 0.00 0.00 0.00 0.00 0.00 0.00 0.00 0.00 0.00 0.00 0.00 0.00 0.02 0.07 0.01 0.01 0.01 0.14 0.03 0.01
0.15 0.15 0.18 0.26 0.29 0.16 0.03 0.03 0.01 0.01 0.05 0.00 0.00 0.00 0.00 0.02 0.04 0.00 0.00 0.00 0.01 0.04 0.09 0.04 0.01 0.00 0.01 0.03 0.02 0.01 0.00 0.00 0.00 0.00 0.00 0.01 0.01 0.02 0.02 0.02 0.06 0.02 0.00 0.00 0.00
0.33 0.30 0.28 0.31 0.30 0.07 0.12 0.06 0.03 0.02 0.20 0.03 0.00 0.00 0.00 0.00 0.01 0.00 0.00 0.00 0.01 0.03 0.08 0.14 0.02 0.02 0.02 0.02 0.01 0.04 0.00 0.01 0.01 0.02 0.05 0.01 0.08 0.09 0.03 0.01 0.04 0.02 0.01 0.05 0.07
0.46 0.42 0.42 0.28 0.11 0.10 0.08 0.02 0.01 0.07 0.29 0.01 0.00 0.00 0.00 0.00 0.00 0.00 0.00 0.00 0.02 0.02 0.11 0.10 0.04 0.06 0.05 0.02 0.02 0.04 0.01 0.03 0.02 0.02 0.05 0.02 0.06 0.10 0.02 0.01 0.02 0.03 0.03 0.11 0.13
0.52 0.45 0.39 0.29 0.16 0.16 0.16 0.19 0.33 0.55 0.37 0.01 0.00 0.00 0.00 0.00 0.00 0.00 0.00 0.00 0.01 0.17 0.13 0.04 0.06 0.04 0.03 0.01 0.04 0.04 0.05 0.02 0.01 0.06 0.20 0.04 0.05 0.08 0.03 0.06 0.08 0.13 0.11 0.11 0.11
0.69 0.63 0.55 0.32 0.26 0.17 0.15 0.44 0.92 0.56 0.06 0.01 0.00 0.00 0.00 0.00 0.00 0.00 0.00 0.00 0.02 0.08 0.07 0.04 0.07 0.02 0.00 0.01 0.01 0.08 0.21 0.24 0.21 0.16 0.09 0.01 0.09 0.07 0.13 0.27 0.33 0.40 0.50 0.27 0.08
0.63 0.67 0.52 0.36 0.34 0.33 0.50 0.94 0.71 0.08 0.01 0.00 0.00 0.00 0.00 0.00 0.00 0.00 0.00 0.01 0.00 0.00 0.05 0.09 0.06 0.00 0.00 0.00 0.03 0.03 0.11 0.17 0.26 0.17 0.11 0.13 0.20 0.33 0.67 0.46 0.68 0.57 0.63 0.54 0.24
0.40 0.35 0.31 0.21 0.22 0.36 0.92 1.23 0.30 0.05 0.01 0.01 0.04 0.03 0.00 0.00 0.00 0.00 0.00 0.01 0.00 0.00 0.03 0.05 0.03 0.00 0.00 0.00 0.04 0.17 0.17 0.08 0.28 0.22 0.21 0.12 0.05 0.34 0.94 1.26 1.03 0.94 0.70 0.42 0.28
0.50 0.53 0.27 0.17 0.36 0.94 1.40 0.62 0.03 0.01 0.00 0.03 0.13 0.20 0.01 0.01 0.02 0.01 0.02 0.03 0.04 0.02 0.00 0.06 0.13 0.02 0.00 0.01 0.01 0.09 0.23 0.62 0.73 0.46 0.23 0.03 0.27 0.75 0.77 1.11 0.90 0.81 0.70 0.45 0.19
1.06 1.00 0.24 0.27 1.05 1.74 1.29 0.28 0.02 0.01 0.01 0.04 0.05 0.10 0.03 0.02 0.03 0.06 0.09 0.16 0.11 0.09 0.05 0.05 0.10 0.08 0.05 0.03 0.05 0.11 0.32 0.60 0.67 0.31 0.35 0.24 0.84 1.22 1.12 0.88 0.54 0.48 0.36 0.18 0.03
1.90 1.47 0.31 0.53 1.58 1.32 0.43 0.07 0.02 0.03 0.03 0.04 0.04 0.05 0.04 0.02 0.02 0.03 0.04 0.09 0.04 0.07 0.16 0.19 0.17 0.07 0.01 0.00 0.00 0.07 0.16 0.42 0.90 0.72 0.61 0.53 0.86 0.81 0.56 0.39 0.12 0.02 0.04 0.06 0.04
2.44 1.34 1.03 1.10 1.46 0.53 0.17 0.06 0.05 0.03 0.05 0.07 0.05 0.03 0.02 0.02 0.04 0.04 0.04 0.04 0.02 0.06 0.17 0.19 0.38 0.29 0.15 0.13 0.08 0.09 0.17 0.31 0.52 0.64 0.52 0.58 0.58 0.85 0.41 0.13 0.04 0.01 0.04 0.04 0.06
3.13 2.20 2.33 1.83 0.52 0.44 0.50 0.28 0.15 0.08 0.11 0.13 0.07 0.08 0.07 0.08 0.05 0.06 0.04 0.04 0.05 0.07 0.13 0.18 0.17 0.18 0.19 0.24 0.29 0.20 0.14 0.21 0.70 1.01 0.62 0.42 0.30 0.93 1.11 0.60 0.29 0.12 0.08 0.10 0.10
4.41 1.88 0.89 1.03 0.49 0.25 0.34 0.35 0.21 0.25 0.21 0.12 0.28 0.29 0.24 0.17 0.14 0.11 0.14 0.09 0.10 0.09 0.20 0.33 0.21 0.10 0.05 0.02 0.10 0.19 0.18 0.16 0.27 0.34 0.53 0.21 0.32 0.62 1.12 1.16 0.74 0.24 0.10 0.12 0.13
4.07 1.23 0.46 0.17 0.19 0.30 0.44 0.34 0.15 0.15 0.18 0.24 0.37 0.16 0.11 0.18 0.16 0.22 0.27 0.27 0.31 0.31 0.37 0.55 0.40 0.16 0.09 0.03 0.03 0.03 0.04 0.20 0.22 0.17 0.20 0.12 0.36 0.65 0.80 0.90 0.68 0.54 0.29 0.21 0.19
3.11 0.82 0.90 0.72 0.28 0.34 0.26 0.17 0.19 0.20 0.18 0.16 0.24 0.17 0.12 0.21 0.19 0.22 0.18 0.21 0.25 0.35 0.48 0.52 0.69 0.51 0.25 0.07 0.08 0.04 0.05 0.08 0.15 0.23 0.35 0.44 0.37 0.33 0.43 0.59 0.43 0.44 0.37 0.34 0.37

GFSSW_prec_precacc_117.txt.gz
Total_Precipitation_Accumulation
0.03 0.03 0.04 0.03 0.02 0.02 0.01 0.01 0.01 0.01 0.01 0.01 0.01 0.01 0.01 0.01 0.01 0.00 0.00 0.00 0.00 0.00 0.00 0.00 0.00 0.00 0.00 0.00 0.00 0.00 0.00 0.00 0.00 0.03 0.10 0.24 0.18 0.09 0.11 0.18 0.29 0.39 0.68 0.95 0.89
0.03 0.03 0.03 0.03 0.02 0.01 0.01 0.01 0.01 0.01 0.01 0.01 0.01 0.01 0.01 0.01 0.00 0.00 0.00 0.00 0.00 0.00 0.00 0.00 0.00 0.00 0.00 0.00 0.00 0.00 0.00 0.00 0.01 0.02 0.10 0.16 0.21 0.09 0.13 0.42 0.67 0.42 0.82 1.15 1.09
0.03 0.03 0.03 0.03 0.03 0.01 0.01 0.01 0.02 0.02 0.01 0.01 0.01 0.01 0.01 0.00 0.00 0.00 0.00 0.00 0.00 0.00 0.00 0.00 0.00 0.00 0.00 0.00 0.00 0.00 0.00 0.00 0.02 0.10 0.02 0.05 0.08 0.06 0.12 0.57 0.92 0.94 0.74 0.83 0.72
0.02 0.02 0.02 0.04 0.02 0.02 0.01 0.02 0.02 0.02 0.01 0.01 0.01 0.01 0.01 0.00 0.00 0.00 0.00 0.00 0.00 0.00 0.00 0.00 0.00 0.00 0.00 0.00 0.00 0.00 0.00 0.00 0.01 0.05 0.01 0.04 0.06 0.04 0.21 0.45 0.36 0.38 0.38 0.31 0.40
0.03 0.02 0.02 0.03 0.03 0.04 0.03 0.03 0.02 0.02 0.02 0.01 0.01 0.02 0.00 0.00 0.00 0.00 0.00 0.00 0.00 0.00 0.00 0.00 0.00 0.00 0.00 0.00 0.00 0.00 0.00 0.00 0.00 0.00 0.03 0.01 0.02 0.04 0.04 0.10 0.04 0.11 0.19 0.28 0.41
0.05 0.04 0.04 0.04 0.05 0.06 0.04 0.03 0.02 0.03 0.02 0.02 0.01 0.02 0.00 0.00 0.00 0.00 0.00 0.00 0.00 0.00 0.00 0.00 0.00 0.00 0.00 0.00 0.00 0.00 0.00 0.00 0.00 0.00 0.01 0.02 0.02 0.06 0.21 0.06 0.02 0.06 0.22 0.38 0.35
0.11 0.10 0.08 0.09 0.08 0.08 0.07 0.04 0.03 0.04 0.03 0.02 0.02 0.02 0.00 0.00 0.00 0.00 0.00 0.00 0.00 0.00 0.00 0.00 0.00 0.00 0.00 0.00 0.00 0.00 0.00 0.00 0.00 0.00 0.02 0.07 0.12 0.13 0.13 0.01 0.01 0.03 0.10 0.11 0.17
0.16 0.15 0.13 0.12 0.12 0.12 0.12 0.08 0.07 0.07 0.05 0.02 0.02 0.02 0.00 0.00 0.00 0.00 0.00 0.00 0.00 0.00 0.00 0.00 0.00 0.00 0.00 0.00 0.00 0.00 0.00 0.01 0.01 0.00 0.01 0.12 0.46 0.07 0.08 0.08 0.04 0.03 0.07 0.06 0.02
0.20 0.17 0.15 0.13 0.13 0.15 0.14 0.13 0.13 0.11 0.06 0.03 0.02 0.01 0.00 0.00 0.00 0.00 0.00 0.00 0.00 0.00 0.00 0.00 0.00 0.00 0.00 0.00 0.00 0.00 0.00 0.00 0.01 0.01 0.01 0.10 0.45 0.09 0.08 0.22 0.09 0.04 0.01 0.00 0.00
0.22 0.19 0.16 0.15 0.17 0.19 0.17 0.17 0.15 0.08 0.04 0.02 0.04 0.01 0.00 0.00 0.00 0.00 0.00 0.00 0.00 0.00 0.00 0.00 0.00 0.00 0.00 0.00 0.01 0.00 0.00 0.00 0.00 0.00 0.00 0.01 0.12 0.23 0.06 0.09 0.30 0.05 0.02 0.00 0.00
0.16 0.14 0.13 0.16 0.19 0.23 0.19 0.15 0.12 0.09 0.04 0.01 0.01 0.00 0.00 0.00 0.00 0.00 0.00 0.00 0.00 0.01 0.00 0.00 0.00 0.00 0.00 0.00 0.00 0.00 0.00 0.00 0.00 0.00 0.00 0.00 0.02 0.10 0.15 0.04 0.06 0.04 0.14 0.05 0.01
0.15 0.12 0.10 0.15 0.18 0.13 0.06 0.06 0.04 0.08 0.07 0.02 0.02 0.02 0.00 0.00 0.01 0.00 0.00 0.00 0.01 0.05 0.03 0.01 0.01 0.00 0.00 0.00 0.00 0.00 0.00 0.00 0.00 0.00 0.00 0.00 0.00 0.02 0.07 0.01 0.01 0.01 0.14 0.03 0.01
0.15 0.15 0.18 0.26 0.29 0.17 0.03 0.03 0.01 0.01 0.05 0.00 0.00 0.00 0.00 0.02 0.04 0.00 0.00 0.00 0.01 0.04 0.09 0.04 0.01 0.00 0.01 0.03 0.02 0.01 0.00 0.00 0.00 0.00 0.00 0.01 0.01 0.02 0.02 0.02 0.06 0.02 0.00 0.00 0.00
0.33 0.30 0.28 0.31 0.31 0.07 0.12 0.06 0.03 0.02 0.20 0.03 0.00 0.00 0.00 0.00 0.01 0.00 0.00 0.00 0.01 0.03 0.08 0.14 0.02 0.02 0.02 0.02 0.01 0.04 0.00 0.01 0.01 0.02 0.05 0.01 0.08 0.09 0.03 0.01 0.04 0.02 0.01 0.05 0.07
0.46 0.42 0.42 0.29 0.11 0.10 0.08 0.02 0.01 0.07 0.29 0.01 0.00 0.00 0.00 0.00 0.00 0.00 0.00 0.00 0.02 0.02 0.11 0.10 0.04 0.06 0.05 0.02 0.02 0.04 0.01 0.03 0.02 0.02 0.05 0.02 0.06 0.10 0.02 0.01 0.02 0.03 0.03 0.11 0.14
0.52 0.45 0.39 0.29 0.17 0.16 0.16 0.19 0.33 0.55 0.37 0.01 0.00 0.00 0.00 0.00 0.00 0.00 0.00 0.00 0.01 0.17 0.13 0.04 0.06 0.04 0.03 0.01 0.04 0.04 0.05 0.02 0.01 0.06 0.20 0.04 0.05 0.08 0.04 0.06 0.08 0.14 0.11 0.12 0.13
0.69 0.63 0.55 0.33 0.26 0.17 0.16 0.44 0.92 0.56 0.06 0.01 0.00 0.00 0.00 0.00 0.00 0.00 0.00 0.00 0.02 0.08 0.07 0.04 0.07 0.02 0.00 0.01 0.01 0.08 0.21 0.25 0.21 0.16 0.09 0.01 0.09 0.08 0.15 0.27 0.33 0.43 0.56 0.40 0.24
0.63 0.67 0.52 0.36 0.34 0.33 0.52 0.97 0.71 0.08 0.01 0.00 0.00 0.00 0.00 0.00 0.00 0.00 0.00 0.01 0.00 0.00 0.05 0.09 0.06 0.00 0.00 0.00 0.03 0.03 0.11 0.18 0.26 0.17 0.11 0.13 0.20 0.33 0.69 0.47 0.74 0.73 0.84 0.77 0.59
0.40 0.35 0.32 0.22 0.23 0.40 0.97 1.29 0.31 0.05 0.01 0.01 0.04 0.03 0.00 0.00 0.00 0.00 0.00 0.01 0.00 0.00 0.03 0.05 0.03 0.00 0.00 0.00 0.04 0.17 0.17 0.08 0.29 0.22 0.21 0.12 0.05 0.36 0.94 1.29 1.09 1.10 0.93 0.67 0.60
0.50 0.53 0.27 0.18 0.38 1.01 1.49 0.66 0.03 0.01 0.00 0.03 0.13 0.20 0.01 0.01 0.02 0.01 0.02 0.03 0.04 0.02 0.00 0.06 0.13 0.02 0.00 0.01 0.01 0.09 0.23 0.62 0.74 0.46 0.23 0.03 0.27 0.76 0.78 1.14 0.98 0.95 0.85 0.68 0.48
1.06 1.00 0.24 0.28 1.13 1.91 1.44 0.31 0.02 0.01 0.01 0.04 0.05 0.10 0.03 0.02 0.03 0.06 0.09 0.16 0.11 0.09 0.05 0.05 0.10 0.08 0.05 0.03 0.05 0.11 0.32 0.60 0.67 0.31 0.35 0.24 0.84 1.22 1.12 0.89 0.56 0.56 0.50 0.38 0.20
1.93 1.47 0.31 0.54 1.71 1.44 0.48 0.08 0.02 0.03 0.03 0.04 0.04 0.05 0.04 0.02 0.02 0.03 0.04 0.09 0.04 0.07 0.17 0.22 0.20 0.08 0.01 0.00 0.01 0.07 0.16 0.42 0.90 0.72 0.61 0.53 0.87 0.81 0.56 0.40 0.12 0.02 0.04 0.09 0.08
2.49 1.40 1.04 1.16 1.50 0.59 0.19 0.07 0.05 0.03 0.05 0.07 0.05 0.03 0.02 0.02 0.05 0.04 0.04 0.04 0.02 0.06 0.18 0.22 0.42 0.32 0.19 0.16 0.10 0.11 0.17 0.31 0.52 0.65 0.53 0.58 0.58 0.86 0.42 0.13 0.04 0.01 0.04 0.04 0.06
3.19 2.27 2.45 1.92 0.54 0.44 0.52 0.31 0.18 0.08 0.11 0.14 0.08 0.09 0.08 0.08 0.06 0.06 0.04 0.04 0.05 0.07 0.15 0.23 0.18 0.18 0.20 0.26 0.30 0.21 0.15 0.21 0.70 1.02 0.62 0.42 0.30 0.94 1.14 0.60 0.29 0.12 0.08 0.10 0.10
4.55 1.97 0.90 1.10 0.51 0.25 0.35 0.36 0.22 0.26 0.22 0.13 0.31 0.31 0.25 0.17 0.14 0.12 0.14 0.09 0.10 0.09 0.20 0.34 0.21 0.10 0.07 0.07 0.15 0.23 0.20 0.17 0.27 0.34 0.54 0.21 0.32 0.62 1.12 1.16 0.74 0.24 0.10 0.12 0.13
4.20 1.28 0.49 0.18 0.19 0.30 0.46 0.35 0.15 0.15 0.19 0.26 0.38 0.17 0.15 0.19 0.16 0.22 0.27 0.28 0.31 0.31 0.37 0.55 0.40 0.16 0.09 0.03 0.03 0.04 0.05 0.20 0.22 0.17 0.20 0.12 0.36 0.65 0.80 0.90 0.68 0.54 0.29 0.21 0.19
3.12 0.83 0.98 0.77 0.28 0.35 0.27 0.17 0.20 0.22 0.18 0.16 0.24 0.20 0.19 0.29 0.22 0.23 0.18 0.21 0.26 0.36 0.48 0.52 0.69 0.52 0.27 0.09 0.22 0.16 0.05 0.08 0.15 0.23 0.35 0.44 0.37 0.33 0.43 0.59 0.44 0.44 0.37 0.34 0.37

GFSSW_prec_precacc_120.txt.gz
Total_Precipitation_Accumulation
0.03 0.03 0.04 0.03 0.02 0.02 0.01 0.01 0.01 0.01 0.01 0.01 0.01 0.01 0.01 0.01 0.01 0.00 0.00 0.00 0.00 0.00 0.00 0.00 0.00 0.00 0.00 0.00 0.00 0.00 0.00 0.00 0.00 0.03 0.10 0.24 0.18 0.09 0.11 0.18 0.29 0.39 0.68 0.95 0.89
0.03 0.03 0.03 0.03 0.02 0.01 0.01 0.01 0.01 0.01 0.01 0.01 0.01 0.01 0.01 0.01 0.00 0.00 0.00 0.00 0.00 0.00 0.00 0.00 0.00 0.00 0.00 0.00 0.00 0.00 0.00 0.00 0.01 0.02 0.10 0.16 0.21 0.09 0.13 0.42 0.67 0.42 0.82 1.15 1.09
0.03 0.03 0.03 0.03 0.03 0.01 0.01 0.01 0.02 0.02 0.01 0.01 0.01 0.01 0.01 0.00 0.00 0.00 0.00 0.00 0.00 0.00 0.00 0.00 0.00 0.00 0.00 0.00 0.00 0.00 0.00 0.00 0.02 0.10 0.02 0.05 0.08 0.06 0.12 0.57 0.92 0.94 0.74 0.83 0.72
0.02 0.02 0.02 0.04 0.02 0.02 0.01 0.02 0.02 0.02 0.01 0.01 0.01 0.01 0.01 0.00 0.00 0.00 0.00 0.00 0.00 0.00 0.00 0.00 0.00 0.00 0.00 0.00 0.00 0.00 0.00 0.00 0.01 0.05 0.01 0.04 0.06 0.04 0.21 0.45 0.36 0.38 0.38 0.31 0.40
0.03 0.02 0.02 0.03 0.03 0.04 0.03 0.03 0.02 0.02 0.02 0.01 0.01 0.02 0.00 0.00 0.00 0.00 0.00 0.00 0.00 0.00 0.00 0.00 0.00 0.00 0.00 0.00 0.00 0.00 0.00 0.00 0.00 0.00 0.03 0.01 0.02 0.04 0.04 0.10 0.04 0.11 0.19 0.28 0.41
0.05 0.04 0.04 0.04 0.05 0.06 0.04 0.03 0.02 0.03 0.02 0.02 0.01 0.02 0.00 0.00 0.00 0.00 0.00 0.00 0.00 0.00 0.00 0.00 0.00 0.00 0.00 0.00 0.00 0.00 0.00 0.00 0.00 0.00 0.01 0.02 0.02 0.06 0.21 0.06 0.02 0.06 0.22 0.38 0.35
0.11 0.10 0.08 0.09 0.08 0.08 0.07 0.04 0.03 0.04 0.03 0.02 0.02 0.02 0.00 0.00 0.00 0.00 0.00 0.00 0.00 0.00 0.00 0.00 0.00 0.00 0.00 0.00 0.00 0.00 0.00 0.00 0.00 0.00 0.02 0.07 0.12 0.13 0.13 0.01 0.01 0.03 0.10 0.11 0.17
0.16 0.15 0.13 0.12 0.12 0.12 0.12 0.08 0.07 0.07 0.05 0.04 0.02 0.02 0.00 0.00 0.00 0.00 0.00 0.00 0.00 0.00 0.00 0.00 0.00 0.00 0.00 0.00 0.00 0.00 0.00 0.01 0.01 0.00 0.01 0.12 0.46 0.07 0.08 0.08 0.04 0.03 0.07 0.06 0.02
0.20 0.17 0.15 0.13 0.13 0.15 0.14 0.13 0.13 0.11 0.07 0.03 0.02 0.01 0.00 0.00 0.00 0.00 0.00 0.00 0.00 0.00 0.00 0.00 0.00 0.00 0.00 0.00 0.00 0.00 0.00 0.00 0.01 0.01 0.01 0.10 0.45 0.09 0.08 0.22 0.09 0.04 0.01 0.00 0.00
0.22 0.19 0.16 0.15 0.17 0.19 0.17 0.17 0.15 0.08 0.04 0.02 0.04 0.01 0.00 0.00 0.00 0.00 0.00 0.00 0.00 0.00 0.00 0.00 0.00 0.00 0.00 0.00 0.01 0.00 0.00 0.00 0.00 0.00 0.00 0.01 0.12 0.23 0.06 0.09 0.30 0.05 0.02 0.00 0.00
0.16 0.14 0.13 0.16 0.19 0.23 0.19 0.15 0.12 0.09 0.04 0.01 0.01 0.00 0.00 0.00 0.00 0.00 0.00 0.00 0.00 0.01 0.00 0.00 0.00 0.00 0.00 0.00 0.00 0.00 0.00 0.00 0.00 0.00 0.00 0.00 0.02 0.10 0.15 0.04 0.06 0.04 0.14 0.05 0.01
0.15 0.12 0.10 0.15 0.18 0.13 0.06 0.06 0.04 0.08 0.07 0.02 0.02 0.02 0.00 0.00 0.01 0.00 0.00 0.00 0.01 0.05 0.03 0.01 0.01 0.00 0.00 0.00 0.00 0.00 0.00 0.00 0.00 0.00 0.00 0.00 0.00 0.02 0.07 0.01 0.01 0.01 0.14 0.03 0.01
0.15 0.15 0.18 0.26 0.29 0.18 0.04 0.03 0.01 0.01 0.05 0.00 0.00 0.00 0.00 0.02 0.04 0.00 0.00 0.00 0.01 0.04 0.09 0.04 0.01 0.00 0.01 0.03 0.02 0.01 0.00 0.00 0.00 0.00 0.00 0.01 0.01 0.02 0.02 0.02 0.06 0.02 0.00 0.00 0.00
0.33 0.30 0.28 0.31 0.31 0.08 0.12 0.06 0.03 0.02 0.20 0.03 0.00 0.00 0.00 0.00 0.01 0.00 0.00 0.00 0.01 0.03 0.08 0.14 0.02 0.02 0.02 0.02 0.01 0.04 0.00 0.01 0.01 0.02 0.05 0.01 0.08 0.09 0.03 0.01 0.04 0.02 0.01 0.05 0.07
0.46 0.42 0.42 0.29 0.11 0.10 0.08 0.02 0.01 0.07 0.29 0.01 0.00 0.00 0.00 0.00 0.00 0.00 0.00 0.00 0.02 0.02 0.11 0.10 0.04 0.06 0.05 0.02 0.02 0.04 0.01 0.03 0.02 0.02 0.05 0.02 0.06 0.10 0.02 0.01 0.02 0.04 0.03 0.12 0.14
0.52 0.45 0.39 0.29 0.17 0.16 0.16 0.19 0.33 0.55 0.37 0.01 0.00 0.00 0.00 0.00 0.00 0.00 0.00 0.00 0.01 0.17 0.13 0.04 0.06 0.04 0.03 0.01 0.04 0.04 0.05 0.02 0.01 0.06 0.20 0.04 0.05 0.08 0.04 0.07 0.09 0.15 0.14 0.15 0.16
0.69 0.63 0.55 0.33 0.26 0.17 0.16 0.45 0.92 0.56 0.06 0.01 0.00 0.00 0.00 0.00 0.00 0.00 0.00 0.00 0.02 0.08 0.07 0.04 0.07 0.02 0.00 0.01 0.01 0.08 0.21 0.26 0.22 0.16 0.09 0.01 0.09 0.08 0.15 0.28 0.33 0.43 0.57 0.45 0.31
0.63 0.67 0.52 0.36 0.34 0.33 0.54 0.99 0.71 0.08 0.01 0.00 0.00 0.00 0.00 0.00 0.00 0.00 0.00 0.01 0.00 0.00 0.05 0.09 0.06 0.00 0.00 0.00 0.03 0.03 0.11 0.19 0.27 0.17 0.11 0.13 0.20 0.33 0.69 0.47 0.74 0.73 0.85 0.81 0.66
0.41 0.35 0.32 0.22 0.23 0.41 1.01 1.32 0.31 0.05 0.01 0.01 0.04 0.03 0.00 0.00 0.00 0.00 0.00 0.01 0.00 0.00 0.03 0.05 0.03 0.00 0.00 0.00 0.04 0.17 0.17 0.08 0.31 0.24 0.23 0.12 0.05 0.36 0.95 1.29 1.09 1.10 0.93 0.68 0.62
0.50 0.53 0.27 0.18 0.38 1.04 1.57 0.67 0.03 0.01 0.00 0.03 0.13 0.20 0.01 0.01 0.02 0.01 0.02 0.03 0.04 0.02 0.00 0.06 0.13 0.02 0.00 0.01 0.01 0.09 0.23 0.62 0.76 0.47 0.23 0.03 0.27 0.76 0.78 1.15 0.99 0.95 0.87 0.69 0.49
1.06 1.01 0.24 0.29 1.19 1.99 1.50 0.32 0.02 0.01 0.01 0.04 0.05 0.10 0.03 0.02 0.03 0.06 0.09 0.16 0.11 0.09 0.05 0.05 0.10 0.08 0.05 0.03 0.05 0.11 0.32 0.60 0.68 0.31 0.35 0.24 0.84 1.22 1.12 0.89 0.56 0.56 0.51 0.39 0.20
1.95 1.49 0.31 0.57 1.82 1.55 0.54 0.08 0.02 0.03 0.03 0.04 0.04 0.05 0.04 0.02 0.02 0.03 0.04 0.09 0.04 0.07 0.17 0.22 0.23 0.09 0.02 0.00 0.01 0.08 0.16 0.43 0.91 0.73 0.61 0.53 0.87 0.81 0.56 0.40 0.12 0.02 0.04 0.09 0.08
2.52 1.41 1.05 1.24 1.54 0.65 0.22 0.08 0.06 0.03 0.05 0.08 0.05 0.03 0.02 0.02 0.05 0.04 0.04 0.04 0.02 0.07 0.20 0.28 0.47 0.34 0.19 0.16 0.10 0.11 0.17 0.31 0.53 0.69 0.55 0.58 0.58 0.86 0.42 0.13 0.04 0.01 0.04 0.04 0.06
3.25 2.32 2.52 2.00 0.56 0.45 0.52 0.32 0.19 0.09 0.11 0.15 0.09 0.09 0.08 0.09 0.06 0.06 0.04 0.04 0.06 0.08 0.17 0.28 0.21 0.19 0.21 0.26 0.30 0.21 0.15 0.23 0.77 1.15 0.64 0.43 0.30 0.94 1.14 0.60 0.29 0.12 0.08 0.10 0.10
4.67 2.04 0.92 1.17 0.53 0.26 0.36 0.37 0.22 0.27 0.23 0.15 0.32 0.31 0.25 0.18 0.14 0.12 0.14 0.10 0.11 0.10 0.21 0.39 0.24 0.11 0.07 0.07 0.15 0.23 0.21 0.21 0.37 0.43 0.60 0.23 0.32 0.62 1.12 1.16 0.74 0.24 0.10 0.12 0.13
4.40 1.32 0.50 0.18 0.19 0.32 0.48 0.36 0.15 0.15 0.20 0.27 0.40 0.17 0.17 0.21 0.16 0.22 0.28 0.29 0.31 0.31 0.37 0.56 0.42 0.16 0.09 0.03 0.04 0.05 0.05 0.21 0.25 0.22 0.26 0.14 0.37 0.65 0.80 0.90 0.68 0.54 0.29 0.21 0.19
3.30 0.88 0.98 0.78 0.28 0.37 0.31 0.18 0.20 0.22 0.19 0.16 0.25 0.21 0.20 0.29 0.22 0.23 0.20 0.22 0.28 0.37 0.49 0.53 0.70 0.53 0.28 0.09 0.24 0.21 0.05 0.08 0.15 0.23 0.35 0.44 0.37 0.33 0.44 0.59 0.44 0.44 0.37 0.34 0.37

GFSSW_prec_precacc_123.txt.gz
Total_Precipitation_Accumulation
0.03 0.03 0.04 0.03 0.02 0.02 0.01 0.01 0.01 0.01 0.01 0.01 0.01 0.01 0.01 0.01 0.01 0.00 0.00 0.00 0.00 0.00 0.00 0.00 0.00 0.00 0.00 0.00 0.00 0.00 0.00 0.00 0.00 0.03 0.10 0.24 0.18 0.09 0.11 0.18 0.29 0.39 0.68 0.95 0.89
0.03 0.03 0.03 0.03 0.02 0.01 0.01 0.01 0.01 0.01 0.01 0.01 0.01 0.01 0.01 0.01 0.00 0.00 0.00 0.00 0.00 0.00 0.00 0.00 0.00 0.00 0.00 0.00 0.00 0.00 0.00 0.00 0.01 0.02 0.10 0.16 0.21 0.09 0.13 0.42 0.67 0.42 0.82 1.15 1.09
0.03 0.03 0.03 0.03 0.03 0.01 0.01 0.01 0.02 0.02 0.01 0.01 0.01 0.01 0.01 0.00 0.00 0.00 0.00 0.00 0.00 0.00 0.00 0.00 0.00 0.00 0.00 0.00 0.00 0.00 0.00 0.00 0.02 0.10 0.02 0.05 0.08 0.06 0.12 0.57 0.92 0.94 0.74 0.83 0.72
0.02 0.02 0.02 0.04 0.02 0.02 0.01 0.02 0.02 0.02 0.01 0.01 0.01 0.01 0.01 0.00 0.00 0.00 0.00 0.00 0.00 0.00 0.00 0.00 0.00 0.00 0.00 0.00 0.00 0.00 0.00 0.00 0.01 0.05 0.01 0.04 0.06 0.04 0.21 0.45 0.36 0.38 0.38 0.31 0.40
0.03 0.02 0.02 0.03 0.03 0.04 0.03 0.03 0.02 0.02 0.02 0.01 0.01 0.02 0.00 0.00 0.00 0.00 0.00 0.00 0.00 0.00 0.00 0.00 0.00 0.00 0.00 0.00 0.00 0.00 0.00 0.00 0.00 0.00 0.03 0.01 0.02 0.04 0.04 0.10 0.04 0.11 0.19 0.28 0.41
0.05 0.04 0.04 0.04 0.05 0.06 0.04 0.03 0.02 0.03 0.02 0.02 0.01 0.02 0.00 0.00 0.00 0.00 0.00 0.00 0.00 0.00 0.00 0.00 0.00 0.00 0.00 0.00 0.00 0.00 0.00 0.00 0.00 0.00 0.01 0.02 0.02 0.06 0.21 0.06 0.02 0.06 0.22 0.38 0.35
0.11 0.10 0.08 0.09 0.08 0.08 0.07 0.04 0.03 0.04 0.03 0.02 0.02 0.02 0.00 0.00 0.00 0.00 0.00 0.00 0.00 0.00 0.00 0.00 0.00 0.00 0.00 0.00 0.00 0.00 0.00 0.00 0.00 0.00 0.02 0.07 0.12 0.13 0.13 0.01 0.01 0.03 0.10 0.11 0.17
0.16 0.15 0.13 0.12 0.12 0.12 0.12 0.08 0.07 0.07 0.05 0.04 0.02 0.02 0.00 0.00 0.00 0.00 0.00 0.00 0.00 0.00 0.00 0.00 0.00 0.00 0.00 0.00 0.00 0.00 0.00 0.01 0.01 0.00 0.01 0.12 0.46 0.07 0.08 0.08 0.04 0.03 0.07 0.06 0.02
0.20 0.17 0.15 0.13 0.13 0.15 0.14 0.13 0.13 0.11 0.07 0.03 0.02 0.01 0.00 0.00 0.00 0.00 0.00 0.00 0.00 0.00 0.00 0.00 0.00 0.00 0.00 0.00 0.00 0.00 0.00 0.00 0.01 0.01 0.01 0.10 0.45 0.09 0.08 0.22 0.09 0.04 0.01 0.00 0.00
0.22 0.19 0.16 0.15 0.17 0.19 0.17 0.17 0.16 0.08 0.04 0.02 0.04 0.01 0.00 0.00 0.00 0.00 0.00 0.00 0.00 0.00 0.00 0.00 0.00 0.00 0.00 0.00 0.01 0.00 0.00 0.00 0.00 0.00 0.00 0.01 0.12 0.23 0.06 0.09 0.30 0.05 0.02 0.00 0.00
0.16 0.14 0.13 0.16 0.19 0.23 0.19 0.15 0.12 0.09 0.04 0.01 0.01 0.00 0.00 0.00 0.00 0.00 0.00 0.00 0.00 0.01 0.00 0.00 0.00 0.00 0.00 0.00 0.00 0.00 0.00 0.00 0.00 0.00 0.00 0.00 0.02 0.10 0.15 0.04 0.06 0.04 0.14 0.05 0.01
0.15 0.12 0.10 0.15 0.18 0.13 0.06 0.06 0.04 0.08 0.07 0.02 0.02 0.02 0.00 0.00 0.01 0.00 0.00 0.00 0.01 0.05 0.03 0.01 0.01 0.00 0.00 0.00 0.00 0.00 0.00 0.00 0.00 0.00 0.00 0.00 0.00 0.02 0.07 0.01 0.01 0.01 0.14 0.03 0.01
0.15 0.15 0.18 0.26 0.30 0.19 0.04 0.03 0.01 0.01 0.05 0.00 0.00 0.00 0.00 0.02 0.04 0.00 0.00 0.00 0.01 0.04 0.09 0.04 0.01 0.00 0.01 0.03 0.02 0.01 0.00 0.00 0.00 0.00 0.00 0.01 0.01 0.02 0.02 0.02 0.06 0.02 0.00 0.00 0.00
0.33 0.30 0.28 0.31 0.31 0.08 0.12 0.06 0.03 0.02 0.20 0.03 0.00 0.00 0.00 0.00 0.01 0.00 0.00 0.00 0.01 0.03 0.08 0.14 0.02 0.02 0.02 0.02 0.01 0.04 0.00 0.01 0.01 0.02 0.05 0.01 0.08 0.09 0.03 0.01 0.04 0.02 0.01 0.05 0.07
0.46 0.42 0.42 0.29 0.11 0.10 0.08 0.02 0.01 0.07 0.29 0.01 0.00 0.00 0.00 0.00 0.00 0.00 0.00 0.00 0.02 0.02 0.11 0.10 0.04 0.06 0.05 0.02 0.02 0.04 0.01 0.03 0.02 0.02 0.05 0.02 0.06 0.10 0.02 0.01 0.02 0.04 0.03 0.12 0.14
0.52 0.45 0.39 0.29 0.17 0.16 0.16 0.19 0.33 0.55 0.37 0.01 0.00 0.00 0.00 0.00 0.00 0.00 0.00 0.00 0.01 0.17 0.13 0.04 0.06 0.04 0.03 0.01 0.04 0.04 0.05 0.02 0.01 0.06 0.20 0.04 0.05 0.08 0.04 0.07 0.09 0.15 0.14 0.15 0.16
0.69 0.63 0.55 0.33 0.26 0.17 0.16 0.46 0.92 0.56 0.06 0.01 0.00 0.00 0.00 0.00 0.00 0.00 0.00 0.00 0.02 0.08 0.07 0.04 0.07 0.02 0.00 0.01 0.01 0.08 0.21 0.27 0.22 0.16 0.09 0.01 0.09 0.08 0.15 0.28 0.33 0.43 0.57 0.45 0.31
0.64 0.68 0.52 0.36 0.34 0.33 0.55 1.01 0.71 0.08 0.01 0.00 0.00 0.00 0.00 0.00 0.00 0.00 0.00 0.01 0.00 0.00 0.05 0.09 0.06 0.00 0.00 0.00 0.03 0.03 0.11 0.20 0.27 0.17 0.11 0.13 0.20 0.33 0.69 0.47 0.74 0.73 0.85 0.81 0.66
0.43 0.36 0.32 0.22 0.23 0.41 1.05 1.34 0.31 0.05 0.01 0.01 0.04 0.03 0.00 0.00 0.00 0.00 0.00 0.01 0.00 0.00 0.03 0.05 0.03 0.00 0.00 0.00 0.04 0.17 0.17 0.09 0.33 0.26 0.23 0.12 0.05 0.36 0.95 1.29 1.10 1.10 0.93 0.68 0.62
0.50 0.53 0.28 0.18 0.39 1.08 1.64 0.68 0.03 0.01 0.00 0.03 0.13 0.20 0.01 0.01 0.02 0.01 0.02 0.03 0.04 0.02 0.00 0.06 0.13 0.02 0.00 0.01 0.01 0.09 0.23 0.63 0.79 0.50 0.23 0.03 0.27 0.76 0.78 1.15 0.99 0.95 0.87 0.69 0.49
1.06 1.01 0.24 0.29 1.23 2.05 1.56 0.33 0.02 0.01 0.01 0.04 0.05 0.10 0.03 0.02 0.03 0.06 0.09 0.16 0.11 0.09 0.05 0.05 0.10 0.08 0.05 0.03 0.05 0.11 0.32 0.60 0.69 0.32 0.35 0.24 0.84 1.22 1.12 0.89 0.56 0.56 0.51 0.39 0.20
1.95 1.49 0.31 0.60 1.89 1.57 0.56 0.08 0.02 0.03 0.03 0.04 0.04 0.05 0.04 0.02 0.02 0.03 0.04 0.09 0.04 0.07 0.17 0.22 0.23 0.09 0.02 0.00 0.02 0.09 0.17 0.45 0.97 0.78 0.64 0.54 0.87 0.81 0.56 0.40 0.12 0.02 0.04 0.09 0.08
2.55 1.41 1.06 1.35 1.58 0.68 0.23 0.08 0.06 0.03 0.05 0.08 0.05 0.03 0.02 0.02 0.05 0.04 0.04 0.04 0.02 0.07 0.20 0.30 0.50 0.38 0.23 0.19 0.11 0.11 0.17 0.33 0.57 0.72 0.57 0.61 0.59 0.86 0.42 0.13 0.04 0.01 0.04 0.04 0.06
3.36 2.38 2.55 2.10 0.60 0.46 0.54 0.33 0.19 0.09 0.11 0.15 0.09 0.09 0.08 0.09 0.06 0.06 0.04 0.04 0.06 0.08 0.17 0.30 0.23 0.22 0.24 0.28 0.30 0.21 0.15 0.25 0.81 1.18 0.67 0.44 0.30 0.94 1.14 0.60 0.29 0.12 0.08 0.10 0.10
4.81 2.13 0.95 1.23 0.60 0.26 0.36 0.37 0.22 0.27 0.24 0.15 0.33 0.31 0.26 0.19 0.15 0.12 0.14 0.10 0.11 0.10 0.22 0.41 0.25 0.12 0.07 0.08 0.16 0.24 0.21 0.21 0.38 0.43 0.62 0.24 0.33 0.62 1.13 1.17 0.74 0.24 0.10 0.12 0.13
4.53 1.38 0.51 0.19 0.20 0.33 0.49 0.36 0.15 0.15 0.21 0.28 0.40 0.17 0.18 0.22 0.16 0.22 0.28 0.29 0.32 0.31 0.38 0.58 0.44 0.17 0.09 0.04 0.05 0.05 0.05 0.21 0.25 0.22 0.28 0.17 0.41 0.66 0.81 0.91 0.68 0.54 0.29 0.21 0.19
3.52 0.95 0.99 0.78 0.29 0.40 0.34 0.18 0.20 0.22 0.19 0.16 0.25 0.22 0.21 0.29 0.23 0.24 0.20 0.23 0.28 0.38 0.51 0.56 0.71 0.55 0.29 0.09 0.25 0.22 0.05 0.08 0.15 0.23 0.35 0.44 0.37 0.33 0.44 0.59 0.44 0.44 0.37 0.34 0.37

GFSSW_prec_precacc_126.txt.gz
Total_Precipitation_Accumulation
0.03 0.03 0.04 0.03 0.02 0.02 0.01 0.01 0.01 0.01 0.01 0.01 0.01 0.01 0.01 0.01 0.01 0.00 0.00 0.00 0.00 0.00 0.00 0.00 0.00 0.00 0.00 0.00 0.00 0.00 0.00 0.00 0.00 0.03 0.10 0.24 0.18 0.09 0.11 0.18 0.29 0.39 0.68 0.95 0.89
0.03 0.03 0.03 0.03 0.02 0.01 0.01 0.01 0.01 0.01 0.01 0.01 0.01 0.01 0.01 0.01 0.00 0.00 0.00 0.00 0.00 0.00 0.00 0.00 0.00 0.00 0.00 0.00 0.00 0.00 0.00 0.00 0.01 0.02 0.10 0.16 0.21 0.09 0.13 0.42 0.67 0.42 0.82 1.15 1.09
0.03 0.03 0.03 0.03 0.03 0.01 0.01 0.01 0.02 0.02 0.01 0.01 0.01 0.01 0.01 0.00 0.00 0.00 0.00 0.00 0.00 0.00 0.00 0.00 0.00 0.00 0.00 0.00 0.00 0.00 0.00 0.00 0.02 0.10 0.02 0.05 0.08 0.06 0.12 0.57 0.92 0.94 0.74 0.83 0.72
0.02 0.02 0.02 0.04 0.02 0.02 0.01 0.02 0.02 0.02 0.01 0.01 0.01 0.01 0.01 0.00 0.00 0.00 0.00 0.00 0.00 0.00 0.00 0.00 0.00 0.00 0.00 0.00 0.00 0.00 0.00 0.00 0.01 0.05 0.01 0.04 0.06 0.04 0.21 0.45 0.36 0.38 0.38 0.31 0.40
0.03 0.02 0.02 0.03 0.03 0.04 0.03 0.03 0.02 0.02 0.02 0.01 0.01 0.02 0.00 0.00 0.00 0.00 0.00 0.00 0.00 0.00 0.00 0.00 0.00 0.00 0.00 0.00 0.00 0.00 0.00 0.00 0.00 0.00 0.03 0.01 0.02 0.04 0.04 0.10 0.04 0.11 0.19 0.28 0.41
0.05 0.04 0.04 0.04 0.05 0.06 0.04 0.03 0.02 0.03 0.02 0.02 0.01 0.02 0.00 0.00 0.00 0.00 0.00 0.00 0.00 0.00 0.00 0.00 0.00 0.00 0.00 0.00 0.00 0.00 0.00 0.00 0.00 0.00 0.01 0.02 0.02 0.06 0.21 0.06 0.02 0.06 0.22 0.38 0.35
0.11 0.10 0.08 0.09 0.08 0.08 0.07 0.04 0.03 0.04 0.03 0.02 0.02 0.02 0.00 0.00 0.00 0.00 0.00 0.00 0.00 0.00 0.00 0.00 0.00 0.00 0.00 0.00 0.00 0.00 0.00 0.00 0.00 0.00 0.02 0.07 0.12 0.13 0.13 0.01 0.01 0.03 0.10 0.11 0.17
0.16 0.15 0.13 0.12 0.12 0.12 0.12 0.08 0.07 0.07 0.05 0.04 0.02 0.02 0.00 0.00 0.00 0.00 0.00 0.00 0.00 0.00 0.00 0.00 0.00 0.00 0.00 0.00 0.00 0.00 0.00 0.01 0.01 0.00 0.01 0.12 0.46 0.07 0.08 0.08 0.04 0.03 0.07 0.06 0.02
0.20 0.17 0.15 0.13 0.13 0.15 0.14 0.13 0.13 0.11 0.07 0.03 0.02 0.01 0.00 0.00 0.00 0.00 0.00 0.00 0.00 0.00 0.00 0.00 0.00 0.00 0.00 0.00 0.00 0.00 0.00 0.00 0.01 0.01 0.01 0.10 0.45 0.09 0.08 0.22 0.09 0.04 0.01 0.00 0.00
0.22 0.19 0.16 0.15 0.17 0.19 0.17 0.17 0.16 0.08 0.04 0.02 0.04 0.01 0.00 0.00 0.00 0.00 0.00 0.00 0.00 0.00 0.00 0.00 0.00 0.00 0.00 0.00 0.01 0.00 0.00 0.00 0.00 0.00 0.00 0.01 0.12 0.23 0.06 0.09 0.30 0.05 0.02 0.00 0.00
0.16 0.14 0.13 0.16 0.19 0.23 0.19 0.15 0.12 0.09 0.04 0.01 0.01 0.00 0.00 0.00 0.00 0.00 0.00 0.00 0.00 0.01 0.00 0.00 0.00 0.00 0.00 0.00 0.00 0.00 0.00 0.00 0.00 0.00 0.00 0.00 0.02 0.10 0.15 0.04 0.06 0.04 0.14 0.05 0.01
0.15 0.12 0.10 0.15 0.18 0.13 0.06 0.06 0.04 0.08 0.07 0.02 0.02 0.02 0.00 0.00 0.01 0.00 0.00 0.00 0.01 0.05 0.03 0.01 0.01 0.00 0.00 0.00 0.00 0.00 0.00 0.00 0.00 0.00 0.00 0.00 0.00 0.02 0.07 0.01 0.01 0.01 0.14 0.03 0.01
0.15 0.15 0.18 0.26 0.30 0.19 0.04 0.03 0.01 0.01 0.05 0.00 0.00 0.00 0.00 0.02 0.04 0.00 0.00 0.00 0.01 0.04 0.09 0.04 0.01 0.00 0.01 0.03 0.02 0.01 0.00 0.00 0.00 0.00 0.00 0.01 0.01 0.02 0.02 0.02 0.06 0.02 0.00 0.00 0.00
0.34 0.30 0.28 0.31 0.31 0.08 0.13 0.06 0.03 0.02 0.20 0.03 0.00 0.00 0.00 0.00 0.01 0.00 0.00 0.00 0.01 0.03 0.08 0.14 0.02 0.02 0.02 0.02 0.01 0.04 0.00 0.01 0.01 0.02 0.05 0.01 0.08 0.09 0.03 0.01 0.04 0.02 0.01 0.05 0.07
0.46 0.42 0.42 0.29 0.11 0.10 0.08 0.02 0.01 0.07 0.29 0.01 0.00 0.00 0.00 0.00 0.00 0.00 0.00 0.00 0.02 0.02 0.11 0.10 0.04 0.06 0.05 0.02 0.02 0.04 0.01 0.03 0.02 0.02 0.05 0.02 0.06 0.10 0.02 0.01 0.02 0.04 0.04 0.12 0.14
0.52 0.45 0.39 0.30 0.18 0.16 0.16 0.19 0.33 0.55 0.37 0.01 0.00 0.00 0.00 0.00 0.00 0.00 0.00 0.00 0.01 0.17 0.13 0.04 0.06 0.04 0.03 0.01 0.04 0.04 0.05 0.02 0.01 0.06 0.20 0.04 0.05 0.08 0.04 0.07 0.09 0.15 0.14 0.15 0.17
0.69 0.63 0.55 0.33 0.26 0.17 0.16 0.47 0.93 0.56 0.06 0.01 0.00 0.00 0.00 0.00 0.00 0.00 0.00 0.00 0.02 0.08 0.07 0.04 0.07 0.02 0.00 0.01 0.01 0.08 0.21 0.27 0.22 0.16 0.10 0.01 0.09 0.08 0.15 0.28 0.33 0.43 0.57 0.45 0.31
0.64 0.68 0.52 0.36 0.34 0.33 0.57 1.03 0.72 0.09 0.01 0.00 0.00 0.00 0.00 0.00 0.00 0.00 0.00 0.01 0.00 0.00 0.05 0.09 0.06 0.00 0.00 0.00 0.03 0.03 0.11 0.20 0.27 0.17 0.11 0.13 0.20 0.33 0.69 0.47 0.74 0.73 0.85 0.81 0.66
0.45 0.37 0.32 0.22 0.23 0.43 1.09 1.35 0.31 0.05 0.01 0.01 0.04 0.03 0.00 0.00 0.00 0.00 0.00 0.01 0.00 0.00 0.03 0.05 0.03 0.00 0.00 0.00 0.04 0.17 0.17 0.09 0.33 0.26 0.24 0.12 0.05 0.36 0.95 1.29 1.10 1.10 0.93 0.68 0.62
0.68 0.57 0.29 0.18 0.40 1.10 1.73 0.70 0.03 0.01 0.00 0.03 0.13 0.20 0.01 0.01 0.02 0.01 0.02 0.03 0.04 0.02 0.00 0.06 0.13 0.02 0.00 0.01 0.01 0.09 0.23 0.63 0.81 0.51 0.24 0.03 0.27 0.76 0.78 1.15 0.99 0.96 0.87 0.70 0.49
1.29 1.12 0.25 0.30 1.25 2.11 1.64 0.33 0.02 0.01 0.01 0.04 0.05 0.10 0.03 0.02 0.03 0.06 0.09 0.16 0.11 0.09 0.05 0.05 0.10 0.08 0.05 0.03 0.05 0.11 0.33 0.61 0.71 0.33 0.36 0.25 0.84 1.22 1.12 0.89 0.56 0.56 0.51 0.39 0.20
2.15 1.56 0.33 0.62 1.92 1.62 0.59 0.09 0.02 0.03 0.03 0.04 0.04 0.05 0.04 0.02 0.02 0.03 0.04 0.09 0.04 0.07 0.17 0.22 0.23 0.10 0.02 0.00 0.02 0.09 0.17 0.47 1.00 0.80 0.66 0.59 0.89 0.81 0.56 0.40 0.12 0.02 0.04 0.09 0.08
2.72 1.44 1.11 1.40 1.60 0.69 0.23 0.08 0.06 0.03 0.05 0.08 0.05 0.03 0.02 0.02 0.05 0.04 0.04 0.04 0.02 0.07 0.20 0.31 0.52 0.41 0.25 0.21 0.12 0.12 0.18 0.35 0.61 0.79 0.64 0.69 0.60 0.86 0.42 0.13 0.04 0.01 0.04 0.04 0.06
3.50 2.50 2.67 2.19 0.62 0.46 0.54 0.33 0.19 0.09 0.12 0.15 0.09 0.09 0.08 0.09 0.06 0.06 0.04 0.04 0.06 0.08 0.17 0.33 0.25 0.24 0.25 0.30 0.33 0.25 0.18 0.30 0.87 1.24 0.70 0.45 0.31 0.94 1.14 0.60 0.30 0.12 0.08 0.10 0.10
5.05 2.27 1.02 1.35 0.64 0.27 0.37 0.37 0.22 0.27 0.24 0.16 0.33 0.31 0.26 0.19 0.15 0.12 0.14 0.10 0.11 0.10 0.22 0.42 0.25 0.12 0.07 0.08 0.17 0.25 0.22 0.22 0.40 0.46 0.67 0.25 0.33 0.62 1.13 1.17 0.75 0.26 0.12 0.12 0.13
4.73 1.47 0.54 0.19 0.20 0.34 0.51 0.37 0.15 0.15 0.21 0.29 0.40 0.17 0.19 0.22 0.16 0.22 0.29 0.31 0.33 0.32 0.40 0.60 0.45 0.18 0.10 0.04 0.06 0.06 0.05 0.21 0.26 0.22 0.29 0.18 0.41 0.66 0.81 0.92 0.70 0.55 0.30 0.21 0.19
3.70 0.97 0.99 0.79 0.30 0.43 0.36 0.18 0.20 0.22 0.19 0.17 0.26 0.26 0.24 0.31 0.27 0.28 0.25 0.26 0.31 0.40 0.54 0.58 0.73 0.57 0.31 0.10 0.27 0.26 0.05 0.08 0.15 0.23 0.35 0.44 0.37 0.33 0.44 0.59 0.44 0.44 0.37 0.34 0.37

GFSSW_prec_precacc_129.txt.gz
Total_Precipitation_Accumulation
0.03 0.03 0.04 0.03 0.02 0.02 0.01 0.01 0.01 0.01 0.01 0.01 0.01 0.01 0.01 0.01 0.01 0.00 0.00 0.00 0.00 0.00 0.00 0.00 0.00 0.00 0.00 0.00 0.00 0.00 0.00 0.00 0.00 0.03 0.10 0.24 0.18 0.09 0.11 0.18 0.29 0.39 0.68 0.95 0.89
0.03 0.03 0.03 0.03 0.02 0.01 0.01 0.01 0.01 0.01 0.01 0.01 0.01 0.01 0.01 0.01 0.00 0.00 0.00 0.00 0.00 0.00 0.00 0.00 0.00 0.00 0.00 0.00 0.00 0.00 0.00 0.00 0.01 0.02 0.10 0.16 0.21 0.09 0.13 0.42 0.67 0.42 0.82 1.15 1.09
0.03 0.03 0.03 0.03 0.03 0.01 0.01 0.01 0.02 0.02 0.01 0.01 0.01 0.01 0.01 0.00 0.00 0.00 0.00 0.00 0.00 0.00 0.00 0.00 0.00 0.00 0.00 0.00 0.00 0.00 0.00 0.00 0.02 0.10 0.02 0.05 0.08 0.06 0.12 0.57 0.92 0.94 0.74 0.83 0.72
0.02 0.02 0.02 0.04 0.02 0.02 0.01 0.02 0.02 0.02 0.01 0.01 0.01 0.01 0.01 0.00 0.00 0.00 0.00 0.00 0.00 0.00 0.00 0.00 0.00 0.00 0.00 0.00 0.00 0.00 0.00 0.00 0.01 0.05 0.01 0.04 0.06 0.04 0.21 0.45 0.36 0.38 0.38 0.31 0.40
0.03 0.02 0.02 0.03 0.03 0.04 0.03 0.03 0.02 0.02 0.02 0.01 0.01 0.02 0.00 0.00 0.00 0.00 0.00 0.00 0.00 0.00 0.00 0.00 0.00 0.00 0.00 0.00 0.00 0.00 0.00 0.00 0.00 0.00 0.03 0.01 0.02 0.04 0.04 0.10 0.04 0.11 0.19 0.28 0.41
0.05 0.04 0.04 0.04 0.05 0.06 0.04 0.03 0.02 0.03 0.02 0.02 0.01 0.02 0.00 0.00 0.00 0.00 0.00 0.00 0.00 0.00 0.00 0.00 0.00 0.00 0.00 0.00 0.00 0.00 0.00 0.00 0.00 0.00 0.01 0.02 0.02 0.06 0.21 0.06 0.02 0.06 0.22 0.38 0.35
0.11 0.10 0.08 0.09 0.08 0.08 0.07 0.04 0.03 0.04 0.03 0.02 0.02 0.02 0.00 0.00 0.00 0.00 0.00 0.00 0.00 0.00 0.00 0.00 0.00 0.00 0.00 0.00 0.00 0.00 0.00 0.00 0.00 0.00 0.02 0.07 0.12 0.13 0.13 0.01 0.01 0.03 0.10 0.11 0.17
0.17 0.15 0.13 0.12 0.12 0.12 0.12 0.08 0.07 0.07 0.05 0.04 0.02 0.02 0.00 0.00 0.00 0.00 0.00 0.00 0.00 0.00 0.00 0.00 0.00 0.00 0.00 0.00 0.00 0.00 0.00 0.01 0.01 0.00 0.01 0.12 0.46 0.07 0.08 0.08 0.04 0.03 0.07 0.06 0.02
0.22 0.18 0.15 0.13 0.13 0.15 0.14 0.13 0.13 0.11 0.07 0.03 0.02 0.01 0.00 0.00 0.00 0.00 0.00 0.00 0.00 0.00 0.00 0.00 0.00 0.00 0.00 0.00 0.00 0.00 0.00 0.00 0.01 0.01 0.01 0.10 0.45 0.09 0.08 0.22 0.09 0.04 0.01 0.00 0.00
0.23 0.20 0.16 0.15 0.17 0.19 0.17 0.17 0.16 0.08 0.04 0.02 0.04 0.01 0.00 0.00 0.00 0.00 0.00 0.00 0.00 0.00 0.00 0.00 0.00 0.00 0.00 0.00 0.01 0.00 0.00 0.00 0.00 0.00 0.00 0.01 0.12 0.23 0.06 0.09 0.30 0.05 0.02 0.00 0.00
0.17 0.14 0.13 0.16 0.19 0.23 0.19 0.15 0.12 0.09 0.04 0.01 0.01 0.00 0.00 0.00 0.00 0.00 0.00 0.00 0.00 0.01 0.00 0.00 0.00 0.00 0.00 0.00 0.00 0.00 0.00 0.00 0.00 0.00 0.00 0.00 0.02 0.10 0.15 0.04 0.06 0.04 0.14 0.05 0.01
0.15 0.12 0.10 0.15 0.18 0.13 0.06 0.06 0.04 0.08 0.07 0.02 0.02 0.02 0.00 0.00 0.01 0.00 0.00 0.00 0.01 0.05 0.03 0.01 0.01 0.00 0.00 0.00 0.00 0.00 0.00 0.00 0.00 0.00 0.00 0.00 0.00 0.02 0.07 0.01 0.01 0.01 0.14 0.03 0.01
0.15 0.15 0.18 0.26 0.30 0.19 0.04 0.03 0.01 0.01 0.05 0.00 0.00 0.00 0.00 0.02 0.04 0.00 0.00 0.00 0.01 0.04 0.09 0.04 0.01 0.00 0.01 0.03 0.02 0.01 0.00 0.00 0.00 0.00 0.00 0.01 0.01 0.02 0.02 0.02 0.06 0.02 0.00 0.00 0.00
0.34 0.30 0.28 0.31 0.31 0.08 0.13 0.06 0.03 0.02 0.20 0.03 0.00 0.00 0.00 0.00 0.01 0.00 0.00 0.00 0.01 0.03 0.08 0.14 0.02 0.02 0.02 0.02 0.01 0.04 0.00 0.01 0.01 0.02 0.05 0.01 0.08 0.09 0.03 0.01 0.04 0.02 0.01 0.05 0.07
0.46 0.42 0.42 0.29 0.12 0.10 0.08 0.02 0.01 0.07 0.30 0.01 0.00 0.00 0.00 0.00 0.00 0.00 0.00 0.00 0.02 0.02 0.11 0.10 0.04 0.06 0.05 0.02 0.02 0.04 0.01 0.03 0.02 0.02 0.05 0.02 0.06 0.10 0.02 0.01 0.02 0.04 0.04 0.12 0.14
0.52 0.45 0.39 0.31 0.19 0.16 0.16 0.19 0.34 0.55 0.38 0.01 0.00 0.00 0.00 0.00 0.00 0.00 0.00 0.00 0.01 0.17 0.13 0.04 0.06 0.04 0.03 0.01 0.04 0.04 0.05 0.02 0.01 0.06 0.20 0.04 0.05 0.08 0.04 0.07 0.09 0.15 0.14 0.15 0.17
0.70 0.63 0.55 0.33 0.26 0.18 0.18 0.48 0.94 0.57 0.07 0.01 0.00 0.00 0.00 0.00 0.00 0.00 0.00 0.00 0.02 0.08 0.07 0.04 0.07 0.02 0.00 0.01 0.01 0.08 0.21 0.27 0.22 0.16 0.10 0.01 0.09 0.08 0.15 0.28 0.33 0.43 0.57 0.45 0.31
0.67 0.69 0.52 0.36 0.34 0.35 0.63 1.07 0.75 0.10 0.01 0.00 0.00 0.00 0.00 0.00 0.00 0.00 0.00 0.01 0.00 0.00 0.05 0.09 0.06 0.00 0.00 0.00 0.03 0.03 0.11 0.20 0.27 0.17 0.11 0.13 0.20 0.33 0.69 0.47 0.74 0.73 0.85 0.81 0.66
0.50 0.41 0.33 0.23 0.23 0.47 1.16 1.46 0.32 0.05 0.01 0.01 0.04 0.03 0.00 0.00 0.00 0.00 0.00 0.01 0.00 0.00 0.03 0.05 0.03 0.00 0.00 0.00 0.04 0.17 0.17 0.09 0.33 0.26 0.24 0.12 0.05 0.36 0.95 1.29 1.10 1.10 0.93 0.68 0.62
1.01 0.68 0.31 0.19 0.40 1.15 1.82 0.76 0.03 0.01 0.00 0.03 0.13 0.20 0.01 0.01 0.02 0.01 0.02 0.03 0.04 0.02 0.00 0.06 0.13 0.02 0.00 0.01 0.01 0.09 0.23 0.63 0.81 0.51 0.24 0.03 0.27 0.76 0.78 1.15 0.99 0.96 0.87 0.70 0.49
2.03 1.74 0.47 0.34 1.27 2.18 1.76 0.37 0.02 0.01 0.01 0.04 0.05 0.10 0.03 0.02 0.03 0.06 0.09 0.16 0.11 0.09 0.05 0.05 0.10 0.08 0.05 0.03 0.05 0.11 0.33 0.61 0.72 0.33 0.36 0.25 0.84 1.22 1.12 0.89 0.56 0.56 0.51 0.39 0.20
3.00 2.14 0.55 0.74 1.98 1.70 0.65 0.09 0.02 0.03 0.03 0.04 0.04 0.05 0.04 0.02 0.02 0.03 0.04 0.09 0.04 0.07 0.17 0.22 0.23 0.10 0.02 0.00 0.02 0.09 0.17 0.47 1.01 0.81 0.67 0.60 0.89 0.81 0.56 0.40 0.12 0.02 0.04 0.09 0.08
3.54 1.93 1.31 1.55 1.74 0.72 0.23 0.08 0.06 0.03 0.05 0.08 0.05 0.03 0.02 0.02 0.05 0.04 0.04 0.04 0.02 0.07 0.20 0.32 0.53 0.41 0.25 0.22 0.13 0.12 0.18 0.35 0.62 0.82 0.66 0.74 0.62 0.86 0.42 0.13 0.04 0.01 0.04 0.04 0.06
4.20 3.01 3.13 2.49 0.72 0.46 0.54 0.33 0.19 0.09 0.13 0.15 0.10 0.10 0.08 0.09 0.06 0.06 0.04 0.04 0.06 0.08 0.17 0.33 0.25 0.25 0.26 0.31 0.37 0.29 0.20 0.32 0.90 1.31 0.75 0.48 0.32 0.94 1.14 0.61 0.30 0.12 0.08 0.10 0.10
5.64 2.66 1.32 1.63 0.74 0.28 0.37 0.37 0.22 0.27 0.25 0.17 0.36 0.32 0.26 0.19 0.15 0.12 0.14 0.10 0.11 0.10 0.22 0.43 0.26 0.13 0.07 0.08 0.19 0.27 0.24 0.23 0.43 0.50 0.73 0.28 0.35 0.62 1.13 1.18 0.76 0.26 0.12 0.12 0.14
5.18 1.71 0.71 0.22 0.21 0.34 0.52 0.37 0.15 0.15 0.22 0.29 0.41 0.17 0.19 0.23 0.16 0.22 0.30 0.32 0.33 0.33 0.40 0.61 0.46 0.18 0.10 0.04 0.06 0.06 0.05 0.21 0.26 0.22 0.29 0.18 0.42 0.66 0.81 0.92 0.70 0.55 0.30 0.21 0.19
4.15 1.18 1.09 0.85 0.31 0.45 0.37 0.18 0.20 0.23 0.20 0.17 0.27 0.28 0.25 0.31 0.29 0.29 0.27 0.28 0.33 0.43 0.58 0.62 0.76 0.60 0.32 0.10 0.28 0.28 0.05 0.08 0.15 0.23 0.35 0.44 0.37 0.33 0.44 0.59 0.44 0.44 0.37 0.34 0.37

GFSSW_prec_precacc_132.txt.gz
Total_Precipitation_Accumulation
0.03 0.03 0.04 0.03 0.02 0.02 0.01 0.01 0.01 0.01 0.01 0.01 0.01 0.01 0.01 0.01 0.01 0.00 0.00 0.00 0.00 0.00 0.00 0.00 0.00 0.00 0.00 0.00 0.00 0.00 0.00 0.00 0.00 0.03 0.10 0.24 0.18 0.09 0.11 0.18 0.29 0.39 0.68 0.95 0.89
0.03 0.03 0.03 0.03 0.02 0.01 0.01 0.01 0.01 0.01 0.01 0.01 0.01 0.01 0.01 0.01 0.00 0.00 0.00 0.00 0.00 0.00 0.00 0.00 0.00 0.00 0.00 0.00 0.00 0.00 0.00 0.00 0.01 0.02 0.10 0.16 0.21 0.09 0.13 0.42 0.67 0.42 0.82 1.15 1.09
0.03 0.03 0.03 0.03 0.03 0.01 0.01 0.01 0.02 0.02 0.01 0.01 0.01 0.01 0.01 0.00 0.00 0.00 0.00 0.00 0.00 0.00 0.00 0.00 0.00 0.00 0.00 0.00 0.00 0.00 0.00 0.00 0.02 0.10 0.02 0.05 0.08 0.06 0.12 0.57 0.92 0.94 0.74 0.83 0.72
0.02 0.02 0.02 0.04 0.02 0.02 0.01 0.02 0.02 0.02 0.01 0.01 0.01 0.01 0.01 0.00 0.00 0.00 0.00 0.00 0.00 0.00 0.00 0.00 0.00 0.00 0.00 0.00 0.00 0.00 0.00 0.00 0.01 0.05 0.01 0.04 0.06 0.04 0.21 0.45 0.36 0.38 0.38 0.31 0.40
0.04 0.03 0.03 0.03 0.03 0.04 0.03 0.03 0.02 0.02 0.02 0.01 0.01 0.02 0.00 0.00 0.00 0.00 0.00 0.00 0.00 0.00 0.00 0.00 0.00 0.00 0.00 0.00 0.00 0.00 0.00 0.00 0.00 0.00 0.03 0.01 0.02 0.04 0.04 0.10 0.04 0.11 0.19 0.28 0.41
0.06 0.05 0.04 0.04 0.05 0.06 0.04 0.03 0.02 0.03 0.02 0.02 0.01 0.02 0.00 0.00 0.00 0.00 0.00 0.00 0.00 0.00 0.00 0.00 0.00 0.00 0.00 0.00 0.00 0.00 0.00 0.00 0.00 0.00 0.01 0.02 0.02 0.06 0.21 0.06 0.02 0.06 0.22 0.38 0.35
0.13 0.11 0.09 0.09 0.08 0.08 0.07 0.04 0.03 0.04 0.03 0.02 0.02 0.02 0.00 0.00 0.00 0.00 0.00 0.00 0.00 0.00 0.00 0.00 0.00 0.00 0.00 0.00 0.00 0.00 0.00 0.00 0.00 0.00 0.02 0.07 0.12 0.13 0.13 0.01 0.01 0.03 0.10 0.11 0.17
0.23 0.17 0.14 0.12 0.12 0.12 0.12 0.08 0.07 0.07 0.05 0.04 0.02 0.02 0.00 0.00 0.00 0.00 0.00 0.00 0.00 0.00 0.00 0.00 0.00 0.00 0.00 0.00 0.00 0.00 0.00 0.01 0.01 0.00 0.01 0.12 0.46 0.07 0.08 0.08 0.04 0.03 0.07 0.06 0.02
0.30 0.23 0.17 0.14 0.14 0.15 0.14 0.13 0.13 0.11 0.07 0.03 0.02 0.01 0.00 0.00 0.00 0.00 0.00 0.00 0.00 0.00 0.00 0.00 0.00 0.00 0.00 0.00 0.00 0.00 0.00 0.00 0.01 0.01 0.01 0.10 0.45 0.09 0.08 0.22 0.09 0.04 0.01 0.00 0.00
0.26 0.21 0.17 0.16 0.17 0.19 0.17 0.17 0.16 0.08 0.04 0.02 0.04 0.01 0.00 0.00 0.00 0.00 0.00 0.00 0.00 0.00 0.00 0.00 0.00 0.00 0.00 0.00 0.01 0.00 0.00 0.00 0.00 0.00 0.00 0.01 0.12 0.23 0.06 0.09 0.30 0.05 0.02 0.00 0.00
0.18 0.15 0.14 0.16 0.20 0.23 0.19 0.15 0.12 0.09 0.04 0.01 0.01 0.00 0.00 0.00 0.00 0.00 0.00 0.00 0.00 0.01 0.00 0.00 0.00 0.00 0.00 0.00 0.00 0.00 0.00 0.00 0.00 0.00 0.00 0.00 0.02 0.10 0.15 0.04 0.06 0.04 0.14 0.05 0.01
0.16 0.12 0.11 0.15 0.18 0.13 0.06 0.06 0.04 0.08 0.07 0.02 0.02 0.02 0.00 0.00 0.01 0.00 0.00 0.00 0.01 0.05 0.03 0.01 0.01 0.00 0.00 0.00 0.00 0.00 0.00 0.00 0.00 0.00 0.00 0.00 0.00 0.02 0.07 0.01 0.01 0.01 0.14 0.03 0.01
0.17 0.16 0.18 0.26 0.30 0.19 0.04 0.03 0.01 0.01 0.05 0.00 0.00 0.00 0.00 0.02 0.04 0.00 0.00 0.00 0.01 0.04 0.09 0.04 0.01 0.00 0.01 0.03 0.02 0.01 0.00 0.00 0.00 0.00 0.00 0.01 0.01 0.02 0.02 0.02 0.06 0.02 0.00 0.00 0.00
0.37 0.32 0.30 0.32 0.32 0.08 0.13 0.06 0.03 0.02 0.21 0.03 0.00 0.00 0.00 0.00 0.01 0.00 0.00 0.00 0.01 0.03 0.08 0.14 0.02 0.02 0.02 0.02 0.01 0.04 0.00 0.01 0.01 0.02 0.05 0.01 0.08 0.09 0.03 0.01 0.04 0.02 0.01 0.05 0.07
0.53 0.44 0.43 0.29 0.12 0.10 0.08 0.02 0.01 0.08 0.39 0.01 0.00 0.00 0.00 0.00 0.00 0.00 0.00 0.00 0.02 0.02 0.11 0.10 0.04 0.06 0.05 0.02 0.02 0.04 0.01 0.03 0.02 0.02 0.05 0.02 0.06 0.10 0.02 0.01 0.02 0.04 0.04 0.12 0.14
0.59 0.48 0.41 0.31 0.19 0.16 0.16 0.20 0.35 0.61 0.45 0.01 0.00 0.00 0.00 0.00 0.00 0.00 0.00 0.00 0.01 0.17 0.13 0.04 0.06 0.04 0.03 0.01 0.04 0.04 0.05 0.02 0.01 0.06 0.20 0.04 0.05 0.08 0.04 0.07 0.09 0.15 0.14 0.15 0.17
0.81 0.68 0.57 0.33 0.27 0.19 0.20 0.51 0.98 0.63 0.07 0.01 0.00 0.00 0.00 0.00 0.00 0.00 0.00 0.00 0.02 0.08 0.07 0.04 0.07 0.02 0.00 0.01 0.01 0.08 0.21 0.27 0.22 0.16 0.10 0.01 0.09 0.08 0.15 0.28 0.33 0.43 0.57 0.45 0.31
0.86 0.84 0.57 0.37 0.34 0.38 0.72 1.14 0.79 0.10 0.01 0.00 0.00 0.00 0.00 0.00 0.00 0.00 0.00 0.01 0.00 0.00 0.05 0.09 0.06 0.00 0.00 0.00 0.03 0.03 0.11 0.20 0.27 0.17 0.11 0.13 0.20 0.33 0.69 0.47 0.74 0.73 0.85 0.81 0.66
0.82 0.73 0.46 0.26 0.23 0.51 1.26 1.63 0.35 0.05 0.01 0.01 0.04 0.03 0.00 0.00 0.00 0.00 0.00 0.01 0.00 0.00 0.03 0.05 0.03 0.00 0.00 0.00 0.04 0.17 0.17 0.09 0.33 0.26 0.24 0.12 0.05 0.36 0.95 1.29 1.10 1.10 0.93 0.68 0.62
1.31 1.15 0.63 0.20 0.42 1.21 2.00 0.92 0.04 0.01 0.00 0.03 0.13 0.20 0.01 0.01 0.02 0.01 0.02 0.03 0.04 0.02 0.00 0.06 0.13 0.02 0.00 0.01 0.01 0.09 0.23 0.63 0.81 0.51 0.24 0.03 0.27 0.76 0.78 1.15 0.99 0.96 0.87 0.70 0.49
2.34 2.35 0.86 0.37 1.34 2.29 2.01 0.48 0.02 0.01 0.01 0.04 0.05 0.10 0.03 0.02 0.03 0.06 0.09 0.16 0.11 0.09 0.05 0.05 0.10 0.08 0.05 0.03 0.05 0.11 0.33 0.61 0.72 0.33 0.36 0.25 0.84 1.22 1.12 0.89 0.56 0.56 0.51 0.39 0.20
3.32 2.63 0.74 0.85 2.30 1.98 0.75 0.10 0.02 0.03 0.03 0.04 0.04 0.05 0.04 0.02 0.02 0.03 0.04 0.09 0.04 0.07 0.17 0.22 0.23 0.10 0.02 0.00 0.02 0.09 0.17 0.47 1.01 0.81 0.67 0.60 0.90 0.81 0.56 0.40 0.12 0.02 0.04 0.09 0.08
3.75 2.27 1.48 1.75 2.30 0.98 0.24 0.08 0.06 0.03 0.06 0.09 0.06 0.03 0.02 0.02 0.05 0.04 0.05 0.07 0.02 0.07 0.20 0.32 0.53 0.41 0.25 0.22 0.13 0.12 0.18 0.35 0.62 0.83 0.66 0.76 0.62 0.86 0.42 0.13 0.04 0.01 0.04 0.04 0.06
4.32 3.22 3.51 2.97 1.12 0.57 0.55 0.33 0.19 0.09 0.13 0.16 0.10 0.10 0.08 0.09 0.06 0.06 0.07 0.06 0.06 0.08 0.17 0.33 0.25 0.25 0.26 0.31 0.38 0.31 0.21 0.32 0.92 1.34 0.78 0.50 0.32 0.94 1.14 0.62 0.30 0.12 0.09 0.10 0.10
5.80 2.83 1.60 2.13 1.13 0.37 0.37 0.37 0.22 0.27 0.25 0.18 0.40 0.33 0.27 0.20 0.15 0.12 0.15 0.11 0.11 0.10 0.22 0.43 0.26 0.13 0.07 0.08 0.20 0.30 0.26 0.24 0.45 0.53 0.77 0.29 0.37 0.62 1.13 1.20 0.77 0.26 0.12 0.12 0.14
5.32 1.82 0.85 0.43 0.35 0.37 0.53 0.38 0.15 0.15 0.22 0.30 0.42 0.17 0.20 0.25 0.18 0.23 0.30 0.33 0.35 0.33 0.41 0.61 0.46 0.18 0.10 0.04 0.06 0.10 0.08 0.21 0.26 0.23 0.29 0.18 0.42 0.66 0.81 0.92 0.70 0.56 0.30 0.21 0.19
4.23 1.25 1.17 0.97 0.39 0.55 0.42 0.19 0.20 0.23 0.20 0.17 0.27 0.29 0.26 0.32 0.31 0.31 0.28 0.30 0.34 0.43 0.59 0.63 0.77 0.60 0.34 0.10 0.29 0.30 0.05 0.08 0.15 0.23 0.35 0.44 0.37 0.33 0.44 0.59 0.44 0.44 0.39 0.34 0.37

GFSSW_prec_precacc_135.txt.gz
Total_Precipitation_Accumulation
0.03 0.03 0.04 0.03 0.02 0.02 0.01 0.01 0.01 0.01 0.01 0.01 0.01 0.01 0.01 0.01 0.01 0.00 0.00 0.00 0.00 0.00 0.00 0.00 0.00 0.00 0.00 0.00 0.00 0.00 0.00 0.00 0.00 0.03 0.10 0.24 0.18 0.09 0.11 0.18 0.29 0.39 0.68 0.95 0.89
0.03 0.03 0.03 0.03 0.02 0.01 0.01 0.01 0.01 0.01 0.01 0.01 0.01 0.01 0.01 0.01 0.00 0.00 0.00 0.00 0.00 0.00 0.00 0.00 0.00 0.00 0.00 0.00 0.00 0.00 0.00 0.00 0.01 0.02 0.10 0.16 0.21 0.09 0.13 0.42 0.67 0.42 0.82 1.15 1.09
0.03 0.03 0.03 0.03 0.03 0.01 0.01 0.01 0.02 0.02 0.01 0.01 0.01 0.01 0.01 0.00 0.00 0.00 0.00 0.00 0.00 0.00 0.00 0.00 0.00 0.00 0.00 0.00 0.00 0.00 0.00 0.00 0.02 0.10 0.02 0.05 0.08 0.06 0.12 0.57 0.92 0.94 0.74 0.83 0.72
0.02 0.02 0.02 0.04 0.02 0.02 0.01 0.02 0.02 0.02 0.01 0.01 0.01 0.01 0.01 0.00 0.00 0.00 0.00 0.00 0.00 0.00 0.00 0.00 0.00 0.00 0.00 0.00 0.00 0.00 0.00 0.00 0.01 0.05 0.01 0.04 0.06 0.04 0.21 0.45 0.36 0.38 0.38 0.31 0.40
0.04 0.03 0.03 0.04 0.03 0.04 0.03 0.03 0.02 0.02 0.02 0.01 0.01 0.02 0.00 0.00 0.00 0.00 0.00 0.00 0.00 0.00 0.00 0.00 0.00 0.00 0.00 0.00 0.00 0.00 0.00 0.00 0.00 0.00 0.03 0.01 0.02 0.04 0.04 0.10 0.04 0.11 0.19 0.28 0.41
0.10 0.08 0.06 0.05 0.06 0.06 0.04 0.03 0.02 0.03 0.02 0.02 0.01 0.02 0.00 0.00 0.00 0.00 0.00 0.00 0.00 0.00 0.00 0.00 0.00 0.00 0.00 0.00 0.00 0.00 0.00 0.00 0.00 0.00 0.01 0.02 0.02 0.06 0.21 0.06 0.02 0.06 0.22 0.38 0.35
0.35 0.22 0.14 0.11 0.09 0.09 0.07 0.04 0.03 0.04 0.03 0.02 0.02 0.02 0.00 0.00 0.00 0.00 0.00 0.00 0.00 0.00 0.00 0.00 0.00 0.00 0.00 0.00 0.00 0.00 0.00 0.00 0.00 0.00 0.02 0.07 0.12 0.13 0.13 0.01 0.01 0.03 0.10 0.11 0.17
0.49 0.35 0.23 0.17 0.14 0.12 0.12 0.08 0.07 0.07 0.05 0.04 0.02 0.02 0.00 0.00 0.00 0.00 0.00 0.00 0.00 0.00 0.00 0.00 0.00 0.00 0.00 0.00 0.00 0.00 0.00 0.01 0.01 0.00 0.01 0.12 0.46 0.07 0.08 0.08 0.04 0.03 0.07 0.06 0.02
0.42 0.31 0.23 0.17 0.16 0.16 0.14 0.13 0.13 0.11 0.07 0.03 0.02 0.01 0.00 0.00 0.00 0.00 0.00 0.00 0.00 0.00 0.00 0.00 0.00 0.00 0.00 0.00 0.00 0.00 0.00 0.00 0.01 0.01 0.01 0.10 0.45 0.09 0.08 0.22 0.09 0.04 0.01 0.00 0.00
0.38 0.30 0.20 0.17 0.18 0.19 0.17 0.17 0.16 0.08 0.04 0.02 0.04 0.01 0.00 0.00 0.00 0.00 0.00 0.00 0.00 0.00 0.00 0.00 0.00 0.00 0.00 0.00 0.01 0.00 0.00 0.00 0.00 0.00 0.00 0.01 0.12 0.23 0.06 0.09 0.30 0.05 0.02 0.00 0.00
0.26 0.26 0.24 0.23 0.22 0.24 0.19 0.15 0.12 0.09 0.04 0.01 0.01 0.00 0.00 0.00 0.00 0.00 0.00 0.00 0.00 0.01 0.00 0.00 0.00 0.00 0.00 0.00 0.00 0.00 0.00 0.00 0.00 0.00 0.00 0.00 0.02 0.10 0.15 0.04 0.06 0.04 0.14 0.05 0.01
0.18 0.15 0.14 0.18 0.20 0.14 0.07 0.07 0.04 0.08 0.07 0.02 0.02 0.02 0.00 0.00 0.01 0.00 0.00 0.00 0.01 0.05 0.03 0.01 0.01 0.00 0.00 0.00 0.00 0.00 0.00 0.00 0.00 0.00 0.00 0.00 0.00 0.02 0.07 0.01 0.01 0.01 0.14 0.03 0.01
0.20 0.18 0.20 0.27 0.30 0.19 0.04 0.03 0.01 0.01 0.05 0.00 0.00 0.00 0.00 0.02 0.04 0.00 0.00 0.00 0.01 0.04 0.09 0.04 0.01 0.00 0.01 0.03 0.02 0.01 0.00 0.00 0.00 0.00 0.00 0.01 0.01 0.02 0.02 0.02 0.06 0.02 0.00 0.00 0.00
0.38 0.34 0.33 0.35 0.34 0.08 0.13 0.06 0.03 0.02 0.22 0.03 0.00 0.00 0.00 0.00 0.01 0.00 0.00 0.00 0.01 0.03 0.08 0.14 0.02 0.02 0.02 0.02 0.01 0.04 0.00 0.01 0.01 0.02 0.05 0.01 0.08 0.09 0.03 0.01 0.04 0.02 0.01 0.05 0.07
0.55 0.46 0.45 0.30 0.13 0.11 0.08 0.02 0.01 0.09 0.49 0.02 0.00 0.00 0.00 0.00 0.00 0.00 0.00 0.00 0.02 0.02 0.11 0.10 0.04 0.06 0.05 0.02 0.02 0.04 0.01 0.03 0.02 0.02 0.05 0.02 0.06 0.10 0.02 0.01 0.02 0.04 0.04 0.12 0.14
0.70 0.54 0.43 0.32 0.19 0.17 0.17 0.20 0.36 0.67 0.52 0.01 0.00 0.00 0.00 0.00 0.00 0.00 0.00 0.00 0.01 0.17 0.13 0.04 0.06 0.04 0.03 0.01 0.04 0.04 0.05 0.02 0.01 0.06 0.20 0.04 0.05 0.08 0.04 0.07 0.09 0.15 0.14 0.15 0.17
0.89 0.79 0.63 0.33 0.27 0.20 0.21 0.53 1.05 0.71 0.08 0.01 0.00 0.00 0.00 0.00 0.00 0.00 0.00 0.00 0.02 0.08 0.07 0.04 0.07 0.02 0.00 0.01 0.01 0.08 0.21 0.27 0.22 0.16 0.10 0.01 0.09 0.08 0.15 0.28 0.33 0.43 0.57 0.45 0.31
0.88 0.95 0.72 0.41 0.34 0.40 0.79 1.23 0.88 0.11 0.01 0.00 0.00 0.00 0.00 0.00 0.00 0.00 0.00 0.01 0.00 0.00 0.05 0.09 0.06 0.00 0.00 0.00 0.03 0.03 0.11 0.20 0.27 0.17 0.11 0.13 0.20 0.33 0.69 0.47 0.74 0.73 0.85 0.81 0.66
0.82 0.84 0.76 0.36 0.26 0.54 1.57 1.90 0.38 0.05 0.01 0.01 0.04 0.03 0.00 0.00 0.00 0.00 0.00 0.01 0.00 0.00 0.03 0.05 0.03 0.00 0.00 0.00 0.04 0.17 0.17 0.09 0.33 0.26 0.24 0.12 0.05 0.36 0.95 1.29 1.10 1.10 0.93 0.68 0.62
1.31 1.19 0.84 0.30 0.50 1.34 2.34 1.14 0.04 0.01 0.00 0.03 0.13 0.20 0.01 0.01 0.02 0.01 0.02 0.03 0.04 0.02 0.00 0.06 0.13 0.02 0.00 0.01 0.01 0.09 0.23 0.63 0.81 0.51 0.24 0.03 0.27 0.76 0.78 1.15 0.99 0.96 0.87 0.70 0.49
2.34 2.35 0.90 0.39 1.57 2.78 2.46 0.63 0.03 0.01 0.01 0.04 0.05 0.10 0.03 0.02 0.03 0.06 0.09 0.16 0.11 0.09 0.05 0.05 0.10 0.08 0.05 0.03 0.05 0.11 0.33 0.61 0.72 0.33 0.36 0.25 0.84 1.22 1.12 0.89 0.56 0.56 0.51 0.39 0.20
3.33 2.63 0.75 0.91 2.76 2.64 1.02 0.16 0.02 0.03 0.03 0.04 0.04 0.05 0.04 0.02 0.02 0.03 0.04 0.10 0.05 0.07 0.17 0.22 0.23 0.10 0.02 0.00 0.02 0.09 0.17 0.47 1.01 0.81 0.67 0.60 0.90 0.81 0.56 0.40 0.12 0.02 0.04 0.09 0.08
3.75 2.27 1.49 1.81 2.61 1.38 0.40 0.08 0.06 0.03 0.06 0.10 0.06 0.03 0.02 0.02 0.05 0.04 0.06 0.08 0.03 0.07 0.20 0.32 0.53 0.41 0.25 0.22 0.13 0.12 0.18 0.35 0.62 0.83 0.66 0.76 0.62 0.86 0.42 0.14 0.04 0.02 0.04 0.04 0.06
4.33 3.23 3.51 2.99 1.22 0.77 0.72 0.38 0.19 0.09 0.13 0.18 0.12 0.10 0.09 0.09 0.06 0.06 0.12 0.12 0.11 0.12 0.19 0.34 0.25 0.25 0.26 0.31 0.38 0.31 0.21 0.32 0.92 1.35 0.78 0.50 0.32 0.94 1.14 0.63 0.31 0.14 0.11 0.11 0.10
5.80 2.84 1.60 2.15 1.20 0.45 0.45 0.44 0.24 0.27 0.25 0.21 0.52 0.34 0.27 0.21 0.15 0.13 0.22 0.20 0.21 0.24 0.35 0.55 0.36 0.16 0.07 0.08 0.20 0.31 0.27 0.24 0.45 0.55 0.80 0.30 0.37 0.62 1.13 1.22 0.78 0.28 0.15 0.15 0.14
5.33 1.83 0.87 0.44 0.37 0.48 0.60 0.43 0.18 0.16 0.22 0.31 0.44 0.18 0.21 0.26 0.18 0.24 0.34 0.39 0.36 0.34 0.47 0.68 0.54 0.25 0.12 0.04 0.06 0.11 0.08 0.21 0.26 0.23 0.30 0.19 0.42 0.66 0.81 0.92 0.70 0.56 0.30 0.22 0.19
4.24 1.26 1.20 1.00 0.42 0.64 0.51 0.26 0.23 0.25 0.21 0.18 0.27 0.30 0.27 0.32 0.31 0.31 0.29 0.30 0.35 0.43 0.59 0.64 0.77 0.61 0.35 0.10 0.29 0.30 0.06 0.08 0.15 0.23 0.35 0.45 0.38 0.33 0.44 0.59 0.44 0.44 0.39 0.34 0.37

GFSSW_prec_precacc_138.txt.gz
Total_Precipitation_Accumulation
0.03 0.03 0.04 0.03 0.03 0.02 0.01 0.01 0.01 0.01 0.01 0.01 0.01 0.01 0.01 0.01 0.01 0.00 0.00 0.00 0.00 0.00 0.00 0.00 0.00 0.00 0.00 0.00 0.00 0.00 0.00 0.00 0.00 0.03 0.10 0.24 0.18 0.09 0.11 0.18 0.29 0.39 0.68 0.95 0.89
0.03 0.03 0.03 0.03 0.02 0.01 0.01 0.01 0.01 0.01 0.01 0.01 0.01 0.01 0.01 0.01 0.00 0.00 0.00 0.00 0.00 0.00 0.00 0.00 0.00 0.00 0.00 0.00 0.00 0.00 0.00 0.00 0.01 0.02 0.10 0.16 0.21 0.09 0.13 0.42 0.67 0.42 0.82 1.15 1.09
0.03 0.03 0.03 0.03 0.03 0.01 0.01 0.01 0.02 0.02 0.01 0.01 0.01 0.01 0.01 0.00 0.00 0.00 0.00 0.00 0.00 0.00 0.00 0.00 0.00 0.00 0.00 0.00 0.00 0.00 0.00 0.00 0.02 0.10 0.02 0.05 0.08 0.06 0.12 0.57 0.92 0.94 0.74 0.83 0.72
0.02 0.02 0.02 0.04 0.02 0.02 0.01 0.02 0.02 0.02 0.01 0.01 0.01 0.01 0.01 0.00 0.00 0.00 0.00 0.00 0.00 0.00 0.00 0.00 0.00 0.00 0.00 0.00 0.00 0.00 0.00 0.00 0.01 0.05 0.01 0.04 0.06 0.04 0.21 0.45 0.36 0.38 0.38 0.31 0.40
0.04 0.03 0.03 0.04 0.03 0.04 0.03 0.03 0.02 0.02 0.02 0.01 0.01 0.02 0.00 0.00 0.00 0.00 0.00 0.00 0.00 0.00 0.00 0.00 0.00 0.00 0.00 0.00 0.00 0.00 0.00 0.00 0.00 0.00 0.03 0.01 0.02 0.04 0.04 0.10 0.04 0.11 0.19 0.28 0.41
0.16 0.16 0.13 0.10 0.08 0.07 0.04 0.03 0.02 0.03 0.02 0.02 0.01 0.02 0.00 0.00 0.00 0.00 0.00 0.00 0.00 0.00 0.00 0.00 0.00 0.00 0.00 0.00 0.00 0.00 0.00 0.00 0.00 0.00 0.01 0.02 0.02 0.06 0.21 0.06 0.02 0.06 0.22 0.38 0.35
0.47 0.40 0.30 0.20 0.14 0.10 0.07 0.04 0.03 0.04 0.03 0.02 0.02 0.02 0.00 0.00 0.00 0.00 0.00 0.00 0.00 0.00 0.00 0.00 0.00 0.00 0.00 0.00 0.00 0.00 0.00 0.00 0.00 0.00 0.02 0.07 0.12 0.13 0.13 0.01 0.01 0.03 0.10 0.11 0.17
0.67 0.49 0.33 0.23 0.18 0.14 0.13 0.08 0.07 0.07 0.05 0.04 0.02 0.02 0.00 0.00 0.00 0.00 0.00 0.00 0.00 0.00 0.00 0.00 0.00 0.00 0.00 0.00 0.00 0.00 0.00 0.01 0.01 0.00 0.01 0.12 0.46 0.07 0.08 0.08 0.04 0.03 0.07 0.06 0.02
0.53 0.42 0.31 0.22 0.17 0.16 0.15 0.13 0.13 0.11 0.07 0.03 0.02 0.01 0.00 0.00 0.00 0.00 0.00 0.00 0.00 0.00 0.00 0.00 0.00 0.00 0.00 0.00 0.00 0.00 0.00 0.00 0.01 0.01 0.01 0.10 0.45 0.09 0.08 0.22 0.09 0.04 0.01 0.00 0.00
0.43 0.37 0.29 0.24 0.23 0.21 0.18 0.17 0.16 0.08 0.04 0.02 0.04 0.01 0.00 0.00 0.00 0.00 0.00 0.00 0.00 0.00 0.00 0.00 0.00 0.00 0.00 0.00 0.01 0.00 0.00 0.00 0.00 0.00 0.00 0.01 0.12 0.23 0.06 0.09 0.30 0.05 0.02 0.00 0.00
0.31 0.35 0.38 0.37 0.34 0.30 0.22 0.17 0.13 0.09 0.04 0.01 0.01 0.00 0.00 0.00 0.00 0.00 0.00 0.00 0.00 0.01 0.00 0.00 0.00 0.00 0.00 0.00 0.00 0.00 0.00 0.00 0.00 0.00 0.00 0.00 0.02 0.10 0.15 0.04 0.06 0.04 0.14 0.05 0.01
0.18 0.15 0.16 0.21 0.25 0.18 0.11 0.13 0.07 0.08 0.07 0.02 0.02 0.02 0.00 0.00 0.01 0.00 0.00 0.00 0.01 0.05 0.03 0.01 0.01 0.00 0.00 0.00 0.00 0.00 0.00 0.00 0.00 0.00 0.00 0.00 0.00 0.02 0.07 0.01 0.01 0.01 0.14 0.03 0.01
0.20 0.18 0.21 0.28 0.31 0.20 0.05 0.06 0.02 0.01 0.05 0.00 0.00 0.00 0.00 0.02 0.04 0.00 0.00 0.00 0.01 0.04 0.09 0.04 0.01 0.00 0.01 0.03 0.02 0.01 0.00 0.00 0.00 0.00 0.00 0.01 0.01 0.02 0.02 0.02 0.06 0.02 0.00 0.00 0.00
0.42 0.35 0.33 0.36 0.34 0.08 0.13 0.06 0.03 0.02 0.23 0.03 0.00 0.00 0.00 0.00 0.01 0.00 0.00 0.00 0.01 0.03 0.08 0.14 0.02 0.02 0.02 0.02 0.01 0.04 0.00 0.01 0.01 0.02 0.05 0.01 0.08 0.09 0.03 0.01 0.04 0.02 0.01 0.05 0.07
0.61 0.47 0.45 0.30 0.13 0.12 0.08 0.02 0.01 0.09 0.50 0.02 0.00 0.00 0.00 0.00 0.00 0.00 0.00 0.00 0.02 0.02 0.11 0.10 0.04 0.06 0.05 0.02 0.02 0.04 0.01 0.03 0.02 0.02 0.05 0.02 0.06 0.10 0.02 0.01 0.02 0.04 0.04 0.12 0.14
0.93 0.60 0.44 0.33 0.19 0.17 0.17 0.20 0.37 0.69 0.53 0.01 0.00 0.00 0.00 0.00 0.00 0.00 0.00 0.00 0.01 0.17 0.13 0.04 0.06 0.04 0.03 0.01 0.04 0.04 0.05 0.02 0.01 0.06 0.20 0.04 0.05 0.08 0.04 0.07 0.09 0.15 0.14 0.15 0.17
1.06 0.97 0.72 0.34 0.27 0.20 0.21 0.54 1.10 0.74 0.08 0.01 0.00 0.00 0.00 0.00 0.00 0.00 0.00 0.00 0.02 0.08 0.07 0.04 0.07 0.02 0.00 0.01 0.01 0.08 0.21 0.27 0.22 0.16 0.10 0.01 0.09 0.08 0.15 0.28 0.33 0.43 0.57 0.45 0.31
0.89 0.97 0.81 0.43 0.35 0.40 0.82 1.27 0.92 0.11 0.01 0.00 0.00 0.00 0.00 0.00 0.00 0.00 0.00 0.01 0.00 0.00 0.05 0.09 0.06 0.00 0.00 0.00 0.03 0.03 0.11 0.20 0.27 0.17 0.11 0.13 0.20 0.33 0.69 0.47 0.74 0.73 0.85 0.81 0.66
0.82 0.84 0.78 0.40 0.34 0.64 1.70 2.05 0.39 0.05 0.01 0.01 0.04 0.03 0.00 0.00 0.00 0.00 0.00 0.01 0.00 0.00 0.03 0.05 0.03 0.00 0.00 0.00 0.04 0.17 0.17 0.09 0.33 0.27 0.24 0.12 0.05 0.36 0.95 1.29 1.10 1.10 0.93 0.68 0.62
1.31 1.19 0.84 0.31 0.60 1.56 2.66 1.34 0.05 0.01 0.00 0.03 0.13 0.20 0.01 0.01 0.02 0.01 0.02 0.03 0.04 0.02 0.00 0.06 0.13 0.02 0.00 0.01 0.01 0.09 0.23 0.63 0.81 0.51 0.24 0.03 0.27 0.76 0.78 1.15 0.99 0.96 0.87 0.70 0.49
2.34 2.35 0.90 0.39 1.68 3.24 2.86 0.76 0.03 0.01 0.01 0.04 0.05 0.10 0.03 0.02 0.03 0.06 0.10 0.16 0.11 0.09 0.05 0.05 0.10 0.08 0.05 0.03 0.05 0.11 0.33 0.61 0.72 0.33 0.36 0.25 0.84 1.22 1.12 0.89 0.56 0.56 0.51 0.39 0.20
3.33 2.63 0.75 0.93 2.81 2.89 1.23 0.18 0.02 0.03 0.03 0.04 0.04 0.05 0.04 0.02 0.02 0.03 0.05 0.11 0.05 0.07 0.17 0.22 0.23 0.10 0.02 0.00 0.02 0.09 0.17 0.47 1.01 0.81 0.67 0.60 0.90 0.81 0.56 0.40 0.12 0.02 0.04 0.09 0.08
3.75 2.27 1.49 1.82 2.62 1.42 0.47 0.11 0.06 0.03 0.06 0.10 0.06 0.03 0.02 0.02 0.05 0.05 0.06 0.09 0.07 0.09 0.22 0.32 0.53 0.41 0.25 0.22 0.13 0.12 0.18 0.35 0.62 0.83 0.66 0.76 0.62 0.86 0.42 0.14 0.04 0.02 0.04 0.04 0.06
4.33 3.23 3.51 3.00 1.22 0.77 0.72 0.42 0.22 0.09 0.13 0.19 0.14 0.10 0.09 0.09 0.06 0.07 0.12 0.12 0.13 0.19 0.33 0.41 0.29 0.26 0.26 0.31 0.38 0.31 0.21 0.32 0.92 1.36 0.79 0.50 0.32 0.94 1.15 0.64 0.32 0.14 0.11 0.11 0.10
5.80 2.84 1.60 2.15 1.20 0.46 0.45 0.44 0.25 0.28 0.25 0.21 0.62 0.38 0.27 0.21 0.15 0.15 0.23 0.20 0.23 0.29 0.47 0.78 0.62 0.33 0.12 0.10 0.21 0.31 0.27 0.25 0.46 0.56 0.81 0.30 0.37 0.62 1.14 1.23 0.80 0.29 0.17 0.18 0.16
5.34 1.83 0.87 0.44 0.37 0.48 0.61 0.45 0.18 0.16 0.23 0.31 0.48 0.19 0.22 0.27 0.19 0.26 0.37 0.40 0.38 0.35 0.52 0.83 0.78 0.49 0.28 0.21 0.16 0.15 0.09 0.23 0.31 0.26 0.33 0.20 0.43 0.66 0.81 0.93 0.72 0.59 0.36 0.27 0.22
4.24 1.26 1.20 1.00 0.42 0.65 0.52 0.26 0.24 0.26 0.22 0.18 0.30 0.32 0.29 0.33 0.33 0.32 0.30 0.31 0.36 0.45 0.60 0.66 0.80 0.68 0.42 0.22 0.43 0.36 0.07 0.09 0.16 0.25 0.37 0.46 0.38 0.33 0.44 0.59 0.44 0.45 0.41 0.36 0.39

GFSSW_prec_precacc_141.txt.gz
Total_Precipitation_Accumulation
0.03 0.03 0.04 0.03 0.03 0.02 0.02 0.01 0.01 0.01 0.01 0.01 0.01 0.01 0.01 0.01 0.01 0.00 0.00 0.00 0.00 0.00 0.00 0.00 0.00 0.00 0.00 0.00 0.00 0.00 0.00 0.00 0.00 0.03 0.10 0.24 0.18 0.09 0.11 0.18 0.29 0.39 0.68 0.95 0.89
0.03 0.03 0.03 0.03 0.03 0.02 0.02 0.01 0.01 0.01 0.01 0.01 0.01 0.01 0.01 0.01 0.00 0.00 0.00 0.00 0.00 0.00 0.00 0.00 0.00 0.00 0.00 0.00 0.00 0.00 0.00 0.00 0.01 0.02 0.10 0.16 0.21 0.09 0.13 0.42 0.67 0.42 0.82 1.15 1.09
0.03 0.03 0.03 0.03 0.03 0.02 0.01 0.01 0.02 0.02 0.01 0.01 0.01 0.01 0.01 0.00 0.00 0.00 0.00 0.00 0.00 0.00 0.00 0.00 0.00 0.00 0.00 0.00 0.00 0.00 0.00 0.00 0.02 0.10 0.02 0.05 0.08 0.06 0.12 0.57 0.92 0.94 0.74 0.83 0.72
0.02 0.02 0.02 0.04 0.02 0.02 0.01 0.02 0.02 0.02 0.01 0.01 0.01 0.01 0.01 0.00 0.00 0.00 0.00 0.00 0.00 0.00 0.00 0.00 0.00 0.00 0.00 0.00 0.00 0.00 0.00 0.00 0.01 0.05 0.01 0.04 0.06 0.04 0.21 0.45 0.36 0.38 0.38 0.31 0.40
0.04 0.03 0.03 0.04 0.03 0.04 0.03 0.03 0.02 0.02 0.02 0.01 0.01 0.02 0.00 0.00 0.00 0.00 0.00 0.00 0.00 0.00 0.00 0.00 0.00 0.00 0.00 0.00 0.00 0.00 0.00 0.00 0.00 0.00 0.03 0.01 0.02 0.04 0.04 0.10 0.04 0.11 0.19 0.28 0.41
0.17 0.16 0.13 0.12 0.10 0.07 0.05 0.03 0.02 0.03 0.02 0.02 0.01 0.02 0.00 0.00 0.00 0.00 0.00 0.00 0.00 0.00 0.00 0.00 0.00 0.00 0.00 0.00 0.00 0.00 0.00 0.00 0.00 0.00 0.01 0.02 0.02 0.06 0.21 0.06 0.02 0.06 0.22 0.38 0.35
0.53 0.41 0.30 0.21 0.15 0.11 0.07 0.04 0.03 0.04 0.03 0.02 0.02 0.02 0.00 0.00 0.00 0.00 0.00 0.00 0.00 0.00 0.00 0.00 0.00 0.00 0.00 0.00 0.00 0.00 0.00 0.00 0.00 0.00 0.02 0.07 0.12 0.13 0.13 0.01 0.01 0.03 0.10 0.11 0.17
0.76 0.55 0.36 0.24 0.18 0.15 0.13 0.08 0.07 0.07 0.05 0.04 0.02 0.02 0.00 0.00 0.00 0.00 0.00 0.00 0.00 0.00 0.00 0.00 0.00 0.00 0.00 0.00 0.00 0.00 0.00 0.01 0.01 0.00 0.01 0.12 0.46 0.07 0.08 0.08 0.04 0.03 0.07 0.06 0.02
0.58 0.45 0.32 0.23 0.17 0.16 0.15 0.13 0.13 0.11 0.07 0.03 0.02 0.01 0.00 0.00 0.00 0.00 0.00 0.00 0.00 0.00 0.00 0.00 0.00 0.00 0.00 0.00 0.00 0.00 0.00 0.00 0.01 0.01 0.01 0.10 0.45 0.09 0.08 0.22 0.09 0.04 0.01 0.00 0.00
0.46 0.39 0.30 0.25 0.23 0.22 0.19 0.18 0.16 0.08 0.04 0.02 0.04 0.01 0.00 0.00 0.00 0.00 0.00 0.00 0.00 0.00 0.00 0.00 0.00 0.00 0.00 0.00 0.01 0.00 0.00 0.00 0.00 0.00 0.00 0.01 0.12 0.23 0.06 0.09 0.30 0.05 0.02 0.00 0.00
0.31 0.36 0.39 0.39 0.36 0.33 0.24 0.18 0.14 0.10 0.04 0.01 0.01 0.00 0.00 0.00 0.00 0.00 0.00 0.00 0.00 0.01 0.00 0.00 0.00 0.00 0.00 0.00 0.00 0.00 0.00 0.00 0.00 0.00 0.00 0.00 0.02 0.10 0.15 0.04 0.06 0.04 0.14 0.05 0.01
0.19 0.16 0.17 0.22 0.25 0.18 0.11 0.13 0.09 0.11 0.09 0.02 0.02 0.02 0.00 0.00 0.01 0.00 0.00 0.00 0.01 0.05 0.03 0.01 0.01 0.00 0.00 0.00 0.00 0.00 0.00 0.00 0.00 0.00 0.00 0.00 0.00 0.02 0.07 0.01 0.01 0.01 0.14 0.03 0.01
0.20 0.18 0.21 0.28 0.31 0.20 0.05 0.06 0.02 0.01 0.06 0.00 0.00 0.00 0.00 0.02 0.04 0.00 0.00 0.00 0.01 0.04 0.09 0.04 0.01 0.00 0.01 0.03 0.02 0.01 0.00 0.00 0.00 0.00 0.00 0.01 0.01 0.02 0.02 0.02 0.06 0.02 0.00 0.00 0.00
0.42 0.35 0.33 0.36 0.34 0.08 0.13 0.06 0.03 0.02 0.23 0.03 0.00 0.00 0.00 0.00 0.01 0.00 0.00 0.00 0.01 0.03 0.08 0.14 0.02 0.02 0.02 0.02 0.01 0.04 0.00 0.01 0.01 0.02 0.05 0.01 0.08 0.09 0.03 0.01 0.04 0.02 0.01 0.05 0.07
0.62 0.49 0.45 0.30 0.13 0.12 0.08 0.02 0.01 0.09 0.50 0.02 0.00 0.00 0.00 0.00 0.00 0.00 0.00 0.00 0.02 0.02 0.11 0.10 0.04 0.06 0.05 0.02 0.02 0.04 0.01 0.03 0.02 0.02 0.05 0.02 0.06 0.10 0.02 0.01 0.02 0.04 0.04 0.12 0.14
0.94 0.64 0.46 0.33 0.19 0.17 0.17 0.20 0.37 0.69 0.53 0.01 0.00 0.00 0.00 0.00 0.00 0.00 0.00 0.00 0.01 0.17 0.13 0.04 0.06 0.04 0.03 0.01 0.04 0.04 0.05 0.02 0.01 0.06 0.20 0.04 0.05 0.08 0.04 0.07 0.09 0.15 0.14 0.15 0.17
1.13 1.11 0.75 0.34 0.27 0.20 0.21 0.54 1.11 0.75 0.08 0.01 0.00 0.00 0.00 0.00 0.00 0.00 0.00 0.00 0.02 0.08 0.07 0.04 0.07 0.02 0.00 0.01 0.01 0.08 0.21 0.27 0.22 0.16 0.10 0.01 0.09 0.08 0.15 0.28 0.33 0.43 0.57 0.45 0.31
0.90 1.20 0.96 0.47 0.39 0.40 0.82 1.29 0.94 0.11 0.01 0.00 0.00 0.00 0.00 0.00 0.00 0.00 0.00 0.01 0.00 0.00 0.05 0.09 0.06 0.00 0.00 0.00 0.03 0.03 0.11 0.20 0.27 0.17 0.11 0.13 0.20 0.33 0.69 0.47 0.74 0.73 0.85 0.81 0.66
0.82 0.88 0.86 0.50 0.43 0.68 1.72 2.09 0.40 0.05 0.01 0.01 0.04 0.03 0.00 0.00 0.00 0.00 0.00 0.01 0.00 0.00 0.03 0.05 0.03 0.00 0.00 0.00 0.04 0.17 0.17 0.09 0.33 0.27 0.25 0.12 0.05 0.36 0.95 1.29 1.10 1.10 0.93 0.68 0.62
1.31 1.19 0.84 0.32 0.72 1.75 2.94 1.43 0.05 0.01 0.00 0.03 0.13 0.20 0.01 0.01 0.02 0.01 0.02 0.03 0.04 0.02 0.00 0.06 0.13 0.02 0.00 0.01 0.01 0.09 0.23 0.63 0.82 0.55 0.25 0.03 0.27 0.76 0.78 1.15 0.99 0.96 0.87 0.70 0.49
2.34 2.35 0.90 0.40 1.74 3.56 3.16 0.84 0.03 0.01 0.01 0.04 0.05 0.10 0.03 0.02 0.03 0.06 0.10 0.16 0.11 0.09 0.05 0.05 0.10 0.08 0.05 0.03 0.05 0.11 0.33 0.61 0.72 0.33 0.36 0.25 0.84 1.22 1.12 0.89 0.56 0.56 0.51 0.39 0.20
3.33 2.63 0.75 0.94 2.85 3.01 1.32 0.20 0.02 0.03 0.03 0.04 0.04 0.05 0.04 0.02 0.02 0.03 0.05 0.12 0.05 0.07 0.17 0.22 0.23 0.10 0.02 0.00 0.02 0.09 0.17 0.47 1.02 0.82 0.67 0.60 0.90 0.81 0.56 0.40 0.12 0.02 0.04 0.09 0.08
3.75 2.27 1.49 1.83 2.62 1.42 0.48 0.12 0.06 0.03 0.06 0.10 0.06 0.03 0.02 0.02 0.05 0.05 0.07 0.10 0.07 0.10 0.23 0.32 0.56 0.44 0.25 0.22 0.13 0.12 0.18 0.35 0.62 0.83 0.67 0.76 0.62 0.86 0.42 0.14 0.04 0.02 0.04 0.04 0.06
4.33 3.23 3.51 3.00 1.22 0.77 0.72 0.42 0.22 0.09 0.13 0.19 0.16 0.10 0.09 0.09 0.06 0.07 0.12 0.13 0.14 0.20 0.35 0.49 0.47 0.49 0.39 0.33 0.38 0.31 0.21 0.32 0.92 1.37 0.80 0.50 0.32 0.94 1.15 0.64 0.32 0.14 0.11 0.11 0.10
5.80 2.84 1.60 2.15 1.20 0.46 0.45 0.44 0.25 0.28 0.25 0.21 0.63 0.42 0.28 0.23 0.16 0.15 0.23 0.20 0.23 0.32 0.51 0.84 0.82 0.56 0.34 0.24 0.29 0.35 0.28 0.25 0.46 0.57 0.84 0.31 0.37 0.62 1.14 1.24 0.80 0.29 0.17 0.18 0.16
5.34 1.83 0.87 0.44 0.37 0.48 0.61 0.45 0.18 0.16 0.23 0.31 0.48 0.19 0.23 0.29 0.19 0.26 0.37 0.40 0.38 0.36 0.54 0.87 0.90 0.62 0.39 0.39 0.30 0.21 0.10 0.24 0.34 0.34 0.44 0.29 0.46 0.66 0.81 0.94 0.73 0.60 0.36 0.27 0.25
4.24 1.26 1.20 1.00 0.42 0.65 0.52 0.26 0.24 0.26 0.22 0.18 0.30 0.32 0.30 0.33 0.33 0.32 0.31 0.32 0.37 0.46 0.64 0.71 0.84 0.75 0.47 0.30 0.53 0.40 0.08 0.11 0.20 0.32 0.48 0.63 0.47 0.37 0.47 0.62 0.44 0.45 0.41 0.36 0.39

GFSSW_prec_precacc_144.txt.gz
Total_Precipitation_Accumulation
0.03 0.03 0.04 0.03 0.03 0.02 0.02 0.01 0.01 0.01 0.01 0.01 0.01 0.01 0.01 0.01 0.01 0.00 0.00 0.00 0.00 0.00 0.00 0.00 0.00 0.00 0.00 0.00 0.00 0.00 0.00 0.00 0.00 0.03 0.10 0.24 0.18 0.09 0.11 0.18 0.29 0.39 0.68 0.95 0.89
0.03 0.03 0.03 0.03 0.03 0.02 0.02 0.01 0.01 0.01 0.01 0.01 0.01 0.01 0.01 0.01 0.00 0.00 0.00 0.00 0.00 0.00 0.00 0.00 0.00 0.00 0.00 0.00 0.00 0.00 0.00 0.00 0.01 0.02 0.10 0.16 0.21 0.09 0.13 0.42 0.67 0.42 0.82 1.15 1.09
0.03 0.03 0.03 0.03 0.03 0.02 0.02 0.01 0.02 0.02 0.01 0.01 0.01 0.01 0.01 0.00 0.00 0.00 0.00 0.00 0.00 0.00 0.00 0.00 0.00 0.00 0.00 0.00 0.00 0.00 0.00 0.00 0.02 0.10 0.02 0.05 0.08 0.06 0.12 0.57 0.92 0.94 0.74 0.83 0.72
0.02 0.02 0.02 0.04 0.02 0.02 0.01 0.02 0.02 0.02 0.01 0.01 0.01 0.01 0.01 0.00 0.00 0.00 0.00 0.00 0.00 0.00 0.00 0.00 0.00 0.00 0.00 0.00 0.00 0.00 0.00 0.00 0.01 0.05 0.01 0.04 0.06 0.04 0.21 0.45 0.36 0.38 0.38 0.31 0.40
0.04 0.03 0.03 0.04 0.03 0.04 0.03 0.03 0.02 0.02 0.02 0.01 0.01 0.02 0.00 0.00 0.00 0.00 0.00 0.00 0.00 0.00 0.00 0.00 0.00 0.00 0.00 0.00 0.00 0.00 0.00 0.00 0.00 0.00 0.03 0.01 0.02 0.04 0.04 0.10 0.04 0.11 0.19 0.28 0.41
0.17 0.16 0.14 0.12 0.10 0.08 0.05 0.03 0.02 0.03 0.02 0.02 0.01 0.02 0.00 0.00 0.00 0.00 0.00 0.00 0.00 0.00 0.00 0.00 0.00 0.00 0.00 0.00 0.00 0.00 0.00 0.00 0.00 0.00 0.01 0.02 0.02 0.06 0.21 0.06 0.02 0.06 0.22 0.38 0.35
0.55 0.43 0.31 0.21 0.15 0.12 0.08 0.04 0.03 0.04 0.03 0.02 0.02 0.02 0.00 0.00 0.00 0.00 0.00 0.00 0.00 0.00 0.00 0.00 0.00 0.00 0.00 0.00 0.00 0.00 0.00 0.00 0.00 0.00 0.02 0.07 0.12 0.13 0.13 0.01 0.01 0.03 0.10 0.11 0.17
0.93 0.64 0.41 0.27 0.20 0.15 0.13 0.08 0.07 0.07 0.05 0.04 0.02 0.02 0.00 0.00 0.00 0.00 0.00 0.00 0.00 0.00 0.00 0.00 0.00 0.00 0.00 0.00 0.00 0.00 0.00 0.01 0.01 0.00 0.01 0.12 0.46 0.07 0.08 0.08 0.04 0.03 0.07 0.06 0.02
0.66 0.49 0.34 0.24 0.18 0.16 0.15 0.13 0.13 0.11 0.07 0.03 0.02 0.01 0.00 0.00 0.00 0.00 0.00 0.00 0.00 0.00 0.00 0.00 0.00 0.00 0.00 0.00 0.00 0.00 0.00 0.00 0.01 0.01 0.01 0.10 0.45 0.09 0.08 0.22 0.09 0.04 0.01 0.00 0.00
0.48 0.40 0.31 0.25 0.23 0.22 0.19 0.18 0.16 0.08 0.04 0.02 0.04 0.01 0.00 0.00 0.00 0.00 0.00 0.00 0.00 0.00 0.00 0.00 0.00 0.00 0.00 0.00 0.01 0.00 0.00 0.00 0.00 0.00 0.00 0.01 0.12 0.23 0.06 0.09 0.30 0.05 0.02 0.00 0.00
0.32 0.36 0.40 0.39 0.36 0.33 0.24 0.18 0.14 0.10 0.04 0.01 0.01 0.00 0.00 0.00 0.00 0.00 0.00 0.00 0.00 0.01 0.00 0.00 0.00 0.00 0.00 0.00 0.00 0.00 0.00 0.00 0.00 0.00 0.00 0.00 0.02 0.10 0.15 0.04 0.06 0.04 0.14 0.05 0.01
0.19 0.16 0.18 0.23 0.25 0.19 0.11 0.13 0.09 0.11 0.09 0.02 0.02 0.02 0.00 0.00 0.01 0.00 0.00 0.00 0.01 0.05 0.03 0.01 0.01 0.00 0.00 0.00 0.00 0.00 0.00 0.00 0.00 0.00 0.00 0.00 0.00 0.02 0.07 0.01 0.01 0.01 0.14 0.03 0.01
0.20 0.18 0.22 0.30 0.32 0.21 0.05 0.06 0.02 0.01 0.06 0.00 0.00 0.00 0.00 0.02 0.04 0.00 0.00 0.00 0.01 0.04 0.09 0.04 0.01 0.00 0.01 0.03 0.02 0.01 0.00 0.00 0.00 0.00 0.00 0.01 0.01 0.02 0.02 0.02 0.06 0.02 0.00 0.00 0.00
0.42 0.35 0.33 0.36 0.34 0.08 0.13 0.06 0.03 0.02 0.23 0.03 0.00 0.00 0.00 0.00 0.01 0.00 0.00 0.00 0.01 0.03 0.08 0.14 0.02 0.02 0.02 0.02 0.01 0.04 0.00 0.01 0.01 0.02 0.05 0.01 0.08 0.09 0.03 0.01 0.04 0.02 0.01 0.05 0.07
0.65 0.50 0.45 0.30 0.13 0.12 0.08 0.02 0.01 0.09 0.50 0.02 0.00 0.00 0.00 0.00 0.00 0.00 0.00 0.00 0.02 0.02 0.11 0.10 0.04 0.06 0.05 0.02 0.02 0.04 0.01 0.03 0.02 0.02 0.05 0.02 0.06 0.10 0.02 0.01 0.02 0.04 0.04 0.12 0.14
0.96 0.64 0.46 0.33 0.19 0.17 0.17 0.20 0.37 0.69 0.53 0.01 0.00 0.00 0.00 0.00 0.00 0.00 0.00 0.00 0.01 0.17 0.13 0.04 0.06 0.04 0.03 0.01 0.04 0.04 0.05 0.02 0.01 0.06 0.20 0.04 0.05 0.08 0.04 0.07 0.09 0.15 0.14 0.15 0.17
1.13 1.13 0.77 0.35 0.27 0.20 0.21 0.54 1.11 0.75 0.08 0.01 0.00 0.00 0.00 0.00 0.00 0.00 0.00 0.00 0.02 0.08 0.07 0.04 0.07 0.02 0.00 0.01 0.01 0.08 0.21 0.27 0.22 0.16 0.10 0.01 0.09 0.08 0.15 0.28 0.33 0.43 0.57 0.45 0.31
0.91 1.26 1.07 0.49 0.39 0.40 0.82 1.30 0.94 0.11 0.01 0.00 0.00 0.00 0.00 0.00 0.00 0.00 0.00 0.01 0.00 0.00 0.05 0.09 0.06 0.00 0.00 0.00 0.03 0.03 0.11 0.21 0.27 0.17 0.11 0.13 0.20 0.33 0.69 0.47 0.74 0.73 0.85 0.81 0.66
0.83 1.01 1.09 0.66 0.52 0.70 1.73 2.14 0.40 0.05 0.01 0.01 0.04 0.03 0.00 0.00 0.00 0.00 0.00 0.01 0.00 0.00 0.03 0.05 0.03 0.00 0.00 0.00 0.04 0.18 0.17 0.10 0.34 0.30 0.27 0.12 0.05 0.36 0.95 1.29 1.10 1.10 0.93 0.68 0.62
1.32 1.25 0.94 0.45 0.92 1.92 3.04 1.45 0.05 0.01 0.00 0.03 0.13 0.20 0.01 0.01 0.02 0.01 0.02 0.03 0.04 0.02 0.00 0.06 0.13 0.02 0.00 0.01 0.01 0.09 0.23 0.63 0.87 0.70 0.29 0.04 0.27 0.76 0.78 1.15 0.99 0.96 0.87 0.70 0.49
2.34 2.36 0.92 0.43 1.91 3.83 3.42 0.88 0.03 0.01 0.01 0.04 0.05 0.10 0.03 0.02 0.03 0.06 0.10 0.16 0.11 0.09 0.05 0.05 0.10 0.08 0.05 0.03 0.05 0.11 0.33 0.61 0.73 0.36 0.41 0.27 0.84 1.22 1.12 0.89 0.56 0.56 0.51 0.39 0.20
3.33 2.63 0.75 0.96 2.89 3.12 1.41 0.22 0.02 0.03 0.03 0.04 0.04 0.05 0.04 0.02 0.02 0.03 0.05 0.12 0.05 0.07 0.17 0.22 0.26 0.11 0.02 0.00 0.02 0.09 0.17 0.48 1.04 0.87 0.70 0.62 0.92 0.81 0.56 0.40 0.12 0.02 0.04 0.09 0.08
3.75 2.27 1.49 1.84 2.63 1.43 0.49 0.12 0.06 0.03 0.06 0.10 0.06 0.03 0.02 0.02 0.05 0.05 0.07 0.10 0.07 0.10 0.23 0.33 0.62 0.53 0.27 0.22 0.13 0.12 0.18 0.35 0.62 0.87 0.76 0.84 0.66 0.86 0.42 0.14 0.04 0.02 0.04 0.04 0.06
4.33 3.23 3.51 3.00 1.22 0.77 0.72 0.42 0.22 0.09 0.13 0.19 0.16 0.10 0.09 0.09 0.06 0.07 0.12 0.13 0.14 0.20 0.35 0.49 0.48 0.53 0.47 0.38 0.42 0.33 0.21 0.32 0.94 1.41 0.85 0.52 0.33 0.94 1.15 0.64 0.32 0.14 0.11 0.11 0.10
5.80 2.84 1.60 2.15 1.20 0.46 0.45 0.44 0.25 0.28 0.25 0.21 0.64 0.42 0.28 0.23 0.16 0.15 0.23 0.20 0.23 0.32 0.51 0.84 0.82 0.59 0.39 0.29 0.34 0.42 0.32 0.26 0.48 0.60 0.90 0.36 0.38 0.62 1.14 1.24 0.80 0.29 0.17 0.18 0.16
5.34 1.83 0.87 0.44 0.37 0.48 0.61 0.45 0.18 0.16 0.23 0.32 0.48 0.19 0.23 0.30 0.19 0.26 0.37 0.41 0.39 0.37 0.55 0.88 0.90 0.63 0.41 0.40 0.33 0.24 0.11 0.25 0.36 0.38 0.53 0.40 0.50 0.67 0.84 0.97 0.74 0.60 0.36 0.27 0.25
4.24 1.26 1.20 1.00 0.42 0.65 0.52 0.26 0.24 0.26 0.22 0.18 0.30 0.33 0.30 0.33 0.33 0.32 0.31 0.32 0.37 0.46 0.65 0.73 0.86 0.76 0.48 0.30 0.54 0.41 0.08 0.12 0.20 0.36 0.58 0.72 0.51 0.40 0.55 0.67 0.45 0.45 0.42 0.36 0.39